<?xml version="1.0" encoding="UTF-8" standalone="no" ?>
<gpx xmlns="http://www.topografix.com/GPX/1/1" xmlns:xsi="http://www.w3.org/2001/XMLSchema-instance" xsi:schemaLocation="http://www.topografix.com/GPX/1/1 http://www.topografix.com/GPX/1/1/gpx.xsd" version="1.1" creator="VisuGPX - https://www.visugpx.com">
  <metadata>
    <name>VTT - Launaguet-Buzet-Launaguet 25/03/2022</name>
  </metadata>
  <trk>
    <name><![CDATA[VTT - Launaguet-Buzet-Launaguet 25/03/2022]]></name>
    <extensions>
      <line xmlns="http://www.topografix.com/GPX/gpx_style/0/2">
        <color>0000FF</color>
        <width>4</width>
      </line>
    </extensions>
    <trkseg>
      <trkpt lat="43.65603" lon="1.44672">
        <ele>179.382329</ele>
        <time>2022-03-25T14:31:04.282Z</time>
      </trkpt>
      <trkpt lat="43.65598" lon="1.44683">
        <ele>179.382329</ele>
        <time>2022-03-25T14:32:10.422Z</time>
      </trkpt>
      <trkpt lat="43.65591" lon="1.44696">
        <ele>179.382329</ele>
        <time>2022-03-25T14:32:14.455Z</time>
      </trkpt>
      <trkpt lat="43.65585" lon="1.44708">
        <ele>179.382329</ele>
        <time>2022-03-25T14:32:17.419Z</time>
      </trkpt>
      <trkpt lat="43.65578" lon="1.44722">
        <ele>179.382329</ele>
        <time>2022-03-25T14:32:20.430Z</time>
      </trkpt>
      <trkpt lat="43.6557" lon="1.44735">
        <ele>179.382329</ele>
        <time>2022-03-25T14:32:23.429Z</time>
      </trkpt>
      <trkpt lat="43.65563" lon="1.4475">
        <ele>179.382329</ele>
        <time>2022-03-25T14:32:26.422Z</time>
      </trkpt>
      <trkpt lat="43.65555" lon="1.44764">
        <ele>179.382329</ele>
        <time>2022-03-25T14:32:29.417Z</time>
      </trkpt>
      <trkpt lat="43.65548" lon="1.44778">
        <ele>179.318914</ele>
        <time>2022-03-25T14:32:32.417Z</time>
      </trkpt>
      <trkpt lat="43.65541" lon="1.44792">
        <ele>179.16619</ele>
        <time>2022-03-25T14:32:35.428Z</time>
      </trkpt>
      <trkpt lat="43.65533" lon="1.44804">
        <ele>179.020123</ele>
        <time>2022-03-25T14:32:38.422Z</time>
      </trkpt>
      <trkpt lat="43.65524" lon="1.44815">
        <ele>178.867847</ele>
        <time>2022-03-25T14:32:41.419Z</time>
      </trkpt>
      <trkpt lat="43.65518" lon="1.44825">
        <ele>178.751202</ele>
        <time>2022-03-25T14:32:43.426Z</time>
      </trkpt>
      <trkpt lat="43.65514" lon="1.44836">
        <ele>178.637176</ele>
        <time>2022-03-25T14:32:45.438Z</time>
      </trkpt>
      <trkpt lat="43.65511" lon="1.44848">
        <ele>178.52143</ele>
        <time>2022-03-25T14:32:47.425Z</time>
      </trkpt>
      <trkpt lat="43.65506" lon="1.4486">
        <ele>178.39367</ele>
        <time>2022-03-25T14:32:49.441Z</time>
      </trkpt>
      <trkpt lat="43.65501" lon="1.44872">
        <ele>178.260872</ele>
        <time>2022-03-25T14:32:51.430Z</time>
      </trkpt>
      <trkpt lat="43.65495" lon="1.44885">
        <ele>178.124134</ele>
        <time>2022-03-25T14:32:53.427Z</time>
      </trkpt>
      <trkpt lat="43.65489" lon="1.44897">
        <ele>177.996625</ele>
        <time>2022-03-25T14:32:55.446Z</time>
      </trkpt>
      <trkpt lat="43.65484" lon="1.44908">
        <ele>177.875708</ele>
        <time>2022-03-25T14:32:57.432Z</time>
      </trkpt>
      <trkpt lat="43.65479" lon="1.44919">
        <ele>177.759907</ele>
        <time>2022-03-25T14:32:59.415Z</time>
      </trkpt>
      <trkpt lat="43.65477" lon="1.44933">
        <ele>177.622922</ele>
        <time>2022-03-25T14:33:01.433Z</time>
      </trkpt>
      <trkpt lat="43.65481" lon="1.44946">
        <ele>177.499354</ele>
        <time>2022-03-25T14:33:03.427Z</time>
      </trkpt>
      <trkpt lat="43.65487" lon="1.44956">
        <ele>177.378981</ele>
        <time>2022-03-25T14:33:05.419Z</time>
      </trkpt>
      <trkpt lat="43.65493" lon="1.44966">
        <ele>177.257387</ele>
        <time>2022-03-25T14:33:07.432Z</time>
      </trkpt>
      <trkpt lat="43.655" lon="1.44977">
        <ele>177.119761</ele>
        <time>2022-03-25T14:33:19.427Z</time>
      </trkpt>
      <trkpt lat="43.65508" lon="1.44987">
        <ele>177.099581</ele>
        <time>2022-03-25T14:33:22.449Z</time>
      </trkpt>
      <trkpt lat="43.65517" lon="1.44999">
        <ele>177.088605</ele>
        <time>2022-03-25T14:33:25.419Z</time>
      </trkpt>
      <trkpt lat="43.65523" lon="1.45008">
        <ele>177.080486</ele>
        <time>2022-03-25T14:33:27.428Z</time>
      </trkpt>
      <trkpt lat="43.65529" lon="1.45018">
        <ele>177.07247</ele>
        <time>2022-03-25T14:33:29.415Z</time>
      </trkpt>
      <trkpt lat="43.65535" lon="1.45027">
        <ele>177.064414</ele>
        <time>2022-03-25T14:33:31.429Z</time>
      </trkpt>
      <trkpt lat="43.65542" lon="1.45037">
        <ele>177.055885</ele>
        <time>2022-03-25T14:33:33.414Z</time>
      </trkpt>
      <trkpt lat="43.65548" lon="1.45047">
        <ele>177.047579</ele>
        <time>2022-03-25T14:33:35.413Z</time>
      </trkpt>
      <trkpt lat="43.65556" lon="1.45058">
        <ele>177.03808</ele>
        <time>2022-03-25T14:33:37.432Z</time>
      </trkpt>
      <trkpt lat="43.65564" lon="1.45068">
        <ele>177.02867</ele>
        <time>2022-03-25T14:33:39.438Z</time>
      </trkpt>
      <trkpt lat="43.65571" lon="1.45078">
        <ele>177.019417</ele>
        <time>2022-03-25T14:33:41.425Z</time>
      </trkpt>
      <trkpt lat="43.65578" lon="1.45088">
        <ele>177.010692</ele>
        <time>2022-03-25T14:33:43.434Z</time>
      </trkpt>
      <trkpt lat="43.65586" lon="1.45098">
        <ele>177.001147</ele>
        <time>2022-03-25T14:33:45.433Z</time>
      </trkpt>
      <trkpt lat="43.65594" lon="1.4511">
        <ele>176.991008</ele>
        <time>2022-03-25T14:33:47.436Z</time>
      </trkpt>
      <trkpt lat="43.65601" lon="1.45123">
        <ele>176.981047</ele>
        <time>2022-03-25T14:33:49.422Z</time>
      </trkpt>
      <trkpt lat="43.65605" lon="1.45138">
        <ele>176.970526</ele>
        <time>2022-03-25T14:33:51.440Z</time>
      </trkpt>
      <trkpt lat="43.65602" lon="1.45154">
        <ele>176.960484</ele>
        <time>2022-03-25T14:33:53.423Z</time>
      </trkpt>
      <trkpt lat="43.65594" lon="1.45164">
        <ele>176.950846</ele>
        <time>2022-03-25T14:33:55.441Z</time>
      </trkpt>
      <trkpt lat="43.65583" lon="1.45175">
        <ele>176.956135</ele>
        <time>2022-03-25T14:33:58.437Z</time>
      </trkpt>
      <trkpt lat="43.65575" lon="1.45184">
        <ele>176.960582</ele>
        <time>2022-03-25T14:34:00.424Z</time>
      </trkpt>
      <trkpt lat="43.65567" lon="1.45192">
        <ele>176.965271</ele>
        <time>2022-03-25T14:34:02.431Z</time>
      </trkpt>
      <trkpt lat="43.65559" lon="1.45201">
        <ele>176.969997</ele>
        <time>2022-03-25T14:34:04.432Z</time>
      </trkpt>
      <trkpt lat="43.6555" lon="1.4521">
        <ele>176.974857</ele>
        <time>2022-03-25T14:34:06.426Z</time>
      </trkpt>
      <trkpt lat="43.65542" lon="1.45219">
        <ele>176.979451</ele>
        <time>2022-03-25T14:34:08.434Z</time>
      </trkpt>
      <trkpt lat="43.65535" lon="1.45228">
        <ele>176.983975</ele>
        <time>2022-03-25T14:34:10.443Z</time>
      </trkpt>
      <trkpt lat="43.65527" lon="1.45236">
        <ele>176.988354</ele>
        <time>2022-03-25T14:34:12.438Z</time>
      </trkpt>
      <trkpt lat="43.65519" lon="1.45245">
        <ele>176.993087</ele>
        <time>2022-03-25T14:34:14.420Z</time>
      </trkpt>
      <trkpt lat="43.65511" lon="1.45253">
        <ele>176.997699</ele>
        <time>2022-03-25T14:34:16.429Z</time>
      </trkpt>
      <trkpt lat="43.65503" lon="1.45261">
        <ele>177.002069</ele>
        <time>2022-03-25T14:34:18.441Z</time>
      </trkpt>
      <trkpt lat="43.65492" lon="1.45272">
        <ele>177.008228</ele>
        <time>2022-03-25T14:34:21.424Z</time>
      </trkpt>
      <trkpt lat="43.65484" lon="1.45281">
        <ele>177.012842</ele>
        <time>2022-03-25T14:34:23.421Z</time>
      </trkpt>
      <trkpt lat="43.65476" lon="1.4529">
        <ele>177.017571</ele>
        <time>2022-03-25T14:34:25.434Z</time>
      </trkpt>
      <trkpt lat="43.65468" lon="1.45299">
        <ele>177.022325</ele>
        <time>2022-03-25T14:34:27.427Z</time>
      </trkpt>
      <trkpt lat="43.65459" lon="1.45308">
        <ele>177.027003</ele>
        <time>2022-03-25T14:34:29.431Z</time>
      </trkpt>
      <trkpt lat="43.65451" lon="1.45318">
        <ele>177.034424</ele>
        <time>2022-03-25T14:34:31.439Z</time>
      </trkpt>
      <trkpt lat="43.65444" lon="1.45332">
        <ele>177.123111</ele>
        <time>2022-03-25T14:34:34.439Z</time>
      </trkpt>
      <trkpt lat="43.65441" lon="1.45348">
        <ele>177.207807</ele>
        <time>2022-03-25T14:34:37.426Z</time>
      </trkpt>
      <trkpt lat="43.6544" lon="1.45364">
        <ele>177.284978</ele>
        <time>2022-03-25T14:34:40.432Z</time>
      </trkpt>
      <trkpt lat="43.65453" lon="1.45372">
        <ele>177.378876</ele>
        <time>2022-03-25T14:34:43.427Z</time>
      </trkpt>
      <trkpt lat="43.65464" lon="1.45374">
        <ele>177.455677</ele>
        <time>2022-03-25T14:34:45.425Z</time>
      </trkpt>
      <trkpt lat="43.65475" lon="1.45377">
        <ele>177.533864</ele>
        <time>2022-03-25T14:34:47.442Z</time>
      </trkpt>
      <trkpt lat="43.65486" lon="1.45382">
        <ele>177.6137</ele>
        <time>2022-03-25T14:34:49.430Z</time>
      </trkpt>
      <trkpt lat="43.65497" lon="1.45386">
        <ele>177.690471</ele>
        <time>2022-03-25T14:34:51.427Z</time>
      </trkpt>
      <trkpt lat="43.65507" lon="1.4539">
        <ele>177.766441</ele>
        <time>2022-03-25T14:34:53.427Z</time>
      </trkpt>
      <trkpt lat="43.65517" lon="1.45394">
        <ele>177.836053</ele>
        <time>2022-03-25T14:34:55.436Z</time>
      </trkpt>
      <trkpt lat="43.65527" lon="1.45398">
        <ele>177.908328</ele>
        <time>2022-03-25T14:34:57.431Z</time>
      </trkpt>
      <trkpt lat="43.65537" lon="1.45401">
        <ele>177.980257</ele>
        <time>2022-03-25T14:34:59.422Z</time>
      </trkpt>
      <trkpt lat="43.65548" lon="1.45405">
        <ele>178.053867</ele>
        <time>2022-03-25T14:35:01.444Z</time>
      </trkpt>
      <trkpt lat="43.65558" lon="1.45408">
        <ele>178.129483</ele>
        <time>2022-03-25T14:35:03.433Z</time>
      </trkpt>
      <trkpt lat="43.65569" lon="1.45412">
        <ele>178.207337</ele>
        <time>2022-03-25T14:35:05.427Z</time>
      </trkpt>
      <trkpt lat="43.65581" lon="1.45417">
        <ele>178.270055</ele>
        <time>2022-03-25T14:35:07.432Z</time>
      </trkpt>
      <trkpt lat="43.65592" lon="1.45421">
        <ele>178.275977</ele>
        <time>2022-03-25T14:35:09.430Z</time>
      </trkpt>
      <trkpt lat="43.65603" lon="1.45425">
        <ele>178.282103</ele>
        <time>2022-03-25T14:35:11.430Z</time>
      </trkpt>
      <trkpt lat="43.65615" lon="1.45429">
        <ele>178.288225</ele>
        <time>2022-03-25T14:35:13.419Z</time>
      </trkpt>
      <trkpt lat="43.65626" lon="1.45434">
        <ele>178.294297</ele>
        <time>2022-03-25T14:35:15.434Z</time>
      </trkpt>
      <trkpt lat="43.65637" lon="1.45439">
        <ele>178.300357</ele>
        <time>2022-03-25T14:35:17.429Z</time>
      </trkpt>
      <trkpt lat="43.65648" lon="1.45444">
        <ele>178.306345</ele>
        <time>2022-03-25T14:35:19.422Z</time>
      </trkpt>
      <trkpt lat="43.65659" lon="1.45449">
        <ele>178.312359</ele>
        <time>2022-03-25T14:35:21.429Z</time>
      </trkpt>
      <trkpt lat="43.6567" lon="1.45453">
        <ele>178.318313</ele>
        <time>2022-03-25T14:35:23.436Z</time>
      </trkpt>
      <trkpt lat="43.65681" lon="1.45457">
        <ele>178.324047</ele>
        <time>2022-03-25T14:35:25.433Z</time>
      </trkpt>
      <trkpt lat="43.65691" lon="1.45462">
        <ele>178.32971</ele>
        <time>2022-03-25T14:35:27.420Z</time>
      </trkpt>
      <trkpt lat="43.65702" lon="1.45466">
        <ele>178.335352</ele>
        <time>2022-03-25T14:35:29.420Z</time>
      </trkpt>
      <trkpt lat="43.65712" lon="1.45469">
        <ele>178.341186</ele>
        <time>2022-03-25T14:35:31.426Z</time>
      </trkpt>
      <trkpt lat="43.65723" lon="1.45474">
        <ele>178.347118</ele>
        <time>2022-03-25T14:35:33.417Z</time>
      </trkpt>
      <trkpt lat="43.65733" lon="1.45478">
        <ele>178.352473</ele>
        <time>2022-03-25T14:35:35.436Z</time>
      </trkpt>
      <trkpt lat="43.65743" lon="1.45478">
        <ele>178.357291</ele>
        <time>2022-03-25T14:35:37.418Z</time>
      </trkpt>
      <trkpt lat="43.65756" lon="1.45479">
        <ele>178.345678</ele>
        <time>2022-03-25T14:35:40.427Z</time>
      </trkpt>
      <trkpt lat="43.65765" lon="1.45482">
        <ele>178.3162</ele>
        <time>2022-03-25T14:35:42.428Z</time>
      </trkpt>
      <trkpt lat="43.65774" lon="1.45485">
        <ele>178.285973</ele>
        <time>2022-03-25T14:35:44.427Z</time>
      </trkpt>
      <trkpt lat="43.65783" lon="1.45487">
        <ele>178.256283</ele>
        <time>2022-03-25T14:35:46.436Z</time>
      </trkpt>
      <trkpt lat="43.65795" lon="1.4549">
        <ele>178.217407</ele>
        <time>2022-03-25T14:35:49.431Z</time>
      </trkpt>
      <trkpt lat="43.65804" lon="1.45493">
        <ele>178.188242</ele>
        <time>2022-03-25T14:35:52.432Z</time>
      </trkpt>
      <trkpt lat="43.65814" lon="1.45494">
        <ele>178.157223</ele>
        <time>2022-03-25T14:36:03.430Z</time>
      </trkpt>
      <trkpt lat="43.65826" lon="1.45493">
        <ele>178.116214</ele>
        <time>2022-03-25T14:36:06.438Z</time>
      </trkpt>
      <trkpt lat="43.65839" lon="1.45489">
        <ele>178.073517</ele>
        <time>2022-03-25T14:36:09.422Z</time>
      </trkpt>
      <trkpt lat="43.6585" lon="1.45487">
        <ele>178.039403</ele>
        <time>2022-03-25T14:36:11.414Z</time>
      </trkpt>
      <trkpt lat="43.65862" lon="1.45484">
        <ele>177.999324</ele>
        <time>2022-03-25T14:36:13.427Z</time>
      </trkpt>
      <trkpt lat="43.65875" lon="1.45484">
        <ele>177.958366</ele>
        <time>2022-03-25T14:36:15.426Z</time>
      </trkpt>
      <trkpt lat="43.65887" lon="1.45484">
        <ele>177.918712</ele>
        <time>2022-03-25T14:36:17.431Z</time>
      </trkpt>
      <trkpt lat="43.65898" lon="1.45485">
        <ele>177.881579</ele>
        <time>2022-03-25T14:36:19.436Z</time>
      </trkpt>
      <trkpt lat="43.65908" lon="1.45486">
        <ele>177.850347</ele>
        <time>2022-03-25T14:36:21.438Z</time>
      </trkpt>
      <trkpt lat="43.6592" lon="1.4549">
        <ele>177.811756</ele>
        <time>2022-03-25T14:36:24.432Z</time>
      </trkpt>
      <trkpt lat="43.65932" lon="1.45498">
        <ele>177.707628</ele>
        <time>2022-03-25T14:36:27.426Z</time>
      </trkpt>
      <trkpt lat="43.65938" lon="1.45509">
        <ele>177.525388</ele>
        <time>2022-03-25T14:36:29.435Z</time>
      </trkpt>
      <trkpt lat="43.65947" lon="1.45518">
        <ele>177.336729</ele>
        <time>2022-03-25T14:36:31.432Z</time>
      </trkpt>
      <trkpt lat="43.65955" lon="1.4553">
        <ele>177.125867</ele>
        <time>2022-03-25T14:36:34.426Z</time>
      </trkpt>
      <trkpt lat="43.65962" lon="1.45523">
        <ele>176.963896</ele>
        <time>2022-03-25T14:36:41.410Z</time>
      </trkpt>
      <trkpt lat="43.65972" lon="1.45512">
        <ele>176.745892</ele>
        <time>2022-03-25T14:36:44.415Z</time>
      </trkpt>
      <trkpt lat="43.6598" lon="1.45505">
        <ele>176.579566</ele>
        <time>2022-03-25T14:36:46.442Z</time>
      </trkpt>
      <trkpt lat="43.65989" lon="1.45501">
        <ele>176.409337</ele>
        <time>2022-03-25T14:36:48.418Z</time>
      </trkpt>
      <trkpt lat="43.65999" lon="1.45501">
        <ele>176.227462</ele>
        <time>2022-03-25T14:36:50.421Z</time>
      </trkpt>
      <trkpt lat="43.66009" lon="1.45505">
        <ele>176.042542</ele>
        <time>2022-03-25T14:36:52.418Z</time>
      </trkpt>
      <trkpt lat="43.6602" lon="1.45511">
        <ele>175.837783</ele>
        <time>2022-03-25T14:36:54.425Z</time>
      </trkpt>
      <trkpt lat="43.66029" lon="1.45519">
        <ele>175.635296</ele>
        <time>2022-03-25T14:36:56.424Z</time>
      </trkpt>
      <trkpt lat="43.66037" lon="1.45526">
        <ele>175.468114</ele>
        <time>2022-03-25T14:36:58.450Z</time>
      </trkpt>
      <trkpt lat="43.66046" lon="1.4553">
        <ele>175.304338</ele>
        <time>2022-03-25T14:37:02.410Z</time>
      </trkpt>
      <trkpt lat="43.66057" lon="1.45533">
        <ele>175.120786</ele>
        <time>2022-03-25T14:37:06.438Z</time>
      </trkpt>
      <trkpt lat="43.66067" lon="1.45534">
        <ele>174.931008</ele>
        <time>2022-03-25T14:37:09.418Z</time>
      </trkpt>
      <trkpt lat="43.66077" lon="1.45532">
        <ele>174.760007</ele>
        <time>2022-03-25T14:37:12.419Z</time>
      </trkpt>
      <trkpt lat="43.6609" lon="1.45531">
        <ele>174.619169</ele>
        <time>2022-03-25T14:37:15.419Z</time>
      </trkpt>
      <trkpt lat="43.66098" lon="1.45537">
        <ele>174.648403</ele>
        <time>2022-03-25T14:37:17.424Z</time>
      </trkpt>
      <trkpt lat="43.66107" lon="1.45544">
        <ele>174.679488</ele>
        <time>2022-03-25T14:37:19.429Z</time>
      </trkpt>
      <trkpt lat="43.66118" lon="1.45551">
        <ele>174.714682</ele>
        <time>2022-03-25T14:37:22.412Z</time>
      </trkpt>
      <trkpt lat="43.66128" lon="1.45558">
        <ele>174.748434</ele>
        <time>2022-03-25T14:37:25.416Z</time>
      </trkpt>
      <trkpt lat="43.66138" lon="1.45569">
        <ele>174.787376</ele>
        <time>2022-03-25T14:37:28.409Z</time>
      </trkpt>
      <trkpt lat="43.66146" lon="1.45576">
        <ele>174.816302</ele>
        <time>2022-03-25T14:37:30.407Z</time>
      </trkpt>
      <trkpt lat="43.66158" lon="1.45585">
        <ele>174.855802</ele>
        <time>2022-03-25T14:37:33.421Z</time>
      </trkpt>
      <trkpt lat="43.66168" lon="1.45595">
        <ele>174.894157</ele>
        <time>2022-03-25T14:37:36.406Z</time>
      </trkpt>
      <trkpt lat="43.66175" lon="1.45605">
        <ele>174.921945</ele>
        <time>2022-03-25T14:37:38.419Z</time>
      </trkpt>
      <trkpt lat="43.66182" lon="1.45614">
        <ele>174.952744</ele>
        <time>2022-03-25T14:37:40.408Z</time>
      </trkpt>
      <trkpt lat="43.66191" lon="1.45623">
        <ele>174.984296</ele>
        <time>2022-03-25T14:37:42.413Z</time>
      </trkpt>
      <trkpt lat="43.66198" lon="1.4563">
        <ele>175.011723</ele>
        <time>2022-03-25T14:37:44.416Z</time>
      </trkpt>
      <trkpt lat="43.66208" lon="1.4563">
        <ele>175.042361</ele>
        <time>2022-03-25T14:37:46.411Z</time>
      </trkpt>
      <trkpt lat="43.66216" lon="1.4562">
        <ele>175.073948</ele>
        <time>2022-03-25T14:37:48.419Z</time>
      </trkpt>
      <trkpt lat="43.6622" lon="1.45605">
        <ele>175.107575</ele>
        <time>2022-03-25T14:37:50.427Z</time>
      </trkpt>
      <trkpt lat="43.66223" lon="1.4559">
        <ele>175.141055</ele>
        <time>2022-03-25T14:37:52.412Z</time>
      </trkpt>
      <trkpt lat="43.66226" lon="1.45575">
        <ele>175.128113</ele>
        <time>2022-03-25T14:37:54.416Z</time>
      </trkpt>
      <trkpt lat="43.6623" lon="1.4556">
        <ele>175.105885</ele>
        <time>2022-03-25T14:37:56.416Z</time>
      </trkpt>
      <trkpt lat="43.66233" lon="1.45545">
        <ele>175.083987</ele>
        <time>2022-03-25T14:37:58.410Z</time>
      </trkpt>
      <trkpt lat="43.66237" lon="1.4553">
        <ele>175.063058</ele>
        <time>2022-03-25T14:38:00.415Z</time>
      </trkpt>
      <trkpt lat="43.66242" lon="1.45517">
        <ele>175.042602</ele>
        <time>2022-03-25T14:38:02.423Z</time>
      </trkpt>
      <trkpt lat="43.66246" lon="1.45504">
        <ele>175.02296</ele>
        <time>2022-03-25T14:38:04.415Z</time>
      </trkpt>
      <trkpt lat="43.66249" lon="1.45491">
        <ele>175.004469</ele>
        <time>2022-03-25T14:38:06.410Z</time>
      </trkpt>
      <trkpt lat="43.66254" lon="1.45477">
        <ele>174.984351</ele>
        <time>2022-03-25T14:38:08.420Z</time>
      </trkpt>
      <trkpt lat="43.66258" lon="1.45464">
        <ele>174.963895</ele>
        <time>2022-03-25T14:38:10.410Z</time>
      </trkpt>
      <trkpt lat="43.66262" lon="1.45449">
        <ele>174.942894</ele>
        <time>2022-03-25T14:38:12.417Z</time>
      </trkpt>
      <trkpt lat="43.66265" lon="1.45434">
        <ele>174.921672</ele>
        <time>2022-03-25T14:38:14.407Z</time>
      </trkpt>
      <trkpt lat="43.66269" lon="1.45419">
        <ele>174.899445</ele>
        <time>2022-03-25T14:38:16.422Z</time>
      </trkpt>
      <trkpt lat="43.66274" lon="1.45404">
        <ele>174.877611</ele>
        <time>2022-03-25T14:38:18.426Z</time>
      </trkpt>
      <trkpt lat="43.66278" lon="1.4539">
        <ele>174.855972</ele>
        <time>2022-03-25T14:38:20.411Z</time>
      </trkpt>
      <trkpt lat="43.6628" lon="1.45375">
        <ele>174.834952</ele>
        <time>2022-03-25T14:38:22.427Z</time>
      </trkpt>
      <trkpt lat="43.66277" lon="1.4536">
        <ele>174.813692</ele>
        <time>2022-03-25T14:38:24.421Z</time>
      </trkpt>
      <trkpt lat="43.66272" lon="1.45345">
        <ele>174.843112</ele>
        <time>2022-03-25T14:38:26.417Z</time>
      </trkpt>
      <trkpt lat="43.66275" lon="1.45329">
        <ele>174.897473</ele>
        <time>2022-03-25T14:38:28.419Z</time>
      </trkpt>
      <trkpt lat="43.66279" lon="1.45315">
        <ele>174.947206</ele>
        <time>2022-03-25T14:38:30.430Z</time>
      </trkpt>
      <trkpt lat="43.66282" lon="1.45302">
        <ele>174.993077</ele>
        <time>2022-03-25T14:38:32.418Z</time>
      </trkpt>
      <trkpt lat="43.66283" lon="1.45285">
        <ele>175.048906</ele>
        <time>2022-03-25T14:38:35.416Z</time>
      </trkpt>
      <trkpt lat="43.6629" lon="1.45277">
        <ele>175.090219</ele>
        <time>2022-03-25T14:38:38.416Z</time>
      </trkpt>
      <trkpt lat="43.66299" lon="1.45264">
        <ele>175.151272</ele>
        <time>2022-03-25T14:38:41.413Z</time>
      </trkpt>
      <trkpt lat="43.66306" lon="1.45255">
        <ele>175.193819</ele>
        <time>2022-03-25T14:38:43.406Z</time>
      </trkpt>
      <trkpt lat="43.66318" lon="1.45252">
        <ele>175.250211</ele>
        <time>2022-03-25T14:38:46.419Z</time>
      </trkpt>
      <trkpt lat="43.66329" lon="1.45244">
        <ele>175.306269</ele>
        <time>2022-03-25T14:38:49.423Z</time>
      </trkpt>
      <trkpt lat="43.66337" lon="1.45234">
        <ele>175.35512</ele>
        <time>2022-03-25T14:38:51.405Z</time>
      </trkpt>
      <trkpt lat="43.66344" lon="1.45222">
        <ele>175.407499</ele>
        <time>2022-03-25T14:38:53.434Z</time>
      </trkpt>
      <trkpt lat="43.66352" lon="1.45209">
        <ele>175.464324</ele>
        <time>2022-03-25T14:38:55.433Z</time>
      </trkpt>
      <trkpt lat="43.66358" lon="1.45194">
        <ele>175.520226</ele>
        <time>2022-03-25T14:38:57.415Z</time>
      </trkpt>
      <trkpt lat="43.66363" lon="1.45179">
        <ele>175.576982</ele>
        <time>2022-03-25T14:38:59.411Z</time>
      </trkpt>
      <trkpt lat="43.66361" lon="1.45164">
        <ele>175.628629</ele>
        <time>2022-03-25T14:39:01.415Z</time>
      </trkpt>
      <trkpt lat="43.66365" lon="1.4515">
        <ele>175.608747</ele>
        <time>2022-03-25T14:39:04.408Z</time>
      </trkpt>
      <trkpt lat="43.66373" lon="1.45137">
        <ele>175.577254</ele>
        <time>2022-03-25T14:39:07.417Z</time>
      </trkpt>
      <trkpt lat="43.66378" lon="1.45124">
        <ele>175.549873</ele>
        <time>2022-03-25T14:39:09.419Z</time>
      </trkpt>
      <trkpt lat="43.66384" lon="1.4511">
        <ele>175.520736</ele>
        <time>2022-03-25T14:39:11.426Z</time>
      </trkpt>
      <trkpt lat="43.66391" lon="1.45095">
        <ele>175.490124</ele>
        <time>2022-03-25T14:39:13.420Z</time>
      </trkpt>
      <trkpt lat="43.66395" lon="1.4508">
        <ele>175.460672</ele>
        <time>2022-03-25T14:39:15.422Z</time>
      </trkpt>
      <trkpt lat="43.66399" lon="1.45063">
        <ele>175.426636</ele>
        <time>2022-03-25T14:39:17.430Z</time>
      </trkpt>
      <trkpt lat="43.66405" lon="1.45044">
        <ele>175.390526</ele>
        <time>2022-03-25T14:39:19.422Z</time>
      </trkpt>
      <trkpt lat="43.66411" lon="1.45026">
        <ele>175.354685</ele>
        <time>2022-03-25T14:39:21.418Z</time>
      </trkpt>
      <trkpt lat="43.66415" lon="1.45008">
        <ele>175.320503</ele>
        <time>2022-03-25T14:39:23.423Z</time>
      </trkpt>
      <trkpt lat="43.66417" lon="1.4499">
        <ele>175.287294</ele>
        <time>2022-03-25T14:39:25.430Z</time>
      </trkpt>
      <trkpt lat="43.6642" lon="1.44972">
        <ele>175.253616</ele>
        <time>2022-03-25T14:39:27.406Z</time>
      </trkpt>
      <trkpt lat="43.66426" lon="1.44955">
        <ele>175.219633</ele>
        <time>2022-03-25T14:39:29.411Z</time>
      </trkpt>
      <trkpt lat="43.66431" lon="1.44938">
        <ele>175.185526</ele>
        <time>2022-03-25T14:39:31.420Z</time>
      </trkpt>
      <trkpt lat="43.66436" lon="1.44919">
        <ele>175.217921</ele>
        <time>2022-03-25T14:39:33.427Z</time>
      </trkpt>
      <trkpt lat="43.66444" lon="1.44902">
        <ele>175.259192</ele>
        <time>2022-03-25T14:39:35.416Z</time>
      </trkpt>
      <trkpt lat="43.6645" lon="1.44886">
        <ele>175.297167</ele>
        <time>2022-03-25T14:39:37.417Z</time>
      </trkpt>
      <trkpt lat="43.66455" lon="1.44869">
        <ele>175.33413</ele>
        <time>2022-03-25T14:39:39.420Z</time>
      </trkpt>
      <trkpt lat="43.66459" lon="1.44852">
        <ele>175.372459</ele>
        <time>2022-03-25T14:39:41.430Z</time>
      </trkpt>
      <trkpt lat="43.66465" lon="1.44835">
        <ele>175.411082</ele>
        <time>2022-03-25T14:39:43.420Z</time>
      </trkpt>
      <trkpt lat="43.66472" lon="1.44819">
        <ele>175.450204</ele>
        <time>2022-03-25T14:39:45.430Z</time>
      </trkpt>
      <trkpt lat="43.66477" lon="1.44802">
        <ele>175.487858</ele>
        <time>2022-03-25T14:39:47.417Z</time>
      </trkpt>
      <trkpt lat="43.66484" lon="1.44786">
        <ele>175.525577</ele>
        <time>2022-03-25T14:39:49.422Z</time>
      </trkpt>
      <trkpt lat="43.6649" lon="1.4477">
        <ele>175.562977</ele>
        <time>2022-03-25T14:39:51.422Z</time>
      </trkpt>
      <trkpt lat="43.66496" lon="1.44754">
        <ele>175.600143</ele>
        <time>2022-03-25T14:39:53.426Z</time>
      </trkpt>
      <trkpt lat="43.66502" lon="1.44739">
        <ele>175.635275</ele>
        <time>2022-03-25T14:39:55.422Z</time>
      </trkpt>
      <trkpt lat="43.66507" lon="1.44725">
        <ele>175.668205</ele>
        <time>2022-03-25T14:39:57.424Z</time>
      </trkpt>
      <trkpt lat="43.66511" lon="1.44711">
        <ele>175.684124</ele>
        <time>2022-03-25T14:40:00.415Z</time>
      </trkpt>
      <trkpt lat="43.66521" lon="1.44716">
        <ele>175.63509</ele>
        <time>2022-03-25T14:40:06.406Z</time>
      </trkpt>
      <trkpt lat="43.66533" lon="1.44721">
        <ele>175.569388</ele>
        <time>2022-03-25T14:40:12.420Z</time>
      </trkpt>
      <trkpt lat="43.66543" lon="1.44728">
        <ele>175.513683</ele>
        <time>2022-03-25T14:40:16.435Z</time>
      </trkpt>
      <trkpt lat="43.66551" lon="1.44733">
        <ele>175.4677</ele>
        <time>2022-03-25T14:40:19.416Z</time>
      </trkpt>
      <trkpt lat="43.66561" lon="1.44746">
        <ele>175.401358</ele>
        <time>2022-03-25T14:40:22.414Z</time>
      </trkpt>
      <trkpt lat="43.66568" lon="1.44756">
        <ele>175.350906</ele>
        <time>2022-03-25T14:40:24.414Z</time>
      </trkpt>
      <trkpt lat="43.66577" lon="1.44767">
        <ele>175.291548</ele>
        <time>2022-03-25T14:40:26.426Z</time>
      </trkpt>
      <trkpt lat="43.66585" lon="1.4478">
        <ele>175.228133</ele>
        <time>2022-03-25T14:40:28.418Z</time>
      </trkpt>
      <trkpt lat="43.66594" lon="1.44792">
        <ele>175.165325</ele>
        <time>2022-03-25T14:40:30.416Z</time>
      </trkpt>
      <trkpt lat="43.66603" lon="1.44805">
        <ele>175.102434</ele>
        <time>2022-03-25T14:40:32.426Z</time>
      </trkpt>
      <trkpt lat="43.6661" lon="1.44818">
        <ele>175.041477</ele>
        <time>2022-03-25T14:40:34.429Z</time>
      </trkpt>
      <trkpt lat="43.66618" lon="1.44829">
        <ele>174.985339</ele>
        <time>2022-03-25T14:40:36.412Z</time>
      </trkpt>
      <trkpt lat="43.66625" lon="1.44841">
        <ele>174.930139</ele>
        <time>2022-03-25T14:40:38.418Z</time>
      </trkpt>
      <trkpt lat="43.66633" lon="1.44852">
        <ele>174.873123</ele>
        <time>2022-03-25T14:40:40.413Z</time>
      </trkpt>
      <trkpt lat="43.66643" lon="1.44858">
        <ele>174.818025</ele>
        <time>2022-03-25T14:40:42.418Z</time>
      </trkpt>
      <trkpt lat="43.66654" lon="1.4486">
        <ele>174.805083</ele>
        <time>2022-03-25T14:40:44.421Z</time>
      </trkpt>
      <trkpt lat="43.66667" lon="1.44859">
        <ele>174.834707</ele>
        <time>2022-03-25T14:40:46.414Z</time>
      </trkpt>
      <trkpt lat="43.66679" lon="1.44857">
        <ele>174.86262</ele>
        <time>2022-03-25T14:40:48.413Z</time>
      </trkpt>
      <trkpt lat="43.66691" lon="1.44852">
        <ele>174.893945</ele>
        <time>2022-03-25T14:40:50.423Z</time>
      </trkpt>
      <trkpt lat="43.66704" lon="1.44843">
        <ele>174.927225</ele>
        <time>2022-03-25T14:40:52.414Z</time>
      </trkpt>
      <trkpt lat="43.66716" lon="1.44833">
        <ele>174.961332</ele>
        <time>2022-03-25T14:40:54.401Z</time>
      </trkpt>
      <trkpt lat="43.66728" lon="1.44822">
        <ele>174.993781</ele>
        <time>2022-03-25T14:40:56.411Z</time>
      </trkpt>
      <trkpt lat="43.66742" lon="1.44819">
        <ele>175.028258</ele>
        <time>2022-03-25T14:40:58.408Z</time>
      </trkpt>
      <trkpt lat="43.66756" lon="1.44832">
        <ele>175.066985</ele>
        <time>2022-03-25T14:41:00.399Z</time>
      </trkpt>
      <trkpt lat="43.6676" lon="1.44851">
        <ele>175.102306</ele>
        <time>2022-03-25T14:41:02.405Z</time>
      </trkpt>
      <trkpt lat="43.66761" lon="1.4487">
        <ele>175.133476</ele>
        <time>2022-03-25T14:41:04.405Z</time>
      </trkpt>
      <trkpt lat="43.66768" lon="1.44882">
        <ele>175.159634</ele>
        <time>2022-03-25T14:41:06.407Z</time>
      </trkpt>
      <trkpt lat="43.66778" lon="1.44892">
        <ele>175.187756</ele>
        <time>2022-03-25T14:41:08.404Z</time>
      </trkpt>
      <trkpt lat="43.66788" lon="1.449">
        <ele>175.215769</ele>
        <time>2022-03-25T14:41:10.403Z</time>
      </trkpt>
      <trkpt lat="43.66799" lon="1.44907">
        <ele>175.237716</ele>
        <time>2022-03-25T14:41:12.405Z</time>
      </trkpt>
      <trkpt lat="43.6681" lon="1.44912">
        <ele>175.259958</ele>
        <time>2022-03-25T14:41:14.405Z</time>
      </trkpt>
      <trkpt lat="43.6682" lon="1.44917">
        <ele>175.281214</ele>
        <time>2022-03-25T14:41:16.404Z</time>
      </trkpt>
      <trkpt lat="43.6683" lon="1.44921">
        <ele>175.301079</ele>
        <time>2022-03-25T14:41:18.402Z</time>
      </trkpt>
      <trkpt lat="43.66842" lon="1.44924">
        <ele>175.323614</ele>
        <time>2022-03-25T14:41:20.454Z</time>
      </trkpt>
      <trkpt lat="43.66854" lon="1.44927">
        <ele>175.346621</ele>
        <time>2022-03-25T14:41:22.413Z</time>
      </trkpt>
      <trkpt lat="43.66866" lon="1.44929">
        <ele>175.369277</ele>
        <time>2022-03-25T14:41:24.411Z</time>
      </trkpt>
      <trkpt lat="43.66877" lon="1.44932">
        <ele>175.391391</ele>
        <time>2022-03-25T14:41:26.416Z</time>
      </trkpt>
      <trkpt lat="43.66889" lon="1.44935">
        <ele>175.413763</ele>
        <time>2022-03-25T14:41:28.420Z</time>
      </trkpt>
      <trkpt lat="43.669" lon="1.44937">
        <ele>175.435503</ele>
        <time>2022-03-25T14:41:30.418Z</time>
      </trkpt>
      <trkpt lat="43.66911" lon="1.4494">
        <ele>175.45666</ele>
        <time>2022-03-25T14:41:32.413Z</time>
      </trkpt>
      <trkpt lat="43.66921" lon="1.44946">
        <ele>175.476598</ele>
        <time>2022-03-25T14:41:34.415Z</time>
      </trkpt>
      <trkpt lat="43.66929" lon="1.44956">
        <ele>175.49722</ele>
        <time>2022-03-25T14:41:36.459Z</time>
      </trkpt>
      <trkpt lat="43.66934" lon="1.4497">
        <ele>175.518638</ele>
        <time>2022-03-25T14:41:38.411Z</time>
      </trkpt>
      <trkpt lat="43.66937" lon="1.44982">
        <ele>175.536714</ele>
        <time>2022-03-25T14:41:40.414Z</time>
      </trkpt>
      <trkpt lat="43.66941" lon="1.44994">
        <ele>175.554107</ele>
        <time>2022-03-25T14:41:42.415Z</time>
      </trkpt>
      <trkpt lat="43.66946" lon="1.45007">
        <ele>175.549663</ele>
        <time>2022-03-25T14:41:45.425Z</time>
      </trkpt>
      <trkpt lat="43.66953" lon="1.4502">
        <ele>175.543083</ele>
        <time>2022-03-25T14:41:50.417Z</time>
      </trkpt>
      <trkpt lat="43.66957" lon="1.45031">
        <ele>175.537684</ele>
        <time>2022-03-25T14:41:53.416Z</time>
      </trkpt>
      <trkpt lat="43.66964" lon="1.45046">
        <ele>175.530002</ele>
        <time>2022-03-25T14:41:56.400Z</time>
      </trkpt>
      <trkpt lat="43.66971" lon="1.45057">
        <ele>175.524172</ele>
        <time>2022-03-25T14:41:58.416Z</time>
      </trkpt>
      <trkpt lat="43.66976" lon="1.45068">
        <ele>175.518416</ele>
        <time>2022-03-25T14:42:00.407Z</time>
      </trkpt>
      <trkpt lat="43.66981" lon="1.45079">
        <ele>175.512818</ele>
        <time>2022-03-25T14:42:02.417Z</time>
      </trkpt>
      <trkpt lat="43.66987" lon="1.4509">
        <ele>175.507545</ele>
        <time>2022-03-25T14:42:04.415Z</time>
      </trkpt>
      <trkpt lat="43.66992" lon="1.451">
        <ele>175.502203</ele>
        <time>2022-03-25T14:42:06.423Z</time>
      </trkpt>
      <trkpt lat="43.66998" lon="1.45111">
        <ele>175.496211</ele>
        <time>2022-03-25T14:42:08.426Z</time>
      </trkpt>
      <trkpt lat="43.67004" lon="1.45123">
        <ele>175.489978</ele>
        <time>2022-03-25T14:42:10.417Z</time>
      </trkpt>
      <trkpt lat="43.6701" lon="1.45135">
        <ele>175.483872</ele>
        <time>2022-03-25T14:42:12.406Z</time>
      </trkpt>
      <trkpt lat="43.67014" lon="1.45149">
        <ele>175.477705</ele>
        <time>2022-03-25T14:42:14.426Z</time>
      </trkpt>
      <trkpt lat="43.6702" lon="1.4516">
        <ele>175.471876</ele>
        <time>2022-03-25T14:42:16.420Z</time>
      </trkpt>
      <trkpt lat="43.67029" lon="1.45162">
        <ele>175.466505</ele>
        <time>2022-03-25T14:42:18.421Z</time>
      </trkpt>
      <trkpt lat="43.67039" lon="1.45155">
        <ele>175.45982</ele>
        <time>2022-03-25T14:42:20.413Z</time>
      </trkpt>
      <trkpt lat="43.67049" lon="1.45148">
        <ele>175.453327</ele>
        <time>2022-03-25T14:42:22.416Z</time>
      </trkpt>
      <trkpt lat="43.67059" lon="1.45141">
        <ele>175.540471</ele>
        <time>2022-03-25T14:42:24.417Z</time>
      </trkpt>
      <trkpt lat="43.67069" lon="1.45143">
        <ele>175.691034</ele>
        <time>2022-03-25T14:42:26.416Z</time>
      </trkpt>
      <trkpt lat="43.67076" lon="1.45155">
        <ele>175.859354</ele>
        <time>2022-03-25T14:42:28.422Z</time>
      </trkpt>
      <trkpt lat="43.67085" lon="1.45162">
        <ele>176.005225</ele>
        <time>2022-03-25T14:42:30.421Z</time>
      </trkpt>
      <trkpt lat="43.67095" lon="1.45161">
        <ele>176.156939</ele>
        <time>2022-03-25T14:42:32.418Z</time>
      </trkpt>
      <trkpt lat="43.67104" lon="1.45154">
        <ele>176.307195</ele>
        <time>2022-03-25T14:42:34.413Z</time>
      </trkpt>
      <trkpt lat="43.67113" lon="1.45148">
        <ele>176.459788</ele>
        <time>2022-03-25T14:42:36.412Z</time>
      </trkpt>
      <trkpt lat="43.67123" lon="1.45143">
        <ele>176.618966</ele>
        <time>2022-03-25T14:42:38.421Z</time>
      </trkpt>
      <trkpt lat="43.67132" lon="1.45137">
        <ele>176.770225</ele>
        <time>2022-03-25T14:42:40.417Z</time>
      </trkpt>
      <trkpt lat="43.67141" lon="1.45133">
        <ele>176.90605</ele>
        <time>2022-03-25T14:42:42.416Z</time>
      </trkpt>
      <trkpt lat="43.67152" lon="1.45143">
        <ele>177.111085</ele>
        <time>2022-03-25T14:42:45.414Z</time>
      </trkpt>
      <trkpt lat="43.67165" lon="1.45147">
        <ele>177.311973</ele>
        <time>2022-03-25T14:42:48.407Z</time>
      </trkpt>
      <trkpt lat="43.67175" lon="1.45143">
        <ele>177.46893</ele>
        <time>2022-03-25T14:42:50.418Z</time>
      </trkpt>
      <trkpt lat="43.67186" lon="1.45137">
        <ele>177.63547</ele>
        <time>2022-03-25T14:42:52.413Z</time>
      </trkpt>
      <trkpt lat="43.67196" lon="1.45132">
        <ele>177.796285</ele>
        <time>2022-03-25T14:42:54.416Z</time>
      </trkpt>
      <trkpt lat="43.67204" lon="1.45125">
        <ele>177.937903</ele>
        <time>2022-03-25T14:42:56.415Z</time>
      </trkpt>
      <trkpt lat="43.67214" lon="1.45127">
        <ele>178.087705</ele>
        <time>2022-03-25T14:43:00.418Z</time>
      </trkpt>
      <trkpt lat="43.67224" lon="1.45137">
        <ele>178.161582</ele>
        <time>2022-03-25T14:43:04.409Z</time>
      </trkpt>
      <trkpt lat="43.67228" lon="1.45148">
        <ele>178.184576</ele>
        <time>2022-03-25T14:43:07.411Z</time>
      </trkpt>
      <trkpt lat="43.6723" lon="1.45163">
        <ele>178.21338</ele>
        <time>2022-03-25T14:43:10.419Z</time>
      </trkpt>
      <trkpt lat="43.67233" lon="1.4518">
        <ele>178.244991</ele>
        <time>2022-03-25T14:43:13.420Z</time>
      </trkpt>
      <trkpt lat="43.67236" lon="1.45192">
        <ele>178.268261</ele>
        <time>2022-03-25T14:43:15.429Z</time>
      </trkpt>
      <trkpt lat="43.6724" lon="1.45205">
        <ele>178.291947</ele>
        <time>2022-03-25T14:43:17.407Z</time>
      </trkpt>
      <trkpt lat="43.67243" lon="1.45217">
        <ele>178.31657</ele>
        <time>2022-03-25T14:43:19.421Z</time>
      </trkpt>
      <trkpt lat="43.67246" lon="1.4523">
        <ele>178.340514</ele>
        <time>2022-03-25T14:43:21.415Z</time>
      </trkpt>
      <trkpt lat="43.67249" lon="1.45242">
        <ele>178.363784</ele>
        <time>2022-03-25T14:43:23.418Z</time>
      </trkpt>
      <trkpt lat="43.67252" lon="1.45255">
        <ele>178.388578</ele>
        <time>2022-03-25T14:43:25.443Z</time>
      </trkpt>
      <trkpt lat="43.67256" lon="1.45268">
        <ele>178.41448</ele>
        <time>2022-03-25T14:43:27.421Z</time>
      </trkpt>
      <trkpt lat="43.67259" lon="1.45281">
        <ele>178.439703</ele>
        <time>2022-03-25T14:43:29.423Z</time>
      </trkpt>
      <trkpt lat="43.67263" lon="1.45295">
        <ele>178.465186</ele>
        <time>2022-03-25T14:43:31.419Z</time>
      </trkpt>
      <trkpt lat="43.67267" lon="1.45307">
        <ele>178.490213</ele>
        <time>2022-03-25T14:43:33.422Z</time>
      </trkpt>
      <trkpt lat="43.67276" lon="1.45315">
        <ele>178.516291</ele>
        <time>2022-03-25T14:43:36.420Z</time>
      </trkpt>
      <trkpt lat="43.67285" lon="1.4531">
        <ele>178.541655</ele>
        <time>2022-03-25T14:43:40.412Z</time>
      </trkpt>
      <trkpt lat="43.67298" lon="1.45303">
        <ele>178.577086</ele>
        <time>2022-03-25T14:45:53.422Z</time>
      </trkpt>
      <trkpt lat="43.67308" lon="1.45301">
        <ele>178.576175</ele>
        <time>2022-03-25T14:45:56.430Z</time>
      </trkpt>
      <trkpt lat="43.6732" lon="1.45303">
        <ele>178.534119</ele>
        <time>2022-03-25T14:45:59.419Z</time>
      </trkpt>
      <trkpt lat="43.67329" lon="1.45303">
        <ele>178.503088</ele>
        <time>2022-03-25T14:46:01.432Z</time>
      </trkpt>
      <trkpt lat="43.6734" lon="1.45305">
        <ele>178.467244</ele>
        <time>2022-03-25T14:46:03.439Z</time>
      </trkpt>
      <trkpt lat="43.6735" lon="1.45308">
        <ele>178.429964</ele>
        <time>2022-03-25T14:46:05.430Z</time>
      </trkpt>
      <trkpt lat="43.67361" lon="1.45312">
        <ele>178.392409</ele>
        <time>2022-03-25T14:46:07.440Z</time>
      </trkpt>
      <trkpt lat="43.67371" lon="1.45313">
        <ele>178.356032</ele>
        <time>2022-03-25T14:46:09.430Z</time>
      </trkpt>
      <trkpt lat="43.67382" lon="1.45312">
        <ele>178.316887</ele>
        <time>2022-03-25T14:46:11.399Z</time>
      </trkpt>
      <trkpt lat="43.67393" lon="1.45306">
        <ele>178.276457</ele>
        <time>2022-03-25T14:46:13.437Z</time>
      </trkpt>
      <trkpt lat="43.67404" lon="1.45304">
        <ele>178.240614</ele>
        <time>2022-03-25T14:46:15.432Z</time>
      </trkpt>
      <trkpt lat="43.67412" lon="1.45313">
        <ele>178.20402</ele>
        <time>2022-03-25T14:46:17.431Z</time>
      </trkpt>
      <trkpt lat="43.67418" lon="1.45325">
        <ele>178.166372</ele>
        <time>2022-03-25T14:46:19.431Z</time>
      </trkpt>
      <trkpt lat="43.67425" lon="1.45336">
        <ele>178.130828</ele>
        <time>2022-03-25T14:46:21.431Z</time>
      </trkpt>
      <trkpt lat="43.67432" lon="1.45344">
        <ele>178.099264</ele>
        <time>2022-03-25T14:46:23.444Z</time>
      </trkpt>
      <trkpt lat="43.67442" lon="1.4535">
        <ele>178.061856</ele>
        <time>2022-03-25T14:46:26.441Z</time>
      </trkpt>
      <trkpt lat="43.67452" lon="1.45356">
        <ele>178.023875</ele>
        <time>2022-03-25T14:46:29.433Z</time>
      </trkpt>
      <trkpt lat="43.6746" lon="1.45363">
        <ele>177.992108</ele>
        <time>2022-03-25T14:46:31.433Z</time>
      </trkpt>
      <trkpt lat="43.67466" lon="1.45372">
        <ele>177.963573</ele>
        <time>2022-03-25T14:46:33.440Z</time>
      </trkpt>
      <trkpt lat="43.67477" lon="1.45375">
        <ele>177.934207</ele>
        <time>2022-03-25T14:46:36.428Z</time>
      </trkpt>
      <trkpt lat="43.67486" lon="1.45384">
        <ele>177.907126</ele>
        <time>2022-03-25T14:46:39.417Z</time>
      </trkpt>
      <trkpt lat="43.67499" lon="1.45389">
        <ele>177.872912</ele>
        <time>2022-03-25T14:46:42.419Z</time>
      </trkpt>
      <trkpt lat="43.67507" lon="1.45384">
        <ele>177.847839</ele>
        <time>2022-03-25T14:46:44.424Z</time>
      </trkpt>
      <trkpt lat="43.67515" lon="1.45373">
        <ele>177.820468</ele>
        <time>2022-03-25T14:46:46.442Z</time>
      </trkpt>
      <trkpt lat="43.67521" lon="1.45363">
        <ele>177.794819</ele>
        <time>2022-03-25T14:46:48.429Z</time>
      </trkpt>
      <trkpt lat="43.67528" lon="1.45354">
        <ele>177.770923</ele>
        <time>2022-03-25T14:46:50.428Z</time>
      </trkpt>
      <trkpt lat="43.67536" lon="1.45348">
        <ele>177.746377</ele>
        <time>2022-03-25T14:46:52.431Z</time>
      </trkpt>
      <trkpt lat="43.67546" lon="1.45343">
        <ele>177.721036</ele>
        <time>2022-03-25T14:46:54.432Z</time>
      </trkpt>
      <trkpt lat="43.67555" lon="1.45338">
        <ele>177.695746</ele>
        <time>2022-03-25T14:46:56.433Z</time>
      </trkpt>
      <trkpt lat="43.67564" lon="1.45332">
        <ele>177.66896</ele>
        <time>2022-03-25T14:46:58.420Z</time>
      </trkpt>
      <trkpt lat="43.67574" lon="1.45326">
        <ele>177.641787</ele>
        <time>2022-03-25T14:47:00.428Z</time>
      </trkpt>
      <trkpt lat="43.67583" lon="1.4532">
        <ele>177.615842</ele>
        <time>2022-03-25T14:47:02.428Z</time>
      </trkpt>
      <trkpt lat="43.67592" lon="1.45315">
        <ele>177.590992</ele>
        <time>2022-03-25T14:47:04.427Z</time>
      </trkpt>
      <trkpt lat="43.67601" lon="1.4531">
        <ele>177.566796</ele>
        <time>2022-03-25T14:47:06.415Z</time>
      </trkpt>
      <trkpt lat="43.6761" lon="1.45307">
        <ele>177.542897</ele>
        <time>2022-03-25T14:47:08.433Z</time>
      </trkpt>
      <trkpt lat="43.6762" lon="1.45312">
        <ele>177.514335</ele>
        <time>2022-03-25T14:47:11.418Z</time>
      </trkpt>
      <trkpt lat="43.67633" lon="1.45314">
        <ele>177.512459</ele>
        <time>2022-03-25T14:47:15.419Z</time>
      </trkpt>
      <trkpt lat="43.67646" lon="1.45314">
        <ele>177.516977</ele>
        <time>2022-03-25T14:47:18.445Z</time>
      </trkpt>
      <trkpt lat="43.67657" lon="1.45311">
        <ele>177.520843</ele>
        <time>2022-03-25T14:47:21.423Z</time>
      </trkpt>
      <trkpt lat="43.67669" lon="1.45316">
        <ele>177.525076</ele>
        <time>2022-03-25T14:47:24.420Z</time>
      </trkpt>
      <trkpt lat="43.67678" lon="1.45319">
        <ele>177.528339</ele>
        <time>2022-03-25T14:47:26.425Z</time>
      </trkpt>
      <trkpt lat="43.67687" lon="1.45322">
        <ele>177.531471</ele>
        <time>2022-03-25T14:47:28.428Z</time>
      </trkpt>
      <trkpt lat="43.67699" lon="1.45323">
        <ele>177.535836</ele>
        <time>2022-03-25T14:47:31.431Z</time>
      </trkpt>
      <trkpt lat="43.67708" lon="1.45327">
        <ele>177.539058</ele>
        <time>2022-03-25T14:47:34.423Z</time>
      </trkpt>
      <trkpt lat="43.67717" lon="1.45332">
        <ele>177.542342</ele>
        <time>2022-03-25T14:47:37.421Z</time>
      </trkpt>
      <trkpt lat="43.67728" lon="1.4534">
        <ele>177.546642</ele>
        <time>2022-03-25T14:47:40.416Z</time>
      </trkpt>
      <trkpt lat="43.67736" lon="1.45347">
        <ele>177.549896</ele>
        <time>2022-03-25T14:47:42.419Z</time>
      </trkpt>
      <trkpt lat="43.67744" lon="1.45353">
        <ele>177.553271</ele>
        <time>2022-03-25T14:47:44.432Z</time>
      </trkpt>
      <trkpt lat="43.67754" lon="1.45358">
        <ele>177.556771</ele>
        <time>2022-03-25T14:47:46.430Z</time>
      </trkpt>
      <trkpt lat="43.67763" lon="1.45366">
        <ele>177.560363</ele>
        <time>2022-03-25T14:47:48.411Z</time>
      </trkpt>
      <trkpt lat="43.67772" lon="1.45373">
        <ele>177.564109</ele>
        <time>2022-03-25T14:47:50.431Z</time>
      </trkpt>
      <trkpt lat="43.67781" lon="1.4538">
        <ele>177.567704</ele>
        <time>2022-03-25T14:47:52.427Z</time>
      </trkpt>
      <trkpt lat="43.6779" lon="1.45387">
        <ele>177.5839</ele>
        <time>2022-03-25T14:47:54.425Z</time>
      </trkpt>
      <trkpt lat="43.67799" lon="1.45394">
        <ele>177.774559</ele>
        <time>2022-03-25T14:47:56.426Z</time>
      </trkpt>
      <trkpt lat="43.67808" lon="1.45398">
        <ele>177.950508</ele>
        <time>2022-03-25T14:47:58.421Z</time>
      </trkpt>
      <trkpt lat="43.67816" lon="1.45407">
        <ele>178.149101</ele>
        <time>2022-03-25T14:48:00.425Z</time>
      </trkpt>
      <trkpt lat="43.67824" lon="1.45417">
        <ele>178.343413</ele>
        <time>2022-03-25T14:48:02.416Z</time>
      </trkpt>
      <trkpt lat="43.67833" lon="1.45424">
        <ele>178.534528</ele>
        <time>2022-03-25T14:48:04.412Z</time>
      </trkpt>
      <trkpt lat="43.67842" lon="1.45431">
        <ele>178.730438</ele>
        <time>2022-03-25T14:48:06.421Z</time>
      </trkpt>
      <trkpt lat="43.67854" lon="1.45437">
        <ele>178.964794</ele>
        <time>2022-03-25T14:48:09.419Z</time>
      </trkpt>
      <trkpt lat="43.67865" lon="1.45433">
        <ele>179.193227</ele>
        <time>2022-03-25T14:48:12.416Z</time>
      </trkpt>
      <trkpt lat="43.67873" lon="1.45426">
        <ele>179.374923</ele>
        <time>2022-03-25T14:48:14.424Z</time>
      </trkpt>
      <trkpt lat="43.67882" lon="1.45418">
        <ele>179.564944</ele>
        <time>2022-03-25T14:48:16.416Z</time>
      </trkpt>
      <trkpt lat="43.6789" lon="1.4541">
        <ele>179.750315</ele>
        <time>2022-03-25T14:48:18.426Z</time>
      </trkpt>
      <trkpt lat="43.67899" lon="1.45403">
        <ele>179.951575</ele>
        <time>2022-03-25T14:48:20.418Z</time>
      </trkpt>
      <trkpt lat="43.67909" lon="1.45395">
        <ele>180.161927</ele>
        <time>2022-03-25T14:48:22.410Z</time>
      </trkpt>
      <trkpt lat="43.67919" lon="1.45388">
        <ele>180.370335</ele>
        <time>2022-03-25T14:48:24.425Z</time>
      </trkpt>
      <trkpt lat="43.67928" lon="1.45382">
        <ele>180.564821</ele>
        <time>2022-03-25T14:48:26.419Z</time>
      </trkpt>
      <trkpt lat="43.67936" lon="1.45375">
        <ele>180.738689</ele>
        <time>2022-03-25T14:48:28.419Z</time>
      </trkpt>
      <trkpt lat="43.67945" lon="1.4537">
        <ele>180.923463</ele>
        <time>2022-03-25T14:48:31.422Z</time>
      </trkpt>
      <trkpt lat="43.67953" lon="1.45362">
        <ele>181.000449</ele>
        <time>2022-03-25T14:48:35.407Z</time>
      </trkpt>
      <trkpt lat="43.6796" lon="1.45351">
        <ele>181.064412</ele>
        <time>2022-03-25T14:48:38.405Z</time>
      </trkpt>
      <trkpt lat="43.67967" lon="1.4534">
        <ele>181.126383</ele>
        <time>2022-03-25T14:48:42.432Z</time>
      </trkpt>
      <trkpt lat="43.67977" lon="1.4534">
        <ele>181.186822</ele>
        <time>2022-03-25T14:48:46.433Z</time>
      </trkpt>
      <trkpt lat="43.67985" lon="1.45338">
        <ele>181.241613</ele>
        <time>2022-03-25T14:48:48.416Z</time>
      </trkpt>
      <trkpt lat="43.67996" lon="1.45332">
        <ele>181.309005</ele>
        <time>2022-03-25T14:48:50.425Z</time>
      </trkpt>
      <trkpt lat="43.68007" lon="1.45326">
        <ele>181.378721</ele>
        <time>2022-03-25T14:48:52.423Z</time>
      </trkpt>
      <trkpt lat="43.68016" lon="1.45321">
        <ele>181.442711</ele>
        <time>2022-03-25T14:48:54.405Z</time>
      </trkpt>
      <trkpt lat="43.68026" lon="1.45315">
        <ele>181.504179</ele>
        <time>2022-03-25T14:48:56.404Z</time>
      </trkpt>
      <trkpt lat="43.68034" lon="1.45309">
        <ele>181.562343</ele>
        <time>2022-03-25T14:48:58.416Z</time>
      </trkpt>
      <trkpt lat="43.68046" lon="1.45303">
        <ele>181.639154</ele>
        <time>2022-03-25T14:49:01.433Z</time>
      </trkpt>
      <trkpt lat="43.68055" lon="1.45301">
        <ele>181.695497</ele>
        <time>2022-03-25T14:49:03.414Z</time>
      </trkpt>
      <trkpt lat="43.68065" lon="1.45293">
        <ele>181.766268</ele>
        <time>2022-03-25T14:49:05.424Z</time>
      </trkpt>
      <trkpt lat="43.68074" lon="1.45283">
        <ele>181.835562</ele>
        <time>2022-03-25T14:49:07.431Z</time>
      </trkpt>
      <trkpt lat="43.68084" lon="1.45273">
        <ele>181.905658</ele>
        <time>2022-03-25T14:49:09.417Z</time>
      </trkpt>
      <trkpt lat="43.68094" lon="1.45264">
        <ele>181.976503</ele>
        <time>2022-03-25T14:49:11.422Z</time>
      </trkpt>
      <trkpt lat="43.68103" lon="1.45256">
        <ele>182.030578</ele>
        <time>2022-03-25T14:49:13.411Z</time>
      </trkpt>
      <trkpt lat="43.68113" lon="1.45247">
        <ele>181.995822</ele>
        <time>2022-03-25T14:49:15.438Z</time>
      </trkpt>
      <trkpt lat="43.68123" lon="1.45238">
        <ele>181.959986</ele>
        <time>2022-03-25T14:49:17.432Z</time>
      </trkpt>
      <trkpt lat="43.68134" lon="1.45229">
        <ele>181.923634</ele>
        <time>2022-03-25T14:49:19.415Z</time>
      </trkpt>
      <trkpt lat="43.68144" lon="1.4522">
        <ele>181.887532</ele>
        <time>2022-03-25T14:49:21.424Z</time>
      </trkpt>
      <trkpt lat="43.68153" lon="1.4521">
        <ele>181.853034</ele>
        <time>2022-03-25T14:49:23.411Z</time>
      </trkpt>
      <trkpt lat="43.68162" lon="1.45204">
        <ele>181.824771</ele>
        <time>2022-03-25T14:49:25.423Z</time>
      </trkpt>
      <trkpt lat="43.6817" lon="1.45217">
        <ele>181.788221</ele>
        <time>2022-03-25T14:49:28.411Z</time>
      </trkpt>
      <trkpt lat="43.68173" lon="1.4523">
        <ele>181.757693</ele>
        <time>2022-03-25T14:49:31.423Z</time>
      </trkpt>
      <trkpt lat="43.68175" lon="1.45246">
        <ele>181.722947</ele>
        <time>2022-03-25T14:52:30.419Z</time>
      </trkpt>
      <trkpt lat="43.68178" lon="1.45258">
        <ele>181.695836</ele>
        <time>2022-03-25T14:52:33.418Z</time>
      </trkpt>
      <trkpt lat="43.68182" lon="1.45271">
        <ele>181.66571</ele>
        <time>2022-03-25T14:52:36.413Z</time>
      </trkpt>
      <trkpt lat="43.68186" lon="1.45287">
        <ele>181.629736</ele>
        <time>2022-03-25T14:52:39.407Z</time>
      </trkpt>
      <trkpt lat="43.6819" lon="1.45303">
        <ele>181.592455</ele>
        <time>2022-03-25T14:52:42.412Z</time>
      </trkpt>
      <trkpt lat="43.68194" lon="1.45319">
        <ele>181.558069</ele>
        <time>2022-03-25T14:52:45.398Z</time>
      </trkpt>
      <trkpt lat="43.68197" lon="1.45332">
        <ele>181.526901</ele>
        <time>2022-03-25T14:52:48.418Z</time>
      </trkpt>
      <trkpt lat="43.682" lon="1.45348">
        <ele>181.530538</ele>
        <time>2022-03-25T14:52:51.426Z</time>
      </trkpt>
      <trkpt lat="43.68204" lon="1.45363">
        <ele>181.617441</ele>
        <time>2022-03-25T14:52:54.433Z</time>
      </trkpt>
      <trkpt lat="43.68209" lon="1.45379">
        <ele>181.706141</ele>
        <time>2022-03-25T14:52:57.427Z</time>
      </trkpt>
      <trkpt lat="43.68214" lon="1.45394">
        <ele>181.79745</ele>
        <time>2022-03-25T14:53:00.414Z</time>
      </trkpt>
      <trkpt lat="43.68218" lon="1.45411">
        <ele>181.893164</ele>
        <time>2022-03-25T14:53:03.432Z</time>
      </trkpt>
      <trkpt lat="43.68221" lon="1.45427">
        <ele>181.980443</ele>
        <time>2022-03-25T14:53:06.410Z</time>
      </trkpt>
      <trkpt lat="43.68227" lon="1.45443">
        <ele>182.077276</ele>
        <time>2022-03-25T14:53:09.411Z</time>
      </trkpt>
      <trkpt lat="43.68232" lon="1.45456">
        <ele>182.154514</ele>
        <time>2022-03-25T14:53:11.416Z</time>
      </trkpt>
      <trkpt lat="43.68236" lon="1.45468">
        <ele>182.227149</ele>
        <time>2022-03-25T14:53:13.431Z</time>
      </trkpt>
      <trkpt lat="43.68239" lon="1.45481">
        <ele>182.297687</ele>
        <time>2022-03-25T14:53:15.445Z</time>
      </trkpt>
      <trkpt lat="43.68243" lon="1.45492">
        <ele>182.36573</ele>
        <time>2022-03-25T14:53:17.425Z</time>
      </trkpt>
      <trkpt lat="43.68246" lon="1.45505">
        <ele>182.436037</ele>
        <time>2022-03-25T14:53:19.420Z</time>
      </trkpt>
      <trkpt lat="43.68249" lon="1.45517">
        <ele>182.50531</ele>
        <time>2022-03-25T14:53:21.425Z</time>
      </trkpt>
      <trkpt lat="43.68253" lon="1.45529">
        <ele>182.573851</ele>
        <time>2022-03-25T14:53:23.423Z</time>
      </trkpt>
      <trkpt lat="43.68256" lon="1.45541">
        <ele>182.644378</ele>
        <time>2022-03-25T14:53:25.430Z</time>
      </trkpt>
      <trkpt lat="43.68259" lon="1.45554">
        <ele>182.71642</ele>
        <time>2022-03-25T14:53:27.425Z</time>
      </trkpt>
      <trkpt lat="43.68262" lon="1.45566">
        <ele>182.787251</ele>
        <time>2022-03-25T14:53:29.426Z</time>
      </trkpt>
      <trkpt lat="43.68265" lon="1.4558">
        <ele>182.886858</ele>
        <time>2022-03-25T14:53:31.417Z</time>
      </trkpt>
      <trkpt lat="43.68269" lon="1.45593">
        <ele>183.031025</ele>
        <time>2022-03-25T14:53:33.426Z</time>
      </trkpt>
      <trkpt lat="43.68272" lon="1.45607">
        <ele>183.1771</ele>
        <time>2022-03-25T14:53:35.430Z</time>
      </trkpt>
      <trkpt lat="43.68274" lon="1.45621">
        <ele>183.317618</ele>
        <time>2022-03-25T14:53:37.424Z</time>
      </trkpt>
      <trkpt lat="43.68276" lon="1.45635">
        <ele>183.456593</ele>
        <time>2022-03-25T14:53:39.427Z</time>
      </trkpt>
      <trkpt lat="43.68278" lon="1.45649">
        <ele>183.598526</ele>
        <time>2022-03-25T14:53:41.431Z</time>
      </trkpt>
      <trkpt lat="43.68279" lon="1.45662">
        <ele>183.732122</ele>
        <time>2022-03-25T14:53:43.426Z</time>
      </trkpt>
      <trkpt lat="43.6828" lon="1.45674">
        <ele>183.858392</ele>
        <time>2022-03-25T14:53:45.427Z</time>
      </trkpt>
      <trkpt lat="43.68281" lon="1.45687">
        <ele>183.989042</ele>
        <time>2022-03-25T14:53:47.414Z</time>
      </trkpt>
      <trkpt lat="43.68281" lon="1.45701">
        <ele>184.124341</ele>
        <time>2022-03-25T14:53:49.424Z</time>
      </trkpt>
      <trkpt lat="43.6828" lon="1.45714">
        <ele>184.255408</ele>
        <time>2022-03-25T14:53:51.427Z</time>
      </trkpt>
      <trkpt lat="43.68279" lon="1.45727">
        <ele>184.38718</ele>
        <time>2022-03-25T14:53:53.432Z</time>
      </trkpt>
      <trkpt lat="43.68277" lon="1.45744">
        <ele>184.559671</ele>
        <time>2022-03-25T14:53:56.431Z</time>
      </trkpt>
      <trkpt lat="43.68277" lon="1.45759">
        <ele>184.712938</ele>
        <time>2022-03-25T14:53:59.428Z</time>
      </trkpt>
      <trkpt lat="43.68277" lon="1.45777">
        <ele>184.889229</ele>
        <time>2022-03-25T14:54:02.426Z</time>
      </trkpt>
      <trkpt lat="43.68276" lon="1.45792">
        <ele>185.037847</ele>
        <time>2022-03-25T14:54:04.427Z</time>
      </trkpt>
      <trkpt lat="43.68275" lon="1.45807">
        <ele>185.18982</ele>
        <time>2022-03-25T14:54:06.420Z</time>
      </trkpt>
      <trkpt lat="43.68274" lon="1.45821">
        <ele>185.348712</ele>
        <time>2022-03-25T14:54:08.427Z</time>
      </trkpt>
      <trkpt lat="43.68273" lon="1.45835">
        <ele>185.764367</ele>
        <time>2022-03-25T14:54:10.427Z</time>
      </trkpt>
      <trkpt lat="43.68273" lon="1.45849">
        <ele>186.164127</ele>
        <time>2022-03-25T14:54:12.433Z</time>
      </trkpt>
      <trkpt lat="43.68271" lon="1.45862">
        <ele>186.572239</ele>
        <time>2022-03-25T14:54:14.424Z</time>
      </trkpt>
      <trkpt lat="43.6827" lon="1.45876">
        <ele>186.984343</ele>
        <time>2022-03-25T14:54:16.439Z</time>
      </trkpt>
      <trkpt lat="43.68268" lon="1.45892">
        <ele>187.453228</ele>
        <time>2022-03-25T14:54:19.413Z</time>
      </trkpt>
      <trkpt lat="43.68268" lon="1.45908">
        <ele>187.920482</ele>
        <time>2022-03-25T14:54:23.426Z</time>
      </trkpt>
      <trkpt lat="43.68267" lon="1.45925">
        <ele>188.426953</ele>
        <time>2022-03-25T14:54:26.438Z</time>
      </trkpt>
      <trkpt lat="43.68265" lon="1.45937">
        <ele>188.804589</ele>
        <time>2022-03-25T14:54:28.431Z</time>
      </trkpt>
      <trkpt lat="43.68264" lon="1.4595">
        <ele>189.180983</ele>
        <time>2022-03-25T14:54:30.425Z</time>
      </trkpt>
      <trkpt lat="43.68264" lon="1.45963">
        <ele>189.568736</ele>
        <time>2022-03-25T14:54:32.430Z</time>
      </trkpt>
      <trkpt lat="43.68264" lon="1.45976">
        <ele>189.95025</ele>
        <time>2022-03-25T14:54:34.443Z</time>
      </trkpt>
      <trkpt lat="43.68265" lon="1.45989">
        <ele>190.333143</ele>
        <time>2022-03-25T14:54:36.439Z</time>
      </trkpt>
      <trkpt lat="43.68266" lon="1.46001">
        <ele>190.715101</ele>
        <time>2022-03-25T14:54:38.427Z</time>
      </trkpt>
      <trkpt lat="43.68269" lon="1.46013">
        <ele>191.088397</ele>
        <time>2022-03-25T14:54:40.433Z</time>
      </trkpt>
      <trkpt lat="43.68273" lon="1.4603">
        <ele>191.595972</ele>
        <time>2022-03-25T14:54:43.417Z</time>
      </trkpt>
      <trkpt lat="43.68277" lon="1.46046">
        <ele>192.108073</ele>
        <time>2022-03-25T14:54:46.432Z</time>
      </trkpt>
      <trkpt lat="43.68279" lon="1.46062">
        <ele>192.597703</ele>
        <time>2022-03-25T14:54:49.426Z</time>
      </trkpt>
      <trkpt lat="43.6828" lon="1.4608">
        <ele>192.883824</ele>
        <time>2022-03-25T14:54:52.434Z</time>
      </trkpt>
      <trkpt lat="43.6828" lon="1.46098">
        <ele>193.133161</ele>
        <time>2022-03-25T14:54:55.433Z</time>
      </trkpt>
      <trkpt lat="43.68281" lon="1.4611">
        <ele>193.306707</ele>
        <time>2022-03-25T14:54:57.431Z</time>
      </trkpt>
      <trkpt lat="43.68284" lon="1.46126">
        <ele>193.536989</ele>
        <time>2022-03-25T14:55:00.439Z</time>
      </trkpt>
      <trkpt lat="43.68283" lon="1.46143">
        <ele>193.772404</ele>
        <time>2022-03-25T14:55:03.410Z</time>
      </trkpt>
      <trkpt lat="43.68281" lon="1.4616">
        <ele>194.006408</ele>
        <time>2022-03-25T14:55:06.424Z</time>
      </trkpt>
      <trkpt lat="43.68285" lon="1.46148">
        <ele>194.190414</ele>
        <time>2022-03-25T14:55:14.435Z</time>
      </trkpt>
      <trkpt lat="43.68288" lon="1.46135">
        <ele>194.372362</ele>
        <time>2022-03-25T14:55:18.428Z</time>
      </trkpt>
      <trkpt lat="43.68296" lon="1.46142">
        <ele>194.559796</ele>
        <time>2022-03-25T14:55:22.424Z</time>
      </trkpt>
      <trkpt lat="43.68304" lon="1.46157">
        <ele>194.810422</ele>
        <time>2022-03-25T14:55:25.434Z</time>
      </trkpt>
      <trkpt lat="43.6831" lon="1.46168">
        <ele>195.007894</ele>
        <time>2022-03-25T14:55:27.424Z</time>
      </trkpt>
      <trkpt lat="43.68317" lon="1.46181">
        <ele>195.225968</ele>
        <time>2022-03-25T14:55:29.430Z</time>
      </trkpt>
      <trkpt lat="43.68325" lon="1.46194">
        <ele>195.469174</ele>
        <time>2022-03-25T14:55:31.423Z</time>
      </trkpt>
      <trkpt lat="43.68333" lon="1.46209">
        <ele>195.730186</ele>
        <time>2022-03-25T14:55:33.424Z</time>
      </trkpt>
      <trkpt lat="43.68342" lon="1.46224">
        <ele>196.003019</ele>
        <time>2022-03-25T14:55:35.415Z</time>
      </trkpt>
      <trkpt lat="43.68352" lon="1.46235">
        <ele>196.158786</ele>
        <time>2022-03-25T14:55:37.413Z</time>
      </trkpt>
      <trkpt lat="43.68359" lon="1.46245">
        <ele>196.185461</ele>
        <time>2022-03-25T14:55:40.420Z</time>
      </trkpt>
      <trkpt lat="43.68366" lon="1.46254">
        <ele>196.211031</ele>
        <time>2022-03-25T14:55:44.407Z</time>
      </trkpt>
      <trkpt lat="43.68375" lon="1.46258">
        <ele>196.235432</ele>
        <time>2022-03-25T14:55:47.416Z</time>
      </trkpt>
      <trkpt lat="43.68385" lon="1.46262">
        <ele>196.263579</ele>
        <time>2022-03-25T14:55:50.418Z</time>
      </trkpt>
      <trkpt lat="43.68394" lon="1.46262">
        <ele>196.288271</ele>
        <time>2022-03-25T14:55:54.405Z</time>
      </trkpt>
      <trkpt lat="43.68403" lon="1.46249">
        <ele>196.321741</ele>
        <time>2022-03-25T14:56:46.430Z</time>
      </trkpt>
      <trkpt lat="43.68412" lon="1.46246">
        <ele>196.34723</ele>
        <time>2022-03-25T14:56:51.415Z</time>
      </trkpt>
      <trkpt lat="43.68422" lon="1.4625">
        <ele>196.374896</ele>
        <time>2022-03-25T14:56:56.431Z</time>
      </trkpt>
      <trkpt lat="43.68431" lon="1.46254">
        <ele>196.400385</ele>
        <time>2022-03-25T14:56:59.421Z</time>
      </trkpt>
      <trkpt lat="43.68441" lon="1.46251">
        <ele>196.426774</ele>
        <time>2022-03-25T14:57:04.427Z</time>
      </trkpt>
      <trkpt lat="43.68451" lon="1.46243">
        <ele>196.457023</ele>
        <time>2022-03-25T14:57:08.434Z</time>
      </trkpt>
      <trkpt lat="43.68461" lon="1.46234">
        <ele>196.488689</ele>
        <time>2022-03-25T14:57:11.434Z</time>
      </trkpt>
      <trkpt lat="43.68471" lon="1.46244">
        <ele>196.521667</ele>
        <time>2022-03-25T14:57:14.423Z</time>
      </trkpt>
      <trkpt lat="43.68477" lon="1.46257">
        <ele>196.552476</ele>
        <time>2022-03-25T14:57:17.426Z</time>
      </trkpt>
      <trkpt lat="43.68486" lon="1.46268">
        <ele>196.58156</ele>
        <time>2022-03-25T14:57:20.425Z</time>
      </trkpt>
      <trkpt lat="43.68497" lon="1.46273">
        <ele>196.613061</ele>
        <time>2022-03-25T14:57:23.429Z</time>
      </trkpt>
      <trkpt lat="43.6851" lon="1.46275">
        <ele>196.595925</ele>
        <time>2022-03-25T14:57:26.427Z</time>
      </trkpt>
      <trkpt lat="43.68523" lon="1.46274">
        <ele>196.560185</ele>
        <time>2022-03-25T14:57:29.423Z</time>
      </trkpt>
      <trkpt lat="43.68532" lon="1.46269">
        <ele>196.53179</ele>
        <time>2022-03-25T14:57:31.420Z</time>
      </trkpt>
      <trkpt lat="43.68543" lon="1.46266">
        <ele>196.501853</ele>
        <time>2022-03-25T14:57:33.431Z</time>
      </trkpt>
      <trkpt lat="43.68554" lon="1.46268">
        <ele>196.471797</ele>
        <time>2022-03-25T14:57:35.419Z</time>
      </trkpt>
      <trkpt lat="43.68564" lon="1.46267">
        <ele>196.444085</ele>
        <time>2022-03-25T14:57:37.417Z</time>
      </trkpt>
      <trkpt lat="43.68574" lon="1.46262">
        <ele>196.413768</ele>
        <time>2022-03-25T14:57:40.418Z</time>
      </trkpt>
      <trkpt lat="43.68583" lon="1.46267">
        <ele>196.387619</ele>
        <time>2022-03-25T14:57:46.412Z</time>
      </trkpt>
      <trkpt lat="43.68598" lon="1.46276">
        <ele>196.34261</ele>
        <time>2022-03-25T14:58:04.418Z</time>
      </trkpt>
      <trkpt lat="43.68608" lon="1.46281">
        <ele>196.312936</ele>
        <time>2022-03-25T14:58:07.421Z</time>
      </trkpt>
      <trkpt lat="43.68621" lon="1.46282">
        <ele>196.27918</ele>
        <time>2022-03-25T14:58:10.411Z</time>
      </trkpt>
      <trkpt lat="43.68632" lon="1.46279">
        <ele>196.246447</ele>
        <time>2022-03-25T14:58:13.424Z</time>
      </trkpt>
      <trkpt lat="43.68642" lon="1.46289">
        <ele>196.215182</ele>
        <time>2022-03-25T14:58:16.427Z</time>
      </trkpt>
      <trkpt lat="43.68647" lon="1.46298">
        <ele>196.19026</ele>
        <time>2022-03-25T14:58:18.423Z</time>
      </trkpt>
      <trkpt lat="43.68658" lon="1.46305">
        <ele>196.15705</ele>
        <time>2022-03-25T14:58:21.413Z</time>
      </trkpt>
      <trkpt lat="43.68671" lon="1.46308">
        <ele>196.181777</ele>
        <time>2022-03-25T14:58:24.409Z</time>
      </trkpt>
      <trkpt lat="43.68682" lon="1.46313">
        <ele>196.404852</ele>
        <time>2022-03-25T14:58:27.418Z</time>
      </trkpt>
      <trkpt lat="43.68688" lon="1.46325">
        <ele>196.608514</ele>
        <time>2022-03-25T14:58:46.430Z</time>
      </trkpt>
      <trkpt lat="43.68696" lon="1.46332">
        <ele>196.791363</ele>
        <time>2022-03-25T14:58:52.428Z</time>
      </trkpt>
      <trkpt lat="43.68706" lon="1.46332">
        <ele>197.004941</ele>
        <time>2022-03-25T14:58:56.430Z</time>
      </trkpt>
      <trkpt lat="43.68717" lon="1.46333">
        <ele>197.208465</ele>
        <time>2022-03-25T14:58:59.422Z</time>
      </trkpt>
      <trkpt lat="43.68729" lon="1.46339">
        <ele>197.474014</ele>
        <time>2022-03-25T14:59:02.431Z</time>
      </trkpt>
      <trkpt lat="43.68739" lon="1.46343">
        <ele>197.668191</ele>
        <time>2022-03-25T14:59:04.414Z</time>
      </trkpt>
      <trkpt lat="43.68749" lon="1.46347">
        <ele>197.875269</ele>
        <time>2022-03-25T14:59:06.412Z</time>
      </trkpt>
      <trkpt lat="43.68759" lon="1.46351">
        <ele>198.093423</ele>
        <time>2022-03-25T14:59:08.406Z</time>
      </trkpt>
      <trkpt lat="43.68771" lon="1.46356">
        <ele>198.335141</ele>
        <time>2022-03-25T14:59:10.438Z</time>
      </trkpt>
      <trkpt lat="43.68784" lon="1.46361">
        <ele>198.59171</ele>
        <time>2022-03-25T14:59:12.415Z</time>
      </trkpt>
      <trkpt lat="43.68795" lon="1.46365">
        <ele>198.814452</ele>
        <time>2022-03-25T14:59:14.414Z</time>
      </trkpt>
      <trkpt lat="43.68805" lon="1.46367">
        <ele>199.020263</ele>
        <time>2022-03-25T14:59:16.418Z</time>
      </trkpt>
      <trkpt lat="43.68815" lon="1.46367">
        <ele>199.221768</ele>
        <time>2022-03-25T14:59:18.418Z</time>
      </trkpt>
      <trkpt lat="43.68824" lon="1.46367">
        <ele>199.403585</ele>
        <time>2022-03-25T14:59:20.405Z</time>
      </trkpt>
      <trkpt lat="43.68834" lon="1.46372">
        <ele>199.608417</ele>
        <time>2022-03-25T14:59:22.421Z</time>
      </trkpt>
      <trkpt lat="43.68843" lon="1.4638">
        <ele>200.02972</ele>
        <time>2022-03-25T14:59:24.414Z</time>
      </trkpt>
      <trkpt lat="43.68853" lon="1.46385">
        <ele>200.531953</ele>
        <time>2022-03-25T14:59:26.416Z</time>
      </trkpt>
      <trkpt lat="43.68863" lon="1.46387">
        <ele>201.032924</ele>
        <time>2022-03-25T14:59:28.431Z</time>
      </trkpt>
      <trkpt lat="43.68872" lon="1.4639">
        <ele>201.499768</ele>
        <time>2022-03-25T14:59:30.417Z</time>
      </trkpt>
      <trkpt lat="43.68883" lon="1.46389">
        <ele>202.040006</ele>
        <time>2022-03-25T14:59:33.411Z</time>
      </trkpt>
      <trkpt lat="43.68895" lon="1.46387">
        <ele>202.653617</ele>
        <time>2022-03-25T14:59:36.408Z</time>
      </trkpt>
      <trkpt lat="43.68886" lon="1.46386">
        <ele>203.109138</ele>
        <time>2022-03-25T14:59:49.415Z</time>
      </trkpt>
      <trkpt lat="43.68878" lon="1.46392">
        <ele>203.553344</ele>
        <time>2022-03-25T14:59:54.404Z</time>
      </trkpt>
      <trkpt lat="43.68882" lon="1.46414">
        <ele>204.357928</ele>
        <time>2022-03-25T15:02:59.412Z</time>
      </trkpt>
      <trkpt lat="43.68891" lon="1.46414">
        <ele>204.827995</ele>
        <time>2022-03-25T15:03:04.413Z</time>
      </trkpt>
      <trkpt lat="43.68901" lon="1.46413">
        <ele>205.319675</ele>
        <time>2022-03-25T15:03:11.422Z</time>
      </trkpt>
      <trkpt lat="43.6891" lon="1.46416">
        <ele>205.789021</ele>
        <time>2022-03-25T15:03:14.418Z</time>
      </trkpt>
      <trkpt lat="43.68926" lon="1.46434">
        <ele>206.808826</ele>
        <time>2022-03-25T15:03:47.412Z</time>
      </trkpt>
      <trkpt lat="43.68934" lon="1.46447">
        <ele>207.378099</ele>
        <time>2022-03-25T15:03:51.413Z</time>
      </trkpt>
      <trkpt lat="43.6894" lon="1.4646">
        <ele>207.936312</ele>
        <time>2022-03-25T15:03:55.410Z</time>
      </trkpt>
      <trkpt lat="43.6895" lon="1.46467">
        <ele>208.508927</ele>
        <time>2022-03-25T15:03:59.411Z</time>
      </trkpt>
      <trkpt lat="43.68961" lon="1.46466">
        <ele>208.857606</ele>
        <time>2022-03-25T15:04:02.410Z</time>
      </trkpt>
      <trkpt lat="43.6897" lon="1.46467">
        <ele>209.125667</ele>
        <time>2022-03-25T15:04:06.405Z</time>
      </trkpt>
      <trkpt lat="43.68982" lon="1.46471">
        <ele>209.464267</ele>
        <time>2022-03-25T15:04:10.430Z</time>
      </trkpt>
      <trkpt lat="43.68993" lon="1.46478">
        <ele>209.819489</ele>
        <time>2022-03-25T15:04:12.417Z</time>
      </trkpt>
      <trkpt lat="43.69002" lon="1.46486">
        <ele>210.116719</ele>
        <time>2022-03-25T15:04:17.410Z</time>
      </trkpt>
      <trkpt lat="43.69011" lon="1.4649">
        <ele>210.387818</ele>
        <time>2022-03-25T15:04:20.417Z</time>
      </trkpt>
      <trkpt lat="43.69019" lon="1.46499">
        <ele>210.691568</ele>
        <time>2022-03-25T15:04:23.405Z</time>
      </trkpt>
      <trkpt lat="43.69019" lon="1.46512">
        <ele>210.959083</ele>
        <time>2022-03-25T15:04:26.420Z</time>
      </trkpt>
      <trkpt lat="43.69014" lon="1.46523">
        <ele>211.240124</ele>
        <time>2022-03-25T15:04:30.405Z</time>
      </trkpt>
      <trkpt lat="43.69007" lon="1.46535">
        <ele>211.539545</ele>
        <time>2022-03-25T15:04:34.416Z</time>
      </trkpt>
      <trkpt lat="43.69" lon="1.46548">
        <ele>211.899185</ele>
        <time>2022-03-25T15:04:37.414Z</time>
      </trkpt>
      <trkpt lat="43.68997" lon="1.4656">
        <ele>212.159791</ele>
        <time>2022-03-25T15:04:40.416Z</time>
      </trkpt>
      <trkpt lat="43.68992" lon="1.46574">
        <ele>212.468795</ele>
        <time>2022-03-25T15:04:43.404Z</time>
      </trkpt>
      <trkpt lat="43.68987" lon="1.46585">
        <ele>212.743258</ele>
        <time>2022-03-25T15:04:47.410Z</time>
      </trkpt>
      <trkpt lat="43.68977" lon="1.46591">
        <ele>213.057535</ele>
        <time>2022-03-25T15:04:51.413Z</time>
      </trkpt>
      <trkpt lat="43.68968" lon="1.46588">
        <ele>213.327683</ele>
        <time>2022-03-25T15:04:54.413Z</time>
      </trkpt>
      <trkpt lat="43.68956" lon="1.46593">
        <ele>213.687699</ele>
        <time>2022-03-25T15:04:58.417Z</time>
      </trkpt>
      <trkpt lat="43.6895" lon="1.46608">
        <ele>213.583639</ele>
        <time>2022-03-25T15:05:01.409Z</time>
      </trkpt>
      <trkpt lat="43.68952" lon="1.46624">
        <ele>213.401535</ele>
        <time>2022-03-25T15:05:04.419Z</time>
      </trkpt>
      <trkpt lat="43.68953" lon="1.46639">
        <ele>213.235963</ele>
        <time>2022-03-25T15:05:07.409Z</time>
      </trkpt>
      <trkpt lat="43.68961" lon="1.4665">
        <ele>213.074299</ele>
        <time>2022-03-25T15:05:10.420Z</time>
      </trkpt>
      <trkpt lat="43.6897" lon="1.46649">
        <ele>212.933781</ele>
        <time>2022-03-25T15:05:12.419Z</time>
      </trkpt>
      <trkpt lat="43.6898" lon="1.46644">
        <ele>212.769568</ele>
        <time>2022-03-25T15:05:15.416Z</time>
      </trkpt>
      <trkpt lat="43.68989" lon="1.46635">
        <ele>212.602468</ele>
        <time>2022-03-25T15:05:18.414Z</time>
      </trkpt>
      <trkpt lat="43.68997" lon="1.46631">
        <ele>212.464976</ele>
        <time>2022-03-25T15:05:21.419Z</time>
      </trkpt>
      <trkpt lat="43.69007" lon="1.46618">
        <ele>212.259096</ele>
        <time>2022-03-25T15:05:24.412Z</time>
      </trkpt>
      <trkpt lat="43.69016" lon="1.46608">
        <ele>212.081733</ele>
        <time>2022-03-25T15:05:26.417Z</time>
      </trkpt>
      <trkpt lat="43.69027" lon="1.46597">
        <ele>211.881873</ele>
        <time>2022-03-25T15:05:28.423Z</time>
      </trkpt>
      <trkpt lat="43.69039" lon="1.46583">
        <ele>211.628675</ele>
        <time>2022-03-25T15:05:30.414Z</time>
      </trkpt>
      <trkpt lat="43.69052" lon="1.46567">
        <ele>211.374149</ele>
        <time>2022-03-25T15:05:32.412Z</time>
      </trkpt>
      <trkpt lat="43.69059" lon="1.46559">
        <ele>211.223467</ele>
        <time>2022-03-25T15:05:34.412Z</time>
      </trkpt>
      <trkpt lat="43.69067" lon="1.46569">
        <ele>211.058768</ele>
        <time>2022-03-25T15:05:40.423Z</time>
      </trkpt>
      <trkpt lat="43.69075" lon="1.46578">
        <ele>211.007709</ele>
        <time>2022-03-25T15:05:44.432Z</time>
      </trkpt>
      <trkpt lat="43.69085" lon="1.46573">
        <ele>211.044539</ele>
        <time>2022-03-25T15:05:49.428Z</time>
      </trkpt>
      <trkpt lat="43.69097" lon="1.46574">
        <ele>211.080626</ele>
        <time>2022-03-25T15:05:52.430Z</time>
      </trkpt>
      <trkpt lat="43.69105" lon="1.46581">
        <ele>211.112676</ele>
        <time>2022-03-25T15:05:55.425Z</time>
      </trkpt>
      <trkpt lat="43.69115" lon="1.46586">
        <ele>211.14413</ele>
        <time>2022-03-25T15:05:58.421Z</time>
      </trkpt>
      <trkpt lat="43.69124" lon="1.46585">
        <ele>211.173726</ele>
        <time>2022-03-25T15:06:00.411Z</time>
      </trkpt>
      <trkpt lat="43.69133" lon="1.46592">
        <ele>211.206756</ele>
        <time>2022-03-25T15:06:02.411Z</time>
      </trkpt>
      <trkpt lat="43.69136" lon="1.46605">
        <ele>211.238605</ele>
        <time>2022-03-25T15:06:04.434Z</time>
      </trkpt>
      <trkpt lat="43.69138" lon="1.46617">
        <ele>211.268439</ele>
        <time>2022-03-25T15:06:08.405Z</time>
      </trkpt>
      <trkpt lat="43.69145" lon="1.46634">
        <ele>211.31354</ele>
        <time>2022-03-25T15:06:25.415Z</time>
      </trkpt>
      <trkpt lat="43.6915" lon="1.46649">
        <ele>211.35101</ele>
        <time>2022-03-25T15:07:08.417Z</time>
      </trkpt>
      <trkpt lat="43.6916" lon="1.46642">
        <ele>211.386174</ele>
        <time>2022-03-25T15:07:12.411Z</time>
      </trkpt>
      <trkpt lat="43.6917" lon="1.46642">
        <ele>211.418569</ele>
        <time>2022-03-25T15:07:15.419Z</time>
      </trkpt>
      <trkpt lat="43.6918" lon="1.46644">
        <ele>211.451547</ele>
        <time>2022-03-25T15:07:18.409Z</time>
      </trkpt>
      <trkpt lat="43.69192" lon="1.46644">
        <ele>211.487787</ele>
        <time>2022-03-25T15:07:22.412Z</time>
      </trkpt>
      <trkpt lat="43.69202" lon="1.46642">
        <ele>211.522446</ele>
        <time>2022-03-25T15:07:27.421Z</time>
      </trkpt>
      <trkpt lat="43.69212" lon="1.46641">
        <ele>211.553405</ele>
        <time>2022-03-25T15:07:32.408Z</time>
      </trkpt>
      <trkpt lat="43.69222" lon="1.46649">
        <ele>212.408344</ele>
        <time>2022-03-25T15:07:52.428Z</time>
      </trkpt>
      <trkpt lat="43.69219" lon="1.46663">
        <ele>213.661957</ele>
        <time>2022-03-25T15:07:58.422Z</time>
      </trkpt>
      <trkpt lat="43.6922" lon="1.46677">
        <ele>214.920947</ele>
        <time>2022-03-25T15:08:03.421Z</time>
      </trkpt>
      <trkpt lat="43.6922" lon="1.4669">
        <ele>216.042911</ele>
        <time>2022-03-25T15:08:07.424Z</time>
      </trkpt>
      <trkpt lat="43.69222" lon="1.46703">
        <ele>217.299663</ele>
        <time>2022-03-25T15:08:11.420Z</time>
      </trkpt>
      <trkpt lat="43.69229" lon="1.46713">
        <ele>218.438058</ele>
        <time>2022-03-25T15:08:15.419Z</time>
      </trkpt>
      <trkpt lat="43.69235" lon="1.46723">
        <ele>219.626551</ele>
        <time>2022-03-25T15:08:20.423Z</time>
      </trkpt>
      <trkpt lat="43.69237" lon="1.46736">
        <ele>220.730357</ele>
        <time>2022-03-25T15:08:24.421Z</time>
      </trkpt>
      <trkpt lat="43.69245" lon="1.46741">
        <ele>221.872943</ele>
        <time>2022-03-25T15:08:29.412Z</time>
      </trkpt>
      <trkpt lat="43.69251" lon="1.46731">
        <ele>223.036404</ele>
        <time>2022-03-25T15:08:35.422Z</time>
      </trkpt>
      <trkpt lat="43.6929" lon="1.46743">
        <ele>227.843288</ele>
        <time>2022-03-25T15:10:15.424Z</time>
      </trkpt>
      <trkpt lat="43.69292" lon="1.46759">
        <ele>229.234273</ele>
        <time>2022-03-25T15:10:20.423Z</time>
      </trkpt>
      <trkpt lat="43.69293" lon="1.46771">
        <ele>230.327474</ele>
        <time>2022-03-25T15:10:23.422Z</time>
      </trkpt>
      <trkpt lat="43.69293" lon="1.46788">
        <ele>231.786059</ele>
        <time>2022-03-25T15:10:27.425Z</time>
      </trkpt>
      <trkpt lat="43.69292" lon="1.46802">
        <ele>233.096866</ele>
        <time>2022-03-25T15:10:30.422Z</time>
      </trkpt>
      <trkpt lat="43.69291" lon="1.46815">
        <ele>233.120443</ele>
        <time>2022-03-25T15:10:32.425Z</time>
      </trkpt>
      <trkpt lat="43.69286" lon="1.46827">
        <ele>232.34366</ele>
        <time>2022-03-25T15:10:36.426Z</time>
      </trkpt>
      <trkpt lat="43.69275" lon="1.46826">
        <ele>231.540543</ele>
        <time>2022-03-25T15:10:38.424Z</time>
      </trkpt>
      <trkpt lat="43.69261" lon="1.46819">
        <ele>230.404946</ele>
        <time>2022-03-25T15:10:40.428Z</time>
      </trkpt>
      <trkpt lat="43.6925" lon="1.468">
        <ele>229.095858</ele>
        <time>2022-03-25T15:10:42.422Z</time>
      </trkpt>
      <trkpt lat="43.69244" lon="1.4679">
        <ele>228.371289</ele>
        <time>2022-03-25T15:10:43.426Z</time>
      </trkpt>
      <trkpt lat="43.69231" lon="1.46774">
        <ele>227.04179</ele>
        <time>2022-03-25T15:10:45.426Z</time>
      </trkpt>
      <trkpt lat="43.69219" lon="1.46762">
        <ele>225.941819</ele>
        <time>2022-03-25T15:10:47.427Z</time>
      </trkpt>
      <trkpt lat="43.69209" lon="1.4677">
        <ele>225.089322</ele>
        <time>2022-03-25T15:10:50.422Z</time>
      </trkpt>
      <trkpt lat="43.69201" lon="1.46782">
        <ele>224.205523</ele>
        <time>2022-03-25T15:10:52.423Z</time>
      </trkpt>
      <trkpt lat="43.69186" lon="1.46785">
        <ele>223.061202</ele>
        <time>2022-03-25T15:10:54.424Z</time>
      </trkpt>
      <trkpt lat="43.69171" lon="1.46779">
        <ele>221.872133</ele>
        <time>2022-03-25T15:10:56.445Z</time>
      </trkpt>
      <trkpt lat="43.69162" lon="1.46783">
        <ele>221.186612</ele>
        <time>2022-03-25T15:11:00.424Z</time>
      </trkpt>
      <trkpt lat="43.69163" lon="1.468">
        <ele>220.303147</ele>
        <time>2022-03-25T15:11:03.423Z</time>
      </trkpt>
      <trkpt lat="43.69163" lon="1.46816">
        <ele>219.444113</ele>
        <time>2022-03-25T15:11:06.421Z</time>
      </trkpt>
      <trkpt lat="43.69161" lon="1.46832">
        <ele>218.691976</ele>
        <time>2022-03-25T15:11:09.418Z</time>
      </trkpt>
      <trkpt lat="43.69159" lon="1.46847">
        <ele>217.920613</ele>
        <time>2022-03-25T15:11:12.424Z</time>
      </trkpt>
      <trkpt lat="43.69154" lon="1.46864">
        <ele>217.01671</ele>
        <time>2022-03-25T15:11:15.415Z</time>
      </trkpt>
      <trkpt lat="43.6915" lon="1.46877">
        <ele>216.357862</ele>
        <time>2022-03-25T15:11:17.426Z</time>
      </trkpt>
      <trkpt lat="43.69144" lon="1.46888">
        <ele>215.691729</ele>
        <time>2022-03-25T15:11:19.429Z</time>
      </trkpt>
      <trkpt lat="43.6914" lon="1.46901">
        <ele>214.990401</ele>
        <time>2022-03-25T15:11:21.423Z</time>
      </trkpt>
      <trkpt lat="43.69135" lon="1.46915">
        <ele>214.261136</ele>
        <time>2022-03-25T15:11:23.424Z</time>
      </trkpt>
      <trkpt lat="43.69132" lon="1.46929">
        <ele>213.53424</ele>
        <time>2022-03-25T15:11:25.429Z</time>
      </trkpt>
      <trkpt lat="43.69129" lon="1.46942">
        <ele>212.856381</ele>
        <time>2022-03-25T15:11:27.420Z</time>
      </trkpt>
      <trkpt lat="43.69127" lon="1.46957">
        <ele>212.120054</ele>
        <time>2022-03-25T15:11:29.422Z</time>
      </trkpt>
      <trkpt lat="43.69125" lon="1.46973">
        <ele>211.349854</ele>
        <time>2022-03-25T15:11:31.420Z</time>
      </trkpt>
      <trkpt lat="43.69123" lon="1.46989">
        <ele>210.544809</ele>
        <time>2022-03-25T15:11:33.421Z</time>
      </trkpt>
      <trkpt lat="43.6912" lon="1.47003">
        <ele>209.821551</ele>
        <time>2022-03-25T15:11:35.411Z</time>
      </trkpt>
      <trkpt lat="43.69117" lon="1.47018">
        <ele>209.070895</ele>
        <time>2022-03-25T15:11:37.407Z</time>
      </trkpt>
      <trkpt lat="43.69115" lon="1.47033">
        <ele>208.329381</ele>
        <time>2022-03-25T15:11:39.440Z</time>
      </trkpt>
      <trkpt lat="43.69113" lon="1.47048">
        <ele>207.807119</ele>
        <time>2022-03-25T15:11:41.421Z</time>
      </trkpt>
      <trkpt lat="43.6911" lon="1.47062">
        <ele>207.764091</ele>
        <time>2022-03-25T15:11:43.424Z</time>
      </trkpt>
      <trkpt lat="43.69105" lon="1.47076">
        <ele>207.721459</ele>
        <time>2022-03-25T15:11:45.428Z</time>
      </trkpt>
      <trkpt lat="43.69103" lon="1.4709">
        <ele>207.6808</ele>
        <time>2022-03-25T15:11:47.427Z</time>
      </trkpt>
      <trkpt lat="43.69107" lon="1.47104">
        <ele>207.64054</ele>
        <time>2022-03-25T15:11:50.422Z</time>
      </trkpt>
      <trkpt lat="43.69104" lon="1.47116">
        <ele>207.60386</ele>
        <time>2022-03-25T15:11:54.428Z</time>
      </trkpt>
      <trkpt lat="43.69099" lon="1.47133">
        <ele>207.551802</ele>
        <time>2022-03-25T15:11:57.429Z</time>
      </trkpt>
      <trkpt lat="43.69093" lon="1.47145">
        <ele>207.512513</ele>
        <time>2022-03-25T15:11:59.423Z</time>
      </trkpt>
      <trkpt lat="43.69089" lon="1.47158">
        <ele>207.471315</ele>
        <time>2022-03-25T15:12:01.426Z</time>
      </trkpt>
      <trkpt lat="43.69082" lon="1.4717">
        <ele>207.429255</ele>
        <time>2022-03-25T15:12:03.419Z</time>
      </trkpt>
      <trkpt lat="43.69076" lon="1.47183">
        <ele>207.386606</ele>
        <time>2022-03-25T15:12:05.425Z</time>
      </trkpt>
      <trkpt lat="43.69071" lon="1.47197">
        <ele>207.342835</ele>
        <time>2022-03-25T15:12:07.421Z</time>
      </trkpt>
      <trkpt lat="43.69066" lon="1.47211">
        <ele>207.298433</ele>
        <time>2022-03-25T15:12:09.423Z</time>
      </trkpt>
      <trkpt lat="43.69062" lon="1.47225">
        <ele>207.25684</ele>
        <time>2022-03-25T15:12:11.423Z</time>
      </trkpt>
      <trkpt lat="43.69059" lon="1.4724">
        <ele>207.211569</ele>
        <time>2022-03-25T15:12:13.426Z</time>
      </trkpt>
      <trkpt lat="43.69058" lon="1.47257">
        <ele>207.165179</ele>
        <time>2022-03-25T15:12:15.426Z</time>
      </trkpt>
      <trkpt lat="43.69058" lon="1.47272">
        <ele>207.125208</ele>
        <time>2022-03-25T15:12:17.423Z</time>
      </trkpt>
      <trkpt lat="43.69059" lon="1.47288">
        <ele>207.481677</ele>
        <time>2022-03-25T15:12:19.424Z</time>
      </trkpt>
      <trkpt lat="43.69059" lon="1.47303">
        <ele>207.844272</ele>
        <time>2022-03-25T15:12:21.420Z</time>
      </trkpt>
      <trkpt lat="43.69059" lon="1.47318">
        <ele>208.192786</ele>
        <time>2022-03-25T15:12:23.421Z</time>
      </trkpt>
      <trkpt lat="43.69059" lon="1.47332">
        <ele>208.52554</ele>
        <time>2022-03-25T15:12:25.422Z</time>
      </trkpt>
      <trkpt lat="43.69059" lon="1.47347">
        <ele>208.888835</ele>
        <time>2022-03-25T15:12:27.419Z</time>
      </trkpt>
      <trkpt lat="43.6906" lon="1.47361">
        <ele>209.212194</ele>
        <time>2022-03-25T15:12:29.420Z</time>
      </trkpt>
      <trkpt lat="43.69062" lon="1.47378">
        <ele>209.626034</ele>
        <time>2022-03-25T15:12:32.422Z</time>
      </trkpt>
      <trkpt lat="43.69068" lon="1.47391">
        <ele>209.983042</ele>
        <time>2022-03-25T15:12:35.421Z</time>
      </trkpt>
      <trkpt lat="43.69062" lon="1.47403">
        <ele>210.32899</ele>
        <time>2022-03-25T15:12:50.420Z</time>
      </trkpt>
      <trkpt lat="43.69066" lon="1.47415">
        <ele>210.63527</ele>
        <time>2022-03-25T15:12:52.418Z</time>
      </trkpt>
      <trkpt lat="43.69072" lon="1.47426">
        <ele>210.948167</ele>
        <time>2022-03-25T15:12:56.407Z</time>
      </trkpt>
      <trkpt lat="43.69079" lon="1.47437">
        <ele>211.280038</ele>
        <time>2022-03-25T15:12:59.417Z</time>
      </trkpt>
      <trkpt lat="43.69082" lon="1.4745">
        <ele>211.614806</ele>
        <time>2022-03-25T15:13:02.418Z</time>
      </trkpt>
      <trkpt lat="43.69086" lon="1.47462">
        <ele>211.925912</ele>
        <time>2022-03-25T15:13:05.420Z</time>
      </trkpt>
      <trkpt lat="43.69085" lon="1.47478">
        <ele>212.29647</ele>
        <time>2022-03-25T15:13:08.416Z</time>
      </trkpt>
      <trkpt lat="43.69082" lon="1.4749">
        <ele>212.602705</ele>
        <time>2022-03-25T15:13:11.424Z</time>
      </trkpt>
      <trkpt lat="43.69084" lon="1.47505">
        <ele>212.95503</ele>
        <time>2022-03-25T15:13:14.457Z</time>
      </trkpt>
      <trkpt lat="43.69086" lon="1.47518">
        <ele>213.324955</ele>
        <time>2022-03-25T15:13:16.419Z</time>
      </trkpt>
      <trkpt lat="43.69085" lon="1.47534">
        <ele>213.804299</ele>
        <time>2022-03-25T15:13:19.422Z</time>
      </trkpt>
      <trkpt lat="43.69078" lon="1.47545">
        <ele>214.247478</ele>
        <time>2022-03-25T15:13:25.432Z</time>
      </trkpt>
      <trkpt lat="43.69076" lon="1.47561">
        <ele>214.70374</ele>
        <time>2022-03-25T15:13:28.421Z</time>
      </trkpt>
      <trkpt lat="43.69075" lon="1.47574">
        <ele>215.099123</ele>
        <time>2022-03-25T15:13:36.424Z</time>
      </trkpt>
      <trkpt lat="43.69074" lon="1.4759">
        <ele>215.553582</ele>
        <time>2022-03-25T15:13:42.419Z</time>
      </trkpt>
      <trkpt lat="43.69068" lon="1.47615">
        <ele>216.319937</ele>
        <time>2022-03-25T15:14:12.419Z</time>
      </trkpt>
      <trkpt lat="43.69066" lon="1.47627">
        <ele>216.692252</ele>
        <time>2022-03-25T15:14:16.418Z</time>
      </trkpt>
      <trkpt lat="43.69065" lon="1.47641">
        <ele>217.08605</ele>
        <time>2022-03-25T15:14:19.416Z</time>
      </trkpt>
      <trkpt lat="43.69062" lon="1.47657">
        <ele>217.56332</ele>
        <time>2022-03-25T15:14:23.420Z</time>
      </trkpt>
      <trkpt lat="43.69063" lon="1.47671">
        <ele>217.989163</ele>
        <time>2022-03-25T15:14:26.418Z</time>
      </trkpt>
      <trkpt lat="43.69064" lon="1.47684">
        <ele>218.37651</ele>
        <time>2022-03-25T15:14:29.423Z</time>
      </trkpt>
      <trkpt lat="43.69068" lon="1.47701">
        <ele>218.885977</ele>
        <time>2022-03-25T15:14:32.419Z</time>
      </trkpt>
      <trkpt lat="43.69076" lon="1.47714">
        <ele>219.381015</ele>
        <time>2022-03-25T15:14:35.416Z</time>
      </trkpt>
      <trkpt lat="43.69081" lon="1.47725">
        <ele>219.745013</ele>
        <time>2022-03-25T15:14:37.424Z</time>
      </trkpt>
      <trkpt lat="43.69081" lon="1.47738">
        <ele>220.142474</ele>
        <time>2022-03-25T15:14:41.418Z</time>
      </trkpt>
      <trkpt lat="43.69078" lon="1.47752">
        <ele>220.376001</ele>
        <time>2022-03-25T15:14:44.417Z</time>
      </trkpt>
      <trkpt lat="43.69076" lon="1.47766">
        <ele>220.556871</ele>
        <time>2022-03-25T15:14:47.417Z</time>
      </trkpt>
      <trkpt lat="43.69077" lon="1.47779">
        <ele>220.732458</ele>
        <time>2022-03-25T15:14:50.418Z</time>
      </trkpt>
      <trkpt lat="43.69077" lon="1.47795">
        <ele>220.928895</ele>
        <time>2022-03-25T15:14:53.416Z</time>
      </trkpt>
      <trkpt lat="43.69074" lon="1.47808">
        <ele>221.108465</ele>
        <time>2022-03-25T15:14:56.421Z</time>
      </trkpt>
      <trkpt lat="43.69068" lon="1.47821">
        <ele>221.318265</ele>
        <time>2022-03-25T15:14:59.419Z</time>
      </trkpt>
      <trkpt lat="43.69065" lon="1.47835">
        <ele>221.500541</ele>
        <time>2022-03-25T15:15:02.439Z</time>
      </trkpt>
      <trkpt lat="43.69063" lon="1.47848">
        <ele>221.675745</ele>
        <time>2022-03-25T15:15:05.419Z</time>
      </trkpt>
      <trkpt lat="43.69062" lon="1.47863">
        <ele>221.872412</ele>
        <time>2022-03-25T15:15:08.419Z</time>
      </trkpt>
      <trkpt lat="43.69058" lon="1.47876">
        <ele>222.060218</ele>
        <time>2022-03-25T15:15:11.416Z</time>
      </trkpt>
      <trkpt lat="43.69054" lon="1.47892">
        <ele>222.279491</ele>
        <time>2022-03-25T15:15:14.434Z</time>
      </trkpt>
      <trkpt lat="43.6905" lon="1.47905">
        <ele>222.466458</ele>
        <time>2022-03-25T15:15:17.421Z</time>
      </trkpt>
      <trkpt lat="43.69046" lon="1.47919">
        <ele>222.660945</ele>
        <time>2022-03-25T15:15:21.426Z</time>
      </trkpt>
      <trkpt lat="43.69052" lon="1.47966">
        <ele>223.287209</ele>
        <time>2022-03-25T15:15:39.414Z</time>
      </trkpt>
      <trkpt lat="43.69045" lon="1.47988">
        <ele>223.557529</ele>
        <time>2022-03-25T15:15:58.424Z</time>
      </trkpt>
      <trkpt lat="43.69039" lon="1.48001">
        <ele>223.68666</ele>
        <time>2022-03-25T15:16:02.420Z</time>
      </trkpt>
      <trkpt lat="43.69038" lon="1.48016">
        <ele>223.817543</ele>
        <time>2022-03-25T15:16:07.427Z</time>
      </trkpt>
      <trkpt lat="43.69033" lon="1.48032">
        <ele>223.968804</ele>
        <time>2022-03-25T15:16:10.418Z</time>
      </trkpt>
      <trkpt lat="43.69034" lon="1.48033">
        <ele>224.787907</ele>
        <time>2022-03-25T15:23:05.420Z</time>
      </trkpt>
      <trkpt lat="43.69043" lon="1.48032">
        <ele>224.944256</ele>
        <time>2022-03-25T15:23:18.419Z</time>
      </trkpt>
      <trkpt lat="43.69051" lon="1.48021">
        <ele>225.114147</ele>
        <time>2022-03-25T15:23:21.422Z</time>
      </trkpt>
      <trkpt lat="43.69058" lon="1.48013">
        <ele>225.278727</ele>
        <time>2022-03-25T15:23:24.422Z</time>
      </trkpt>
      <trkpt lat="43.69068" lon="1.48006">
        <ele>225.462542</ele>
        <time>2022-03-25T15:23:27.420Z</time>
      </trkpt>
      <trkpt lat="43.69078" lon="1.48002">
        <ele>225.627566</ele>
        <time>2022-03-25T15:23:30.414Z</time>
      </trkpt>
      <trkpt lat="43.69087" lon="1.47998">
        <ele>225.780632</ele>
        <time>2022-03-25T15:23:33.417Z</time>
      </trkpt>
      <trkpt lat="43.69096" lon="1.47993">
        <ele>225.938734</ele>
        <time>2022-03-25T15:23:36.418Z</time>
      </trkpt>
      <trkpt lat="43.69105" lon="1.4799">
        <ele>226.093963</ele>
        <time>2022-03-25T15:23:39.421Z</time>
      </trkpt>
      <trkpt lat="43.69114" lon="1.47986">
        <ele>226.249861</ele>
        <time>2022-03-25T15:23:42.425Z</time>
      </trkpt>
      <trkpt lat="43.69125" lon="1.47983">
        <ele>226.429072</ele>
        <time>2022-03-25T15:23:45.431Z</time>
      </trkpt>
      <trkpt lat="43.69134" lon="1.47993">
        <ele>226.610595</ele>
        <time>2022-03-25T15:23:49.424Z</time>
      </trkpt>
      <trkpt lat="43.69141" lon="1.48001">
        <ele>226.763328</ele>
        <time>2022-03-25T15:23:52.419Z</time>
      </trkpt>
      <trkpt lat="43.69148" lon="1.4801">
        <ele>226.924376</ele>
        <time>2022-03-25T15:23:55.426Z</time>
      </trkpt>
      <trkpt lat="43.69158" lon="1.48006">
        <ele>227.086899</ele>
        <time>2022-03-25T15:23:59.426Z</time>
      </trkpt>
      <trkpt lat="43.69164" lon="1.47994">
        <ele>227.322234</ele>
        <time>2022-03-25T15:24:01.421Z</time>
      </trkpt>
      <trkpt lat="43.69173" lon="1.47981">
        <ele>227.621195</ele>
        <time>2022-03-25T15:24:03.425Z</time>
      </trkpt>
      <trkpt lat="43.69184" lon="1.4798">
        <ele>227.854739</ele>
        <time>2022-03-25T15:24:05.420Z</time>
      </trkpt>
      <trkpt lat="43.69192" lon="1.47988">
        <ele>228.08133</ele>
        <time>2022-03-25T15:24:07.427Z</time>
      </trkpt>
      <trkpt lat="43.69204" lon="1.47995">
        <ele>228.371904</ele>
        <time>2022-03-25T15:24:10.422Z</time>
      </trkpt>
      <trkpt lat="43.69216" lon="1.48001">
        <ele>228.663206</ele>
        <time>2022-03-25T15:24:13.422Z</time>
      </trkpt>
      <trkpt lat="43.69227" lon="1.48005">
        <ele>228.935248</ele>
        <time>2022-03-25T15:24:16.420Z</time>
      </trkpt>
      <trkpt lat="43.69241" lon="1.48005">
        <ele>229.244604</ele>
        <time>2022-03-25T15:24:19.426Z</time>
      </trkpt>
      <trkpt lat="43.69252" lon="1.48">
        <ele>229.498107</ele>
        <time>2022-03-25T15:24:21.424Z</time>
      </trkpt>
      <trkpt lat="43.69263" lon="1.47993">
        <ele>229.783164</ele>
        <time>2022-03-25T15:24:23.420Z</time>
      </trkpt>
      <trkpt lat="43.69272" lon="1.47986">
        <ele>230.012394</ele>
        <time>2022-03-25T15:24:25.428Z</time>
      </trkpt>
      <trkpt lat="43.69279" lon="1.4796">
        <ele>230.46305</ele>
        <time>2022-03-25T15:25:12.412Z</time>
      </trkpt>
      <trkpt lat="43.69279" lon="1.4793">
        <ele>230.961101</ele>
        <time>2022-03-25T15:25:43.436Z</time>
      </trkpt>
      <trkpt lat="43.69281" lon="1.47917">
        <ele>231.179979</ele>
        <time>2022-03-25T15:25:45.447Z</time>
      </trkpt>
      <trkpt lat="43.69283" lon="1.47899">
        <ele>231.716129</ele>
        <time>2022-03-25T15:25:48.432Z</time>
      </trkpt>
      <trkpt lat="43.69289" lon="1.47884">
        <ele>232.218953</ele>
        <time>2022-03-25T15:25:51.438Z</time>
      </trkpt>
      <trkpt lat="43.69296" lon="1.47869">
        <ele>232.733431</ele>
        <time>2022-03-25T15:25:54.430Z</time>
      </trkpt>
      <trkpt lat="43.69303" lon="1.47856">
        <ele>233.235672</ele>
        <time>2022-03-25T15:25:57.447Z</time>
      </trkpt>
      <trkpt lat="43.69311" lon="1.47843">
        <ele>233.731158</ele>
        <time>2022-03-25T15:26:00.432Z</time>
      </trkpt>
      <trkpt lat="43.69318" lon="1.47829">
        <ele>234.24529</ele>
        <time>2022-03-25T15:26:03.449Z</time>
      </trkpt>
      <trkpt lat="43.69325" lon="1.47814">
        <ele>234.752562</ele>
        <time>2022-03-25T15:26:06.438Z</time>
      </trkpt>
      <trkpt lat="43.69332" lon="1.478">
        <ele>235.259341</ele>
        <time>2022-03-25T15:26:09.437Z</time>
      </trkpt>
      <trkpt lat="43.6934" lon="1.47787">
        <ele>235.766895</ele>
        <time>2022-03-25T15:26:12.441Z</time>
      </trkpt>
      <trkpt lat="43.69349" lon="1.47776">
        <ele>236.265157</ele>
        <time>2022-03-25T15:26:15.432Z</time>
      </trkpt>
      <trkpt lat="43.69362" lon="1.47775">
        <ele>236.827364</ele>
        <time>2022-03-25T15:26:18.434Z</time>
      </trkpt>
      <trkpt lat="43.69373" lon="1.47776">
        <ele>237.251064</ele>
        <time>2022-03-25T15:26:20.451Z</time>
      </trkpt>
      <trkpt lat="43.69383" lon="1.47776">
        <ele>237.689675</ele>
        <time>2022-03-25T15:26:22.440Z</time>
      </trkpt>
      <trkpt lat="43.69394" lon="1.47777">
        <ele>238.136632</ele>
        <time>2022-03-25T15:26:24.442Z</time>
      </trkpt>
      <trkpt lat="43.69405" lon="1.47777">
        <ele>238.586166</ele>
        <time>2022-03-25T15:26:26.440Z</time>
      </trkpt>
      <trkpt lat="43.69415" lon="1.47777">
        <ele>239.12166</ele>
        <time>2022-03-25T15:26:28.439Z</time>
      </trkpt>
      <trkpt lat="43.69428" lon="1.47778">
        <ele>239.797011</ele>
        <time>2022-03-25T15:26:31.441Z</time>
      </trkpt>
      <trkpt lat="43.69438" lon="1.47775">
        <ele>240.323767</ele>
        <time>2022-03-25T15:26:33.432Z</time>
      </trkpt>
      <trkpt lat="43.69446" lon="1.47764">
        <ele>240.879299</ele>
        <time>2022-03-25T15:26:35.440Z</time>
      </trkpt>
      <trkpt lat="43.69451" lon="1.47749">
        <ele>241.484378</ele>
        <time>2022-03-25T15:26:37.445Z</time>
      </trkpt>
      <trkpt lat="43.69456" lon="1.47735">
        <ele>242.073154</ele>
        <time>2022-03-25T15:26:39.444Z</time>
      </trkpt>
      <trkpt lat="43.69462" lon="1.47721">
        <ele>242.678232</ele>
        <time>2022-03-25T15:26:41.453Z</time>
      </trkpt>
      <trkpt lat="43.69467" lon="1.47708">
        <ele>243.250278</ele>
        <time>2022-03-25T15:26:43.446Z</time>
      </trkpt>
      <trkpt lat="43.69473" lon="1.47695">
        <ele>243.814727</ele>
        <time>2022-03-25T15:26:45.434Z</time>
      </trkpt>
      <trkpt lat="43.6948" lon="1.47683">
        <ele>244.384621</ele>
        <time>2022-03-25T15:26:47.437Z</time>
      </trkpt>
      <trkpt lat="43.69485" lon="1.47669">
        <ele>244.938751</ele>
        <time>2022-03-25T15:26:49.425Z</time>
      </trkpt>
      <trkpt lat="43.69487" lon="1.47655">
        <ele>245.475289</ele>
        <time>2022-03-25T15:26:51.437Z</time>
      </trkpt>
      <trkpt lat="43.6949" lon="1.47641">
        <ele>246.021483</ele>
        <time>2022-03-25T15:26:53.429Z</time>
      </trkpt>
      <trkpt lat="43.69492" lon="1.47627">
        <ele>246.535259</ele>
        <time>2022-03-25T15:26:55.449Z</time>
      </trkpt>
      <trkpt lat="43.69493" lon="1.47613">
        <ele>247.083926</ele>
        <time>2022-03-25T15:26:57.439Z</time>
      </trkpt>
      <trkpt lat="43.69496" lon="1.47598">
        <ele>247.651887</ele>
        <time>2022-03-25T15:26:59.451Z</time>
      </trkpt>
      <trkpt lat="43.69499" lon="1.47583">
        <ele>248.172208</ele>
        <time>2022-03-25T15:27:01.431Z</time>
      </trkpt>
      <trkpt lat="43.69504" lon="1.4757">
        <ele>248.654668</ele>
        <time>2022-03-25T15:27:03.445Z</time>
      </trkpt>
      <trkpt lat="43.69511" lon="1.47558">
        <ele>249.132801</ele>
        <time>2022-03-25T15:27:05.427Z</time>
      </trkpt>
      <trkpt lat="43.69518" lon="1.47548">
        <ele>249.566006</ele>
        <time>2022-03-25T15:27:07.436Z</time>
      </trkpt>
      <trkpt lat="43.69524" lon="1.47538">
        <ele>249.987967</ele>
        <time>2022-03-25T15:27:09.450Z</time>
      </trkpt>
      <trkpt lat="43.6953" lon="1.47528">
        <ele>250.42298</ele>
        <time>2022-03-25T15:27:11.437Z</time>
      </trkpt>
      <trkpt lat="43.69536" lon="1.47516">
        <ele>250.881919</ele>
        <time>2022-03-25T15:27:14.443Z</time>
      </trkpt>
      <trkpt lat="43.69546" lon="1.47512">
        <ele>251.302561</ele>
        <time>2022-03-25T15:27:19.428Z</time>
      </trkpt>
      <trkpt lat="43.69555" lon="1.47522">
        <ele>251.812282</ele>
        <time>2022-03-25T15:27:22.423Z</time>
      </trkpt>
      <trkpt lat="43.69563" lon="1.4753">
        <ele>252.251015</ele>
        <time>2022-03-25T15:27:24.426Z</time>
      </trkpt>
      <trkpt lat="43.69571" lon="1.4754">
        <ele>252.733613</ele>
        <time>2022-03-25T15:27:26.440Z</time>
      </trkpt>
      <trkpt lat="43.69576" lon="1.47553">
        <ele>253.193472</ele>
        <time>2022-03-25T15:27:28.460Z</time>
      </trkpt>
      <trkpt lat="43.69579" lon="1.47568">
        <ele>253.70559</ele>
        <time>2022-03-25T15:27:30.458Z</time>
      </trkpt>
      <trkpt lat="43.69582" lon="1.47584">
        <ele>254.235577</ele>
        <time>2022-03-25T15:27:32.431Z</time>
      </trkpt>
      <trkpt lat="43.69586" lon="1.47601">
        <ele>254.792671</ele>
        <time>2022-03-25T15:27:34.432Z</time>
      </trkpt>
      <trkpt lat="43.6959" lon="1.47616">
        <ele>255.332161</ele>
        <time>2022-03-25T15:27:36.459Z</time>
      </trkpt>
      <trkpt lat="43.69596" lon="1.47631">
        <ele>255.782686</ele>
        <time>2022-03-25T15:27:38.449Z</time>
      </trkpt>
      <trkpt lat="43.69601" lon="1.47645">
        <ele>255.940274</ele>
        <time>2022-03-25T15:27:40.427Z</time>
      </trkpt>
      <trkpt lat="43.69606" lon="1.47659">
        <ele>256.102222</ele>
        <time>2022-03-25T15:27:42.453Z</time>
      </trkpt>
      <trkpt lat="43.69612" lon="1.47673">
        <ele>256.268125</ele>
        <time>2022-03-25T15:27:44.448Z</time>
      </trkpt>
      <trkpt lat="43.69618" lon="1.47688">
        <ele>256.434976</ele>
        <time>2022-03-25T15:27:46.456Z</time>
      </trkpt>
      <trkpt lat="43.69624" lon="1.47702">
        <ele>256.602474</ele>
        <time>2022-03-25T15:27:48.441Z</time>
      </trkpt>
      <trkpt lat="43.6963" lon="1.47715">
        <ele>256.76186</ele>
        <time>2022-03-25T15:27:50.454Z</time>
      </trkpt>
      <trkpt lat="43.69635" lon="1.47728">
        <ele>256.911572</ele>
        <time>2022-03-25T15:27:52.439Z</time>
      </trkpt>
      <trkpt lat="43.69639" lon="1.47739">
        <ele>257.040054</ele>
        <time>2022-03-25T15:27:54.443Z</time>
      </trkpt>
      <trkpt lat="43.69642" lon="1.47752">
        <ele>257.172465</ele>
        <time>2022-03-25T15:27:58.439Z</time>
      </trkpt>
      <trkpt lat="43.69647" lon="1.47763">
        <ele>257.303739</ele>
        <time>2022-03-25T15:28:02.418Z</time>
      </trkpt>
      <trkpt lat="43.69655" lon="1.47772">
        <ele>257.444607</ele>
        <time>2022-03-25T15:28:04.423Z</time>
      </trkpt>
      <trkpt lat="43.69663" lon="1.47781">
        <ele>257.601943</ele>
        <time>2022-03-25T15:28:06.438Z</time>
      </trkpt>
      <trkpt lat="43.69673" lon="1.47793">
        <ele>257.78278</ele>
        <time>2022-03-25T15:28:08.425Z</time>
      </trkpt>
      <trkpt lat="43.69683" lon="1.47804">
        <ele>257.963617</ele>
        <time>2022-03-25T15:28:10.439Z</time>
      </trkpt>
      <trkpt lat="43.69692" lon="1.47814">
        <ele>258.130415</ele>
        <time>2022-03-25T15:28:12.447Z</time>
      </trkpt>
      <trkpt lat="43.69702" lon="1.47825">
        <ele>258.252252</ele>
        <time>2022-03-25T15:28:14.438Z</time>
      </trkpt>
      <trkpt lat="43.69713" lon="1.47833">
        <ele>258.141798</ele>
        <time>2022-03-25T15:28:16.471Z</time>
      </trkpt>
      <trkpt lat="43.69724" lon="1.47838">
        <ele>258.040903</ele>
        <time>2022-03-25T15:28:18.445Z</time>
      </trkpt>
      <trkpt lat="43.69735" lon="1.47841">
        <ele>257.937421</ele>
        <time>2022-03-25T15:28:20.458Z</time>
      </trkpt>
      <trkpt lat="43.69747" lon="1.47841">
        <ele>257.832737</ele>
        <time>2022-03-25T15:28:22.445Z</time>
      </trkpt>
      <trkpt lat="43.6976" lon="1.47838">
        <ele>257.722445</ele>
        <time>2022-03-25T15:28:24.433Z</time>
      </trkpt>
      <trkpt lat="43.69772" lon="1.47835">
        <ele>257.607435</ele>
        <time>2022-03-25T15:28:26.447Z</time>
      </trkpt>
      <trkpt lat="43.69786" lon="1.4783">
        <ele>257.483615</ele>
        <time>2022-03-25T15:28:28.444Z</time>
      </trkpt>
      <trkpt lat="43.69799" lon="1.47825">
        <ele>257.363196</ele>
        <time>2022-03-25T15:28:30.439Z</time>
      </trkpt>
      <trkpt lat="43.69812" lon="1.47818">
        <ele>257.239289</ele>
        <time>2022-03-25T15:28:32.442Z</time>
      </trkpt>
      <trkpt lat="43.69826" lon="1.47812">
        <ele>257.109636</ele>
        <time>2022-03-25T15:28:34.442Z</time>
      </trkpt>
      <trkpt lat="43.6984" lon="1.47806">
        <ele>256.980833</ele>
        <time>2022-03-25T15:28:36.436Z</time>
      </trkpt>
      <trkpt lat="43.69854" lon="1.47802">
        <ele>256.850657</ele>
        <time>2022-03-25T15:28:38.441Z</time>
      </trkpt>
      <trkpt lat="43.69869" lon="1.47799">
        <ele>256.714498</ele>
        <time>2022-03-25T15:28:40.446Z</time>
      </trkpt>
      <trkpt lat="43.69884" lon="1.47788">
        <ele>256.215901</ele>
        <time>2022-03-25T15:28:42.432Z</time>
      </trkpt>
      <trkpt lat="43.69896" lon="1.4777">
        <ele>255.595703</ele>
        <time>2022-03-25T15:28:44.444Z</time>
      </trkpt>
      <trkpt lat="43.69908" lon="1.47753">
        <ele>254.988246</ele>
        <time>2022-03-25T15:28:46.445Z</time>
      </trkpt>
      <trkpt lat="43.69919" lon="1.47736">
        <ele>254.368879</ele>
        <time>2022-03-25T15:28:48.436Z</time>
      </trkpt>
      <trkpt lat="43.69931" lon="1.47718">
        <ele>253.73699</ele>
        <time>2022-03-25T15:28:50.454Z</time>
      </trkpt>
      <trkpt lat="43.69938" lon="1.47709">
        <ele>253.411191</ele>
        <time>2022-03-25T15:28:51.439Z</time>
      </trkpt>
      <trkpt lat="43.69945" lon="1.47701">
        <ele>253.080179</ele>
        <time>2022-03-25T15:28:52.442Z</time>
      </trkpt>
      <trkpt lat="43.69952" lon="1.47691">
        <ele>252.727964</ele>
        <time>2022-03-25T15:28:53.447Z</time>
      </trkpt>
      <trkpt lat="43.69959" lon="1.47682">
        <ele>252.367748</ele>
        <time>2022-03-25T15:28:54.443Z</time>
      </trkpt>
      <trkpt lat="43.69966" lon="1.47672">
        <ele>252.001323</ele>
        <time>2022-03-25T15:28:55.429Z</time>
      </trkpt>
      <trkpt lat="43.69974" lon="1.47662">
        <ele>251.627068</ele>
        <time>2022-03-25T15:28:56.433Z</time>
      </trkpt>
      <trkpt lat="43.69982" lon="1.47653">
        <ele>251.257144</ele>
        <time>2022-03-25T15:28:57.440Z</time>
      </trkpt>
      <trkpt lat="43.69989" lon="1.47644">
        <ele>250.904572</ele>
        <time>2022-03-25T15:28:58.437Z</time>
      </trkpt>
      <trkpt lat="43.69997" lon="1.47637">
        <ele>250.571219</ele>
        <time>2022-03-25T15:28:59.452Z</time>
      </trkpt>
      <trkpt lat="43.70004" lon="1.4763">
        <ele>250.242758</ele>
        <time>2022-03-25T15:29:00.454Z</time>
      </trkpt>
      <trkpt lat="43.70013" lon="1.47625">
        <ele>249.761725</ele>
        <time>2022-03-25T15:29:01.441Z</time>
      </trkpt>
      <trkpt lat="43.7003" lon="1.47619">
        <ele>248.773242</ele>
        <time>2022-03-25T15:29:03.440Z</time>
      </trkpt>
      <trkpt lat="43.70048" lon="1.47617">
        <ele>247.806001</ele>
        <time>2022-03-25T15:29:05.444Z</time>
      </trkpt>
      <trkpt lat="43.70064" lon="1.47619">
        <ele>246.911493</ele>
        <time>2022-03-25T15:29:07.422Z</time>
      </trkpt>
      <trkpt lat="43.70079" lon="1.47624">
        <ele>246.093937</ele>
        <time>2022-03-25T15:29:09.447Z</time>
      </trkpt>
      <trkpt lat="43.70094" lon="1.47629">
        <ele>245.25853</ele>
        <time>2022-03-25T15:29:11.453Z</time>
      </trkpt>
      <trkpt lat="43.70109" lon="1.47632">
        <ele>244.405571</ele>
        <time>2022-03-25T15:29:13.429Z</time>
      </trkpt>
      <trkpt lat="43.70125" lon="1.47632">
        <ele>243.507227</ele>
        <time>2022-03-25T15:29:15.450Z</time>
      </trkpt>
      <trkpt lat="43.70143" lon="1.47626">
        <ele>242.542873</ele>
        <time>2022-03-25T15:29:17.450Z</time>
      </trkpt>
      <trkpt lat="43.70151" lon="1.47621">
        <ele>242.021798</ele>
        <time>2022-03-25T15:29:18.442Z</time>
      </trkpt>
      <trkpt lat="43.70168" lon="1.47611">
        <ele>241.041898</ele>
        <time>2022-03-25T15:29:20.438Z</time>
      </trkpt>
      <trkpt lat="43.70184" lon="1.47604">
        <ele>240.257198</ele>
        <time>2022-03-25T15:29:22.443Z</time>
      </trkpt>
      <trkpt lat="43.70199" lon="1.47604">
        <ele>239.945485</ele>
        <time>2022-03-25T15:29:24.433Z</time>
      </trkpt>
      <trkpt lat="43.70212" lon="1.47613">
        <ele>239.645031</ele>
        <time>2022-03-25T15:29:26.444Z</time>
      </trkpt>
      <trkpt lat="43.70223" lon="1.47623">
        <ele>239.36033</ele>
        <time>2022-03-25T15:29:28.429Z</time>
      </trkpt>
      <trkpt lat="43.70234" lon="1.47632">
        <ele>239.09909</ele>
        <time>2022-03-25T15:29:30.433Z</time>
      </trkpt>
      <trkpt lat="43.70244" lon="1.4764">
        <ele>238.851067</ele>
        <time>2022-03-25T15:29:32.444Z</time>
      </trkpt>
      <trkpt lat="43.70254" lon="1.47648">
        <ele>238.614258</ele>
        <time>2022-03-25T15:29:34.437Z</time>
      </trkpt>
      <trkpt lat="43.70263" lon="1.47653">
        <ele>238.406045</ele>
        <time>2022-03-25T15:29:36.438Z</time>
      </trkpt>
      <trkpt lat="43.70272" lon="1.47661">
        <ele>238.198922</ele>
        <time>2022-03-25T15:29:38.432Z</time>
      </trkpt>
      <trkpt lat="43.70281" lon="1.47668">
        <ele>237.976714</ele>
        <time>2022-03-25T15:29:40.441Z</time>
      </trkpt>
      <trkpt lat="43.70293" lon="1.47674">
        <ele>237.724094</ele>
        <time>2022-03-25T15:29:42.450Z</time>
      </trkpt>
      <trkpt lat="43.70305" lon="1.47681">
        <ele>237.454613</ele>
        <time>2022-03-25T15:29:44.438Z</time>
      </trkpt>
      <trkpt lat="43.70317" lon="1.47688">
        <ele>237.167199</ele>
        <time>2022-03-25T15:29:46.441Z</time>
      </trkpt>
      <trkpt lat="43.70332" lon="1.47695">
        <ele>236.847558</ele>
        <time>2022-03-25T15:29:48.442Z</time>
      </trkpt>
      <trkpt lat="43.70348" lon="1.47702">
        <ele>236.477201</ele>
        <time>2022-03-25T15:29:50.444Z</time>
      </trkpt>
      <trkpt lat="43.70364" lon="1.4771">
        <ele>236.077969</ele>
        <time>2022-03-25T15:29:52.439Z</time>
      </trkpt>
      <trkpt lat="43.70379" lon="1.47719">
        <ele>235.691478</ele>
        <time>2022-03-25T15:29:54.451Z</time>
      </trkpt>
      <trkpt lat="43.70395" lon="1.47727">
        <ele>235.299481</ele>
        <time>2022-03-25T15:29:56.443Z</time>
      </trkpt>
      <trkpt lat="43.7041" lon="1.47734">
        <ele>234.920917</ele>
        <time>2022-03-25T15:29:58.436Z</time>
      </trkpt>
      <trkpt lat="43.70425" lon="1.4774">
        <ele>234.540992</ele>
        <time>2022-03-25T15:30:00.444Z</time>
      </trkpt>
      <trkpt lat="43.7044" lon="1.47747">
        <ele>234.172336</ele>
        <time>2022-03-25T15:30:02.444Z</time>
      </trkpt>
      <trkpt lat="43.70454" lon="1.47754">
        <ele>233.822212</ele>
        <time>2022-03-25T15:30:04.445Z</time>
      </trkpt>
      <trkpt lat="43.70468" lon="1.47761">
        <ele>233.473914</ele>
        <time>2022-03-25T15:30:06.444Z</time>
      </trkpt>
      <trkpt lat="43.7048" lon="1.47771">
        <ele>233.148854</ele>
        <time>2022-03-25T15:30:08.431Z</time>
      </trkpt>
      <trkpt lat="43.70488" lon="1.47785">
        <ele>232.831733</ele>
        <time>2022-03-25T15:30:10.447Z</time>
      </trkpt>
      <trkpt lat="43.70495" lon="1.47801">
        <ele>232.51977</ele>
        <time>2022-03-25T15:30:12.441Z</time>
      </trkpt>
      <trkpt lat="43.705" lon="1.47817">
        <ele>232.326224</ele>
        <time>2022-03-25T15:30:14.465Z</time>
      </trkpt>
      <trkpt lat="43.70506" lon="1.47833">
        <ele>232.247325</ele>
        <time>2022-03-25T15:30:16.441Z</time>
      </trkpt>
      <trkpt lat="43.70512" lon="1.47848">
        <ele>232.17181</ele>
        <time>2022-03-25T15:30:18.450Z</time>
      </trkpt>
      <trkpt lat="43.70518" lon="1.47862">
        <ele>232.093578</ele>
        <time>2022-03-25T15:30:20.441Z</time>
      </trkpt>
      <trkpt lat="43.70524" lon="1.47876">
        <ele>232.021048</ele>
        <time>2022-03-25T15:30:22.431Z</time>
      </trkpt>
      <trkpt lat="43.70531" lon="1.47889">
        <ele>231.948897</ele>
        <time>2022-03-25T15:30:24.454Z</time>
      </trkpt>
      <trkpt lat="43.70537" lon="1.47904">
        <ele>231.871885</ele>
        <time>2022-03-25T15:30:26.430Z</time>
      </trkpt>
      <trkpt lat="43.70544" lon="1.47918">
        <ele>231.79416</ele>
        <time>2022-03-25T15:30:28.440Z</time>
      </trkpt>
      <trkpt lat="43.70551" lon="1.47934">
        <ele>231.7109</ele>
        <time>2022-03-25T15:30:30.431Z</time>
      </trkpt>
      <trkpt lat="43.70557" lon="1.47948">
        <ele>231.634319</ele>
        <time>2022-03-25T15:30:32.454Z</time>
      </trkpt>
      <trkpt lat="43.70563" lon="1.47963">
        <ele>231.559054</ele>
        <time>2022-03-25T15:30:34.440Z</time>
      </trkpt>
      <trkpt lat="43.7057" lon="1.47977">
        <ele>231.483951</ele>
        <time>2022-03-25T15:30:36.458Z</time>
      </trkpt>
      <trkpt lat="43.70577" lon="1.47991">
        <ele>231.405998</ele>
        <time>2022-03-25T15:30:38.439Z</time>
      </trkpt>
      <trkpt lat="43.70584" lon="1.48005">
        <ele>231.329534</ele>
        <time>2022-03-25T15:30:40.440Z</time>
      </trkpt>
      <trkpt lat="43.70591" lon="1.48019">
        <ele>231.253446</ele>
        <time>2022-03-25T15:30:42.441Z</time>
      </trkpt>
      <trkpt lat="43.70598" lon="1.48032">
        <ele>231.24594</ele>
        <time>2022-03-25T15:30:44.445Z</time>
      </trkpt>
      <trkpt lat="43.70606" lon="1.48045">
        <ele>231.251326</ele>
        <time>2022-03-25T15:30:46.441Z</time>
      </trkpt>
      <trkpt lat="43.70614" lon="1.48059">
        <ele>231.256908</ele>
        <time>2022-03-25T15:30:48.445Z</time>
      </trkpt>
      <trkpt lat="43.70622" lon="1.48072">
        <ele>231.262436</ele>
        <time>2022-03-25T15:30:50.442Z</time>
      </trkpt>
      <trkpt lat="43.7063" lon="1.48085">
        <ele>231.267883</ele>
        <time>2022-03-25T15:30:52.444Z</time>
      </trkpt>
      <trkpt lat="43.70637" lon="1.48098">
        <ele>231.273296</ele>
        <time>2022-03-25T15:30:54.442Z</time>
      </trkpt>
      <trkpt lat="43.70645" lon="1.48111">
        <ele>231.278607</ele>
        <time>2022-03-25T15:30:56.439Z</time>
      </trkpt>
      <trkpt lat="43.70652" lon="1.48124">
        <ele>231.283736</ele>
        <time>2022-03-25T15:30:58.444Z</time>
      </trkpt>
      <trkpt lat="43.70659" lon="1.48136">
        <ele>231.288756</ele>
        <time>2022-03-25T15:31:00.446Z</time>
      </trkpt>
      <trkpt lat="43.70666" lon="1.48148">
        <ele>231.293959</ele>
        <time>2022-03-25T15:31:02.441Z</time>
      </trkpt>
      <trkpt lat="43.70675" lon="1.48159">
        <ele>231.299159</ele>
        <time>2022-03-25T15:31:04.437Z</time>
      </trkpt>
      <trkpt lat="43.70685" lon="1.48167">
        <ele>231.304401</ele>
        <time>2022-03-25T15:31:06.458Z</time>
      </trkpt>
      <trkpt lat="43.70696" lon="1.48177">
        <ele>231.309879</ele>
        <time>2022-03-25T15:31:08.440Z</time>
      </trkpt>
      <trkpt lat="43.70706" lon="1.48185">
        <ele>231.315209</ele>
        <time>2022-03-25T15:31:10.447Z</time>
      </trkpt>
      <trkpt lat="43.70717" lon="1.48191">
        <ele>231.320454</ele>
        <time>2022-03-25T15:31:12.447Z</time>
      </trkpt>
      <trkpt lat="43.70728" lon="1.48198">
        <ele>231.316575</ele>
        <time>2022-03-25T15:31:14.439Z</time>
      </trkpt>
      <trkpt lat="43.70739" lon="1.48204">
        <ele>231.311144</ele>
        <time>2022-03-25T15:31:16.445Z</time>
      </trkpt>
      <trkpt lat="43.7075" lon="1.4821">
        <ele>231.306055</ele>
        <time>2022-03-25T15:31:18.441Z</time>
      </trkpt>
      <trkpt lat="43.7076" lon="1.48217">
        <ele>231.300845</ele>
        <time>2022-03-25T15:31:20.442Z</time>
      </trkpt>
      <trkpt lat="43.70771" lon="1.48223">
        <ele>231.29558</ele>
        <time>2022-03-25T15:31:22.442Z</time>
      </trkpt>
      <trkpt lat="43.70781" lon="1.4823">
        <ele>231.290395</ele>
        <time>2022-03-25T15:31:24.442Z</time>
      </trkpt>
      <trkpt lat="43.70792" lon="1.48238">
        <ele>231.284954</ele>
        <time>2022-03-25T15:31:26.442Z</time>
      </trkpt>
      <trkpt lat="43.70803" lon="1.48245">
        <ele>231.279498</ele>
        <time>2022-03-25T15:31:28.433Z</time>
      </trkpt>
      <trkpt lat="43.70814" lon="1.48252">
        <ele>231.27422</ele>
        <time>2022-03-25T15:31:30.451Z</time>
      </trkpt>
      <trkpt lat="43.70824" lon="1.48259">
        <ele>231.269006</ele>
        <time>2022-03-25T15:31:32.440Z</time>
      </trkpt>
      <trkpt lat="43.70834" lon="1.48267">
        <ele>231.263842</ele>
        <time>2022-03-25T15:31:34.446Z</time>
      </trkpt>
      <trkpt lat="43.70845" lon="1.48273">
        <ele>231.258523</ele>
        <time>2022-03-25T15:31:36.437Z</time>
      </trkpt>
      <trkpt lat="43.70855" lon="1.48281">
        <ele>231.253312</ele>
        <time>2022-03-25T15:31:38.441Z</time>
      </trkpt>
      <trkpt lat="43.70865" lon="1.48289">
        <ele>231.248187</ele>
        <time>2022-03-25T15:31:40.442Z</time>
      </trkpt>
      <trkpt lat="43.70875" lon="1.48297">
        <ele>231.242858</ele>
        <time>2022-03-25T15:31:42.444Z</time>
      </trkpt>
      <trkpt lat="43.70886" lon="1.48304">
        <ele>231.255527</ele>
        <time>2022-03-25T15:31:44.442Z</time>
      </trkpt>
      <trkpt lat="43.70897" lon="1.48312">
        <ele>231.284068</ele>
        <time>2022-03-25T15:31:46.440Z</time>
      </trkpt>
      <trkpt lat="43.70907" lon="1.4832">
        <ele>231.311884</ele>
        <time>2022-03-25T15:31:48.441Z</time>
      </trkpt>
      <trkpt lat="43.70918" lon="1.48326">
        <ele>231.338693</ele>
        <time>2022-03-25T15:31:50.440Z</time>
      </trkpt>
      <trkpt lat="43.70928" lon="1.48333">
        <ele>231.365585</ele>
        <time>2022-03-25T15:31:52.441Z</time>
      </trkpt>
      <trkpt lat="43.70938" lon="1.48342">
        <ele>231.392751</ele>
        <time>2022-03-25T15:31:54.433Z</time>
      </trkpt>
      <trkpt lat="43.70947" lon="1.4835">
        <ele>231.418393</ele>
        <time>2022-03-25T15:31:56.441Z</time>
      </trkpt>
      <trkpt lat="43.70955" lon="1.48359">
        <ele>231.443406</ele>
        <time>2022-03-25T15:31:58.442Z</time>
      </trkpt>
      <trkpt lat="43.70963" lon="1.48367">
        <ele>231.466441</ele>
        <time>2022-03-25T15:32:00.444Z</time>
      </trkpt>
      <trkpt lat="43.70971" lon="1.48375">
        <ele>231.489496</ele>
        <time>2022-03-25T15:32:02.440Z</time>
      </trkpt>
      <trkpt lat="43.70979" lon="1.48385">
        <ele>231.5148</ele>
        <time>2022-03-25T15:32:04.440Z</time>
      </trkpt>
      <trkpt lat="43.70987" lon="1.48393">
        <ele>231.538989</ele>
        <time>2022-03-25T15:32:06.447Z</time>
      </trkpt>
      <trkpt lat="43.70996" lon="1.48401">
        <ele>231.562589</ele>
        <time>2022-03-25T15:32:08.447Z</time>
      </trkpt>
      <trkpt lat="43.71003" lon="1.48408">
        <ele>231.585316</ele>
        <time>2022-03-25T15:32:10.441Z</time>
      </trkpt>
      <trkpt lat="43.71012" lon="1.48417">
        <ele>231.610391</ele>
        <time>2022-03-25T15:32:13.441Z</time>
      </trkpt>
      <trkpt lat="43.71019" lon="1.48426">
        <ele>231.633599</ele>
        <time>2022-03-25T15:32:24.429Z</time>
      </trkpt>
      <trkpt lat="43.71031" lon="1.48438">
        <ele>231.673493</ele>
        <time>2022-03-25T15:32:27.442Z</time>
      </trkpt>
      <trkpt lat="43.7104" lon="1.4845">
        <ele>231.753357</ele>
        <time>2022-03-25T15:32:29.444Z</time>
      </trkpt>
      <trkpt lat="43.71049" lon="1.4846">
        <ele>231.827674</ele>
        <time>2022-03-25T15:32:31.437Z</time>
      </trkpt>
      <trkpt lat="43.71058" lon="1.4847">
        <ele>231.904626</ele>
        <time>2022-03-25T15:32:33.447Z</time>
      </trkpt>
      <trkpt lat="43.71067" lon="1.4848">
        <ele>231.980669</ele>
        <time>2022-03-25T15:32:35.429Z</time>
      </trkpt>
      <trkpt lat="43.71074" lon="1.48491">
        <ele>232.052648</ele>
        <time>2022-03-25T15:32:37.436Z</time>
      </trkpt>
      <trkpt lat="43.71083" lon="1.48501">
        <ele>232.129392</ele>
        <time>2022-03-25T15:32:39.438Z</time>
      </trkpt>
      <trkpt lat="43.71093" lon="1.4851">
        <ele>232.205067</ele>
        <time>2022-03-25T15:32:41.445Z</time>
      </trkpt>
      <trkpt lat="43.71101" lon="1.48521">
        <ele>232.279688</ele>
        <time>2022-03-25T15:32:43.445Z</time>
      </trkpt>
      <trkpt lat="43.7111" lon="1.48531">
        <ele>232.352947</ele>
        <time>2022-03-25T15:32:45.432Z</time>
      </trkpt>
      <trkpt lat="43.71118" lon="1.48541">
        <ele>232.423794</ele>
        <time>2022-03-25T15:32:47.444Z</time>
      </trkpt>
      <trkpt lat="43.71126" lon="1.48551">
        <ele>232.496493</ele>
        <time>2022-03-25T15:32:49.441Z</time>
      </trkpt>
      <trkpt lat="43.71135" lon="1.48561">
        <ele>232.571683</ele>
        <time>2022-03-25T15:32:51.440Z</time>
      </trkpt>
      <trkpt lat="43.71144" lon="1.48571">
        <ele>232.647113</ele>
        <time>2022-03-25T15:32:53.443Z</time>
      </trkpt>
      <trkpt lat="43.71153" lon="1.4858">
        <ele>232.72104</ele>
        <time>2022-03-25T15:32:55.443Z</time>
      </trkpt>
      <trkpt lat="43.71161" lon="1.48591">
        <ele>232.796559</ele>
        <time>2022-03-25T15:32:57.423Z</time>
      </trkpt>
      <trkpt lat="43.7117" lon="1.48604">
        <ele>232.842852</ele>
        <time>2022-03-25T15:32:59.433Z</time>
      </trkpt>
      <trkpt lat="43.71178" lon="1.48617">
        <ele>232.832082</ele>
        <time>2022-03-25T15:33:01.440Z</time>
      </trkpt>
      <trkpt lat="43.71186" lon="1.4863">
        <ele>232.822343</ele>
        <time>2022-03-25T15:33:03.440Z</time>
      </trkpt>
      <trkpt lat="43.71193" lon="1.48643">
        <ele>232.812294</ele>
        <time>2022-03-25T15:33:05.444Z</time>
      </trkpt>
      <trkpt lat="43.71201" lon="1.48658">
        <ele>232.801163</ele>
        <time>2022-03-25T15:33:07.443Z</time>
      </trkpt>
      <trkpt lat="43.7121" lon="1.48671">
        <ele>232.790728</ele>
        <time>2022-03-25T15:33:09.442Z</time>
      </trkpt>
      <trkpt lat="43.71217" lon="1.48684">
        <ele>232.780805</ele>
        <time>2022-03-25T15:33:11.442Z</time>
      </trkpt>
      <trkpt lat="43.71225" lon="1.48697">
        <ele>232.770691</ele>
        <time>2022-03-25T15:33:13.438Z</time>
      </trkpt>
      <trkpt lat="43.71233" lon="1.4871">
        <ele>232.760563</ele>
        <time>2022-03-25T15:33:15.451Z</time>
      </trkpt>
      <trkpt lat="43.71241" lon="1.48723">
        <ele>232.750152</ele>
        <time>2022-03-25T15:33:17.440Z</time>
      </trkpt>
      <trkpt lat="43.71249" lon="1.48737">
        <ele>232.739544</ele>
        <time>2022-03-25T15:33:19.443Z</time>
      </trkpt>
      <trkpt lat="43.71257" lon="1.48751">
        <ele>232.728836</ele>
        <time>2022-03-25T15:33:21.453Z</time>
      </trkpt>
      <trkpt lat="43.71265" lon="1.48764">
        <ele>232.718141</ele>
        <time>2022-03-25T15:33:23.441Z</time>
      </trkpt>
      <trkpt lat="43.71273" lon="1.48778">
        <ele>232.707549</ele>
        <time>2022-03-25T15:33:25.446Z</time>
      </trkpt>
      <trkpt lat="43.71281" lon="1.48792">
        <ele>232.699477</ele>
        <time>2022-03-25T15:33:27.443Z</time>
      </trkpt>
      <trkpt lat="43.71288" lon="1.48805">
        <ele>232.746932</ele>
        <time>2022-03-25T15:33:29.429Z</time>
      </trkpt>
      <trkpt lat="43.71295" lon="1.48819">
        <ele>232.794218</ele>
        <time>2022-03-25T15:33:31.435Z</time>
      </trkpt>
      <trkpt lat="43.71301" lon="1.48833">
        <ele>232.841263</ele>
        <time>2022-03-25T15:33:33.448Z</time>
      </trkpt>
      <trkpt lat="43.71308" lon="1.48846">
        <ele>232.88895</ele>
        <time>2022-03-25T15:33:35.444Z</time>
      </trkpt>
      <trkpt lat="43.71315" lon="1.48859">
        <ele>232.935716</ele>
        <time>2022-03-25T15:33:37.439Z</time>
      </trkpt>
      <trkpt lat="43.71323" lon="1.48871">
        <ele>232.980811</ele>
        <time>2022-03-25T15:33:39.444Z</time>
      </trkpt>
      <trkpt lat="43.71329" lon="1.48884">
        <ele>233.025719</ele>
        <time>2022-03-25T15:33:41.439Z</time>
      </trkpt>
      <trkpt lat="43.71336" lon="1.48898">
        <ele>233.072097</ele>
        <time>2022-03-25T15:33:43.435Z</time>
      </trkpt>
      <trkpt lat="43.71342" lon="1.48911">
        <ele>233.117953</ele>
        <time>2022-03-25T15:33:45.444Z</time>
      </trkpt>
      <trkpt lat="43.71349" lon="1.48925">
        <ele>233.166686</ele>
        <time>2022-03-25T15:33:47.423Z</time>
      </trkpt>
      <trkpt lat="43.71354" lon="1.48941">
        <ele>233.216102</ele>
        <time>2022-03-25T15:33:49.429Z</time>
      </trkpt>
      <trkpt lat="43.71359" lon="1.48956">
        <ele>233.263899</ele>
        <time>2022-03-25T15:33:51.440Z</time>
      </trkpt>
      <trkpt lat="43.71364" lon="1.48971">
        <ele>233.309358</ele>
        <time>2022-03-25T15:33:53.436Z</time>
      </trkpt>
      <trkpt lat="43.71369" lon="1.48985">
        <ele>233.355429</ele>
        <time>2022-03-25T15:33:55.430Z</time>
      </trkpt>
      <trkpt lat="43.71373" lon="1.49">
        <ele>233.401288</ele>
        <time>2022-03-25T15:33:57.435Z</time>
      </trkpt>
      <trkpt lat="43.71379" lon="1.49014">
        <ele>233.1982</ele>
        <time>2022-03-25T15:33:59.434Z</time>
      </trkpt>
      <trkpt lat="43.71387" lon="1.49029">
        <ele>232.922425</ele>
        <time>2022-03-25T15:34:01.446Z</time>
      </trkpt>
      <trkpt lat="43.71396" lon="1.49042">
        <ele>232.643979</ele>
        <time>2022-03-25T15:34:03.447Z</time>
      </trkpt>
      <trkpt lat="43.71406" lon="1.49056">
        <ele>232.350452</ele>
        <time>2022-03-25T15:34:05.428Z</time>
      </trkpt>
      <trkpt lat="43.71416" lon="1.4907">
        <ele>232.037793</ele>
        <time>2022-03-25T15:34:07.443Z</time>
      </trkpt>
      <trkpt lat="43.71427" lon="1.49085">
        <ele>231.70104</ele>
        <time>2022-03-25T15:34:09.440Z</time>
      </trkpt>
      <trkpt lat="43.71439" lon="1.49102">
        <ele>231.345321</ele>
        <time>2022-03-25T15:34:11.440Z</time>
      </trkpt>
      <trkpt lat="43.71451" lon="1.49119">
        <ele>230.988896</ele>
        <time>2022-03-25T15:34:13.434Z</time>
      </trkpt>
      <trkpt lat="43.71463" lon="1.49136">
        <ele>230.621765</ele>
        <time>2022-03-25T15:34:15.443Z</time>
      </trkpt>
      <trkpt lat="43.71474" lon="1.49154">
        <ele>230.250763</ele>
        <time>2022-03-25T15:34:17.442Z</time>
      </trkpt>
      <trkpt lat="43.71485" lon="1.49172">
        <ele>229.895778</ele>
        <time>2022-03-25T15:34:19.443Z</time>
      </trkpt>
      <trkpt lat="43.71496" lon="1.4919">
        <ele>229.503885</ele>
        <time>2022-03-25T15:34:21.439Z</time>
      </trkpt>
      <trkpt lat="43.71506" lon="1.49208">
        <ele>229.025275</ele>
        <time>2022-03-25T15:34:23.440Z</time>
      </trkpt>
      <trkpt lat="43.71513" lon="1.49224">
        <ele>228.607654</ele>
        <time>2022-03-25T15:34:25.449Z</time>
      </trkpt>
      <trkpt lat="43.7152" lon="1.49241">
        <ele>228.189829</ele>
        <time>2022-03-25T15:34:27.438Z</time>
      </trkpt>
      <trkpt lat="43.71527" lon="1.49258">
        <ele>227.774357</ele>
        <time>2022-03-25T15:34:29.432Z</time>
      </trkpt>
      <trkpt lat="43.71533" lon="1.49274">
        <ele>227.385553</ele>
        <time>2022-03-25T15:34:31.435Z</time>
      </trkpt>
      <trkpt lat="43.71539" lon="1.4929">
        <ele>226.991536</ele>
        <time>2022-03-25T15:34:33.438Z</time>
      </trkpt>
      <trkpt lat="43.71546" lon="1.49306">
        <ele>226.596835</ele>
        <time>2022-03-25T15:34:35.441Z</time>
      </trkpt>
      <trkpt lat="43.71553" lon="1.49321">
        <ele>226.203457</ele>
        <time>2022-03-25T15:34:37.441Z</time>
      </trkpt>
      <trkpt lat="43.71561" lon="1.49336">
        <ele>225.813824</ele>
        <time>2022-03-25T15:34:39.438Z</time>
      </trkpt>
      <trkpt lat="43.71568" lon="1.4935">
        <ele>225.441695</ele>
        <time>2022-03-25T15:34:41.434Z</time>
      </trkpt>
      <trkpt lat="43.71574" lon="1.49365">
        <ele>225.06927</ele>
        <time>2022-03-25T15:34:43.443Z</time>
      </trkpt>
      <trkpt lat="43.71581" lon="1.49379">
        <ele>224.710746</ele>
        <time>2022-03-25T15:34:45.453Z</time>
      </trkpt>
      <trkpt lat="43.71588" lon="1.49391">
        <ele>224.375438</ele>
        <time>2022-03-25T15:34:47.446Z</time>
      </trkpt>
      <trkpt lat="43.71592" lon="1.49405">
        <ele>223.853567</ele>
        <time>2022-03-25T15:34:49.455Z</time>
      </trkpt>
      <trkpt lat="43.71594" lon="1.49419">
        <ele>223.182724</ele>
        <time>2022-03-25T15:34:51.430Z</time>
      </trkpt>
      <trkpt lat="43.71597" lon="1.49435">
        <ele>222.435237</ele>
        <time>2022-03-25T15:34:53.436Z</time>
      </trkpt>
      <trkpt lat="43.71598" lon="1.49449">
        <ele>221.757073</ele>
        <time>2022-03-25T15:34:55.434Z</time>
      </trkpt>
      <trkpt lat="43.71598" lon="1.49467">
        <ele>220.904224</ele>
        <time>2022-03-25T15:34:57.436Z</time>
      </trkpt>
      <trkpt lat="43.71598" lon="1.49487">
        <ele>219.990326</ele>
        <time>2022-03-25T15:34:59.442Z</time>
      </trkpt>
      <trkpt lat="43.71598" lon="1.49511">
        <ele>218.885868</ele>
        <time>2022-03-25T15:35:01.438Z</time>
      </trkpt>
      <trkpt lat="43.71598" lon="1.49536">
        <ele>217.72528</ele>
        <time>2022-03-25T15:35:03.440Z</time>
      </trkpt>
      <trkpt lat="43.71598" lon="1.49549">
        <ele>217.114841</ele>
        <time>2022-03-25T15:35:04.438Z</time>
      </trkpt>
      <trkpt lat="43.71598" lon="1.49563">
        <ele>216.439163</ele>
        <time>2022-03-25T15:35:05.445Z</time>
      </trkpt>
      <trkpt lat="43.71598" lon="1.49578">
        <ele>215.734789</ele>
        <time>2022-03-25T15:35:06.438Z</time>
      </trkpt>
      <trkpt lat="43.71597" lon="1.49594">
        <ele>214.983557</ele>
        <time>2022-03-25T15:35:07.439Z</time>
      </trkpt>
      <trkpt lat="43.71597" lon="1.4961">
        <ele>214.242193</ele>
        <time>2022-03-25T15:35:08.440Z</time>
      </trkpt>
      <trkpt lat="43.71596" lon="1.49626">
        <ele>213.505233</ele>
        <time>2022-03-25T15:35:09.439Z</time>
      </trkpt>
      <trkpt lat="43.71596" lon="1.49641">
        <ele>212.80133</ele>
        <time>2022-03-25T15:35:10.439Z</time>
      </trkpt>
      <trkpt lat="43.71596" lon="1.49656">
        <ele>211.980357</ele>
        <time>2022-03-25T15:35:11.443Z</time>
      </trkpt>
      <trkpt lat="43.71595" lon="1.49671">
        <ele>211.125892</ele>
        <time>2022-03-25T15:35:12.441Z</time>
      </trkpt>
      <trkpt lat="43.71596" lon="1.49685">
        <ele>210.32317</ele>
        <time>2022-03-25T15:35:13.438Z</time>
      </trkpt>
      <trkpt lat="43.71597" lon="1.49698">
        <ele>209.572388</ele>
        <time>2022-03-25T15:35:14.437Z</time>
      </trkpt>
      <trkpt lat="43.716" lon="1.4971">
        <ele>208.824835</ele>
        <time>2022-03-25T15:35:15.446Z</time>
      </trkpt>
      <trkpt lat="43.71603" lon="1.49722">
        <ele>208.090812</ele>
        <time>2022-03-25T15:35:16.446Z</time>
      </trkpt>
      <trkpt lat="43.71609" lon="1.49742">
        <ele>206.874618</ele>
        <time>2022-03-25T15:35:18.448Z</time>
      </trkpt>
      <trkpt lat="43.71612" lon="1.49758">
        <ele>205.873115</ele>
        <time>2022-03-25T15:35:21.449Z</time>
      </trkpt>
      <trkpt lat="43.71616" lon="1.49771">
        <ele>205.077335</ele>
        <time>2022-03-25T15:35:25.445Z</time>
      </trkpt>
      <trkpt lat="43.71615" lon="1.49788">
        <ele>204.084812</ele>
        <time>2022-03-25T15:35:29.426Z</time>
      </trkpt>
      <trkpt lat="43.71617" lon="1.49806">
        <ele>202.993622</ele>
        <time>2022-03-25T15:35:32.436Z</time>
      </trkpt>
      <trkpt lat="43.71619" lon="1.4982">
        <ele>202.203943</ele>
        <time>2022-03-25T15:35:34.433Z</time>
      </trkpt>
      <trkpt lat="43.71621" lon="1.49833">
        <ele>201.425334</ele>
        <time>2022-03-25T15:35:36.434Z</time>
      </trkpt>
      <trkpt lat="43.71623" lon="1.49846">
        <ele>200.656411</ele>
        <time>2022-03-25T15:35:38.442Z</time>
      </trkpt>
      <trkpt lat="43.71625" lon="1.4986">
        <ele>199.808477</ele>
        <time>2022-03-25T15:35:40.428Z</time>
      </trkpt>
      <trkpt lat="43.71628" lon="1.49875">
        <ele>198.94611</ele>
        <time>2022-03-25T15:35:42.439Z</time>
      </trkpt>
      <trkpt lat="43.71629" lon="1.49889">
        <ele>198.216991</ele>
        <time>2022-03-25T15:35:44.456Z</time>
      </trkpt>
      <trkpt lat="43.7163" lon="1.49902">
        <ele>197.861375</ele>
        <time>2022-03-25T15:35:46.441Z</time>
      </trkpt>
      <trkpt lat="43.71632" lon="1.49915">
        <ele>197.514743</ele>
        <time>2022-03-25T15:35:48.439Z</time>
      </trkpt>
      <trkpt lat="43.71634" lon="1.49928">
        <ele>197.168126</ele>
        <time>2022-03-25T15:35:50.452Z</time>
      </trkpt>
      <trkpt lat="43.71635" lon="1.49941">
        <ele>196.816307</ele>
        <time>2022-03-25T15:35:52.440Z</time>
      </trkpt>
      <trkpt lat="43.71637" lon="1.49955">
        <ele>196.439839</ele>
        <time>2022-03-25T15:35:54.426Z</time>
      </trkpt>
      <trkpt lat="43.71639" lon="1.4997">
        <ele>196.052061</ele>
        <time>2022-03-25T15:35:56.455Z</time>
      </trkpt>
      <trkpt lat="43.71642" lon="1.49984">
        <ele>195.64761</ele>
        <time>2022-03-25T15:35:58.450Z</time>
      </trkpt>
      <trkpt lat="43.71647" lon="1.49998">
        <ele>195.243518</ele>
        <time>2022-03-25T15:36:00.453Z</time>
      </trkpt>
      <trkpt lat="43.71654" lon="1.5001">
        <ele>194.810273</ele>
        <time>2022-03-25T15:36:02.459Z</time>
      </trkpt>
      <trkpt lat="43.71664" lon="1.50021">
        <ele>194.374663</ele>
        <time>2022-03-25T15:36:04.444Z</time>
      </trkpt>
      <trkpt lat="43.71675" lon="1.50028">
        <ele>193.930283</ele>
        <time>2022-03-25T15:36:06.436Z</time>
      </trkpt>
      <trkpt lat="43.71687" lon="1.50034">
        <ele>193.470671</ele>
        <time>2022-03-25T15:36:08.445Z</time>
      </trkpt>
      <trkpt lat="43.71699" lon="1.50039">
        <ele>193.010167</ele>
        <time>2022-03-25T15:36:10.442Z</time>
      </trkpt>
      <trkpt lat="43.71711" lon="1.50044">
        <ele>192.544613</ele>
        <time>2022-03-25T15:36:12.431Z</time>
      </trkpt>
      <trkpt lat="43.71723" lon="1.50049">
        <ele>192.073722</ele>
        <time>2022-03-25T15:36:14.445Z</time>
      </trkpt>
      <trkpt lat="43.71736" lon="1.50055">
        <ele>191.681478</ele>
        <time>2022-03-25T15:36:16.445Z</time>
      </trkpt>
      <trkpt lat="43.71746" lon="1.50062">
        <ele>191.531588</ele>
        <time>2022-03-25T15:36:18.440Z</time>
      </trkpt>
      <trkpt lat="43.71756" lon="1.50071">
        <ele>191.385124</ele>
        <time>2022-03-25T15:36:20.443Z</time>
      </trkpt>
      <trkpt lat="43.71766" lon="1.50082">
        <ele>191.234638</ele>
        <time>2022-03-25T15:36:22.434Z</time>
      </trkpt>
      <trkpt lat="43.71774" lon="1.50093">
        <ele>191.088357</ele>
        <time>2022-03-25T15:36:24.448Z</time>
      </trkpt>
      <trkpt lat="43.71782" lon="1.50105">
        <ele>190.946907</ele>
        <time>2022-03-25T15:36:26.452Z</time>
      </trkpt>
      <trkpt lat="43.7179" lon="1.50116">
        <ele>190.806303</ele>
        <time>2022-03-25T15:36:28.454Z</time>
      </trkpt>
      <trkpt lat="43.71797" lon="1.50127">
        <ele>190.670201</ele>
        <time>2022-03-25T15:36:30.455Z</time>
      </trkpt>
      <trkpt lat="43.71805" lon="1.50138">
        <ele>190.532208</ele>
        <time>2022-03-25T15:36:32.453Z</time>
      </trkpt>
      <trkpt lat="43.71812" lon="1.5015">
        <ele>190.394108</ele>
        <time>2022-03-25T15:36:34.445Z</time>
      </trkpt>
      <trkpt lat="43.7182" lon="1.5016">
        <ele>190.257545</ele>
        <time>2022-03-25T15:36:36.448Z</time>
      </trkpt>
      <trkpt lat="43.71828" lon="1.50172">
        <ele>190.115243</ele>
        <time>2022-03-25T15:36:38.444Z</time>
      </trkpt>
      <trkpt lat="43.71836" lon="1.50184">
        <ele>189.966473</ele>
        <time>2022-03-25T15:36:40.452Z</time>
      </trkpt>
      <trkpt lat="43.71844" lon="1.50196">
        <ele>189.8162</ele>
        <time>2022-03-25T15:36:42.451Z</time>
      </trkpt>
      <trkpt lat="43.71853" lon="1.50208">
        <ele>189.663754</ele>
        <time>2022-03-25T15:36:44.453Z</time>
      </trkpt>
      <trkpt lat="43.71861" lon="1.50221">
        <ele>189.514148</ele>
        <time>2022-03-25T15:36:46.458Z</time>
      </trkpt>
      <trkpt lat="43.71869" lon="1.50233">
        <ele>189.255976</ele>
        <time>2022-03-25T15:36:48.440Z</time>
      </trkpt>
      <trkpt lat="43.71878" lon="1.50245">
        <ele>188.967714</ele>
        <time>2022-03-25T15:36:50.444Z</time>
      </trkpt>
      <trkpt lat="43.71887" lon="1.50256">
        <ele>188.690319</ele>
        <time>2022-03-25T15:36:52.444Z</time>
      </trkpt>
      <trkpt lat="43.71897" lon="1.50263">
        <ele>188.414758</ele>
        <time>2022-03-25T15:36:54.453Z</time>
      </trkpt>
      <trkpt lat="43.71909" lon="1.50267">
        <ele>188.124952</ele>
        <time>2022-03-25T15:36:56.445Z</time>
      </trkpt>
      <trkpt lat="43.71922" lon="1.50269">
        <ele>187.821957</ele>
        <time>2022-03-25T15:36:58.444Z</time>
      </trkpt>
      <trkpt lat="43.71935" lon="1.50267">
        <ele>187.514271</ele>
        <time>2022-03-25T15:37:00.443Z</time>
      </trkpt>
      <trkpt lat="43.71946" lon="1.50265">
        <ele>187.247473</ele>
        <time>2022-03-25T15:37:02.452Z</time>
      </trkpt>
      <trkpt lat="43.71955" lon="1.50263">
        <ele>187.022833</ele>
        <time>2022-03-25T15:37:06.442Z</time>
      </trkpt>
      <trkpt lat="43.71956" lon="1.50279">
        <ele>186.739511</ele>
        <time>2022-03-25T15:37:12.423Z</time>
      </trkpt>
      <trkpt lat="43.71954" lon="1.50293">
        <ele>186.494997</ele>
        <time>2022-03-25T15:37:14.442Z</time>
      </trkpt>
      <trkpt lat="43.7195" lon="1.5031">
        <ele>186.206725</ele>
        <time>2022-03-25T15:37:16.441Z</time>
      </trkpt>
      <trkpt lat="43.71947" lon="1.50327">
        <ele>185.898227</ele>
        <time>2022-03-25T15:37:18.440Z</time>
      </trkpt>
      <trkpt lat="43.71945" lon="1.50344">
        <ele>185.603475</ele>
        <time>2022-03-25T15:37:20.446Z</time>
      </trkpt>
      <trkpt lat="43.71941" lon="1.50361">
        <ele>185.30925</ele>
        <time>2022-03-25T15:37:22.449Z</time>
      </trkpt>
      <trkpt lat="43.71938" lon="1.50378">
        <ele>185.13379</ele>
        <time>2022-03-25T15:37:24.438Z</time>
      </trkpt>
      <trkpt lat="43.71936" lon="1.50395">
        <ele>184.9858</ele>
        <time>2022-03-25T15:37:26.447Z</time>
      </trkpt>
      <trkpt lat="43.71932" lon="1.50412">
        <ele>184.835377</ele>
        <time>2022-03-25T15:37:28.463Z</time>
      </trkpt>
      <trkpt lat="43.71929" lon="1.50429">
        <ele>184.686859</ele>
        <time>2022-03-25T15:37:30.438Z</time>
      </trkpt>
      <trkpt lat="43.71926" lon="1.50447">
        <ele>184.536966</ele>
        <time>2022-03-25T15:37:32.459Z</time>
      </trkpt>
      <trkpt lat="43.71924" lon="1.50464">
        <ele>184.391088</ele>
        <time>2022-03-25T15:37:34.443Z</time>
      </trkpt>
      <trkpt lat="43.71924" lon="1.5048">
        <ele>184.258466</ele>
        <time>2022-03-25T15:37:36.433Z</time>
      </trkpt>
      <trkpt lat="43.71924" lon="1.50496">
        <ele>184.118055</ele>
        <time>2022-03-25T15:37:38.452Z</time>
      </trkpt>
      <trkpt lat="43.71926" lon="1.50513">
        <ele>183.972201</ele>
        <time>2022-03-25T15:37:40.437Z</time>
      </trkpt>
      <trkpt lat="43.71934" lon="1.5053">
        <ele>183.806342</ele>
        <time>2022-03-25T15:37:42.442Z</time>
      </trkpt>
      <trkpt lat="43.71943" lon="1.50546">
        <ele>183.633998</ele>
        <time>2022-03-25T15:37:44.434Z</time>
      </trkpt>
      <trkpt lat="43.71952" lon="1.50562">
        <ele>183.468413</ele>
        <time>2022-03-25T15:37:46.438Z</time>
      </trkpt>
      <trkpt lat="43.71961" lon="1.50576">
        <ele>183.307855</ele>
        <time>2022-03-25T15:37:48.444Z</time>
      </trkpt>
      <trkpt lat="43.7197" lon="1.5059">
        <ele>183.148972</ele>
        <time>2022-03-25T15:37:50.440Z</time>
      </trkpt>
      <trkpt lat="43.7198" lon="1.50603">
        <ele>182.938833</ele>
        <time>2022-03-25T15:37:52.446Z</time>
      </trkpt>
      <trkpt lat="43.71991" lon="1.50616">
        <ele>182.728762</ele>
        <time>2022-03-25T15:37:54.453Z</time>
      </trkpt>
      <trkpt lat="43.72002" lon="1.50627">
        <ele>182.519326</ele>
        <time>2022-03-25T15:37:56.442Z</time>
      </trkpt>
      <trkpt lat="43.72013" lon="1.50639">
        <ele>182.313222</ele>
        <time>2022-03-25T15:37:58.446Z</time>
      </trkpt>
      <trkpt lat="43.72024" lon="1.5065">
        <ele>182.100778</ele>
        <time>2022-03-25T15:38:00.442Z</time>
      </trkpt>
      <trkpt lat="43.72036" lon="1.5066">
        <ele>181.900322</ele>
        <time>2022-03-25T15:38:02.433Z</time>
      </trkpt>
      <trkpt lat="43.72047" lon="1.50669">
        <ele>181.696836</ele>
        <time>2022-03-25T15:38:04.442Z</time>
      </trkpt>
      <trkpt lat="43.72059" lon="1.50678">
        <ele>181.494528</ele>
        <time>2022-03-25T15:38:06.444Z</time>
      </trkpt>
      <trkpt lat="43.72071" lon="1.50687">
        <ele>181.289955</ele>
        <time>2022-03-25T15:38:08.441Z</time>
      </trkpt>
      <trkpt lat="43.72082" lon="1.50697">
        <ele>181.086913</ele>
        <time>2022-03-25T15:38:10.444Z</time>
      </trkpt>
      <trkpt lat="43.72094" lon="1.50706">
        <ele>180.887572</ele>
        <time>2022-03-25T15:38:12.443Z</time>
      </trkpt>
      <trkpt lat="43.72105" lon="1.50716">
        <ele>180.689373</ele>
        <time>2022-03-25T15:38:14.451Z</time>
      </trkpt>
      <trkpt lat="43.72115" lon="1.50728">
        <ele>180.496265</ele>
        <time>2022-03-25T15:38:16.448Z</time>
      </trkpt>
      <trkpt lat="43.72125" lon="1.50739">
        <ele>180.346078</ele>
        <time>2022-03-25T15:38:18.441Z</time>
      </trkpt>
      <trkpt lat="43.72134" lon="1.50752">
        <ele>180.208649</ele>
        <time>2022-03-25T15:38:20.431Z</time>
      </trkpt>
      <trkpt lat="43.72143" lon="1.50765">
        <ele>180.071829</ele>
        <time>2022-03-25T15:38:22.442Z</time>
      </trkpt>
      <trkpt lat="43.72152" lon="1.50778">
        <ele>179.935147</ele>
        <time>2022-03-25T15:38:24.442Z</time>
      </trkpt>
      <trkpt lat="43.72162" lon="1.5079">
        <ele>179.792648</ele>
        <time>2022-03-25T15:38:26.436Z</time>
      </trkpt>
      <trkpt lat="43.72172" lon="1.50803">
        <ele>179.654245</ele>
        <time>2022-03-25T15:38:28.441Z</time>
      </trkpt>
      <trkpt lat="43.72182" lon="1.50815">
        <ele>179.515313</ele>
        <time>2022-03-25T15:38:30.441Z</time>
      </trkpt>
      <trkpt lat="43.72192" lon="1.50827">
        <ele>179.377139</ele>
        <time>2022-03-25T15:38:32.448Z</time>
      </trkpt>
      <trkpt lat="43.72202" lon="1.50839">
        <ele>179.241605</ele>
        <time>2022-03-25T15:38:34.442Z</time>
      </trkpt>
      <trkpt lat="43.72212" lon="1.50849">
        <ele>179.113329</ele>
        <time>2022-03-25T15:38:36.449Z</time>
      </trkpt>
      <trkpt lat="43.72221" lon="1.50859">
        <ele>178.984665</ele>
        <time>2022-03-25T15:38:38.440Z</time>
      </trkpt>
      <trkpt lat="43.72232" lon="1.50868">
        <ele>178.856424</ele>
        <time>2022-03-25T15:38:40.442Z</time>
      </trkpt>
      <trkpt lat="43.72242" lon="1.50877">
        <ele>178.72988</ele>
        <time>2022-03-25T15:38:42.442Z</time>
      </trkpt>
      <trkpt lat="43.72252" lon="1.50887">
        <ele>178.602554</ele>
        <time>2022-03-25T15:38:44.439Z</time>
      </trkpt>
      <trkpt lat="43.72262" lon="1.50897">
        <ele>178.495108</ele>
        <time>2022-03-25T15:38:46.454Z</time>
      </trkpt>
      <trkpt lat="43.72272" lon="1.50908">
        <ele>178.392042</ele>
        <time>2022-03-25T15:38:48.431Z</time>
      </trkpt>
      <trkpt lat="43.72281" lon="1.50919">
        <ele>178.28748</ele>
        <time>2022-03-25T15:38:50.444Z</time>
      </trkpt>
      <trkpt lat="43.72291" lon="1.5093">
        <ele>178.185296</ele>
        <time>2022-03-25T15:38:52.428Z</time>
      </trkpt>
      <trkpt lat="43.72298" lon="1.50943">
        <ele>178.08684</ele>
        <time>2022-03-25T15:38:54.445Z</time>
      </trkpt>
      <trkpt lat="43.72304" lon="1.50956">
        <ele>177.994154</ele>
        <time>2022-03-25T15:38:56.435Z</time>
      </trkpt>
      <trkpt lat="43.72309" lon="1.5097">
        <ele>177.900908</ele>
        <time>2022-03-25T15:38:58.448Z</time>
      </trkpt>
      <trkpt lat="43.72315" lon="1.50983">
        <ele>177.807284</ele>
        <time>2022-03-25T15:39:00.440Z</time>
      </trkpt>
      <trkpt lat="43.72322" lon="1.50996">
        <ele>177.710076</ele>
        <time>2022-03-25T15:39:02.449Z</time>
      </trkpt>
      <trkpt lat="43.72328" lon="1.5101">
        <ele>177.615003</ele>
        <time>2022-03-25T15:39:04.444Z</time>
      </trkpt>
      <trkpt lat="43.72334" lon="1.51024">
        <ele>177.519565</ele>
        <time>2022-03-25T15:39:06.443Z</time>
      </trkpt>
      <trkpt lat="43.72341" lon="1.51037">
        <ele>177.421357</ele>
        <time>2022-03-25T15:39:08.447Z</time>
      </trkpt>
      <trkpt lat="43.72348" lon="1.51051">
        <ele>177.323184</ele>
        <time>2022-03-25T15:39:10.444Z</time>
      </trkpt>
      <trkpt lat="43.72354" lon="1.51064">
        <ele>177.225897</ele>
        <time>2022-03-25T15:39:12.434Z</time>
      </trkpt>
      <trkpt lat="43.72361" lon="1.51078">
        <ele>177.125771</ele>
        <time>2022-03-25T15:39:14.439Z</time>
      </trkpt>
      <trkpt lat="43.72368" lon="1.51091">
        <ele>177.145015</ele>
        <time>2022-03-25T15:39:16.447Z</time>
      </trkpt>
      <trkpt lat="43.72375" lon="1.51104">
        <ele>177.246002</ele>
        <time>2022-03-25T15:39:18.440Z</time>
      </trkpt>
      <trkpt lat="43.72381" lon="1.51117">
        <ele>177.348585</ele>
        <time>2022-03-25T15:39:20.436Z</time>
      </trkpt>
      <trkpt lat="43.72388" lon="1.5113">
        <ele>177.453777</ele>
        <time>2022-03-25T15:39:22.440Z</time>
      </trkpt>
      <trkpt lat="43.72395" lon="1.51143">
        <ele>177.556892</ele>
        <time>2022-03-25T15:39:24.445Z</time>
      </trkpt>
      <trkpt lat="43.724" lon="1.51157">
        <ele>177.658944</ele>
        <time>2022-03-25T15:39:26.444Z</time>
      </trkpt>
      <trkpt lat="43.72406" lon="1.51171">
        <ele>177.761555</ele>
        <time>2022-03-25T15:39:28.438Z</time>
      </trkpt>
      <trkpt lat="43.72413" lon="1.51185">
        <ele>177.869381</ele>
        <time>2022-03-25T15:39:30.453Z</time>
      </trkpt>
      <trkpt lat="43.7242" lon="1.51198">
        <ele>177.974041</ele>
        <time>2022-03-25T15:39:32.457Z</time>
      </trkpt>
      <trkpt lat="43.72427" lon="1.51211">
        <ele>178.080288</ele>
        <time>2022-03-25T15:39:34.451Z</time>
      </trkpt>
      <trkpt lat="43.72434" lon="1.51224">
        <ele>178.183912</ele>
        <time>2022-03-25T15:39:36.440Z</time>
      </trkpt>
      <trkpt lat="43.72439" lon="1.51236">
        <ele>178.277214</ele>
        <time>2022-03-25T15:39:38.433Z</time>
      </trkpt>
      <trkpt lat="43.72442" lon="1.5125">
        <ele>178.369273</ele>
        <time>2022-03-25T15:39:40.448Z</time>
      </trkpt>
      <trkpt lat="43.7245" lon="1.51261">
        <ele>178.465561</ele>
        <time>2022-03-25T15:39:42.429Z</time>
      </trkpt>
      <trkpt lat="43.72459" lon="1.5127">
        <ele>178.567671</ele>
        <time>2022-03-25T15:39:44.436Z</time>
      </trkpt>
      <trkpt lat="43.72467" lon="1.51281">
        <ele>178.668416</ele>
        <time>2022-03-25T15:39:46.444Z</time>
      </trkpt>
      <trkpt lat="43.72474" lon="1.51292">
        <ele>178.628831</ele>
        <time>2022-03-25T15:39:48.440Z</time>
      </trkpt>
      <trkpt lat="43.72482" lon="1.51305">
        <ele>178.54206</ele>
        <time>2022-03-25T15:39:50.427Z</time>
      </trkpt>
      <trkpt lat="43.72489" lon="1.51318">
        <ele>178.452649</ele>
        <time>2022-03-25T15:39:52.442Z</time>
      </trkpt>
      <trkpt lat="43.72497" lon="1.51331">
        <ele>178.360866</ele>
        <time>2022-03-25T15:39:54.429Z</time>
      </trkpt>
      <trkpt lat="43.72505" lon="1.51345">
        <ele>178.267186</ele>
        <time>2022-03-25T15:39:56.444Z</time>
      </trkpt>
      <trkpt lat="43.72513" lon="1.5136">
        <ele>178.168787</ele>
        <time>2022-03-25T15:39:58.451Z</time>
      </trkpt>
      <trkpt lat="43.72521" lon="1.51375">
        <ele>178.069107</ele>
        <time>2022-03-25T15:40:00.440Z</time>
      </trkpt>
      <trkpt lat="43.72525" lon="1.51391">
        <ele>177.978769</ele>
        <time>2022-03-25T15:40:02.445Z</time>
      </trkpt>
      <trkpt lat="43.72518" lon="1.51406">
        <ele>177.882482</ele>
        <time>2022-03-25T15:40:04.430Z</time>
      </trkpt>
      <trkpt lat="43.72509" lon="1.51417">
        <ele>177.791737</ele>
        <time>2022-03-25T15:40:06.457Z</time>
      </trkpt>
      <trkpt lat="43.72501" lon="1.51429">
        <ele>177.705036</ele>
        <time>2022-03-25T15:40:08.444Z</time>
      </trkpt>
      <trkpt lat="43.72496" lon="1.51443">
        <ele>177.623445</ele>
        <time>2022-03-25T15:40:10.444Z</time>
      </trkpt>
      <trkpt lat="43.72492" lon="1.51456">
        <ele>177.550439</ele>
        <time>2022-03-25T15:40:12.447Z</time>
      </trkpt>
      <trkpt lat="43.72489" lon="1.51469">
        <ele>177.475247</ele>
        <time>2022-03-25T15:40:14.430Z</time>
      </trkpt>
      <trkpt lat="43.72486" lon="1.51484">
        <ele>177.390893</ele>
        <time>2022-03-25T15:40:16.436Z</time>
      </trkpt>
      <trkpt lat="43.72482" lon="1.51499">
        <ele>177.415887</ele>
        <time>2022-03-25T15:40:18.442Z</time>
      </trkpt>
      <trkpt lat="43.72478" lon="1.51514">
        <ele>177.497688</ele>
        <time>2022-03-25T15:40:20.435Z</time>
      </trkpt>
      <trkpt lat="43.72474" lon="1.5153">
        <ele>177.585858</ele>
        <time>2022-03-25T15:40:22.453Z</time>
      </trkpt>
      <trkpt lat="43.72469" lon="1.51545">
        <ele>177.670308</ele>
        <time>2022-03-25T15:40:24.449Z</time>
      </trkpt>
      <trkpt lat="43.72463" lon="1.51558">
        <ele>177.752401</ele>
        <time>2022-03-25T15:40:26.443Z</time>
      </trkpt>
      <trkpt lat="43.72456" lon="1.51571">
        <ele>177.833889</ele>
        <time>2022-03-25T15:40:28.438Z</time>
      </trkpt>
      <trkpt lat="43.7245" lon="1.51584">
        <ele>177.913682</ele>
        <time>2022-03-25T15:40:30.455Z</time>
      </trkpt>
      <trkpt lat="43.72445" lon="1.51597">
        <ele>177.993583</ele>
        <time>2022-03-25T15:40:32.442Z</time>
      </trkpt>
      <trkpt lat="43.72441" lon="1.51612">
        <ele>178.074741</ele>
        <time>2022-03-25T15:40:34.447Z</time>
      </trkpt>
      <trkpt lat="43.7244" lon="1.51628">
        <ele>178.159697</ele>
        <time>2022-03-25T15:40:36.460Z</time>
      </trkpt>
      <trkpt lat="43.72439" lon="1.51645">
        <ele>178.246222</ele>
        <time>2022-03-25T15:40:38.433Z</time>
      </trkpt>
      <trkpt lat="43.72439" lon="1.51661">
        <ele>178.334237</ele>
        <time>2022-03-25T15:40:40.444Z</time>
      </trkpt>
      <trkpt lat="43.72439" lon="1.51678">
        <ele>178.419127</ele>
        <time>2022-03-25T15:40:42.448Z</time>
      </trkpt>
      <trkpt lat="43.7244" lon="1.51693">
        <ele>178.500419</ele>
        <time>2022-03-25T15:40:44.452Z</time>
      </trkpt>
      <trkpt lat="43.7244" lon="1.51709">
        <ele>178.582857</ele>
        <time>2022-03-25T15:40:46.449Z</time>
      </trkpt>
      <trkpt lat="43.7244" lon="1.51725">
        <ele>178.678308</ele>
        <time>2022-03-25T15:40:48.440Z</time>
      </trkpt>
      <trkpt lat="43.7244" lon="1.5174">
        <ele>178.965643</ele>
        <time>2022-03-25T15:40:50.443Z</time>
      </trkpt>
      <trkpt lat="43.72441" lon="1.51756">
        <ele>179.255321</ele>
        <time>2022-03-25T15:40:52.449Z</time>
      </trkpt>
      <trkpt lat="43.72442" lon="1.51772">
        <ele>179.53831</ele>
        <time>2022-03-25T15:40:54.433Z</time>
      </trkpt>
      <trkpt lat="43.72444" lon="1.51787">
        <ele>179.818429</ele>
        <time>2022-03-25T15:40:56.439Z</time>
      </trkpt>
      <trkpt lat="43.72451" lon="1.51798">
        <ele>180.093482</ele>
        <time>2022-03-25T15:40:58.436Z</time>
      </trkpt>
      <trkpt lat="43.72461" lon="1.51806">
        <ele>180.376419</ele>
        <time>2022-03-25T15:41:00.436Z</time>
      </trkpt>
      <trkpt lat="43.7247" lon="1.51814">
        <ele>180.657479</ele>
        <time>2022-03-25T15:41:02.445Z</time>
      </trkpt>
      <trkpt lat="43.7248" lon="1.51822">
        <ele>180.934523</ele>
        <time>2022-03-25T15:41:04.438Z</time>
      </trkpt>
      <trkpt lat="43.72489" lon="1.51829">
        <ele>181.204476</ele>
        <time>2022-03-25T15:41:06.439Z</time>
      </trkpt>
      <trkpt lat="43.72499" lon="1.51837">
        <ele>181.484317</ele>
        <time>2022-03-25T15:41:08.444Z</time>
      </trkpt>
      <trkpt lat="43.72508" lon="1.51845">
        <ele>181.752475</ele>
        <time>2022-03-25T15:41:10.439Z</time>
      </trkpt>
      <trkpt lat="43.72517" lon="1.51852">
        <ele>182.021168</ele>
        <time>2022-03-25T15:41:12.443Z</time>
      </trkpt>
      <trkpt lat="43.72526" lon="1.5186">
        <ele>182.29034</ele>
        <time>2022-03-25T15:41:14.440Z</time>
      </trkpt>
      <trkpt lat="43.72535" lon="1.51869">
        <ele>182.560391</ele>
        <time>2022-03-25T15:41:16.441Z</time>
      </trkpt>
      <trkpt lat="43.72544" lon="1.51877">
        <ele>182.838863</ele>
        <time>2022-03-25T15:41:18.443Z</time>
      </trkpt>
      <trkpt lat="43.72553" lon="1.51886">
        <ele>183.115178</ele>
        <time>2022-03-25T15:41:20.460Z</time>
      </trkpt>
      <trkpt lat="43.72561" lon="1.51896">
        <ele>183.503225</ele>
        <time>2022-03-25T15:41:22.451Z</time>
      </trkpt>
      <trkpt lat="43.72569" lon="1.51906">
        <ele>183.947815</ele>
        <time>2022-03-25T15:41:24.445Z</time>
      </trkpt>
      <trkpt lat="43.72577" lon="1.51915">
        <ele>184.373858</ele>
        <time>2022-03-25T15:41:26.442Z</time>
      </trkpt>
      <trkpt lat="43.72584" lon="1.51925">
        <ele>184.7859</ele>
        <time>2022-03-25T15:41:28.441Z</time>
      </trkpt>
      <trkpt lat="43.72591" lon="1.51936">
        <ele>185.21639</ele>
        <time>2022-03-25T15:41:30.447Z</time>
      </trkpt>
      <trkpt lat="43.72598" lon="1.51947">
        <ele>185.626856</ele>
        <time>2022-03-25T15:41:32.438Z</time>
      </trkpt>
      <trkpt lat="43.72604" lon="1.51958">
        <ele>186.038862</ele>
        <time>2022-03-25T15:41:34.449Z</time>
      </trkpt>
      <trkpt lat="43.72611" lon="1.51969">
        <ele>186.476429</ele>
        <time>2022-03-25T15:41:36.444Z</time>
      </trkpt>
      <trkpt lat="43.72618" lon="1.5198">
        <ele>186.908614</ele>
        <time>2022-03-25T15:41:38.452Z</time>
      </trkpt>
      <trkpt lat="43.72626" lon="1.51991">
        <ele>187.337519</ele>
        <time>2022-03-25T15:41:40.443Z</time>
      </trkpt>
      <trkpt lat="43.72633" lon="1.52001">
        <ele>187.745942</ele>
        <time>2022-03-25T15:41:42.440Z</time>
      </trkpt>
      <trkpt lat="43.7264" lon="1.52011">
        <ele>188.165825</ele>
        <time>2022-03-25T15:41:44.447Z</time>
      </trkpt>
      <trkpt lat="43.72647" lon="1.5202">
        <ele>188.575593</ele>
        <time>2022-03-25T15:41:46.439Z</time>
      </trkpt>
      <trkpt lat="43.72655" lon="1.52029">
        <ele>188.983372</ele>
        <time>2022-03-25T15:41:48.433Z</time>
      </trkpt>
      <trkpt lat="43.72663" lon="1.52039">
        <ele>189.402524</ele>
        <time>2022-03-25T15:41:50.449Z</time>
      </trkpt>
      <trkpt lat="43.72671" lon="1.52048">
        <ele>189.827921</ele>
        <time>2022-03-25T15:41:52.454Z</time>
      </trkpt>
      <trkpt lat="43.72679" lon="1.52057">
        <ele>190.240193</ele>
        <time>2022-03-25T15:41:54.439Z</time>
      </trkpt>
      <trkpt lat="43.72687" lon="1.52066">
        <ele>190.565444</ele>
        <time>2022-03-25T15:41:56.451Z</time>
      </trkpt>
      <trkpt lat="43.72694" lon="1.52074">
        <ele>190.756632</ele>
        <time>2022-03-25T15:41:58.443Z</time>
      </trkpt>
      <trkpt lat="43.72702" lon="1.52083">
        <ele>190.951888</ele>
        <time>2022-03-25T15:42:00.444Z</time>
      </trkpt>
      <trkpt lat="43.72711" lon="1.52091">
        <ele>191.146134</ele>
        <time>2022-03-25T15:42:02.433Z</time>
      </trkpt>
      <trkpt lat="43.72719" lon="1.521">
        <ele>191.338729</ele>
        <time>2022-03-25T15:42:04.448Z</time>
      </trkpt>
      <trkpt lat="43.72726" lon="1.52108">
        <ele>191.520451</ele>
        <time>2022-03-25T15:42:06.445Z</time>
      </trkpt>
      <trkpt lat="43.72734" lon="1.52115">
        <ele>191.70198</ele>
        <time>2022-03-25T15:42:08.432Z</time>
      </trkpt>
      <trkpt lat="43.72742" lon="1.52123">
        <ele>191.897665</ele>
        <time>2022-03-25T15:42:10.439Z</time>
      </trkpt>
      <trkpt lat="43.72751" lon="1.52132">
        <ele>192.099642</ele>
        <time>2022-03-25T15:42:12.437Z</time>
      </trkpt>
      <trkpt lat="43.72759" lon="1.52142">
        <ele>192.313177</ele>
        <time>2022-03-25T15:42:14.445Z</time>
      </trkpt>
      <trkpt lat="43.72768" lon="1.52151">
        <ele>192.529726</ele>
        <time>2022-03-25T15:42:16.438Z</time>
      </trkpt>
      <trkpt lat="43.72777" lon="1.52162">
        <ele>192.750905</ele>
        <time>2022-03-25T15:42:18.445Z</time>
      </trkpt>
      <trkpt lat="43.72783" lon="1.52176">
        <ele>192.985179</ele>
        <time>2022-03-25T15:42:20.441Z</time>
      </trkpt>
      <trkpt lat="43.72788" lon="1.52192">
        <ele>193.224139</ele>
        <time>2022-03-25T15:42:22.430Z</time>
      </trkpt>
      <trkpt lat="43.72795" lon="1.52205">
        <ele>193.454622</ele>
        <time>2022-03-25T15:42:24.438Z</time>
      </trkpt>
      <trkpt lat="43.72805" lon="1.52218">
        <ele>193.706184</ele>
        <time>2022-03-25T15:42:26.444Z</time>
      </trkpt>
      <trkpt lat="43.72816" lon="1.52229">
        <ele>193.87706</ele>
        <time>2022-03-25T15:42:28.435Z</time>
      </trkpt>
      <trkpt lat="43.72828" lon="1.52236">
        <ele>193.478496</ele>
        <time>2022-03-25T15:42:30.434Z</time>
      </trkpt>
      <trkpt lat="43.7284" lon="1.52245">
        <ele>193.100861</ele>
        <time>2022-03-25T15:42:32.426Z</time>
      </trkpt>
      <trkpt lat="43.72851" lon="1.52252">
        <ele>192.727416</ele>
        <time>2022-03-25T15:42:34.440Z</time>
      </trkpt>
      <trkpt lat="43.72862" lon="1.52258">
        <ele>192.359323</ele>
        <time>2022-03-25T15:42:36.435Z</time>
      </trkpt>
      <trkpt lat="43.72874" lon="1.52262">
        <ele>191.992935</ele>
        <time>2022-03-25T15:42:38.437Z</time>
      </trkpt>
      <trkpt lat="43.72884" lon="1.52265">
        <ele>191.693811</ele>
        <time>2022-03-25T15:42:40.427Z</time>
      </trkpt>
      <trkpt lat="43.72897" lon="1.52262">
        <ele>191.308953</ele>
        <time>2022-03-25T15:42:43.428Z</time>
      </trkpt>
      <trkpt lat="43.72907" lon="1.52258">
        <ele>190.990973</ele>
        <time>2022-03-25T15:42:45.430Z</time>
      </trkpt>
      <trkpt lat="43.7292" lon="1.52255">
        <ele>190.627007</ele>
        <time>2022-03-25T15:42:47.436Z</time>
      </trkpt>
      <trkpt lat="43.72932" lon="1.52253">
        <ele>190.25977</ele>
        <time>2022-03-25T15:42:49.431Z</time>
      </trkpt>
      <trkpt lat="43.72944" lon="1.5225">
        <ele>189.904268</ele>
        <time>2022-03-25T15:42:51.423Z</time>
      </trkpt>
      <trkpt lat="43.72955" lon="1.52247">
        <ele>189.55498</ele>
        <time>2022-03-25T15:42:53.421Z</time>
      </trkpt>
      <trkpt lat="43.72966" lon="1.52244">
        <ele>189.222864</ele>
        <time>2022-03-25T15:42:55.440Z</time>
      </trkpt>
      <trkpt lat="43.72977" lon="1.52239">
        <ele>188.889184</ele>
        <time>2022-03-25T15:42:57.426Z</time>
      </trkpt>
      <trkpt lat="43.72987" lon="1.52234">
        <ele>188.57837</ele>
        <time>2022-03-25T15:42:59.425Z</time>
      </trkpt>
      <trkpt lat="43.72997" lon="1.52229">
        <ele>188.429093</ele>
        <time>2022-03-25T15:43:01.443Z</time>
      </trkpt>
      <trkpt lat="43.73006" lon="1.52228">
        <ele>188.303897</ele>
        <time>2022-03-25T15:43:03.435Z</time>
      </trkpt>
      <trkpt lat="43.73018" lon="1.52235">
        <ele>188.139839</ele>
        <time>2022-03-25T15:43:06.431Z</time>
      </trkpt>
      <trkpt lat="43.73028" lon="1.52243">
        <ele>187.968066</ele>
        <time>2022-03-25T15:43:09.429Z</time>
      </trkpt>
      <trkpt lat="43.73038" lon="1.52255">
        <ele>187.793459</ele>
        <time>2022-03-25T15:43:12.426Z</time>
      </trkpt>
      <trkpt lat="43.73045" lon="1.52266">
        <ele>187.647202</ele>
        <time>2022-03-25T15:43:15.430Z</time>
      </trkpt>
      <trkpt lat="43.73053" lon="1.52277">
        <ele>187.488019</ele>
        <time>2022-03-25T15:43:19.418Z</time>
      </trkpt>
      <trkpt lat="43.73062" lon="1.52289">
        <ele>187.322479</ele>
        <time>2022-03-25T15:43:22.436Z</time>
      </trkpt>
      <trkpt lat="43.73071" lon="1.523">
        <ele>187.162302</ele>
        <time>2022-03-25T15:43:25.436Z</time>
      </trkpt>
      <trkpt lat="43.73079" lon="1.52312">
        <ele>186.995173</ele>
        <time>2022-03-25T15:43:28.430Z</time>
      </trkpt>
      <trkpt lat="43.73086" lon="1.52322">
        <ele>186.856329</ele>
        <time>2022-03-25T15:43:30.427Z</time>
      </trkpt>
      <trkpt lat="43.73094" lon="1.52332">
        <ele>186.709144</ele>
        <time>2022-03-25T15:43:32.431Z</time>
      </trkpt>
      <trkpt lat="43.73101" lon="1.52342">
        <ele>186.565716</ele>
        <time>2022-03-25T15:43:34.431Z</time>
      </trkpt>
      <trkpt lat="43.73109" lon="1.52352">
        <ele>186.424239</ele>
        <time>2022-03-25T15:43:36.430Z</time>
      </trkpt>
      <trkpt lat="43.73117" lon="1.52362">
        <ele>186.279559</ele>
        <time>2022-03-25T15:43:38.431Z</time>
      </trkpt>
      <trkpt lat="43.73126" lon="1.52371">
        <ele>186.124918</ele>
        <time>2022-03-25T15:43:40.431Z</time>
      </trkpt>
      <trkpt lat="43.73135" lon="1.52381">
        <ele>186.189078</ele>
        <time>2022-03-25T15:43:42.428Z</time>
      </trkpt>
      <trkpt lat="43.73145" lon="1.52391">
        <ele>186.251922</ele>
        <time>2022-03-25T15:43:44.424Z</time>
      </trkpt>
      <trkpt lat="43.73154" lon="1.52401">
        <ele>186.314869</ele>
        <time>2022-03-25T15:43:46.428Z</time>
      </trkpt>
      <trkpt lat="43.73163" lon="1.52412">
        <ele>186.377575</ele>
        <time>2022-03-25T15:43:48.431Z</time>
      </trkpt>
      <trkpt lat="43.73172" lon="1.52421">
        <ele>186.43891</ele>
        <time>2022-03-25T15:43:50.433Z</time>
      </trkpt>
      <trkpt lat="43.73181" lon="1.52432">
        <ele>186.500662</ele>
        <time>2022-03-25T15:43:52.425Z</time>
      </trkpt>
      <trkpt lat="43.73188" lon="1.52445">
        <ele>186.564925</ele>
        <time>2022-03-25T15:43:54.432Z</time>
      </trkpt>
      <trkpt lat="43.73196" lon="1.52458">
        <ele>186.627514</ele>
        <time>2022-03-25T15:43:56.442Z</time>
      </trkpt>
      <trkpt lat="43.73202" lon="1.52471">
        <ele>186.690063</ele>
        <time>2022-03-25T15:43:58.427Z</time>
      </trkpt>
      <trkpt lat="43.73209" lon="1.52484">
        <ele>186.751989</ele>
        <time>2022-03-25T15:44:00.431Z</time>
      </trkpt>
      <trkpt lat="43.73216" lon="1.52496">
        <ele>186.811412</ele>
        <time>2022-03-25T15:44:02.421Z</time>
      </trkpt>
      <trkpt lat="43.73223" lon="1.52508">
        <ele>186.870918</ele>
        <time>2022-03-25T15:44:04.419Z</time>
      </trkpt>
      <trkpt lat="43.73229" lon="1.52522">
        <ele>186.93285</ele>
        <time>2022-03-25T15:44:06.417Z</time>
      </trkpt>
      <trkpt lat="43.73235" lon="1.52537">
        <ele>186.997472</ele>
        <time>2022-03-25T15:44:08.429Z</time>
      </trkpt>
      <trkpt lat="43.73241" lon="1.52551">
        <ele>187.063311</ele>
        <time>2022-03-25T15:44:10.429Z</time>
      </trkpt>
      <trkpt lat="43.73248" lon="1.52566">
        <ele>187.201286</ele>
        <time>2022-03-25T15:44:12.425Z</time>
      </trkpt>
      <trkpt lat="43.73254" lon="1.5258">
        <ele>187.369376</ele>
        <time>2022-03-25T15:44:14.444Z</time>
      </trkpt>
      <trkpt lat="43.7326" lon="1.52594">
        <ele>187.533948</ele>
        <time>2022-03-25T15:44:16.440Z</time>
      </trkpt>
      <trkpt lat="43.73265" lon="1.52608">
        <ele>187.690779</ele>
        <time>2022-03-25T15:44:18.431Z</time>
      </trkpt>
      <trkpt lat="43.7327" lon="1.52621">
        <ele>187.841536</ele>
        <time>2022-03-25T15:44:20.430Z</time>
      </trkpt>
      <trkpt lat="43.73275" lon="1.52634">
        <ele>187.993429</ele>
        <time>2022-03-25T15:44:22.424Z</time>
      </trkpt>
      <trkpt lat="43.73281" lon="1.52648">
        <ele>188.148664</ele>
        <time>2022-03-25T15:44:24.424Z</time>
      </trkpt>
      <trkpt lat="43.73285" lon="1.52661">
        <ele>188.299012</ele>
        <time>2022-03-25T15:44:26.431Z</time>
      </trkpt>
      <trkpt lat="43.73291" lon="1.52673">
        <ele>188.449745</ele>
        <time>2022-03-25T15:44:28.433Z</time>
      </trkpt>
      <trkpt lat="43.73297" lon="1.52686">
        <ele>188.602074</ele>
        <time>2022-03-25T15:44:30.429Z</time>
      </trkpt>
      <trkpt lat="43.73302" lon="1.52699">
        <ele>188.749482</ele>
        <time>2022-03-25T15:44:32.417Z</time>
      </trkpt>
      <trkpt lat="43.73308" lon="1.52711">
        <ele>188.898488</ele>
        <time>2022-03-25T15:44:34.431Z</time>
      </trkpt>
      <trkpt lat="43.73314" lon="1.52724">
        <ele>189.050602</ele>
        <time>2022-03-25T15:44:36.440Z</time>
      </trkpt>
      <trkpt lat="43.7332" lon="1.52737">
        <ele>189.208346</ele>
        <time>2022-03-25T15:44:38.430Z</time>
      </trkpt>
      <trkpt lat="43.73326" lon="1.52749">
        <ele>189.361162</ele>
        <time>2022-03-25T15:44:40.430Z</time>
      </trkpt>
      <trkpt lat="43.73332" lon="1.52762">
        <ele>189.516443</ele>
        <time>2022-03-25T15:44:42.432Z</time>
      </trkpt>
      <trkpt lat="43.73338" lon="1.52775">
        <ele>189.648465</ele>
        <time>2022-03-25T15:44:44.426Z</time>
      </trkpt>
      <trkpt lat="43.73343" lon="1.52789">
        <ele>189.744761</ele>
        <time>2022-03-25T15:44:46.425Z</time>
      </trkpt>
      <trkpt lat="43.73348" lon="1.52802">
        <ele>189.841462</ele>
        <time>2022-03-25T15:44:48.421Z</time>
      </trkpt>
      <trkpt lat="43.73351" lon="1.52815">
        <ele>189.929057</ele>
        <time>2022-03-25T15:44:50.420Z</time>
      </trkpt>
      <trkpt lat="43.73352" lon="1.52829">
        <ele>190.019817</ele>
        <time>2022-03-25T15:44:52.431Z</time>
      </trkpt>
      <trkpt lat="43.73356" lon="1.52842">
        <ele>190.112855</ele>
        <time>2022-03-25T15:44:54.421Z</time>
      </trkpt>
      <trkpt lat="43.73365" lon="1.52849">
        <ele>190.200873</ele>
        <time>2022-03-25T15:44:56.429Z</time>
      </trkpt>
      <trkpt lat="43.73373" lon="1.52855">
        <ele>190.284268</ele>
        <time>2022-03-25T15:44:58.427Z</time>
      </trkpt>
      <trkpt lat="43.73382" lon="1.52862">
        <ele>190.370023</ele>
        <time>2022-03-25T15:45:00.471Z</time>
      </trkpt>
      <trkpt lat="43.7339" lon="1.52869">
        <ele>190.456512</ele>
        <time>2022-03-25T15:45:02.461Z</time>
      </trkpt>
      <trkpt lat="43.73397" lon="1.52879">
        <ele>190.543065</ele>
        <time>2022-03-25T15:45:04.416Z</time>
      </trkpt>
      <trkpt lat="43.73402" lon="1.5289">
        <ele>190.628908</ele>
        <time>2022-03-25T15:45:06.438Z</time>
      </trkpt>
      <trkpt lat="43.73407" lon="1.52903">
        <ele>190.72108</ele>
        <time>2022-03-25T15:45:08.421Z</time>
      </trkpt>
      <trkpt lat="43.73412" lon="1.52915">
        <ele>190.813564</ele>
        <time>2022-03-25T15:45:10.430Z</time>
      </trkpt>
      <trkpt lat="43.73418" lon="1.52926">
        <ele>190.901927</ele>
        <time>2022-03-25T15:45:12.428Z</time>
      </trkpt>
      <trkpt lat="43.73424" lon="1.52937">
        <ele>190.990498</ele>
        <time>2022-03-25T15:45:14.431Z</time>
      </trkpt>
      <trkpt lat="43.73432" lon="1.52946">
        <ele>191.081027</ele>
        <time>2022-03-25T15:45:16.431Z</time>
      </trkpt>
      <trkpt lat="43.73441" lon="1.52953">
        <ele>191.171241</ele>
        <time>2022-03-25T15:45:18.446Z</time>
      </trkpt>
      <trkpt lat="43.73451" lon="1.52957">
        <ele>191.209454</ele>
        <time>2022-03-25T15:45:20.447Z</time>
      </trkpt>
      <trkpt lat="43.73463" lon="1.52959">
        <ele>191.218967</ele>
        <time>2022-03-25T15:45:22.422Z</time>
      </trkpt>
      <trkpt lat="43.73473" lon="1.52961">
        <ele>191.227471</ele>
        <time>2022-03-25T15:45:24.423Z</time>
      </trkpt>
      <trkpt lat="43.73482" lon="1.52963">
        <ele>191.23587</ele>
        <time>2022-03-25T15:45:26.430Z</time>
      </trkpt>
      <trkpt lat="43.73493" lon="1.52966">
        <ele>191.244577</ele>
        <time>2022-03-25T15:45:28.417Z</time>
      </trkpt>
      <trkpt lat="43.73502" lon="1.52968">
        <ele>191.252906</ele>
        <time>2022-03-25T15:45:30.412Z</time>
      </trkpt>
      <trkpt lat="43.73513" lon="1.5297">
        <ele>191.262085</ele>
        <time>2022-03-25T15:45:32.422Z</time>
      </trkpt>
      <trkpt lat="43.73524" lon="1.52973">
        <ele>191.27155</ele>
        <time>2022-03-25T15:45:34.428Z</time>
      </trkpt>
      <trkpt lat="43.73535" lon="1.52976">
        <ele>191.280504</ele>
        <time>2022-03-25T15:45:36.430Z</time>
      </trkpt>
      <trkpt lat="43.73545" lon="1.52978">
        <ele>191.28914</ele>
        <time>2022-03-25T15:45:38.423Z</time>
      </trkpt>
      <trkpt lat="43.73554" lon="1.52979">
        <ele>191.297139</ele>
        <time>2022-03-25T15:45:40.435Z</time>
      </trkpt>
      <trkpt lat="43.73563" lon="1.52977">
        <ele>191.304977</ele>
        <time>2022-03-25T15:45:42.421Z</time>
      </trkpt>
      <trkpt lat="43.73576" lon="1.52977">
        <ele>191.315416</ele>
        <time>2022-03-25T15:45:45.418Z</time>
      </trkpt>
      <trkpt lat="43.73588" lon="1.5298">
        <ele>191.325917</ele>
        <time>2022-03-25T15:45:48.423Z</time>
      </trkpt>
      <trkpt lat="43.736" lon="1.52981">
        <ele>191.336216</ele>
        <time>2022-03-25T15:45:51.427Z</time>
      </trkpt>
      <trkpt lat="43.7361" lon="1.52982">
        <ele>191.343988</ele>
        <time>2022-03-25T15:45:53.428Z</time>
      </trkpt>
      <trkpt lat="43.73619" lon="1.52984">
        <ele>191.351592</ele>
        <time>2022-03-25T15:45:55.430Z</time>
      </trkpt>
      <trkpt lat="43.73628" lon="1.52986">
        <ele>191.382995</ele>
        <time>2022-03-25T15:45:57.433Z</time>
      </trkpt>
      <trkpt lat="43.73637" lon="1.52988">
        <ele>191.432703</ele>
        <time>2022-03-25T15:45:59.421Z</time>
      </trkpt>
      <trkpt lat="43.7365" lon="1.52993">
        <ele>191.502145</ele>
        <time>2022-03-25T15:46:02.422Z</time>
      </trkpt>
      <trkpt lat="43.73662" lon="1.52998">
        <ele>191.567247</ele>
        <time>2022-03-25T15:46:05.422Z</time>
      </trkpt>
      <trkpt lat="43.73675" lon="1.53005">
        <ele>191.633031</ele>
        <time>2022-03-25T15:46:08.431Z</time>
      </trkpt>
      <trkpt lat="43.73683" lon="1.53008">
        <ele>191.679913</ele>
        <time>2022-03-25T15:46:11.421Z</time>
      </trkpt>
      <trkpt lat="43.73693" lon="1.53009">
        <ele>191.730594</ele>
        <time>2022-03-25T15:46:15.428Z</time>
      </trkpt>
      <trkpt lat="43.73704" lon="1.5301">
        <ele>191.784598</ele>
        <time>2022-03-25T15:46:19.421Z</time>
      </trkpt>
      <trkpt lat="43.73714" lon="1.53014">
        <ele>191.837281</ele>
        <time>2022-03-25T15:46:22.426Z</time>
      </trkpt>
      <trkpt lat="43.73724" lon="1.53018">
        <ele>191.892044</ele>
        <time>2022-03-25T15:46:25.430Z</time>
      </trkpt>
      <trkpt lat="43.73733" lon="1.53021">
        <ele>191.939249</ele>
        <time>2022-03-25T15:46:28.438Z</time>
      </trkpt>
      <trkpt lat="43.73745" lon="1.53026">
        <ele>192.002611</ele>
        <time>2022-03-25T15:46:32.433Z</time>
      </trkpt>
      <trkpt lat="43.73755" lon="1.53033">
        <ele>192.058323</ele>
        <time>2022-03-25T15:46:35.432Z</time>
      </trkpt>
      <trkpt lat="43.73765" lon="1.53042">
        <ele>192.119835</ele>
        <time>2022-03-25T15:46:38.423Z</time>
      </trkpt>
      <trkpt lat="43.73774" lon="1.53051">
        <ele>192.17825</ele>
        <time>2022-03-25T15:46:41.432Z</time>
      </trkpt>
      <trkpt lat="43.73783" lon="1.53061">
        <ele>192.238184</ele>
        <time>2022-03-25T15:46:44.428Z</time>
      </trkpt>
      <trkpt lat="43.73792" lon="1.53071">
        <ele>192.602965</ele>
        <time>2022-03-25T15:46:47.443Z</time>
      </trkpt>
      <trkpt lat="43.73802" lon="1.53084">
        <ele>193.576553</ele>
        <time>2022-03-25T15:46:50.443Z</time>
      </trkpt>
      <trkpt lat="43.73812" lon="1.53092">
        <ele>194.404525</ele>
        <time>2022-03-25T15:46:53.434Z</time>
      </trkpt>
      <trkpt lat="43.73822" lon="1.53099">
        <ele>195.25115</ele>
        <time>2022-03-25T15:46:56.429Z</time>
      </trkpt>
      <trkpt lat="43.73832" lon="1.53105">
        <ele>196.030163</ele>
        <time>2022-03-25T15:46:59.425Z</time>
      </trkpt>
      <trkpt lat="43.73842" lon="1.53108">
        <ele>196.758448</ele>
        <time>2022-03-25T15:47:02.422Z</time>
      </trkpt>
      <trkpt lat="43.73854" lon="1.53111">
        <ele>197.68201</ele>
        <time>2022-03-25T15:47:05.430Z</time>
      </trkpt>
      <trkpt lat="43.73866" lon="1.53115">
        <ele>198.535176</ele>
        <time>2022-03-25T15:47:08.431Z</time>
      </trkpt>
      <trkpt lat="43.73876" lon="1.53119">
        <ele>199.278847</ele>
        <time>2022-03-25T15:47:11.421Z</time>
      </trkpt>
      <trkpt lat="43.73885" lon="1.53122">
        <ele>199.982136</ele>
        <time>2022-03-25T15:47:14.438Z</time>
      </trkpt>
      <trkpt lat="43.73895" lon="1.53126">
        <ele>200.725807</ele>
        <time>2022-03-25T15:47:17.426Z</time>
      </trkpt>
      <trkpt lat="43.73904" lon="1.5313">
        <ele>201.400402</ele>
        <time>2022-03-25T15:47:20.429Z</time>
      </trkpt>
      <trkpt lat="43.73912" lon="1.53134">
        <ele>202.059726</ele>
        <time>2022-03-25T15:47:23.430Z</time>
      </trkpt>
      <trkpt lat="43.73923" lon="1.53139">
        <ele>202.917997</ele>
        <time>2022-03-25T15:47:27.430Z</time>
      </trkpt>
      <trkpt lat="43.73933" lon="1.53143">
        <ele>203.604188</ele>
        <time>2022-03-25T15:47:31.420Z</time>
      </trkpt>
      <trkpt lat="43.73942" lon="1.53146">
        <ele>204.317089</ele>
        <time>2022-03-25T15:47:35.423Z</time>
      </trkpt>
      <trkpt lat="43.73952" lon="1.5315">
        <ele>205.091539</ele>
        <time>2022-03-25T15:47:39.422Z</time>
      </trkpt>
      <trkpt lat="43.73962" lon="1.53153">
        <ele>206.425515</ele>
        <time>2022-03-25T15:47:43.429Z</time>
      </trkpt>
      <trkpt lat="43.73972" lon="1.53157">
        <ele>208.172979</ele>
        <time>2022-03-25T15:47:47.425Z</time>
      </trkpt>
      <trkpt lat="43.73982" lon="1.53159">
        <ele>209.893604</ele>
        <time>2022-03-25T15:47:51.424Z</time>
      </trkpt>
      <trkpt lat="43.73991" lon="1.53162">
        <ele>211.485951</ele>
        <time>2022-03-25T15:47:55.426Z</time>
      </trkpt>
      <trkpt lat="43.74001" lon="1.53164">
        <ele>213.229417</ele>
        <time>2022-03-25T15:47:59.429Z</time>
      </trkpt>
      <trkpt lat="43.74011" lon="1.53166">
        <ele>214.878251</ele>
        <time>2022-03-25T15:48:03.430Z</time>
      </trkpt>
      <trkpt lat="43.7402" lon="1.53168">
        <ele>216.579359</ele>
        <time>2022-03-25T15:48:07.429Z</time>
      </trkpt>
      <trkpt lat="43.7403" lon="1.53169">
        <ele>218.248219</ele>
        <time>2022-03-25T15:48:11.426Z</time>
      </trkpt>
      <trkpt lat="43.74039" lon="1.53172">
        <ele>219.821386</ele>
        <time>2022-03-25T15:48:15.434Z</time>
      </trkpt>
      <trkpt lat="43.74049" lon="1.53174">
        <ele>221.589957</ele>
        <time>2022-03-25T15:48:19.431Z</time>
      </trkpt>
      <trkpt lat="43.74059" lon="1.53177">
        <ele>223.322766</ele>
        <time>2022-03-25T15:48:23.432Z</time>
      </trkpt>
      <trkpt lat="43.74069" lon="1.5318">
        <ele>225.056352</ele>
        <time>2022-03-25T15:48:27.421Z</time>
      </trkpt>
      <trkpt lat="43.74078" lon="1.53184">
        <ele>226.70416</ele>
        <time>2022-03-25T15:48:31.436Z</time>
      </trkpt>
      <trkpt lat="43.74087" lon="1.53191">
        <ele>228.401868</ele>
        <time>2022-03-25T15:48:35.434Z</time>
      </trkpt>
      <trkpt lat="43.74095" lon="1.53199">
        <ele>230.10673</ele>
        <time>2022-03-25T15:48:39.431Z</time>
      </trkpt>
      <trkpt lat="43.74103" lon="1.53207">
        <ele>231.831411</ele>
        <time>2022-03-25T15:48:43.418Z</time>
      </trkpt>
      <trkpt lat="43.74111" lon="1.53216">
        <ele>233.568348</ele>
        <time>2022-03-25T15:48:47.436Z</time>
      </trkpt>
      <trkpt lat="43.7412" lon="1.53222">
        <ele>235.267367</ele>
        <time>2022-03-25T15:48:51.442Z</time>
      </trkpt>
      <trkpt lat="43.7413" lon="1.53226">
        <ele>236.355077</ele>
        <time>2022-03-25T15:48:55.439Z</time>
      </trkpt>
      <trkpt lat="43.74141" lon="1.5323">
        <ele>236.976485</ele>
        <time>2022-03-25T15:49:00.439Z</time>
      </trkpt>
      <trkpt lat="43.74151" lon="1.5323">
        <ele>237.517907</ele>
        <time>2022-03-25T15:49:04.414Z</time>
      </trkpt>
      <trkpt lat="43.74161" lon="1.5323">
        <ele>238.04246</ele>
        <time>2022-03-25T15:49:08.416Z</time>
      </trkpt>
      <trkpt lat="43.7417" lon="1.53232">
        <ele>238.580499</ele>
        <time>2022-03-25T15:49:12.434Z</time>
      </trkpt>
      <trkpt lat="43.74181" lon="1.53232">
        <ele>239.13903</ele>
        <time>2022-03-25T15:49:16.441Z</time>
      </trkpt>
      <trkpt lat="43.74191" lon="1.53235">
        <ele>239.708364</ele>
        <time>2022-03-25T15:49:20.434Z</time>
      </trkpt>
      <trkpt lat="43.74199" lon="1.5324">
        <ele>240.211859</ele>
        <time>2022-03-25T15:49:24.431Z</time>
      </trkpt>
      <trkpt lat="43.74206" lon="1.53247">
        <ele>240.70933</ele>
        <time>2022-03-25T15:49:30.435Z</time>
      </trkpt>
      <trkpt lat="43.74219" lon="1.53256">
        <ele>241.467711</ele>
        <time>2022-03-25T15:52:41.426Z</time>
      </trkpt>
      <trkpt lat="43.74228" lon="1.53265">
        <ele>242.105624</ele>
        <time>2022-03-25T15:52:45.432Z</time>
      </trkpt>
      <trkpt lat="43.74236" lon="1.53272">
        <ele>242.646064</ele>
        <time>2022-03-25T15:52:48.434Z</time>
      </trkpt>
      <trkpt lat="43.74247" lon="1.53281">
        <ele>243.31085</ele>
        <time>2022-03-25T15:52:51.428Z</time>
      </trkpt>
      <trkpt lat="43.74258" lon="1.53289">
        <ele>244.007383</ele>
        <time>2022-03-25T15:52:54.438Z</time>
      </trkpt>
      <trkpt lat="43.74269" lon="1.53296">
        <ele>244.706031</ele>
        <time>2022-03-25T15:52:57.434Z</time>
      </trkpt>
      <trkpt lat="43.74282" lon="1.53301">
        <ele>245.437158</ele>
        <time>2022-03-25T15:53:00.434Z</time>
      </trkpt>
      <trkpt lat="43.74294" lon="1.53306">
        <ele>245.971315</ele>
        <time>2022-03-25T15:53:03.431Z</time>
      </trkpt>
      <trkpt lat="43.74302" lon="1.5331">
        <ele>246.064414</ele>
        <time>2022-03-25T15:53:09.428Z</time>
      </trkpt>
      <trkpt lat="43.74312" lon="1.53316">
        <ele>246.177719</ele>
        <time>2022-03-25T15:53:55.440Z</time>
      </trkpt>
      <trkpt lat="43.74323" lon="1.53321">
        <ele>246.290879</ele>
        <time>2022-03-25T15:53:58.429Z</time>
      </trkpt>
      <trkpt lat="43.74333" lon="1.53326">
        <ele>246.398074</ele>
        <time>2022-03-25T15:54:01.428Z</time>
      </trkpt>
      <trkpt lat="43.74343" lon="1.53331">
        <ele>246.514792</ele>
        <time>2022-03-25T15:54:05.433Z</time>
      </trkpt>
      <trkpt lat="43.74352" lon="1.53337">
        <ele>246.616307</ele>
        <time>2022-03-25T15:54:08.442Z</time>
      </trkpt>
      <trkpt lat="43.74361" lon="1.53346">
        <ele>246.730097</ele>
        <time>2022-03-25T15:54:11.429Z</time>
      </trkpt>
      <trkpt lat="43.74369" lon="1.53352">
        <ele>246.824828</ele>
        <time>2022-03-25T15:54:13.435Z</time>
      </trkpt>
      <trkpt lat="43.74381" lon="1.5336">
        <ele>246.962499</ele>
        <time>2022-03-25T15:54:16.446Z</time>
      </trkpt>
      <trkpt lat="43.74391" lon="1.53365">
        <ele>247.064648</ele>
        <time>2022-03-25T15:54:18.433Z</time>
      </trkpt>
      <trkpt lat="43.744" lon="1.53371">
        <ele>247.169912</ele>
        <time>2022-03-25T15:54:20.430Z</time>
      </trkpt>
      <trkpt lat="43.74409" lon="1.53377">
        <ele>247.277467</ele>
        <time>2022-03-25T15:54:22.429Z</time>
      </trkpt>
      <trkpt lat="43.74418" lon="1.53383">
        <ele>247.374159</ele>
        <time>2022-03-25T15:54:24.438Z</time>
      </trkpt>
      <trkpt lat="43.74428" lon="1.53393">
        <ele>247.506601</ele>
        <time>2022-03-25T15:54:27.431Z</time>
      </trkpt>
      <trkpt lat="43.74436" lon="1.534">
        <ele>247.600073</ele>
        <time>2022-03-25T15:54:29.422Z</time>
      </trkpt>
      <trkpt lat="43.74447" lon="1.5341">
        <ele>247.7362</ele>
        <time>2022-03-25T15:54:32.431Z</time>
      </trkpt>
      <trkpt lat="43.74458" lon="1.5342">
        <ele>247.98754</ele>
        <time>2022-03-25T15:54:35.442Z</time>
      </trkpt>
      <trkpt lat="43.74469" lon="1.53431">
        <ele>248.318975</ele>
        <time>2022-03-25T15:54:38.449Z</time>
      </trkpt>
      <trkpt lat="43.74478" lon="1.53442">
        <ele>248.63875</ele>
        <time>2022-03-25T15:54:41.432Z</time>
      </trkpt>
      <trkpt lat="43.74489" lon="1.53453">
        <ele>248.9578</ele>
        <time>2022-03-25T15:54:44.430Z</time>
      </trkpt>
      <trkpt lat="43.745" lon="1.53463">
        <ele>249.288115</ele>
        <time>2022-03-25T15:54:47.429Z</time>
      </trkpt>
      <trkpt lat="43.7451" lon="1.53474">
        <ele>249.622822</ele>
        <time>2022-03-25T15:54:50.421Z</time>
      </trkpt>
      <trkpt lat="43.7452" lon="1.53484">
        <ele>249.934501</ele>
        <time>2022-03-25T15:54:53.426Z</time>
      </trkpt>
      <trkpt lat="43.7453" lon="1.53494">
        <ele>250.23807</ele>
        <time>2022-03-25T15:54:56.434Z</time>
      </trkpt>
      <trkpt lat="43.7454" lon="1.53504">
        <ele>250.538365</ele>
        <time>2022-03-25T15:54:59.427Z</time>
      </trkpt>
      <trkpt lat="43.7455" lon="1.53513">
        <ele>250.840755</ele>
        <time>2022-03-25T15:55:02.426Z</time>
      </trkpt>
      <trkpt lat="43.74561" lon="1.53523">
        <ele>251.168569</ele>
        <time>2022-03-25T15:55:05.429Z</time>
      </trkpt>
      <trkpt lat="43.74571" lon="1.53529">
        <ele>251.45649</ele>
        <time>2022-03-25T15:55:08.438Z</time>
      </trkpt>
      <trkpt lat="43.74582" lon="1.53534">
        <ele>251.730528</ele>
        <time>2022-03-25T15:55:11.438Z</time>
      </trkpt>
      <trkpt lat="43.74593" lon="1.5354">
        <ele>252.044218</ele>
        <time>2022-03-25T15:55:14.431Z</time>
      </trkpt>
      <trkpt lat="43.74605" lon="1.53546">
        <ele>252.346432</ele>
        <time>2022-03-25T15:55:17.424Z</time>
      </trkpt>
      <trkpt lat="43.74617" lon="1.53552">
        <ele>252.579423</ele>
        <time>2022-03-25T15:55:20.448Z</time>
      </trkpt>
      <trkpt lat="43.74629" lon="1.53559">
        <ele>252.816524</ele>
        <time>2022-03-25T15:55:23.427Z</time>
      </trkpt>
      <trkpt lat="43.74641" lon="1.53566">
        <ele>253.052834</ele>
        <time>2022-03-25T15:55:26.425Z</time>
      </trkpt>
      <trkpt lat="43.74652" lon="1.53575">
        <ele>253.283148</ele>
        <time>2022-03-25T15:55:29.434Z</time>
      </trkpt>
      <trkpt lat="43.74662" lon="1.53587">
        <ele>253.530423</ele>
        <time>2022-03-25T15:55:32.424Z</time>
      </trkpt>
      <trkpt lat="43.74673" lon="1.53592">
        <ele>253.734682</ele>
        <time>2022-03-25T15:55:34.432Z</time>
      </trkpt>
      <trkpt lat="43.74686" lon="1.53595">
        <ele>253.98864</ele>
        <time>2022-03-25T15:55:36.420Z</time>
      </trkpt>
      <trkpt lat="43.74701" lon="1.53596">
        <ele>254.256224</ele>
        <time>2022-03-25T15:55:38.428Z</time>
      </trkpt>
      <trkpt lat="43.74714" lon="1.53596">
        <ele>254.500023</ele>
        <time>2022-03-25T15:55:40.420Z</time>
      </trkpt>
      <trkpt lat="43.74727" lon="1.53597">
        <ele>254.731365</ele>
        <time>2022-03-25T15:55:42.419Z</time>
      </trkpt>
      <trkpt lat="43.74739" lon="1.53602">
        <ele>254.955354</ele>
        <time>2022-03-25T15:55:44.410Z</time>
      </trkpt>
      <trkpt lat="43.74748" lon="1.53612">
        <ele>255.172364</ele>
        <time>2022-03-25T15:55:46.431Z</time>
      </trkpt>
      <trkpt lat="43.74755" lon="1.53625">
        <ele>255.387201</ele>
        <time>2022-03-25T15:55:48.420Z</time>
      </trkpt>
      <trkpt lat="43.74762" lon="1.53637">
        <ele>255.592226</ele>
        <time>2022-03-25T15:55:50.424Z</time>
      </trkpt>
      <trkpt lat="43.74768" lon="1.53649">
        <ele>256.25507</ele>
        <time>2022-03-25T15:55:52.432Z</time>
      </trkpt>
      <trkpt lat="43.74774" lon="1.53659">
        <ele>256.870585</ele>
        <time>2022-03-25T15:55:54.435Z</time>
      </trkpt>
      <trkpt lat="43.74783" lon="1.53669">
        <ele>257.671293</ele>
        <time>2022-03-25T15:55:57.422Z</time>
      </trkpt>
      <trkpt lat="43.74792" lon="1.53679">
        <ele>258.392395</ele>
        <time>2022-03-25T15:56:00.426Z</time>
      </trkpt>
      <trkpt lat="43.74801" lon="1.53688">
        <ele>259.129741</ele>
        <time>2022-03-25T15:56:03.434Z</time>
      </trkpt>
      <trkpt lat="43.7481" lon="1.53699">
        <ele>259.93236</ele>
        <time>2022-03-25T15:56:06.442Z</time>
      </trkpt>
      <trkpt lat="43.74819" lon="1.53709">
        <ele>260.706592</ele>
        <time>2022-03-25T15:56:09.426Z</time>
      </trkpt>
      <trkpt lat="43.74828" lon="1.53719">
        <ele>261.426149</ele>
        <time>2022-03-25T15:56:12.435Z</time>
      </trkpt>
      <trkpt lat="43.74838" lon="1.53726">
        <ele>262.14758</ele>
        <time>2022-03-25T15:56:15.435Z</time>
      </trkpt>
      <trkpt lat="43.74847" lon="1.53733">
        <ele>262.864478</ele>
        <time>2022-03-25T15:56:18.427Z</time>
      </trkpt>
      <trkpt lat="43.74856" lon="1.53737">
        <ele>263.473077</ele>
        <time>2022-03-25T15:56:23.411Z</time>
      </trkpt>
      <trkpt lat="43.74863" lon="1.53728">
        <ele>264.139461</ele>
        <time>2022-03-25T15:56:27.417Z</time>
      </trkpt>
      <trkpt lat="43.74867" lon="1.53714">
        <ele>264.838135</ele>
        <time>2022-03-25T15:56:30.431Z</time>
      </trkpt>
      <trkpt lat="43.74869" lon="1.53702">
        <ele>265.435163</ele>
        <time>2022-03-25T15:56:32.428Z</time>
      </trkpt>
      <trkpt lat="43.74872" lon="1.53688">
        <ele>266.089052</ele>
        <time>2022-03-25T15:56:34.418Z</time>
      </trkpt>
      <trkpt lat="43.74875" lon="1.53674">
        <ele>266.78319</ele>
        <time>2022-03-25T15:56:36.433Z</time>
      </trkpt>
      <trkpt lat="43.74878" lon="1.53659">
        <ele>267.445662</ele>
        <time>2022-03-25T15:56:38.432Z</time>
      </trkpt>
      <trkpt lat="43.74881" lon="1.53644">
        <ele>267.409793</ele>
        <time>2022-03-25T15:56:40.439Z</time>
      </trkpt>
      <trkpt lat="43.74884" lon="1.53629">
        <ele>267.374335</ele>
        <time>2022-03-25T15:56:42.432Z</time>
      </trkpt>
      <trkpt lat="43.74887" lon="1.53614">
        <ele>267.339745</ele>
        <time>2022-03-25T15:56:44.432Z</time>
      </trkpt>
      <trkpt lat="43.7489" lon="1.536">
        <ele>267.307194</ele>
        <time>2022-03-25T15:56:46.419Z</time>
      </trkpt>
      <trkpt lat="43.74893" lon="1.53587">
        <ele>267.275468</ele>
        <time>2022-03-25T15:56:48.424Z</time>
      </trkpt>
      <trkpt lat="43.74896" lon="1.53572">
        <ele>267.24192</ele>
        <time>2022-03-25T15:56:50.427Z</time>
      </trkpt>
      <trkpt lat="43.74899" lon="1.53558">
        <ele>267.20715</ele>
        <time>2022-03-25T15:56:52.445Z</time>
      </trkpt>
      <trkpt lat="43.74903" lon="1.53542">
        <ele>267.170397</ele>
        <time>2022-03-25T15:56:54.434Z</time>
      </trkpt>
      <trkpt lat="43.74908" lon="1.53526">
        <ele>267.131593</ele>
        <time>2022-03-25T15:56:56.451Z</time>
      </trkpt>
      <trkpt lat="43.74913" lon="1.5351">
        <ele>267.091158</ele>
        <time>2022-03-25T15:56:58.430Z</time>
      </trkpt>
      <trkpt lat="43.7492" lon="1.53495">
        <ele>267.051065</ele>
        <time>2022-03-25T15:57:00.434Z</time>
      </trkpt>
      <trkpt lat="43.74927" lon="1.5348">
        <ele>267.010762</ele>
        <time>2022-03-25T15:57:02.422Z</time>
      </trkpt>
      <trkpt lat="43.74935" lon="1.53466">
        <ele>266.970662</ele>
        <time>2022-03-25T15:57:04.428Z</time>
      </trkpt>
      <trkpt lat="43.74944" lon="1.5346">
        <ele>266.940283</ele>
        <time>2022-03-25T15:57:07.430Z</time>
      </trkpt>
      <trkpt lat="43.74949" lon="1.53475">
        <ele>266.902831</ele>
        <time>2022-03-25T15:57:10.421Z</time>
      </trkpt>
      <trkpt lat="43.74955" lon="1.53491">
        <ele>266.630365</ele>
        <time>2022-03-25T15:57:13.430Z</time>
      </trkpt>
      <trkpt lat="43.74959" lon="1.53507">
        <ele>266.199524</ele>
        <time>2022-03-25T15:57:16.425Z</time>
      </trkpt>
      <trkpt lat="43.74963" lon="1.5352">
        <ele>265.862844</ele>
        <time>2022-03-25T15:57:18.433Z</time>
      </trkpt>
      <trkpt lat="43.74968" lon="1.53534">
        <ele>265.500286</ele>
        <time>2022-03-25T15:57:20.429Z</time>
      </trkpt>
      <trkpt lat="43.74973" lon="1.53548">
        <ele>265.131062</ele>
        <time>2022-03-25T15:57:22.431Z</time>
      </trkpt>
      <trkpt lat="43.74979" lon="1.53562">
        <ele>264.73912</ele>
        <time>2022-03-25T15:57:24.426Z</time>
      </trkpt>
      <trkpt lat="43.74984" lon="1.53577">
        <ele>264.333102</ele>
        <time>2022-03-25T15:57:26.429Z</time>
      </trkpt>
      <trkpt lat="43.74989" lon="1.53592">
        <ele>263.938626</ele>
        <time>2022-03-25T15:57:28.430Z</time>
      </trkpt>
      <trkpt lat="43.74993" lon="1.53605">
        <ele>263.590523</ele>
        <time>2022-03-25T15:57:30.432Z</time>
      </trkpt>
      <trkpt lat="43.74998" lon="1.53617">
        <ele>263.255238</ele>
        <time>2022-03-25T15:57:32.431Z</time>
      </trkpt>
      <trkpt lat="43.75003" lon="1.53629">
        <ele>262.916862</ele>
        <time>2022-03-25T15:57:34.432Z</time>
      </trkpt>
      <trkpt lat="43.75009" lon="1.5364">
        <ele>262.59009</ele>
        <time>2022-03-25T15:57:36.435Z</time>
      </trkpt>
      <trkpt lat="43.75016" lon="1.53649">
        <ele>262.270757</ele>
        <time>2022-03-25T15:57:38.422Z</time>
      </trkpt>
      <trkpt lat="43.75023" lon="1.53658">
        <ele>261.958608</ele>
        <time>2022-03-25T15:57:40.430Z</time>
      </trkpt>
      <trkpt lat="43.75029" lon="1.53667">
        <ele>261.648875</ele>
        <time>2022-03-25T15:57:42.453Z</time>
      </trkpt>
      <trkpt lat="43.75037" lon="1.53677">
        <ele>261.308152</ele>
        <time>2022-03-25T15:57:44.448Z</time>
      </trkpt>
      <trkpt lat="43.75046" lon="1.53687">
        <ele>260.923152</ele>
        <time>2022-03-25T15:57:46.429Z</time>
      </trkpt>
      <trkpt lat="43.75057" lon="1.53701">
        <ele>259.527078</ele>
        <time>2022-03-25T15:57:48.430Z</time>
      </trkpt>
      <trkpt lat="43.7507" lon="1.53717">
        <ele>257.826595</ele>
        <time>2022-03-25T15:57:50.433Z</time>
      </trkpt>
      <trkpt lat="43.75078" lon="1.53726">
        <ele>256.868298</ele>
        <time>2022-03-25T15:57:51.422Z</time>
      </trkpt>
      <trkpt lat="43.75085" lon="1.53735">
        <ele>255.907472</ele>
        <time>2022-03-25T15:57:52.425Z</time>
      </trkpt>
      <trkpt lat="43.75093" lon="1.53745">
        <ele>254.848517</ele>
        <time>2022-03-25T15:57:53.431Z</time>
      </trkpt>
      <trkpt lat="43.75102" lon="1.53755">
        <ele>253.710496</ele>
        <time>2022-03-25T15:57:54.439Z</time>
      </trkpt>
      <trkpt lat="43.75112" lon="1.53766">
        <ele>252.52308</ele>
        <time>2022-03-25T15:57:55.437Z</time>
      </trkpt>
      <trkpt lat="43.75121" lon="1.53778">
        <ele>251.312596</ele>
        <time>2022-03-25T15:57:56.432Z</time>
      </trkpt>
      <trkpt lat="43.7513" lon="1.5379">
        <ele>250.095138</ele>
        <time>2022-03-25T15:57:57.438Z</time>
      </trkpt>
      <trkpt lat="43.75139" lon="1.53801">
        <ele>248.893953</ele>
        <time>2022-03-25T15:57:58.439Z</time>
      </trkpt>
      <trkpt lat="43.75148" lon="1.53811">
        <ele>247.769299</ele>
        <time>2022-03-25T15:57:59.442Z</time>
      </trkpt>
      <trkpt lat="43.75157" lon="1.53819">
        <ele>246.779074</ele>
        <time>2022-03-25T15:58:00.434Z</time>
      </trkpt>
      <trkpt lat="43.7517" lon="1.53832">
        <ele>245.214454</ele>
        <time>2022-03-25T15:58:02.438Z</time>
      </trkpt>
      <trkpt lat="43.75179" lon="1.5384">
        <ele>244.14583</ele>
        <time>2022-03-25T15:58:04.420Z</time>
      </trkpt>
      <trkpt lat="43.7519" lon="1.53849">
        <ele>242.867357</ele>
        <time>2022-03-25T15:58:06.434Z</time>
      </trkpt>
      <trkpt lat="43.75203" lon="1.53858">
        <ele>241.084594</ele>
        <time>2022-03-25T15:58:08.419Z</time>
      </trkpt>
      <trkpt lat="43.75217" lon="1.53868">
        <ele>239.132677</ele>
        <time>2022-03-25T15:58:10.424Z</time>
      </trkpt>
      <trkpt lat="43.75231" lon="1.53882">
        <ele>237.126618</ele>
        <time>2022-03-25T15:58:12.430Z</time>
      </trkpt>
      <trkpt lat="43.75242" lon="1.539">
        <ele>235.021175</ele>
        <time>2022-03-25T15:58:14.432Z</time>
      </trkpt>
      <trkpt lat="43.75246" lon="1.53911">
        <ele>233.923047</ele>
        <time>2022-03-25T15:58:15.422Z</time>
      </trkpt>
      <trkpt lat="43.75251" lon="1.53922">
        <ele>232.83687</ele>
        <time>2022-03-25T15:58:16.418Z</time>
      </trkpt>
      <trkpt lat="43.7526" lon="1.53943">
        <ele>230.666693</ele>
        <time>2022-03-25T15:58:18.436Z</time>
      </trkpt>
      <trkpt lat="43.7527" lon="1.53963">
        <ele>228.557643</ele>
        <time>2022-03-25T15:58:20.422Z</time>
      </trkpt>
      <trkpt lat="43.75278" lon="1.53982">
        <ele>226.638502</ele>
        <time>2022-03-25T15:58:22.445Z</time>
      </trkpt>
      <trkpt lat="43.75283" lon="1.54001">
        <ele>224.887652</ele>
        <time>2022-03-25T15:58:24.427Z</time>
      </trkpt>
      <trkpt lat="43.75286" lon="1.54021">
        <ele>223.122724</ele>
        <time>2022-03-25T15:58:26.428Z</time>
      </trkpt>
      <trkpt lat="43.75288" lon="1.54042">
        <ele>221.591242</ele>
        <time>2022-03-25T15:58:28.432Z</time>
      </trkpt>
      <trkpt lat="43.75288" lon="1.54064">
        <ele>220.92063</ele>
        <time>2022-03-25T15:58:30.432Z</time>
      </trkpt>
      <trkpt lat="43.75287" lon="1.54084">
        <ele>220.287674</ele>
        <time>2022-03-25T15:58:32.434Z</time>
      </trkpt>
      <trkpt lat="43.75285" lon="1.54102">
        <ele>219.721326</ele>
        <time>2022-03-25T15:58:34.436Z</time>
      </trkpt>
      <trkpt lat="43.75287" lon="1.54118">
        <ele>219.196398</ele>
        <time>2022-03-25T15:58:36.426Z</time>
      </trkpt>
      <trkpt lat="43.7529" lon="1.54133">
        <ele>218.702002</ele>
        <time>2022-03-25T15:58:38.429Z</time>
      </trkpt>
      <trkpt lat="43.75295" lon="1.54147">
        <ele>218.244867</ele>
        <time>2022-03-25T15:58:40.436Z</time>
      </trkpt>
      <trkpt lat="43.75299" lon="1.54158">
        <ele>217.851253</ele>
        <time>2022-03-25T15:58:42.421Z</time>
      </trkpt>
      <trkpt lat="43.75304" lon="1.54171">
        <ele>217.391308</ele>
        <time>2022-03-25T15:58:45.432Z</time>
      </trkpt>
      <trkpt lat="43.7531" lon="1.54187">
        <ele>216.829003</ele>
        <time>2022-03-25T15:58:48.436Z</time>
      </trkpt>
      <trkpt lat="43.75315" lon="1.542">
        <ele>216.381217</ele>
        <time>2022-03-25T15:58:50.427Z</time>
      </trkpt>
      <trkpt lat="43.7532" lon="1.54211">
        <ele>215.940564</ele>
        <time>2022-03-25T15:58:52.431Z</time>
      </trkpt>
      <trkpt lat="43.75327" lon="1.54222">
        <ele>215.501692</ele>
        <time>2022-03-25T15:58:54.431Z</time>
      </trkpt>
      <trkpt lat="43.75334" lon="1.54232">
        <ele>215.073139</ele>
        <time>2022-03-25T15:58:56.426Z</time>
      </trkpt>
      <trkpt lat="43.75342" lon="1.54241">
        <ele>214.635969</ele>
        <time>2022-03-25T15:58:58.430Z</time>
      </trkpt>
      <trkpt lat="43.75349" lon="1.54249">
        <ele>214.222745</ele>
        <time>2022-03-25T15:59:00.430Z</time>
      </trkpt>
      <trkpt lat="43.75357" lon="1.54262">
        <ele>214.360297</ele>
        <time>2022-03-25T15:59:03.422Z</time>
      </trkpt>
      <trkpt lat="43.75357" lon="1.54277">
        <ele>214.873671</ele>
        <time>2022-03-25T15:59:06.418Z</time>
      </trkpt>
      <trkpt lat="43.75353" lon="1.54293">
        <ele>215.479446</ele>
        <time>2022-03-25T15:59:09.420Z</time>
      </trkpt>
      <trkpt lat="43.7535" lon="1.54308">
        <ele>216.046117</ele>
        <time>2022-03-25T15:59:12.433Z</time>
      </trkpt>
      <trkpt lat="43.75346" lon="1.54323">
        <ele>216.635959</ele>
        <time>2022-03-25T15:59:15.436Z</time>
      </trkpt>
      <trkpt lat="43.7534" lon="1.54337">
        <ele>217.214321</ele>
        <time>2022-03-25T15:59:18.431Z</time>
      </trkpt>
      <trkpt lat="43.75334" lon="1.54351">
        <ele>217.787883</ele>
        <time>2022-03-25T15:59:21.427Z</time>
      </trkpt>
      <trkpt lat="43.75328" lon="1.54364">
        <ele>218.336732</ele>
        <time>2022-03-25T15:59:24.425Z</time>
      </trkpt>
      <trkpt lat="43.75323" lon="1.54379">
        <ele>218.919705</ele>
        <time>2022-03-25T15:59:27.429Z</time>
      </trkpt>
      <trkpt lat="43.75317" lon="1.54392">
        <ele>219.48488</ele>
        <time>2022-03-25T15:59:30.430Z</time>
      </trkpt>
      <trkpt lat="43.75311" lon="1.54406">
        <ele>220.067884</ele>
        <time>2022-03-25T15:59:33.431Z</time>
      </trkpt>
      <trkpt lat="43.75305" lon="1.5442">
        <ele>220.655553</ele>
        <time>2022-03-25T15:59:36.428Z</time>
      </trkpt>
      <trkpt lat="43.75299" lon="1.54434">
        <ele>221.239088</ele>
        <time>2022-03-25T15:59:39.429Z</time>
      </trkpt>
      <trkpt lat="43.75294" lon="1.54449">
        <ele>221.817647</ele>
        <time>2022-03-25T15:59:42.430Z</time>
      </trkpt>
      <trkpt lat="43.75292" lon="1.54463">
        <ele>222.350124</ele>
        <time>2022-03-25T15:59:45.432Z</time>
      </trkpt>
      <trkpt lat="43.75292" lon="1.54479">
        <ele>222.921899</ele>
        <time>2022-03-25T15:59:48.418Z</time>
      </trkpt>
      <trkpt lat="43.75294" lon="1.54495">
        <ele>223.220029</ele>
        <time>2022-03-25T15:59:51.430Z</time>
      </trkpt>
      <trkpt lat="43.75297" lon="1.54511">
        <ele>223.500774</ele>
        <time>2022-03-25T15:59:54.430Z</time>
      </trkpt>
      <trkpt lat="43.75299" lon="1.54527">
        <ele>223.797033</ele>
        <time>2022-03-25T15:59:57.430Z</time>
      </trkpt>
      <trkpt lat="43.753" lon="1.54543">
        <ele>224.079414</ele>
        <time>2022-03-25T16:00:00.427Z</time>
      </trkpt>
      <trkpt lat="43.75302" lon="1.54559">
        <ele>224.376689</ele>
        <time>2022-03-25T16:00:03.429Z</time>
      </trkpt>
      <trkpt lat="43.75303" lon="1.54575">
        <ele>224.662238</ele>
        <time>2022-03-25T16:00:06.432Z</time>
      </trkpt>
      <trkpt lat="43.75306" lon="1.54591">
        <ele>224.951612</ele>
        <time>2022-03-25T16:00:09.425Z</time>
      </trkpt>
      <trkpt lat="43.7531" lon="1.54607">
        <ele>225.24217</ele>
        <time>2022-03-25T16:00:12.427Z</time>
      </trkpt>
      <trkpt lat="43.75313" lon="1.54618">
        <ele>225.465107</ele>
        <time>2022-03-25T16:00:14.433Z</time>
      </trkpt>
      <trkpt lat="43.75318" lon="1.54631">
        <ele>225.711374</ele>
        <time>2022-03-25T16:00:16.431Z</time>
      </trkpt>
      <trkpt lat="43.75323" lon="1.54643">
        <ele>225.955019</ele>
        <time>2022-03-25T16:00:18.426Z</time>
      </trkpt>
      <trkpt lat="43.75328" lon="1.54653">
        <ele>226.181697</ele>
        <time>2022-03-25T16:00:20.423Z</time>
      </trkpt>
      <trkpt lat="43.75335" lon="1.54668">
        <ele>226.50619</ele>
        <time>2022-03-25T16:00:23.428Z</time>
      </trkpt>
      <trkpt lat="43.7534" lon="1.54679">
        <ele>226.731172</ele>
        <time>2022-03-25T16:00:25.435Z</time>
      </trkpt>
      <trkpt lat="43.75346" lon="1.54691">
        <ele>226.995284</ele>
        <time>2022-03-25T16:00:27.415Z</time>
      </trkpt>
      <trkpt lat="43.75353" lon="1.54706">
        <ele>227.318476</ele>
        <time>2022-03-25T16:00:29.435Z</time>
      </trkpt>
      <trkpt lat="43.75361" lon="1.54723">
        <ele>226.513321</ele>
        <time>2022-03-25T16:00:31.436Z</time>
      </trkpt>
      <trkpt lat="43.75368" lon="1.54737">
        <ele>225.659776</ele>
        <time>2022-03-25T16:00:33.428Z</time>
      </trkpt>
      <trkpt lat="43.75376" lon="1.54747">
        <ele>224.88101</ele>
        <time>2022-03-25T16:00:35.442Z</time>
      </trkpt>
      <trkpt lat="43.75387" lon="1.54755">
        <ele>223.981412</ele>
        <time>2022-03-25T16:00:37.433Z</time>
      </trkpt>
      <trkpt lat="43.754" lon="1.54762">
        <ele>223.052283</ele>
        <time>2022-03-25T16:00:39.451Z</time>
      </trkpt>
      <trkpt lat="43.75414" lon="1.54771">
        <ele>221.994852</ele>
        <time>2022-03-25T16:00:41.422Z</time>
      </trkpt>
      <trkpt lat="43.75426" lon="1.54785">
        <ele>220.858225</ele>
        <time>2022-03-25T16:00:43.429Z</time>
      </trkpt>
      <trkpt lat="43.75435" lon="1.54802">
        <ele>219.792696</ele>
        <time>2022-03-25T16:00:45.435Z</time>
      </trkpt>
      <trkpt lat="43.75444" lon="1.5482">
        <ele>218.692241</ele>
        <time>2022-03-25T16:00:47.434Z</time>
      </trkpt>
      <trkpt lat="43.75453" lon="1.54839">
        <ele>217.532767</ele>
        <time>2022-03-25T16:00:49.437Z</time>
      </trkpt>
      <trkpt lat="43.75463" lon="1.54857">
        <ele>216.426281</ele>
        <time>2022-03-25T16:00:51.435Z</time>
      </trkpt>
      <trkpt lat="43.75472" lon="1.54874">
        <ele>215.352002</ele>
        <time>2022-03-25T16:00:53.425Z</time>
      </trkpt>
      <trkpt lat="43.75477" lon="1.54893">
        <ele>214.218968</ele>
        <time>2022-03-25T16:00:55.427Z</time>
      </trkpt>
      <trkpt lat="43.75481" lon="1.54913">
        <ele>213.052113</ele>
        <time>2022-03-25T16:00:57.433Z</time>
      </trkpt>
      <trkpt lat="43.75484" lon="1.54931">
        <ele>211.925294</ele>
        <time>2022-03-25T16:00:59.427Z</time>
      </trkpt>
      <trkpt lat="43.75489" lon="1.54948">
        <ele>210.828305</ele>
        <time>2022-03-25T16:01:01.425Z</time>
      </trkpt>
      <trkpt lat="43.75496" lon="1.54965">
        <ele>209.727737</ele>
        <time>2022-03-25T16:01:03.434Z</time>
      </trkpt>
      <trkpt lat="43.75504" lon="1.5498">
        <ele>208.630773</ele>
        <time>2022-03-25T16:01:05.429Z</time>
      </trkpt>
      <trkpt lat="43.75511" lon="1.54994">
        <ele>207.57653</ele>
        <time>2022-03-25T16:01:07.427Z</time>
      </trkpt>
      <trkpt lat="43.75516" lon="1.55005">
        <ele>206.841904</ele>
        <time>2022-03-25T16:01:10.426Z</time>
      </trkpt>
      <trkpt lat="43.75507" lon="1.55015">
        <ele>205.922022</ele>
        <time>2022-03-25T16:01:14.426Z</time>
      </trkpt>
      <trkpt lat="43.75498" lon="1.55026">
        <ele>204.910274</ele>
        <time>2022-03-25T16:01:17.440Z</time>
      </trkpt>
      <trkpt lat="43.75496" lon="1.55044">
        <ele>203.851679</ele>
        <time>2022-03-25T16:01:20.426Z</time>
      </trkpt>
      <trkpt lat="43.75502" lon="1.55057">
        <ele>202.940408</ele>
        <time>2022-03-25T16:01:22.412Z</time>
      </trkpt>
      <trkpt lat="43.7551" lon="1.5507">
        <ele>201.951314</ele>
        <time>2022-03-25T16:01:24.421Z</time>
      </trkpt>
      <trkpt lat="43.75517" lon="1.55083">
        <ele>200.978167</ele>
        <time>2022-03-25T16:01:26.423Z</time>
      </trkpt>
      <trkpt lat="43.75524" lon="1.55095">
        <ele>200.289947</ele>
        <time>2022-03-25T16:01:28.429Z</time>
      </trkpt>
      <trkpt lat="43.75531" lon="1.55106">
        <ele>201.333589</ele>
        <time>2022-03-25T16:01:30.425Z</time>
      </trkpt>
      <trkpt lat="43.75537" lon="1.55117">
        <ele>202.315063</ele>
        <time>2022-03-25T16:01:32.436Z</time>
      </trkpt>
      <trkpt lat="43.75544" lon="1.55131">
        <ele>203.552196</ele>
        <time>2022-03-25T16:01:35.432Z</time>
      </trkpt>
      <trkpt lat="43.75551" lon="1.55144">
        <ele>204.667147</ele>
        <time>2022-03-25T16:01:38.432Z</time>
      </trkpt>
      <trkpt lat="43.75556" lon="1.55157">
        <ele>205.727794</ele>
        <time>2022-03-25T16:01:41.432Z</time>
      </trkpt>
      <trkpt lat="43.75557" lon="1.55169">
        <ele>206.641</ele>
        <time>2022-03-25T16:01:44.443Z</time>
      </trkpt>
      <trkpt lat="43.75557" lon="1.55182">
        <ele>207.572454</ele>
        <time>2022-03-25T16:01:47.418Z</time>
      </trkpt>
      <trkpt lat="43.75557" lon="1.55198">
        <ele>208.654856</ele>
        <time>2022-03-25T16:01:51.434Z</time>
      </trkpt>
      <trkpt lat="43.7556" lon="1.55211">
        <ele>209.660133</ele>
        <time>2022-03-25T16:01:55.437Z</time>
      </trkpt>
      <trkpt lat="43.75565" lon="1.55226">
        <ele>210.835134</ele>
        <time>2022-03-25T16:01:59.432Z</time>
      </trkpt>
      <trkpt lat="43.7557" lon="1.55236">
        <ele>211.753025</ele>
        <time>2022-03-25T16:02:02.421Z</time>
      </trkpt>
      <trkpt lat="43.75575" lon="1.55248">
        <ele>212.71886</ele>
        <time>2022-03-25T16:02:05.426Z</time>
      </trkpt>
      <trkpt lat="43.75581" lon="1.5526">
        <ele>213.776552</ele>
        <time>2022-03-25T16:02:08.430Z</time>
      </trkpt>
      <trkpt lat="43.75587" lon="1.55272">
        <ele>214.760623</ele>
        <time>2022-03-25T16:02:11.427Z</time>
      </trkpt>
      <trkpt lat="43.75593" lon="1.55283">
        <ele>215.806001</ele>
        <time>2022-03-25T16:02:14.436Z</time>
      </trkpt>
      <trkpt lat="43.75599" lon="1.55295">
        <ele>216.804804</ele>
        <time>2022-03-25T16:02:17.422Z</time>
      </trkpt>
      <trkpt lat="43.75603" lon="1.55308">
        <ele>217.859227</ele>
        <time>2022-03-25T16:02:21.421Z</time>
      </trkpt>
      <trkpt lat="43.75611" lon="1.55316">
        <ele>218.699984</ele>
        <time>2022-03-25T16:02:25.420Z</time>
      </trkpt>
      <trkpt lat="43.75618" lon="1.55325">
        <ele>219.525268</ele>
        <time>2022-03-25T16:02:28.421Z</time>
      </trkpt>
      <trkpt lat="43.75624" lon="1.55338">
        <ele>220.497776</ele>
        <time>2022-03-25T16:02:32.416Z</time>
      </trkpt>
      <trkpt lat="43.75632" lon="1.55349">
        <ele>221.43211</ele>
        <time>2022-03-25T16:02:36.416Z</time>
      </trkpt>
      <trkpt lat="43.75639" lon="1.55359">
        <ele>222.315314</ele>
        <time>2022-03-25T16:02:39.426Z</time>
      </trkpt>
      <trkpt lat="43.75646" lon="1.5537">
        <ele>223.209679</ele>
        <time>2022-03-25T16:02:42.419Z</time>
      </trkpt>
      <trkpt lat="43.75652" lon="1.5538">
        <ele>224.0412</ele>
        <time>2022-03-25T16:02:45.425Z</time>
      </trkpt>
      <trkpt lat="43.7566" lon="1.55391">
        <ele>225.01324</ele>
        <time>2022-03-25T16:02:48.441Z</time>
      </trkpt>
      <trkpt lat="43.75668" lon="1.55403">
        <ele>226.03596</ele>
        <time>2022-03-25T16:02:51.446Z</time>
      </trkpt>
      <trkpt lat="43.75677" lon="1.55417">
        <ele>227.198914</ele>
        <time>2022-03-25T16:02:54.435Z</time>
      </trkpt>
      <trkpt lat="43.75683" lon="1.55432">
        <ele>228.300192</ele>
        <time>2022-03-25T16:02:57.430Z</time>
      </trkpt>
      <trkpt lat="43.75686" lon="1.55446">
        <ele>229.201897</ele>
        <time>2022-03-25T16:03:00.434Z</time>
      </trkpt>
      <trkpt lat="43.7568" lon="1.55459">
        <ele>230.165456</ele>
        <time>2022-03-25T16:03:04.411Z</time>
      </trkpt>
      <trkpt lat="43.7567" lon="1.55464">
        <ele>231.055935</ele>
        <time>2022-03-25T16:03:07.430Z</time>
      </trkpt>
      <trkpt lat="43.75661" lon="1.55472">
        <ele>231.991632</ele>
        <time>2022-03-25T16:03:10.429Z</time>
      </trkpt>
      <trkpt lat="43.75652" lon="1.55479">
        <ele>232.92733</ele>
        <time>2022-03-25T16:03:13.426Z</time>
      </trkpt>
      <trkpt lat="43.75642" lon="1.55489">
        <ele>233.636372</ele>
        <time>2022-03-25T16:03:16.436Z</time>
      </trkpt>
      <trkpt lat="43.75634" lon="1.555">
        <ele>233.949805</ele>
        <time>2022-03-25T16:03:19.440Z</time>
      </trkpt>
      <trkpt lat="43.75627" lon="1.55513">
        <ele>234.26821</ele>
        <time>2022-03-25T16:03:22.442Z</time>
      </trkpt>
      <trkpt lat="43.7562" lon="1.55527">
        <ele>234.612102</ele>
        <time>2022-03-25T16:03:25.432Z</time>
      </trkpt>
      <trkpt lat="43.75612" lon="1.55541">
        <ele>234.961078</ele>
        <time>2022-03-25T16:03:28.431Z</time>
      </trkpt>
      <trkpt lat="43.75605" lon="1.55552">
        <ele>235.253389</ele>
        <time>2022-03-25T16:03:31.438Z</time>
      </trkpt>
      <trkpt lat="43.756" lon="1.55563">
        <ele>235.522186</ele>
        <time>2022-03-25T16:03:34.431Z</time>
      </trkpt>
      <trkpt lat="43.75595" lon="1.55575">
        <ele>235.793556</ele>
        <time>2022-03-25T16:03:37.429Z</time>
      </trkpt>
      <trkpt lat="43.75589" lon="1.55585">
        <ele>236.05753</ele>
        <time>2022-03-25T16:03:41.425Z</time>
      </trkpt>
      <trkpt lat="43.75584" lon="1.55597">
        <ele>236.335535</ele>
        <time>2022-03-25T16:03:45.427Z</time>
      </trkpt>
      <trkpt lat="43.75585" lon="1.5561">
        <ele>236.590808</ele>
        <time>2022-03-25T16:03:48.428Z</time>
      </trkpt>
      <trkpt lat="43.75585" lon="1.55627">
        <ele>236.941709</ele>
        <time>2022-03-25T16:03:51.437Z</time>
      </trkpt>
      <trkpt lat="43.75579" lon="1.55644">
        <ele>237.307828</ele>
        <time>2022-03-25T16:03:54.427Z</time>
      </trkpt>
      <trkpt lat="43.75571" lon="1.55657">
        <ele>237.65354</ele>
        <time>2022-03-25T16:03:57.427Z</time>
      </trkpt>
      <trkpt lat="43.75562" lon="1.55663">
        <ele>237.919971</ele>
        <time>2022-03-25T16:04:00.427Z</time>
      </trkpt>
      <trkpt lat="43.75556" lon="1.55672">
        <ele>238.169924</ele>
        <time>2022-03-25T16:04:04.426Z</time>
      </trkpt>
      <trkpt lat="43.75546" lon="1.55679">
        <ele>238.4295</ele>
        <time>2022-03-25T16:04:09.424Z</time>
      </trkpt>
      <trkpt lat="43.7554" lon="1.55694">
        <ele>238.196142</ele>
        <time>2022-03-25T16:04:13.430Z</time>
      </trkpt>
      <trkpt lat="43.75535" lon="1.55711">
        <ele>237.939709</ele>
        <time>2022-03-25T16:04:16.423Z</time>
      </trkpt>
      <trkpt lat="43.75531" lon="1.55723">
        <ele>237.753884</ele>
        <time>2022-03-25T16:04:18.434Z</time>
      </trkpt>
      <trkpt lat="43.75527" lon="1.55737">
        <ele>237.544795</ele>
        <time>2022-03-25T16:04:20.428Z</time>
      </trkpt>
      <trkpt lat="43.75521" lon="1.55751">
        <ele>237.319152</ele>
        <time>2022-03-25T16:04:22.432Z</time>
      </trkpt>
      <trkpt lat="43.75515" lon="1.55765">
        <ele>237.09826</ele>
        <time>2022-03-25T16:04:24.425Z</time>
      </trkpt>
      <trkpt lat="43.75509" lon="1.55778">
        <ele>236.891009</ele>
        <time>2022-03-25T16:04:26.430Z</time>
      </trkpt>
      <trkpt lat="43.75504" lon="1.55791">
        <ele>236.674678</ele>
        <time>2022-03-25T16:04:28.421Z</time>
      </trkpt>
      <trkpt lat="43.75499" lon="1.55806">
        <ele>236.447384</ele>
        <time>2022-03-25T16:04:30.421Z</time>
      </trkpt>
      <trkpt lat="43.75496" lon="1.5582">
        <ele>236.246028</ele>
        <time>2022-03-25T16:04:32.443Z</time>
      </trkpt>
      <trkpt lat="43.75494" lon="1.55834">
        <ele>236.05424</ele>
        <time>2022-03-25T16:04:34.442Z</time>
      </trkpt>
      <trkpt lat="43.75494" lon="1.55848">
        <ele>235.860175</ele>
        <time>2022-03-25T16:04:36.429Z</time>
      </trkpt>
      <trkpt lat="43.75494" lon="1.55864">
        <ele>235.63839</ele>
        <time>2022-03-25T16:04:38.419Z</time>
      </trkpt>
      <trkpt lat="43.75495" lon="1.55878">
        <ele>235.436009</ele>
        <time>2022-03-25T16:04:40.417Z</time>
      </trkpt>
      <trkpt lat="43.75495" lon="1.55892">
        <ele>235.240332</ele>
        <time>2022-03-25T16:04:42.431Z</time>
      </trkpt>
      <trkpt lat="43.75498" lon="1.55906">
        <ele>235.043227</ele>
        <time>2022-03-25T16:04:44.419Z</time>
      </trkpt>
      <trkpt lat="43.75503" lon="1.55918">
        <ele>234.832504</ele>
        <time>2022-03-25T16:04:46.427Z</time>
      </trkpt>
      <trkpt lat="43.75509" lon="1.55927">
        <ele>234.624064</ele>
        <time>2022-03-25T16:04:48.425Z</time>
      </trkpt>
      <trkpt lat="43.75519" lon="1.55938">
        <ele>234.342399</ele>
        <time>2022-03-25T16:04:51.434Z</time>
      </trkpt>
      <trkpt lat="43.75529" lon="1.55946">
        <ele>234.060015</ele>
        <time>2022-03-25T16:04:54.428Z</time>
      </trkpt>
      <trkpt lat="43.75541" lon="1.55953">
        <ele>233.762957</ele>
        <time>2022-03-25T16:04:57.415Z</time>
      </trkpt>
      <trkpt lat="43.75554" lon="1.55962">
        <ele>233.454248</ele>
        <time>2022-03-25T16:05:00.430Z</time>
      </trkpt>
      <trkpt lat="43.75562" lon="1.55967">
        <ele>233.246116</ele>
        <time>2022-03-25T16:05:02.431Z</time>
      </trkpt>
      <trkpt lat="43.75571" lon="1.55977">
        <ele>232.991301</ele>
        <time>2022-03-25T16:05:05.432Z</time>
      </trkpt>
      <trkpt lat="43.7558" lon="1.55979">
        <ele>232.778779</ele>
        <time>2022-03-25T16:05:08.426Z</time>
      </trkpt>
      <trkpt lat="43.75593" lon="1.55979">
        <ele>232.478264</ele>
        <time>2022-03-25T16:05:11.411Z</time>
      </trkpt>
      <trkpt lat="43.75603" lon="1.55985">
        <ele>232.235721</ele>
        <time>2022-03-25T16:05:13.424Z</time>
      </trkpt>
      <trkpt lat="43.75612" lon="1.55993">
        <ele>231.996316</ele>
        <time>2022-03-25T16:05:15.445Z</time>
      </trkpt>
      <trkpt lat="43.7562" lon="1.56001">
        <ele>231.767039</ele>
        <time>2022-03-25T16:05:17.437Z</time>
      </trkpt>
      <trkpt lat="43.75629" lon="1.56008">
        <ele>231.537715</ele>
        <time>2022-03-25T16:05:19.432Z</time>
      </trkpt>
      <trkpt lat="43.75638" lon="1.56016">
        <ele>231.2958</ele>
        <time>2022-03-25T16:05:21.418Z</time>
      </trkpt>
      <trkpt lat="43.75648" lon="1.56023">
        <ele>231.045678</ele>
        <time>2022-03-25T16:05:23.430Z</time>
      </trkpt>
      <trkpt lat="43.75658" lon="1.56029">
        <ele>230.726708</ele>
        <time>2022-03-25T16:05:25.440Z</time>
      </trkpt>
      <trkpt lat="43.75669" lon="1.56033">
        <ele>230.32882</ele>
        <time>2022-03-25T16:05:27.438Z</time>
      </trkpt>
      <trkpt lat="43.75679" lon="1.56037">
        <ele>229.963446</ele>
        <time>2022-03-25T16:05:29.433Z</time>
      </trkpt>
      <trkpt lat="43.75688" lon="1.56042">
        <ele>229.619843</ele>
        <time>2022-03-25T16:05:31.432Z</time>
      </trkpt>
      <trkpt lat="43.75698" lon="1.56048">
        <ele>229.271329</ele>
        <time>2022-03-25T16:05:33.441Z</time>
      </trkpt>
      <trkpt lat="43.75708" lon="1.56055">
        <ele>228.865267</ele>
        <time>2022-03-25T16:05:35.436Z</time>
      </trkpt>
      <trkpt lat="43.7572" lon="1.56062">
        <ele>228.428856</ele>
        <time>2022-03-25T16:05:37.430Z</time>
      </trkpt>
      <trkpt lat="43.75733" lon="1.5607">
        <ele>227.950455</ele>
        <time>2022-03-25T16:05:39.428Z</time>
      </trkpt>
      <trkpt lat="43.75744" lon="1.56078">
        <ele>227.482783</ele>
        <time>2022-03-25T16:05:41.436Z</time>
      </trkpt>
      <trkpt lat="43.75757" lon="1.56088">
        <ele>226.987169</ele>
        <time>2022-03-25T16:05:43.426Z</time>
      </trkpt>
      <trkpt lat="43.75769" lon="1.56097">
        <ele>226.506807</ele>
        <time>2022-03-25T16:05:45.439Z</time>
      </trkpt>
      <trkpt lat="43.75782" lon="1.56107">
        <ele>226.004623</ele>
        <time>2022-03-25T16:05:47.422Z</time>
      </trkpt>
      <trkpt lat="43.75794" lon="1.56118">
        <ele>225.505258</ele>
        <time>2022-03-25T16:05:49.432Z</time>
      </trkpt>
      <trkpt lat="43.75806" lon="1.56126">
        <ele>225.052724</ele>
        <time>2022-03-25T16:05:51.431Z</time>
      </trkpt>
      <trkpt lat="43.75817" lon="1.56135">
        <ele>224.565022</ele>
        <time>2022-03-25T16:05:53.429Z</time>
      </trkpt>
      <trkpt lat="43.75829" lon="1.56144">
        <ele>223.914557</ele>
        <time>2022-03-25T16:05:55.422Z</time>
      </trkpt>
      <trkpt lat="43.7584" lon="1.56152">
        <ele>223.282411</ele>
        <time>2022-03-25T16:05:57.438Z</time>
      </trkpt>
      <trkpt lat="43.75854" lon="1.5616">
        <ele>222.558007</ele>
        <time>2022-03-25T16:05:59.429Z</time>
      </trkpt>
      <trkpt lat="43.75869" lon="1.56167">
        <ele>221.777059</ele>
        <time>2022-03-25T16:06:01.426Z</time>
      </trkpt>
      <trkpt lat="43.75886" lon="1.56172">
        <ele>220.913981</ele>
        <time>2022-03-25T16:06:03.433Z</time>
      </trkpt>
      <trkpt lat="43.75904" lon="1.56177">
        <ele>220.042788</ele>
        <time>2022-03-25T16:06:05.428Z</time>
      </trkpt>
      <trkpt lat="43.7592" lon="1.56183">
        <ele>219.218606</ele>
        <time>2022-03-25T16:06:07.426Z</time>
      </trkpt>
      <trkpt lat="43.75936" lon="1.56189">
        <ele>218.42015</ele>
        <time>2022-03-25T16:06:09.427Z</time>
      </trkpt>
      <trkpt lat="43.75949" lon="1.56193">
        <ele>217.719524</ele>
        <time>2022-03-25T16:06:11.428Z</time>
      </trkpt>
      <trkpt lat="43.75963" lon="1.56197">
        <ele>217.039358</ele>
        <time>2022-03-25T16:06:13.439Z</time>
      </trkpt>
      <trkpt lat="43.75974" lon="1.56201">
        <ele>216.470509</ele>
        <time>2022-03-25T16:06:15.441Z</time>
      </trkpt>
      <trkpt lat="43.75985" lon="1.56206">
        <ele>215.929527</ele>
        <time>2022-03-25T16:06:17.434Z</time>
      </trkpt>
      <trkpt lat="43.75995" lon="1.56211">
        <ele>215.651824</ele>
        <time>2022-03-25T16:06:19.426Z</time>
      </trkpt>
      <trkpt lat="43.76005" lon="1.56215">
        <ele>215.423006</ele>
        <time>2022-03-25T16:06:21.430Z</time>
      </trkpt>
      <trkpt lat="43.76015" lon="1.56221">
        <ele>215.169559</ele>
        <time>2022-03-25T16:06:23.432Z</time>
      </trkpt>
      <trkpt lat="43.76026" lon="1.56228">
        <ele>214.888661</ele>
        <time>2022-03-25T16:06:25.442Z</time>
      </trkpt>
      <trkpt lat="43.76037" lon="1.56236">
        <ele>214.61578</ele>
        <time>2022-03-25T16:06:27.425Z</time>
      </trkpt>
      <trkpt lat="43.76048" lon="1.56244">
        <ele>214.345042</ele>
        <time>2022-03-25T16:06:29.438Z</time>
      </trkpt>
      <trkpt lat="43.76058" lon="1.56253">
        <ele>214.072605</ele>
        <time>2022-03-25T16:06:31.425Z</time>
      </trkpt>
      <trkpt lat="43.76068" lon="1.56261">
        <ele>213.81299</ele>
        <time>2022-03-25T16:06:33.417Z</time>
      </trkpt>
      <trkpt lat="43.76077" lon="1.56269">
        <ele>213.566981</ele>
        <time>2022-03-25T16:06:35.431Z</time>
      </trkpt>
      <trkpt lat="43.76086" lon="1.56276">
        <ele>213.325376</ele>
        <time>2022-03-25T16:06:37.429Z</time>
      </trkpt>
      <trkpt lat="43.76096" lon="1.56283">
        <ele>213.088483</ele>
        <time>2022-03-25T16:06:39.426Z</time>
      </trkpt>
      <trkpt lat="43.76105" lon="1.5629">
        <ele>212.844849</ele>
        <time>2022-03-25T16:06:41.426Z</time>
      </trkpt>
      <trkpt lat="43.76116" lon="1.56296">
        <ele>212.591694</ele>
        <time>2022-03-25T16:06:43.430Z</time>
      </trkpt>
      <trkpt lat="43.76126" lon="1.56301">
        <ele>212.346379</ele>
        <time>2022-03-25T16:06:45.424Z</time>
      </trkpt>
      <trkpt lat="43.76137" lon="1.56304">
        <ele>212.097965</ele>
        <time>2022-03-25T16:06:47.431Z</time>
      </trkpt>
      <trkpt lat="43.76148" lon="1.56307">
        <ele>211.850766</ele>
        <time>2022-03-25T16:06:49.428Z</time>
      </trkpt>
      <trkpt lat="43.76158" lon="1.5631">
        <ele>211.78543</ele>
        <time>2022-03-25T16:06:51.431Z</time>
      </trkpt>
      <trkpt lat="43.76168" lon="1.56312">
        <ele>211.753663</ele>
        <time>2022-03-25T16:06:53.435Z</time>
      </trkpt>
      <trkpt lat="43.76179" lon="1.56314">
        <ele>211.720978</ele>
        <time>2022-03-25T16:06:55.434Z</time>
      </trkpt>
      <trkpt lat="43.76189" lon="1.56316">
        <ele>211.68747</ele>
        <time>2022-03-25T16:06:57.431Z</time>
      </trkpt>
      <trkpt lat="43.762" lon="1.56318">
        <ele>211.654299</ele>
        <time>2022-03-25T16:06:59.434Z</time>
      </trkpt>
      <trkpt lat="43.7621" lon="1.5632">
        <ele>211.622133</ele>
        <time>2022-03-25T16:07:01.432Z</time>
      </trkpt>
      <trkpt lat="43.76221" lon="1.56318">
        <ele>211.58935</ele>
        <time>2022-03-25T16:07:03.418Z</time>
      </trkpt>
      <trkpt lat="43.76226" lon="1.56305">
        <ele>211.556279</ele>
        <time>2022-03-25T16:07:05.435Z</time>
      </trkpt>
      <trkpt lat="43.76224" lon="1.56287">
        <ele>211.515239</ele>
        <time>2022-03-25T16:07:07.418Z</time>
      </trkpt>
      <trkpt lat="43.76222" lon="1.56269">
        <ele>211.474287</ele>
        <time>2022-03-25T16:07:09.427Z</time>
      </trkpt>
      <trkpt lat="43.76221" lon="1.56252">
        <ele>211.436225</ele>
        <time>2022-03-25T16:07:11.439Z</time>
      </trkpt>
      <trkpt lat="43.76221" lon="1.56236">
        <ele>211.39967</ele>
        <time>2022-03-25T16:07:13.430Z</time>
      </trkpt>
      <trkpt lat="43.76221" lon="1.56221">
        <ele>211.365601</ele>
        <time>2022-03-25T16:07:15.446Z</time>
      </trkpt>
      <trkpt lat="43.7622" lon="1.56206">
        <ele>211.333772</ele>
        <time>2022-03-25T16:07:17.433Z</time>
      </trkpt>
      <trkpt lat="43.7622" lon="1.56193">
        <ele>211.303264</ele>
        <time>2022-03-25T16:07:19.432Z</time>
      </trkpt>
      <trkpt lat="43.76221" lon="1.5618">
        <ele>211.274309</ele>
        <time>2022-03-25T16:07:21.434Z</time>
      </trkpt>
      <trkpt lat="43.7622" lon="1.56164">
        <ele>211.168791</ele>
        <time>2022-03-25T16:07:24.427Z</time>
      </trkpt>
      <trkpt lat="43.76225" lon="1.56152">
        <ele>211.009565</ele>
        <time>2022-03-25T16:07:27.417Z</time>
      </trkpt>
      <trkpt lat="43.76238" lon="1.56156">
        <ele>210.812496</ele>
        <time>2022-03-25T16:07:30.405Z</time>
      </trkpt>
      <trkpt lat="43.76247" lon="1.5616">
        <ele>210.666439</ele>
        <time>2022-03-25T16:07:32.431Z</time>
      </trkpt>
      <trkpt lat="43.76256" lon="1.56164">
        <ele>210.514741</ele>
        <time>2022-03-25T16:07:34.418Z</time>
      </trkpt>
      <trkpt lat="43.76266" lon="1.56167">
        <ele>210.359199</ele>
        <time>2022-03-25T16:07:36.419Z</time>
      </trkpt>
      <trkpt lat="43.76277" lon="1.56171">
        <ele>210.190942</ele>
        <time>2022-03-25T16:07:38.419Z</time>
      </trkpt>
      <trkpt lat="43.76288" lon="1.56175">
        <ele>210.011736</ele>
        <time>2022-03-25T16:07:40.418Z</time>
      </trkpt>
      <trkpt lat="43.763" lon="1.5618">
        <ele>209.827515</ele>
        <time>2022-03-25T16:07:42.428Z</time>
      </trkpt>
      <trkpt lat="43.76311" lon="1.56184">
        <ele>209.643253</ele>
        <time>2022-03-25T16:07:44.425Z</time>
      </trkpt>
      <trkpt lat="43.76323" lon="1.5619">
        <ele>209.446281</ele>
        <time>2022-03-25T16:07:46.425Z</time>
      </trkpt>
      <trkpt lat="43.76336" lon="1.56195">
        <ele>209.243938</ele>
        <time>2022-03-25T16:07:48.429Z</time>
      </trkpt>
      <trkpt lat="43.76348" lon="1.562">
        <ele>209.046712</ele>
        <time>2022-03-25T16:07:50.424Z</time>
      </trkpt>
      <trkpt lat="43.76362" lon="1.56205">
        <ele>208.832302</ele>
        <time>2022-03-25T16:07:52.426Z</time>
      </trkpt>
      <trkpt lat="43.76375" lon="1.56211">
        <ele>208.617575</ele>
        <time>2022-03-25T16:07:54.432Z</time>
      </trkpt>
      <trkpt lat="43.76388" lon="1.56216">
        <ele>208.465529</ele>
        <time>2022-03-25T16:07:56.432Z</time>
      </trkpt>
      <trkpt lat="43.764" lon="1.5622">
        <ele>208.396756</ele>
        <time>2022-03-25T16:07:58.424Z</time>
      </trkpt>
      <trkpt lat="43.76411" lon="1.56225">
        <ele>208.331133</ele>
        <time>2022-03-25T16:08:00.422Z</time>
      </trkpt>
      <trkpt lat="43.76422" lon="1.56231">
        <ele>208.265217</ele>
        <time>2022-03-25T16:08:02.431Z</time>
      </trkpt>
      <trkpt lat="43.76433" lon="1.56238">
        <ele>208.201053</ele>
        <time>2022-03-25T16:08:04.439Z</time>
      </trkpt>
      <trkpt lat="43.76443" lon="1.56244">
        <ele>208.140096</ele>
        <time>2022-03-25T16:08:06.441Z</time>
      </trkpt>
      <trkpt lat="43.76452" lon="1.56252">
        <ele>208.07968</ele>
        <time>2022-03-25T16:08:08.431Z</time>
      </trkpt>
      <trkpt lat="43.76462" lon="1.5626">
        <ele>208.018689</ele>
        <time>2022-03-25T16:08:10.429Z</time>
      </trkpt>
      <trkpt lat="43.76472" lon="1.56268">
        <ele>207.955586</ele>
        <time>2022-03-25T16:08:12.426Z</time>
      </trkpt>
      <trkpt lat="43.76481" lon="1.56275">
        <ele>207.895</ele>
        <time>2022-03-25T16:08:14.419Z</time>
      </trkpt>
      <trkpt lat="43.7649" lon="1.56284">
        <ele>207.834481</ele>
        <time>2022-03-25T16:08:16.417Z</time>
      </trkpt>
      <trkpt lat="43.76499" lon="1.56292">
        <ele>207.776492</ele>
        <time>2022-03-25T16:08:18.432Z</time>
      </trkpt>
      <trkpt lat="43.76507" lon="1.563">
        <ele>207.719862</ele>
        <time>2022-03-25T16:08:20.427Z</time>
      </trkpt>
      <trkpt lat="43.76515" lon="1.56307">
        <ele>207.666782</ele>
        <time>2022-03-25T16:08:22.432Z</time>
      </trkpt>
      <trkpt lat="43.76524" lon="1.56313">
        <ele>207.613194</ele>
        <time>2022-03-25T16:08:24.423Z</time>
      </trkpt>
      <trkpt lat="43.76534" lon="1.56319">
        <ele>207.554925</ele>
        <time>2022-03-25T16:08:26.427Z</time>
      </trkpt>
      <trkpt lat="43.76543" lon="1.56325">
        <ele>207.497404</ele>
        <time>2022-03-25T16:08:28.425Z</time>
      </trkpt>
      <trkpt lat="43.76554" lon="1.56333">
        <ele>207.267911</ele>
        <time>2022-03-25T16:08:31.427Z</time>
      </trkpt>
      <trkpt lat="43.76563" lon="1.56338">
        <ele>207.085803</ele>
        <time>2022-03-25T16:08:34.426Z</time>
      </trkpt>
      <trkpt lat="43.76573" lon="1.56345">
        <ele>206.882838</ele>
        <time>2022-03-25T16:08:38.428Z</time>
      </trkpt>
      <trkpt lat="43.76583" lon="1.56352">
        <ele>206.670602</ele>
        <time>2022-03-25T16:08:43.436Z</time>
      </trkpt>
      <trkpt lat="43.76592" lon="1.56359">
        <ele>206.471458</ele>
        <time>2022-03-25T16:08:47.438Z</time>
      </trkpt>
      <trkpt lat="43.76601" lon="1.56368">
        <ele>206.263162</ele>
        <time>2022-03-25T16:08:51.419Z</time>
      </trkpt>
      <trkpt lat="43.7661" lon="1.56376">
        <ele>206.064499</ele>
        <time>2022-03-25T16:08:54.425Z</time>
      </trkpt>
      <trkpt lat="43.76619" lon="1.56384">
        <ele>205.864587</ele>
        <time>2022-03-25T16:08:57.439Z</time>
      </trkpt>
      <trkpt lat="43.76627" lon="1.56394">
        <ele>205.676539</ele>
        <time>2022-03-25T16:09:00.432Z</time>
      </trkpt>
      <trkpt lat="43.76634" lon="1.56404">
        <ele>205.486572</ele>
        <time>2022-03-25T16:09:03.429Z</time>
      </trkpt>
      <trkpt lat="43.76645" lon="1.56414">
        <ele>205.234626</ele>
        <time>2022-03-25T16:09:06.431Z</time>
      </trkpt>
      <trkpt lat="43.76653" lon="1.56421">
        <ele>205.061562</ele>
        <time>2022-03-25T16:09:08.432Z</time>
      </trkpt>
      <trkpt lat="43.76662" lon="1.56424">
        <ele>204.892413</ele>
        <time>2022-03-25T16:09:10.432Z</time>
      </trkpt>
      <trkpt lat="43.76674" lon="1.56421">
        <ele>204.660588</ele>
        <time>2022-03-25T16:09:13.427Z</time>
      </trkpt>
      <trkpt lat="43.76683" lon="1.56416">
        <ele>204.478703</ele>
        <time>2022-03-25T16:09:15.428Z</time>
      </trkpt>
      <trkpt lat="43.76692" lon="1.56413">
        <ele>204.299005</ele>
        <time>2022-03-25T16:09:17.423Z</time>
      </trkpt>
      <trkpt lat="43.76705" lon="1.56413">
        <ele>204.036175</ele>
        <time>2022-03-25T16:09:19.440Z</time>
      </trkpt>
      <trkpt lat="43.76719" lon="1.56415">
        <ele>203.664482</ele>
        <time>2022-03-25T16:09:21.421Z</time>
      </trkpt>
      <trkpt lat="43.76732" lon="1.56419">
        <ele>203.289247</ele>
        <time>2022-03-25T16:09:23.431Z</time>
      </trkpt>
      <trkpt lat="43.76746" lon="1.56426">
        <ele>202.910775</ele>
        <time>2022-03-25T16:09:25.432Z</time>
      </trkpt>
      <trkpt lat="43.76761" lon="1.56433">
        <ele>202.494212</ele>
        <time>2022-03-25T16:09:27.431Z</time>
      </trkpt>
      <trkpt lat="43.76775" lon="1.5644">
        <ele>202.102632</ele>
        <time>2022-03-25T16:09:29.431Z</time>
      </trkpt>
      <trkpt lat="43.76794" lon="1.56445">
        <ele>201.5887</ele>
        <time>2022-03-25T16:09:31.431Z</time>
      </trkpt>
      <trkpt lat="43.76803" lon="1.56449">
        <ele>201.329308</ele>
        <time>2022-03-25T16:09:32.425Z</time>
      </trkpt>
      <trkpt lat="43.76812" lon="1.56453">
        <ele>201.076329</ele>
        <time>2022-03-25T16:09:33.441Z</time>
      </trkpt>
      <trkpt lat="43.76821" lon="1.56459">
        <ele>200.817668</ele>
        <time>2022-03-25T16:09:34.427Z</time>
      </trkpt>
      <trkpt lat="43.7683" lon="1.56467">
        <ele>200.536124</ele>
        <time>2022-03-25T16:09:35.414Z</time>
      </trkpt>
      <trkpt lat="43.76838" lon="1.56476">
        <ele>200.258328</ele>
        <time>2022-03-25T16:09:36.422Z</time>
      </trkpt>
      <trkpt lat="43.76845" lon="1.56485">
        <ele>200.000631</ele>
        <time>2022-03-25T16:09:37.429Z</time>
      </trkpt>
      <trkpt lat="43.76852" lon="1.56495">
        <ele>199.748735</ele>
        <time>2022-03-25T16:09:38.437Z</time>
      </trkpt>
      <trkpt lat="43.76859" lon="1.56504">
        <ele>199.497511</ele>
        <time>2022-03-25T16:09:39.415Z</time>
      </trkpt>
      <trkpt lat="43.76865" lon="1.56514">
        <ele>199.468918</ele>
        <time>2022-03-25T16:09:40.426Z</time>
      </trkpt>
      <trkpt lat="43.76879" lon="1.56528">
        <ele>199.702887</ele>
        <time>2022-03-25T16:09:42.425Z</time>
      </trkpt>
      <trkpt lat="43.76894" lon="1.5654">
        <ele>199.941091</ele>
        <time>2022-03-25T16:09:44.420Z</time>
      </trkpt>
      <trkpt lat="43.76906" lon="1.56553">
        <ele>200.151583</ele>
        <time>2022-03-25T16:09:46.418Z</time>
      </trkpt>
      <trkpt lat="43.76914" lon="1.56565">
        <ele>200.31638</ele>
        <time>2022-03-25T16:09:48.427Z</time>
      </trkpt>
      <trkpt lat="43.76923" lon="1.56572">
        <ele>200.448102</ele>
        <time>2022-03-25T16:09:50.432Z</time>
      </trkpt>
      <trkpt lat="43.76931" lon="1.56577">
        <ele>200.570484</ele>
        <time>2022-03-25T16:09:52.436Z</time>
      </trkpt>
      <trkpt lat="43.76939" lon="1.56583">
        <ele>200.693918</ele>
        <time>2022-03-25T16:09:54.426Z</time>
      </trkpt>
      <trkpt lat="43.76947" lon="1.56589">
        <ele>200.824583</ele>
        <time>2022-03-25T16:09:56.426Z</time>
      </trkpt>
      <trkpt lat="43.76956" lon="1.56594">
        <ele>200.954083</ele>
        <time>2022-03-25T16:09:58.427Z</time>
      </trkpt>
      <trkpt lat="43.76965" lon="1.56598">
        <ele>201.078235</ele>
        <time>2022-03-25T16:10:00.430Z</time>
      </trkpt>
      <trkpt lat="43.76977" lon="1.56604">
        <ele>201.257721</ele>
        <time>2022-03-25T16:10:03.431Z</time>
      </trkpt>
      <trkpt lat="43.76989" lon="1.56614">
        <ele>201.446848</ele>
        <time>2022-03-25T16:10:06.434Z</time>
      </trkpt>
      <trkpt lat="43.76998" lon="1.56618">
        <ele>201.570739</ele>
        <time>2022-03-25T16:10:08.424Z</time>
      </trkpt>
      <trkpt lat="43.7701" lon="1.56623">
        <ele>201.736872</ele>
        <time>2022-03-25T16:10:11.423Z</time>
      </trkpt>
      <trkpt lat="43.77019" lon="1.56626">
        <ele>201.920489</ele>
        <time>2022-03-25T16:10:13.426Z</time>
      </trkpt>
      <trkpt lat="43.77028" lon="1.56631">
        <ele>202.370294</ele>
        <time>2022-03-25T16:10:15.423Z</time>
      </trkpt>
      <trkpt lat="43.77041" lon="1.56631">
        <ele>203.002867</ele>
        <time>2022-03-25T16:10:18.425Z</time>
      </trkpt>
      <trkpt lat="43.77053" lon="1.5663">
        <ele>203.554679</ele>
        <time>2022-03-25T16:10:21.437Z</time>
      </trkpt>
      <trkpt lat="43.77061" lon="1.56641">
        <ele>204.088031</ele>
        <time>2022-03-25T16:10:24.437Z</time>
      </trkpt>
      <trkpt lat="43.7707" lon="1.56651">
        <ele>204.621307</ele>
        <time>2022-03-25T16:10:26.431Z</time>
      </trkpt>
      <trkpt lat="43.7708" lon="1.56661">
        <ele>205.19112</ele>
        <time>2022-03-25T16:10:28.427Z</time>
      </trkpt>
      <trkpt lat="43.7709" lon="1.56671">
        <ele>205.738127</ele>
        <time>2022-03-25T16:10:30.422Z</time>
      </trkpt>
      <trkpt lat="43.77098" lon="1.56678">
        <ele>206.22271</ele>
        <time>2022-03-25T16:10:32.422Z</time>
      </trkpt>
      <trkpt lat="43.77108" lon="1.56686">
        <ele>206.747585</ele>
        <time>2022-03-25T16:10:34.424Z</time>
      </trkpt>
      <trkpt lat="43.77117" lon="1.56694">
        <ele>207.252399</ele>
        <time>2022-03-25T16:10:36.429Z</time>
      </trkpt>
      <trkpt lat="43.77125" lon="1.56702">
        <ele>207.725102</ele>
        <time>2022-03-25T16:10:38.425Z</time>
      </trkpt>
      <trkpt lat="43.77132" lon="1.56711">
        <ele>208.164838</ele>
        <time>2022-03-25T16:10:40.426Z</time>
      </trkpt>
      <trkpt lat="43.7714" lon="1.5672">
        <ele>208.617215</ele>
        <time>2022-03-25T16:10:42.431Z</time>
      </trkpt>
      <trkpt lat="43.77147" lon="1.5673">
        <ele>209.084278</ele>
        <time>2022-03-25T16:10:44.419Z</time>
      </trkpt>
      <trkpt lat="43.77155" lon="1.56739">
        <ele>209.571889</ele>
        <time>2022-03-25T16:10:46.422Z</time>
      </trkpt>
      <trkpt lat="43.77162" lon="1.56749">
        <ele>210.024449</ele>
        <time>2022-03-25T16:10:48.434Z</time>
      </trkpt>
      <trkpt lat="43.7717" lon="1.56757">
        <ele>210.232301</ele>
        <time>2022-03-25T16:10:50.427Z</time>
      </trkpt>
      <trkpt lat="43.77178" lon="1.56766">
        <ele>210.27187</ele>
        <time>2022-03-25T16:10:52.425Z</time>
      </trkpt>
      <trkpt lat="43.77184" lon="1.56776">
        <ele>210.310297</ele>
        <time>2022-03-25T16:10:54.450Z</time>
      </trkpt>
      <trkpt lat="43.7719" lon="1.56789">
        <ele>210.351972</ele>
        <time>2022-03-25T16:10:56.422Z</time>
      </trkpt>
      <trkpt lat="43.77194" lon="1.56803">
        <ele>210.393177</ele>
        <time>2022-03-25T16:10:58.427Z</time>
      </trkpt>
      <trkpt lat="43.77198" lon="1.56817">
        <ele>210.434948</ele>
        <time>2022-03-25T16:11:00.418Z</time>
      </trkpt>
      <trkpt lat="43.77204" lon="1.56829">
        <ele>210.47659</ele>
        <time>2022-03-25T16:11:02.445Z</time>
      </trkpt>
      <trkpt lat="43.77212" lon="1.56841">
        <ele>210.520511</ele>
        <time>2022-03-25T16:11:04.427Z</time>
      </trkpt>
      <trkpt lat="43.77219" lon="1.56855">
        <ele>210.56788</ele>
        <time>2022-03-25T16:11:06.425Z</time>
      </trkpt>
      <trkpt lat="43.77228" lon="1.56867">
        <ele>210.616142</ele>
        <time>2022-03-25T16:11:08.427Z</time>
      </trkpt>
      <trkpt lat="43.77237" lon="1.56879">
        <ele>210.66528</ele>
        <time>2022-03-25T16:11:10.424Z</time>
      </trkpt>
      <trkpt lat="43.77248" lon="1.56891">
        <ele>210.715484</ele>
        <time>2022-03-25T16:11:12.430Z</time>
      </trkpt>
      <trkpt lat="43.77257" lon="1.56904">
        <ele>210.768221</ele>
        <time>2022-03-25T16:11:14.433Z</time>
      </trkpt>
      <trkpt lat="43.77266" lon="1.5692">
        <ele>210.824291</ele>
        <time>2022-03-25T16:11:16.425Z</time>
      </trkpt>
      <trkpt lat="43.77275" lon="1.56935">
        <ele>210.879708</ele>
        <time>2022-03-25T16:11:18.427Z</time>
      </trkpt>
      <trkpt lat="43.77282" lon="1.56948">
        <ele>210.778155</ele>
        <time>2022-03-25T16:11:20.422Z</time>
      </trkpt>
      <trkpt lat="43.77291" lon="1.56961">
        <ele>210.50219</ele>
        <time>2022-03-25T16:11:23.433Z</time>
      </trkpt>
      <trkpt lat="43.77301" lon="1.56965">
        <ele>210.278132</ele>
        <time>2022-03-25T16:11:25.435Z</time>
      </trkpt>
      <trkpt lat="43.77312" lon="1.5697">
        <ele>210.035289</ele>
        <time>2022-03-25T16:11:27.430Z</time>
      </trkpt>
      <trkpt lat="43.77322" lon="1.56977">
        <ele>209.782958</ele>
        <time>2022-03-25T16:11:29.425Z</time>
      </trkpt>
      <trkpt lat="43.77332" lon="1.56985">
        <ele>209.533229</ele>
        <time>2022-03-25T16:11:31.439Z</time>
      </trkpt>
      <trkpt lat="43.77342" lon="1.56993">
        <ele>209.295147</ele>
        <time>2022-03-25T16:11:33.430Z</time>
      </trkpt>
      <trkpt lat="43.77351" lon="1.57002">
        <ele>209.038599</ele>
        <time>2022-03-25T16:11:35.425Z</time>
      </trkpt>
      <trkpt lat="43.77362" lon="1.57011">
        <ele>208.780164</ele>
        <time>2022-03-25T16:11:37.429Z</time>
      </trkpt>
      <trkpt lat="43.77372" lon="1.57017">
        <ele>208.538861</ele>
        <time>2022-03-25T16:11:39.421Z</time>
      </trkpt>
      <trkpt lat="43.77383" lon="1.5702">
        <ele>208.30247</ele>
        <time>2022-03-25T16:11:41.428Z</time>
      </trkpt>
      <trkpt lat="43.77394" lon="1.57024">
        <ele>208.045056</ele>
        <time>2022-03-25T16:11:43.433Z</time>
      </trkpt>
      <trkpt lat="43.77407" lon="1.57031">
        <ele>207.74353</ele>
        <time>2022-03-25T16:11:45.430Z</time>
      </trkpt>
      <trkpt lat="43.7742" lon="1.57042">
        <ele>207.42885</ele>
        <time>2022-03-25T16:11:47.432Z</time>
      </trkpt>
      <trkpt lat="43.77429" lon="1.57053">
        <ele>207.161764</ele>
        <time>2022-03-25T16:11:49.446Z</time>
      </trkpt>
      <trkpt lat="43.77436" lon="1.57064">
        <ele>206.945252</ele>
        <time>2022-03-25T16:11:51.440Z</time>
      </trkpt>
      <trkpt lat="43.77444" lon="1.57072">
        <ele>206.773177</ele>
        <time>2022-03-25T16:11:55.426Z</time>
      </trkpt>
      <trkpt lat="43.77452" lon="1.57079">
        <ele>206.608312</ele>
        <time>2022-03-25T16:11:58.421Z</time>
      </trkpt>
      <trkpt lat="43.7746" lon="1.57095">
        <ele>206.37021</ele>
        <time>2022-03-25T16:12:01.432Z</time>
      </trkpt>
      <trkpt lat="43.77466" lon="1.57107">
        <ele>206.182798</ele>
        <time>2022-03-25T16:12:03.429Z</time>
      </trkpt>
      <trkpt lat="43.77472" lon="1.5712">
        <ele>205.983029</ele>
        <time>2022-03-25T16:12:05.435Z</time>
      </trkpt>
      <trkpt lat="43.77479" lon="1.57132">
        <ele>205.788308</ele>
        <time>2022-03-25T16:12:07.438Z</time>
      </trkpt>
      <trkpt lat="43.77487" lon="1.57144">
        <ele>205.575436</ele>
        <time>2022-03-25T16:12:09.435Z</time>
      </trkpt>
      <trkpt lat="43.77495" lon="1.57155">
        <ele>205.379959</ele>
        <time>2022-03-25T16:12:11.431Z</time>
      </trkpt>
      <trkpt lat="43.77507" lon="1.5716">
        <ele>205.164358</ele>
        <time>2022-03-25T16:12:13.427Z</time>
      </trkpt>
      <trkpt lat="43.77519" lon="1.57162">
        <ele>204.952668</ele>
        <time>2022-03-25T16:12:15.432Z</time>
      </trkpt>
      <trkpt lat="43.7753" lon="1.57164">
        <ele>204.752145</ele>
        <time>2022-03-25T16:12:17.440Z</time>
      </trkpt>
      <trkpt lat="43.77537" lon="1.57177">
        <ele>204.540921</ele>
        <time>2022-03-25T16:12:19.434Z</time>
      </trkpt>
      <trkpt lat="43.77544" lon="1.57195">
        <ele>204.294861</ele>
        <time>2022-03-25T16:12:21.416Z</time>
      </trkpt>
      <trkpt lat="43.77552" lon="1.57204">
        <ele>204.110014</ele>
        <time>2022-03-25T16:12:23.435Z</time>
      </trkpt>
      <trkpt lat="43.77562" lon="1.57209">
        <ele>203.91928</ele>
        <time>2022-03-25T16:12:25.447Z</time>
      </trkpt>
      <trkpt lat="43.77573" lon="1.57213">
        <ele>203.808904</ele>
        <time>2022-03-25T16:12:27.436Z</time>
      </trkpt>
      <trkpt lat="43.77583" lon="1.57215">
        <ele>203.745349</ele>
        <time>2022-03-25T16:12:29.428Z</time>
      </trkpt>
      <trkpt lat="43.77593" lon="1.57221">
        <ele>203.676996</ele>
        <time>2022-03-25T16:12:31.436Z</time>
      </trkpt>
      <trkpt lat="43.77604" lon="1.5723">
        <ele>203.601412</ele>
        <time>2022-03-25T16:12:33.416Z</time>
      </trkpt>
      <trkpt lat="43.77612" lon="1.57241">
        <ele>203.530757</ele>
        <time>2022-03-25T16:12:35.454Z</time>
      </trkpt>
      <trkpt lat="43.7762" lon="1.57253">
        <ele>203.46058</ele>
        <time>2022-03-25T16:12:37.433Z</time>
      </trkpt>
      <trkpt lat="43.77632" lon="1.57261">
        <ele>203.382255</ele>
        <time>2022-03-25T16:12:39.433Z</time>
      </trkpt>
      <trkpt lat="43.77643" lon="1.57267">
        <ele>203.307147</ele>
        <time>2022-03-25T16:12:41.430Z</time>
      </trkpt>
      <trkpt lat="43.7765" lon="1.5728">
        <ele>203.235496</ele>
        <time>2022-03-25T16:12:43.432Z</time>
      </trkpt>
      <trkpt lat="43.77658" lon="1.57292">
        <ele>203.163956</ele>
        <time>2022-03-25T16:12:45.424Z</time>
      </trkpt>
      <trkpt lat="43.77669" lon="1.573">
        <ele>203.090694</ele>
        <time>2022-03-25T16:12:47.427Z</time>
      </trkpt>
      <trkpt lat="43.77679" lon="1.5731">
        <ele>203.01664</ele>
        <time>2022-03-25T16:12:49.439Z</time>
      </trkpt>
      <trkpt lat="43.77687" lon="1.57318">
        <ele>202.955053</ele>
        <time>2022-03-25T16:12:51.435Z</time>
      </trkpt>
      <trkpt lat="43.77697" lon="1.57324">
        <ele>202.885753</ele>
        <time>2022-03-25T16:12:53.435Z</time>
      </trkpt>
      <trkpt lat="43.77707" lon="1.57331">
        <ele>202.817783</ele>
        <time>2022-03-25T16:12:55.431Z</time>
      </trkpt>
      <trkpt lat="43.77717" lon="1.57341">
        <ele>202.654952</ele>
        <time>2022-03-25T16:12:57.423Z</time>
      </trkpt>
      <trkpt lat="43.77726" lon="1.57348">
        <ele>202.150967</ele>
        <time>2022-03-25T16:12:59.443Z</time>
      </trkpt>
      <trkpt lat="43.77737" lon="1.57356">
        <ele>201.595903</ele>
        <time>2022-03-25T16:13:01.434Z</time>
      </trkpt>
      <trkpt lat="43.77748" lon="1.57367">
        <ele>200.98263</ele>
        <time>2022-03-25T16:13:03.431Z</time>
      </trkpt>
      <trkpt lat="43.77758" lon="1.57378">
        <ele>200.398705</ele>
        <time>2022-03-25T16:13:05.419Z</time>
      </trkpt>
      <trkpt lat="43.77768" lon="1.57388">
        <ele>199.851423</ele>
        <time>2022-03-25T16:13:07.421Z</time>
      </trkpt>
      <trkpt lat="43.77774" lon="1.57398">
        <ele>199.418219</ele>
        <time>2022-03-25T16:13:09.421Z</time>
      </trkpt>
      <trkpt lat="43.7778" lon="1.5741">
        <ele>198.912275</ele>
        <time>2022-03-25T16:13:11.437Z</time>
      </trkpt>
      <trkpt lat="43.77792" lon="1.5742">
        <ele>198.290454</ele>
        <time>2022-03-25T16:13:13.429Z</time>
      </trkpt>
      <trkpt lat="43.77802" lon="1.57432">
        <ele>197.673428</ele>
        <time>2022-03-25T16:13:15.438Z</time>
      </trkpt>
      <trkpt lat="43.77812" lon="1.5745">
        <ele>196.950063</ele>
        <time>2022-03-25T16:13:17.432Z</time>
      </trkpt>
      <trkpt lat="43.77825" lon="1.57466">
        <ele>196.13813</ele>
        <time>2022-03-25T16:13:19.425Z</time>
      </trkpt>
      <trkpt lat="43.77831" lon="1.57488">
        <ele>195.38637</ele>
        <time>2022-03-25T16:13:21.424Z</time>
      </trkpt>
      <trkpt lat="43.77833" lon="1.57509">
        <ele>194.66486</ele>
        <time>2022-03-25T16:13:23.420Z</time>
      </trkpt>
      <trkpt lat="43.77837" lon="1.57528">
        <ele>194.187432</ele>
        <time>2022-03-25T16:13:25.439Z</time>
      </trkpt>
      <trkpt lat="43.77832" lon="1.57544">
        <ele>193.780365</ele>
        <time>2022-03-25T16:13:27.430Z</time>
      </trkpt>
      <trkpt lat="43.77819" lon="1.57555">
        <ele>193.301444</ele>
        <time>2022-03-25T16:13:29.428Z</time>
      </trkpt>
      <trkpt lat="43.77809" lon="1.57569">
        <ele>192.854994</ele>
        <time>2022-03-25T16:13:31.432Z</time>
      </trkpt>
      <trkpt lat="43.77799" lon="1.57587">
        <ele>192.326215</ele>
        <time>2022-03-25T16:13:33.423Z</time>
      </trkpt>
      <trkpt lat="43.77788" lon="1.57603">
        <ele>191.80574</ele>
        <time>2022-03-25T16:13:35.423Z</time>
      </trkpt>
      <trkpt lat="43.77779" lon="1.5761">
        <ele>191.495235</ele>
        <time>2022-03-25T16:13:37.423Z</time>
      </trkpt>
      <trkpt lat="43.7778" lon="1.57625">
        <ele>191.14852</ele>
        <time>2022-03-25T16:13:44.424Z</time>
      </trkpt>
      <trkpt lat="43.77787" lon="1.57637">
        <ele>190.801583</ele>
        <time>2022-03-25T16:13:47.420Z</time>
      </trkpt>
      <trkpt lat="43.77788" lon="1.57651">
        <ele>190.475606</ele>
        <time>2022-03-25T16:13:51.423Z</time>
      </trkpt>
      <trkpt lat="43.77793" lon="1.57662">
        <ele>190.182736</ele>
        <time>2022-03-25T16:13:54.432Z</time>
      </trkpt>
      <trkpt lat="43.77796" lon="1.57676">
        <ele>189.8542</ele>
        <time>2022-03-25T16:13:58.438Z</time>
      </trkpt>
      <trkpt lat="43.77798" lon="1.57691">
        <ele>189.498945</ele>
        <time>2022-03-25T16:14:02.430Z</time>
      </trkpt>
      <trkpt lat="43.77802" lon="1.57702">
        <ele>189.211593</ele>
        <time>2022-03-25T16:14:05.422Z</time>
      </trkpt>
      <trkpt lat="43.7781" lon="1.57708">
        <ele>188.915916</ele>
        <time>2022-03-25T16:14:08.418Z</time>
      </trkpt>
      <trkpt lat="43.77817" lon="1.57718">
        <ele>188.866756</ele>
        <time>2022-03-25T16:14:11.432Z</time>
      </trkpt>
      <trkpt lat="43.77817" lon="1.57731">
        <ele>188.911668</ele>
        <time>2022-03-25T16:14:14.424Z</time>
      </trkpt>
      <trkpt lat="43.7781" lon="1.57741">
        <ele>188.959174</ele>
        <time>2022-03-25T16:14:17.425Z</time>
      </trkpt>
      <trkpt lat="43.77798" lon="1.57748">
        <ele>189.019447</ele>
        <time>2022-03-25T16:14:20.433Z</time>
      </trkpt>
      <trkpt lat="43.77786" lon="1.57755">
        <ele>189.080452</ele>
        <time>2022-03-25T16:14:23.433Z</time>
      </trkpt>
      <trkpt lat="43.77777" lon="1.57752">
        <ele>189.128558</ele>
        <time>2022-03-25T16:14:35.424Z</time>
      </trkpt>
      <trkpt lat="43.77768" lon="1.57739">
        <ele>189.188151</ele>
        <time>2022-03-25T16:14:38.431Z</time>
      </trkpt>
      <trkpt lat="43.77762" lon="1.57729">
        <ele>189.231571</ele>
        <time>2022-03-25T16:14:40.440Z</time>
      </trkpt>
      <trkpt lat="43.77762" lon="1.57711">
        <ele>189.295566</ele>
        <time>2022-03-25T16:14:42.431Z</time>
      </trkpt>
      <trkpt lat="43.77761" lon="1.57693">
        <ele>189.356603</ele>
        <time>2022-03-25T16:14:44.433Z</time>
      </trkpt>
      <trkpt lat="43.77749" lon="1.57682">
        <ele>189.423218</ele>
        <time>2022-03-25T16:14:46.425Z</time>
      </trkpt>
      <trkpt lat="43.77734" lon="1.57685">
        <ele>189.495605</ele>
        <time>2022-03-25T16:14:48.436Z</time>
      </trkpt>
      <trkpt lat="43.7772" lon="1.57686">
        <ele>189.559709</ele>
        <time>2022-03-25T16:14:50.420Z</time>
      </trkpt>
      <trkpt lat="43.77707" lon="1.57679">
        <ele>189.628193</ele>
        <time>2022-03-25T16:14:52.435Z</time>
      </trkpt>
      <trkpt lat="43.77693" lon="1.5767">
        <ele>189.523977</ele>
        <time>2022-03-25T16:14:54.421Z</time>
      </trkpt>
      <trkpt lat="43.77681" lon="1.57666">
        <ele>188.922987</ele>
        <time>2022-03-25T16:14:56.420Z</time>
      </trkpt>
      <trkpt lat="43.77671" lon="1.57665">
        <ele>188.441393</ele>
        <time>2022-03-25T16:14:58.413Z</time>
      </trkpt>
      <trkpt lat="43.77659" lon="1.57664">
        <ele>187.868298</ele>
        <time>2022-03-25T16:15:00.434Z</time>
      </trkpt>
      <trkpt lat="43.77647" lon="1.57665">
        <ele>187.310444</ele>
        <time>2022-03-25T16:15:02.418Z</time>
      </trkpt>
      <trkpt lat="43.77636" lon="1.57665">
        <ele>186.743057</ele>
        <time>2022-03-25T16:15:04.426Z</time>
      </trkpt>
      <trkpt lat="43.77624" lon="1.57665">
        <ele>186.175671</ele>
        <time>2022-03-25T16:15:06.417Z</time>
      </trkpt>
      <trkpt lat="43.77612" lon="1.57667">
        <ele>185.634173</ele>
        <time>2022-03-25T16:15:08.423Z</time>
      </trkpt>
      <trkpt lat="43.77602" lon="1.5767">
        <ele>185.113739</ele>
        <time>2022-03-25T16:15:10.427Z</time>
      </trkpt>
      <trkpt lat="43.77591" lon="1.57673">
        <ele>184.613602</ele>
        <time>2022-03-25T16:15:12.450Z</time>
      </trkpt>
      <trkpt lat="43.77581" lon="1.57679">
        <ele>184.061395</ele>
        <time>2022-03-25T16:15:14.427Z</time>
      </trkpt>
      <trkpt lat="43.7757" lon="1.57687">
        <ele>183.504273</ele>
        <time>2022-03-25T16:15:16.432Z</time>
      </trkpt>
      <trkpt lat="43.77561" lon="1.57693">
        <ele>182.989065</ele>
        <time>2022-03-25T16:15:18.429Z</time>
      </trkpt>
      <trkpt lat="43.77551" lon="1.57698">
        <ele>182.511462</ele>
        <time>2022-03-25T16:15:20.425Z</time>
      </trkpt>
      <trkpt lat="43.77542" lon="1.57702">
        <ele>182.044648</ele>
        <time>2022-03-25T16:15:22.418Z</time>
      </trkpt>
      <trkpt lat="43.77533" lon="1.57707">
        <ele>181.581078</ele>
        <time>2022-03-25T16:15:24.411Z</time>
      </trkpt>
      <trkpt lat="43.77524" lon="1.57711">
        <ele>181.127219</ele>
        <time>2022-03-25T16:15:26.424Z</time>
      </trkpt>
      <trkpt lat="43.77515" lon="1.57714">
        <ele>181.968497</ele>
        <time>2022-03-25T16:15:28.430Z</time>
      </trkpt>
      <trkpt lat="43.77506" lon="1.57717">
        <ele>182.898289</ele>
        <time>2022-03-25T16:15:30.429Z</time>
      </trkpt>
      <trkpt lat="43.77498" lon="1.57725">
        <ele>183.852948</ele>
        <time>2022-03-25T16:15:32.438Z</time>
      </trkpt>
      <trkpt lat="43.77492" lon="1.57733">
        <ele>184.754763</ele>
        <time>2022-03-25T16:15:34.432Z</time>
      </trkpt>
      <trkpt lat="43.7748" lon="1.57742">
        <ele>186.127189</ele>
        <time>2022-03-25T16:15:37.432Z</time>
      </trkpt>
      <trkpt lat="43.77469" lon="1.5775">
        <ele>187.368368</ele>
        <time>2022-03-25T16:15:40.418Z</time>
      </trkpt>
      <trkpt lat="43.77463" lon="1.57763">
        <ele>188.483098</ele>
        <time>2022-03-25T16:15:43.427Z</time>
      </trkpt>
      <trkpt lat="43.77463" lon="1.57778">
        <ele>189.509488</ele>
        <time>2022-03-25T16:15:46.425Z</time>
      </trkpt>
      <trkpt lat="43.77465" lon="1.57792">
        <ele>190.533508</ele>
        <time>2022-03-25T16:15:49.419Z</time>
      </trkpt>
      <trkpt lat="43.77472" lon="1.57801">
        <ele>191.54578</ele>
        <time>2022-03-25T16:15:52.408Z</time>
      </trkpt>
      <trkpt lat="43.77482" lon="1.5781">
        <ele>192.726779</ele>
        <time>2022-03-25T16:15:56.410Z</time>
      </trkpt>
      <trkpt lat="43.77485" lon="1.57823">
        <ele>193.681589</ele>
        <time>2022-03-25T16:16:01.440Z</time>
      </trkpt>
      <trkpt lat="43.77486" lon="1.57842">
        <ele>195.093335</ele>
        <time>2022-03-25T16:16:23.431Z</time>
      </trkpt>
      <trkpt lat="43.77485" lon="1.57856">
        <ele>196.127495</ele>
        <time>2022-03-25T16:16:28.440Z</time>
      </trkpt>
      <trkpt lat="43.77487" lon="1.57869">
        <ele>197.057261</ele>
        <time>2022-03-25T16:16:32.424Z</time>
      </trkpt>
      <trkpt lat="43.77488" lon="1.57896">
        <ele>199.047176</ele>
        <time>2022-03-25T16:21:12.438Z</time>
      </trkpt>
      <trkpt lat="43.77497" lon="1.579">
        <ele>199.344138</ele>
        <time>2022-03-25T16:21:19.429Z</time>
      </trkpt>
      <trkpt lat="43.77488" lon="1.57901">
        <ele>199.583144</ele>
        <time>2022-03-25T16:21:36.431Z</time>
      </trkpt>
      <trkpt lat="43.77481" lon="1.57911">
        <ele>199.83342</ele>
        <time>2022-03-25T16:21:43.425Z</time>
      </trkpt>
      <trkpt lat="43.77483" lon="1.57924">
        <ele>200.066971</ele>
        <time>2022-03-25T16:21:49.428Z</time>
      </trkpt>
      <trkpt lat="43.77485" lon="1.57937">
        <ele>200.322214</ele>
        <time>2022-03-25T16:21:54.434Z</time>
      </trkpt>
      <trkpt lat="43.77479" lon="1.57948">
        <ele>200.556511</ele>
        <time>2022-03-25T16:21:59.423Z</time>
      </trkpt>
      <trkpt lat="43.77479" lon="1.5796">
        <ele>200.795433</ele>
        <time>2022-03-25T16:22:03.419Z</time>
      </trkpt>
      <trkpt lat="43.77482" lon="1.57973">
        <ele>201.041158</ele>
        <time>2022-03-25T16:22:08.424Z</time>
      </trkpt>
      <trkpt lat="43.77479" lon="1.57988">
        <ele>201.337436</ele>
        <time>2022-03-25T16:22:13.420Z</time>
      </trkpt>
      <trkpt lat="43.7748" lon="1.58002">
        <ele>201.600372</ele>
        <time>2022-03-25T16:22:17.425Z</time>
      </trkpt>
      <trkpt lat="43.77477" lon="1.58017">
        <ele>201.891556</ele>
        <time>2022-03-25T16:22:21.414Z</time>
      </trkpt>
      <trkpt lat="43.77468" lon="1.58024">
        <ele>202.161703</ele>
        <time>2022-03-25T16:22:24.414Z</time>
      </trkpt>
      <trkpt lat="43.77458" lon="1.58028">
        <ele>202.429209</ele>
        <time>2022-03-25T16:22:28.424Z</time>
      </trkpt>
      <trkpt lat="43.77444" lon="1.58035">
        <ele>202.796561</ele>
        <time>2022-03-25T16:25:27.420Z</time>
      </trkpt>
      <trkpt lat="43.7743" lon="1.58052">
        <ele>203.274428</ele>
        <time>2022-03-25T16:25:51.440Z</time>
      </trkpt>
      <trkpt lat="43.77422" lon="1.58061">
        <ele>203.546689</ele>
        <time>2022-03-25T16:25:54.438Z</time>
      </trkpt>
      <trkpt lat="43.77413" lon="1.58069">
        <ele>203.652786</ele>
        <time>2022-03-25T16:25:56.437Z</time>
      </trkpt>
      <trkpt lat="43.77405" lon="1.58078">
        <ele>203.457234</ele>
        <time>2022-03-25T16:25:58.431Z</time>
      </trkpt>
      <trkpt lat="43.77395" lon="1.58082">
        <ele>203.272748</ele>
        <time>2022-03-25T16:26:00.431Z</time>
      </trkpt>
      <trkpt lat="43.77385" lon="1.58084">
        <ele>203.078747</ele>
        <time>2022-03-25T16:26:02.431Z</time>
      </trkpt>
      <trkpt lat="43.77376" lon="1.58089">
        <ele>202.897039</ele>
        <time>2022-03-25T16:26:04.426Z</time>
      </trkpt>
      <trkpt lat="43.77363" lon="1.58089">
        <ele>202.662319</ele>
        <time>2022-03-25T16:26:07.429Z</time>
      </trkpt>
      <trkpt lat="43.77354" lon="1.58088">
        <ele>202.492997</ele>
        <time>2022-03-25T16:26:14.421Z</time>
      </trkpt>
      <trkpt lat="43.77356" lon="1.58076">
        <ele>202.327115</ele>
        <time>2022-03-25T16:26:19.438Z</time>
      </trkpt>
      <trkpt lat="43.77366" lon="1.58084">
        <ele>202.120512</ele>
        <time>2022-03-25T16:26:23.425Z</time>
      </trkpt>
      <trkpt lat="43.77375" lon="1.58084">
        <ele>201.95363</ele>
        <time>2022-03-25T16:26:26.425Z</time>
      </trkpt>
      <trkpt lat="43.77384" lon="1.58077">
        <ele>201.772296</ele>
        <time>2022-03-25T16:26:30.436Z</time>
      </trkpt>
      <trkpt lat="43.77381" lon="1.58063">
        <ele>201.592069</ele>
        <time>2022-03-25T16:26:34.437Z</time>
      </trkpt>
      <trkpt lat="43.77369" lon="1.58057">
        <ele>201.349881</ele>
        <time>2022-03-25T16:26:37.438Z</time>
      </trkpt>
      <trkpt lat="43.7736" lon="1.58053">
        <ele>201.173997</ele>
        <time>2022-03-25T16:26:39.430Z</time>
      </trkpt>
      <trkpt lat="43.77351" lon="1.58045">
        <ele>200.974924</ele>
        <time>2022-03-25T16:26:42.445Z</time>
      </trkpt>
      <trkpt lat="43.77345" lon="1.58033">
        <ele>200.788275</ele>
        <time>2022-03-25T16:26:45.431Z</time>
      </trkpt>
      <trkpt lat="43.77336" lon="1.5802">
        <ele>200.54524</ele>
        <time>2022-03-25T16:26:48.430Z</time>
      </trkpt>
      <trkpt lat="43.77324" lon="1.5801">
        <ele>200.192425</ele>
        <time>2022-03-25T16:26:50.421Z</time>
      </trkpt>
      <trkpt lat="43.7731" lon="1.58014">
        <ele>199.718794</ele>
        <time>2022-03-25T16:26:52.433Z</time>
      </trkpt>
      <trkpt lat="43.77301" lon="1.58027">
        <ele>199.30761</ele>
        <time>2022-03-25T16:26:54.428Z</time>
      </trkpt>
      <trkpt lat="43.77297" lon="1.5804">
        <ele>198.984038</ele>
        <time>2022-03-25T16:26:56.429Z</time>
      </trkpt>
      <trkpt lat="43.7729" lon="1.58052">
        <ele>198.63847</ele>
        <time>2022-03-25T16:26:59.436Z</time>
      </trkpt>
      <trkpt lat="43.77283" lon="1.5806">
        <ele>198.310684</ele>
        <time>2022-03-25T16:27:02.435Z</time>
      </trkpt>
      <trkpt lat="43.77271" lon="1.58069">
        <ele>197.882265</ele>
        <time>2022-03-25T16:27:05.426Z</time>
      </trkpt>
      <trkpt lat="43.77262" lon="1.58074">
        <ele>197.55969</ele>
        <time>2022-03-25T16:27:07.422Z</time>
      </trkpt>
      <trkpt lat="43.77252" lon="1.58076">
        <ele>197.234114</ele>
        <time>2022-03-25T16:27:09.425Z</time>
      </trkpt>
      <trkpt lat="43.77242" lon="1.58073">
        <ele>196.899088</ele>
        <time>2022-03-25T16:27:11.433Z</time>
      </trkpt>
      <trkpt lat="43.77231" lon="1.58071">
        <ele>196.541125</ele>
        <time>2022-03-25T16:27:13.442Z</time>
      </trkpt>
      <trkpt lat="43.77221" lon="1.58065">
        <ele>196.184682</ele>
        <time>2022-03-25T16:27:15.433Z</time>
      </trkpt>
      <trkpt lat="43.77211" lon="1.58058">
        <ele>195.834957</ele>
        <time>2022-03-25T16:27:17.445Z</time>
      </trkpt>
      <trkpt lat="43.77201" lon="1.58054">
        <ele>195.489243</ele>
        <time>2022-03-25T16:27:19.434Z</time>
      </trkpt>
      <trkpt lat="43.7719" lon="1.58058">
        <ele>195.13917</ele>
        <time>2022-03-25T16:27:21.431Z</time>
      </trkpt>
      <trkpt lat="43.7718" lon="1.58061">
        <ele>194.800793</ele>
        <time>2022-03-25T16:27:23.433Z</time>
      </trkpt>
      <trkpt lat="43.7717" lon="1.5806">
        <ele>194.624426</ele>
        <time>2022-03-25T16:27:25.441Z</time>
      </trkpt>
      <trkpt lat="43.77161" lon="1.58058">
        <ele>194.732599</ele>
        <time>2022-03-25T16:27:27.438Z</time>
      </trkpt>
      <trkpt lat="43.77149" lon="1.58061">
        <ele>194.863171</ele>
        <time>2022-03-25T16:27:29.430Z</time>
      </trkpt>
      <trkpt lat="43.77138" lon="1.58067">
        <ele>195.007923</ele>
        <time>2022-03-25T16:27:31.442Z</time>
      </trkpt>
      <trkpt lat="43.77127" lon="1.58074">
        <ele>195.140172</ele>
        <time>2022-03-25T16:27:33.440Z</time>
      </trkpt>
      <trkpt lat="43.77116" lon="1.58081">
        <ele>195.274179</ele>
        <time>2022-03-25T16:27:35.426Z</time>
      </trkpt>
      <trkpt lat="43.77106" lon="1.5809">
        <ele>195.412807</ele>
        <time>2022-03-25T16:27:37.446Z</time>
      </trkpt>
      <trkpt lat="43.77097" lon="1.581">
        <ele>195.545088</ele>
        <time>2022-03-25T16:27:39.428Z</time>
      </trkpt>
      <trkpt lat="43.77089" lon="1.58112">
        <ele>195.676807</ele>
        <time>2022-03-25T16:27:41.439Z</time>
      </trkpt>
      <trkpt lat="43.7708" lon="1.58122">
        <ele>195.807542</ele>
        <time>2022-03-25T16:27:43.435Z</time>
      </trkpt>
      <trkpt lat="43.7707" lon="1.5813">
        <ele>195.945646</ele>
        <time>2022-03-25T16:27:45.427Z</time>
      </trkpt>
      <trkpt lat="43.77058" lon="1.58135">
        <ele>196.083591</ele>
        <time>2022-03-25T16:27:47.429Z</time>
      </trkpt>
      <trkpt lat="43.77047" lon="1.5814">
        <ele>196.212859</ele>
        <time>2022-03-25T16:27:49.432Z</time>
      </trkpt>
      <trkpt lat="43.77037" lon="1.58144">
        <ele>196.335463</ele>
        <time>2022-03-25T16:27:51.434Z</time>
      </trkpt>
      <trkpt lat="43.77027" lon="1.58149">
        <ele>196.455061</ele>
        <time>2022-03-25T16:27:53.427Z</time>
      </trkpt>
      <trkpt lat="43.77018" lon="1.58155">
        <ele>196.572109</ele>
        <time>2022-03-25T16:27:55.442Z</time>
      </trkpt>
      <trkpt lat="43.77009" lon="1.58162">
        <ele>196.785055</ele>
        <time>2022-03-25T16:27:57.430Z</time>
      </trkpt>
      <trkpt lat="43.77001" lon="1.58175">
        <ele>197.172194</ele>
        <time>2022-03-25T16:27:59.434Z</time>
      </trkpt>
      <trkpt lat="43.76993" lon="1.58189">
        <ele>197.57119</ele>
        <time>2022-03-25T16:28:01.427Z</time>
      </trkpt>
      <trkpt lat="43.76984" lon="1.58199">
        <ele>197.930521</ele>
        <time>2022-03-25T16:28:03.427Z</time>
      </trkpt>
      <trkpt lat="43.76972" lon="1.58202">
        <ele>198.304425</ele>
        <time>2022-03-25T16:28:05.431Z</time>
      </trkpt>
      <trkpt lat="43.76961" lon="1.58204">
        <ele>198.665997</ele>
        <time>2022-03-25T16:28:07.423Z</time>
      </trkpt>
      <trkpt lat="43.76951" lon="1.58209">
        <ele>198.997016</ele>
        <time>2022-03-25T16:28:09.423Z</time>
      </trkpt>
      <trkpt lat="43.76941" lon="1.58217">
        <ele>199.352153</ele>
        <time>2022-03-25T16:28:11.423Z</time>
      </trkpt>
      <trkpt lat="43.76931" lon="1.58225">
        <ele>199.715912</ele>
        <time>2022-03-25T16:28:13.430Z</time>
      </trkpt>
      <trkpt lat="43.76921" lon="1.58233">
        <ele>200.062346</ele>
        <time>2022-03-25T16:28:15.428Z</time>
      </trkpt>
      <trkpt lat="43.76911" lon="1.58239">
        <ele>200.43135</ele>
        <time>2022-03-25T16:28:17.424Z</time>
      </trkpt>
      <trkpt lat="43.769" lon="1.58246">
        <ele>200.79197</ele>
        <time>2022-03-25T16:28:19.430Z</time>
      </trkpt>
      <trkpt lat="43.7689" lon="1.58253">
        <ele>201.140258</ele>
        <time>2022-03-25T16:28:21.431Z</time>
      </trkpt>
      <trkpt lat="43.76882" lon="1.58263">
        <ele>201.487886</ele>
        <time>2022-03-25T16:28:23.431Z</time>
      </trkpt>
      <trkpt lat="43.76876" lon="1.58274">
        <ele>201.804562</ele>
        <time>2022-03-25T16:28:25.438Z</time>
      </trkpt>
      <trkpt lat="43.76867" lon="1.58283">
        <ele>202.146414</ele>
        <time>2022-03-25T16:28:27.428Z</time>
      </trkpt>
      <trkpt lat="43.76856" lon="1.58288">
        <ele>202.347151</ele>
        <time>2022-03-25T16:28:29.439Z</time>
      </trkpt>
      <trkpt lat="43.76845" lon="1.58289">
        <ele>202.486298</ele>
        <time>2022-03-25T16:28:31.439Z</time>
      </trkpt>
      <trkpt lat="43.76833" lon="1.5829">
        <ele>202.623007</ele>
        <time>2022-03-25T16:28:33.425Z</time>
      </trkpt>
      <trkpt lat="43.76824" lon="1.58299">
        <ele>202.756938</ele>
        <time>2022-03-25T16:28:35.441Z</time>
      </trkpt>
      <trkpt lat="43.76817" lon="1.5831">
        <ele>202.891601</ele>
        <time>2022-03-25T16:28:37.432Z</time>
      </trkpt>
      <trkpt lat="43.76809" lon="1.58322">
        <ele>203.027426</ele>
        <time>2022-03-25T16:28:39.438Z</time>
      </trkpt>
      <trkpt lat="43.76798" lon="1.58327">
        <ele>203.172884</ele>
        <time>2022-03-25T16:28:41.422Z</time>
      </trkpt>
      <trkpt lat="43.76786" lon="1.58331">
        <ele>203.320709</ele>
        <time>2022-03-25T16:28:43.439Z</time>
      </trkpt>
      <trkpt lat="43.76775" lon="1.58332">
        <ele>203.450199</ele>
        <time>2022-03-25T16:28:45.432Z</time>
      </trkpt>
      <trkpt lat="43.76763" lon="1.58334">
        <ele>203.589998</ele>
        <time>2022-03-25T16:28:47.432Z</time>
      </trkpt>
      <trkpt lat="43.76753" lon="1.58343">
        <ele>203.730982</ele>
        <time>2022-03-25T16:28:49.430Z</time>
      </trkpt>
      <trkpt lat="43.76745" lon="1.58354">
        <ele>203.870339</ele>
        <time>2022-03-25T16:28:51.434Z</time>
      </trkpt>
      <trkpt lat="43.76737" lon="1.58366">
        <ele>204.013879</ele>
        <time>2022-03-25T16:28:53.456Z</time>
      </trkpt>
      <trkpt lat="43.76726" lon="1.58375">
        <ele>204.162151</ele>
        <time>2022-03-25T16:28:55.435Z</time>
      </trkpt>
      <trkpt lat="43.76718" lon="1.58385">
        <ele>204.291545</ele>
        <time>2022-03-25T16:28:57.430Z</time>
      </trkpt>
      <trkpt lat="43.76718" lon="1.58398">
        <ele>204.402356</ele>
        <time>2022-03-25T16:29:01.432Z</time>
      </trkpt>
      <trkpt lat="43.76722" lon="1.58414">
        <ele>204.430927</ele>
        <time>2022-03-25T16:29:05.436Z</time>
      </trkpt>
      <trkpt lat="43.76731" lon="1.58423">
        <ele>204.451185</ele>
        <time>2022-03-25T16:29:07.438Z</time>
      </trkpt>
      <trkpt lat="43.76739" lon="1.58435">
        <ele>204.473962</ele>
        <time>2022-03-25T16:29:09.433Z</time>
      </trkpt>
      <trkpt lat="43.76741" lon="1.58452">
        <ele>204.497188</ele>
        <time>2022-03-25T16:29:11.433Z</time>
      </trkpt>
      <trkpt lat="43.76746" lon="1.58467">
        <ele>204.518808</ele>
        <time>2022-03-25T16:29:13.431Z</time>
      </trkpt>
      <trkpt lat="43.76754" lon="1.5848">
        <ele>204.540827</ele>
        <time>2022-03-25T16:29:15.442Z</time>
      </trkpt>
      <trkpt lat="43.76758" lon="1.58494">
        <ele>204.561971</ele>
        <time>2022-03-25T16:29:17.413Z</time>
      </trkpt>
      <trkpt lat="43.76765" lon="1.58507">
        <ele>204.584085</ele>
        <time>2022-03-25T16:29:19.420Z</time>
      </trkpt>
      <trkpt lat="43.76768" lon="1.58522">
        <ele>204.605068</ele>
        <time>2022-03-25T16:29:21.428Z</time>
      </trkpt>
      <trkpt lat="43.76774" lon="1.58536">
        <ele>204.625974</ele>
        <time>2022-03-25T16:29:23.431Z</time>
      </trkpt>
      <trkpt lat="43.76783" lon="1.58548">
        <ele>204.648869</ele>
        <time>2022-03-25T16:29:25.429Z</time>
      </trkpt>
      <trkpt lat="43.76792" lon="1.5856">
        <ele>204.672052</ele>
        <time>2022-03-25T16:29:27.430Z</time>
      </trkpt>
      <trkpt lat="43.76798" lon="1.58572">
        <ele>204.692641</ele>
        <time>2022-03-25T16:29:29.431Z</time>
      </trkpt>
      <trkpt lat="43.76804" lon="1.58585">
        <ele>204.713179</ele>
        <time>2022-03-25T16:29:31.436Z</time>
      </trkpt>
      <trkpt lat="43.76805" lon="1.58593">
        <ele>200.603246</ele>
        <time>2022-03-25T16:30:22.428Z</time>
      </trkpt>
      <trkpt lat="43.76797" lon="1.58599">
        <ele>200.62257</ele>
        <time>2022-03-25T16:30:25.449Z</time>
      </trkpt>
      <trkpt lat="43.76793" lon="1.5862">
        <ele>200.652343</ele>
        <time>2022-03-25T16:32:05.446Z</time>
      </trkpt>
      <trkpt lat="43.76798" lon="1.58634">
        <ele>200.675533</ele>
        <time>2022-03-25T16:32:08.432Z</time>
      </trkpt>
      <trkpt lat="43.76804" lon="1.58648">
        <ele>200.697566</ele>
        <time>2022-03-25T16:32:10.422Z</time>
      </trkpt>
      <trkpt lat="43.76808" lon="1.58663">
        <ele>200.720428</ele>
        <time>2022-03-25T16:32:12.427Z</time>
      </trkpt>
      <trkpt lat="43.76808" lon="1.58681">
        <ele>200.746168</ele>
        <time>2022-03-25T16:32:14.433Z</time>
      </trkpt>
      <trkpt lat="43.76809" lon="1.58697">
        <ele>200.769619</ele>
        <time>2022-03-25T16:32:16.430Z</time>
      </trkpt>
      <trkpt lat="43.76807" lon="1.58712">
        <ele>200.790463</ele>
        <time>2022-03-25T16:32:18.432Z</time>
      </trkpt>
      <trkpt lat="43.76807" lon="1.58727">
        <ele>200.811643</ele>
        <time>2022-03-25T16:32:20.428Z</time>
      </trkpt>
      <trkpt lat="43.76811" lon="1.5874">
        <ele>200.831698</ele>
        <time>2022-03-25T16:32:22.430Z</time>
      </trkpt>
      <trkpt lat="43.76811" lon="1.58755">
        <ele>200.853731</ele>
        <time>2022-03-25T16:32:24.430Z</time>
      </trkpt>
      <trkpt lat="43.7681" lon="1.58771">
        <ele>200.876259</ele>
        <time>2022-03-25T16:32:26.432Z</time>
      </trkpt>
      <trkpt lat="43.76806" lon="1.58787">
        <ele>200.900532</ele>
        <time>2022-03-25T16:32:28.439Z</time>
      </trkpt>
      <trkpt lat="43.76801" lon="1.58804">
        <ele>200.926106</ele>
        <time>2022-03-25T16:32:30.443Z</time>
      </trkpt>
      <trkpt lat="43.76796" lon="1.58818">
        <ele>200.194201</ele>
        <time>2022-03-25T16:32:32.424Z</time>
      </trkpt>
      <trkpt lat="43.76796" lon="1.58832">
        <ele>199.174163</ele>
        <time>2022-03-25T16:32:35.433Z</time>
      </trkpt>
      <trkpt lat="43.76791" lon="1.58844">
        <ele>198.259317</ele>
        <time>2022-03-25T16:32:46.430Z</time>
      </trkpt>
      <trkpt lat="43.76791" lon="1.58859">
        <ele>197.172071</ele>
        <time>2022-03-25T16:32:51.427Z</time>
      </trkpt>
      <trkpt lat="43.76794" lon="1.5887">
        <ele>196.238794</ele>
        <time>2022-03-25T16:32:53.441Z</time>
      </trkpt>
      <trkpt lat="43.76801" lon="1.58881">
        <ele>195.242214</ele>
        <time>2022-03-25T16:32:55.433Z</time>
      </trkpt>
      <trkpt lat="43.76794" lon="1.58896">
        <ele>193.935536</ele>
        <time>2022-03-25T16:32:58.457Z</time>
      </trkpt>
      <trkpt lat="43.76782" lon="1.58902">
        <ele>192.655345</ele>
        <time>2022-03-25T16:33:00.433Z</time>
      </trkpt>
      <trkpt lat="43.76779" lon="1.5892">
        <ele>191.300062</ele>
        <time>2022-03-25T16:33:03.429Z</time>
      </trkpt>
      <trkpt lat="43.76787" lon="1.58938">
        <ele>189.771664</ele>
        <time>2022-03-25T16:33:05.430Z</time>
      </trkpt>
      <trkpt lat="43.76794" lon="1.58954">
        <ele>188.405094</ele>
        <time>2022-03-25T16:33:07.427Z</time>
      </trkpt>
      <trkpt lat="43.76798" lon="1.58965">
        <ele>187.468555</ele>
        <time>2022-03-25T16:33:09.433Z</time>
      </trkpt>
      <trkpt lat="43.76805" lon="1.58974">
        <ele>186.506309</ele>
        <time>2022-03-25T16:33:13.414Z</time>
      </trkpt>
      <trkpt lat="43.76815" lon="1.5898">
        <ele>185.454192</ele>
        <time>2022-03-25T16:33:15.427Z</time>
      </trkpt>
      <trkpt lat="43.76826" lon="1.58986">
        <ele>184.235928</ele>
        <time>2022-03-25T16:33:17.419Z</time>
      </trkpt>
      <trkpt lat="43.7684" lon="1.58985">
        <ele>182.792046</ele>
        <time>2022-03-25T16:33:19.430Z</time>
      </trkpt>
      <trkpt lat="43.76856" lon="1.58982">
        <ele>181.818667</ele>
        <time>2022-03-25T16:33:21.426Z</time>
      </trkpt>
      <trkpt lat="43.7687" lon="1.58982">
        <ele>180.968216</ele>
        <time>2022-03-25T16:33:23.427Z</time>
      </trkpt>
      <trkpt lat="43.76883" lon="1.58983">
        <ele>180.178505</ele>
        <time>2022-03-25T16:33:25.434Z</time>
      </trkpt>
      <trkpt lat="43.76895" lon="1.58982">
        <ele>179.448517</ele>
        <time>2022-03-25T16:33:27.430Z</time>
      </trkpt>
      <trkpt lat="43.76907" lon="1.5898">
        <ele>178.725851</ele>
        <time>2022-03-25T16:33:29.429Z</time>
      </trkpt>
      <trkpt lat="43.76918" lon="1.58974">
        <ele>178.021165</ele>
        <time>2022-03-25T16:33:31.435Z</time>
      </trkpt>
      <trkpt lat="43.76931" lon="1.58968">
        <ele>177.197309</ele>
        <time>2022-03-25T16:33:33.426Z</time>
      </trkpt>
      <trkpt lat="43.76944" lon="1.58965">
        <ele>176.398822</ele>
        <time>2022-03-25T16:33:35.435Z</time>
      </trkpt>
      <trkpt lat="43.76957" lon="1.58964">
        <ele>175.596711</ele>
        <time>2022-03-25T16:33:37.427Z</time>
      </trkpt>
      <trkpt lat="43.76971" lon="1.58969">
        <ele>174.730237</ele>
        <time>2022-03-25T16:33:39.432Z</time>
      </trkpt>
      <trkpt lat="43.76984" lon="1.58976">
        <ele>173.894879</ele>
        <time>2022-03-25T16:33:41.427Z</time>
      </trkpt>
      <trkpt lat="43.76995" lon="1.58983">
        <ele>173.122716</ele>
        <time>2022-03-25T16:33:43.433Z</time>
      </trkpt>
      <trkpt lat="43.77008" lon="1.58985">
        <ele>172.315631</ele>
        <time>2022-03-25T16:33:45.432Z</time>
      </trkpt>
      <trkpt lat="43.77023" lon="1.58987">
        <ele>171.59031</ele>
        <time>2022-03-25T16:33:47.426Z</time>
      </trkpt>
      <trkpt lat="43.77038" lon="1.58991">
        <ele>171.014657</ele>
        <time>2022-03-25T16:33:49.431Z</time>
      </trkpt>
      <trkpt lat="43.7705" lon="1.58994">
        <ele>170.529461</ele>
        <time>2022-03-25T16:33:51.423Z</time>
      </trkpt>
      <trkpt lat="43.77062" lon="1.58997">
        <ele>170.072213</ele>
        <time>2022-03-25T16:33:53.423Z</time>
      </trkpt>
      <trkpt lat="43.77073" lon="1.58994">
        <ele>169.652513</ele>
        <time>2022-03-25T16:33:56.417Z</time>
      </trkpt>
      <trkpt lat="43.77069" lon="1.58976">
        <ele>169.123155</ele>
        <time>2022-03-25T16:33:59.444Z</time>
      </trkpt>
      <trkpt lat="43.77069" lon="1.5896">
        <ele>168.682127</ele>
        <time>2022-03-25T16:34:01.421Z</time>
      </trkpt>
      <trkpt lat="43.77072" lon="1.58944">
        <ele>168.226191</ele>
        <time>2022-03-25T16:34:03.424Z</time>
      </trkpt>
      <trkpt lat="43.77075" lon="1.58928">
        <ele>167.781909</ele>
        <time>2022-03-25T16:34:05.429Z</time>
      </trkpt>
      <trkpt lat="43.77079" lon="1.58914">
        <ele>167.348324</ele>
        <time>2022-03-25T16:34:07.431Z</time>
      </trkpt>
      <trkpt lat="43.77082" lon="1.58899">
        <ele>166.925897</ele>
        <time>2022-03-25T16:34:09.433Z</time>
      </trkpt>
      <trkpt lat="43.77086" lon="1.58886">
        <ele>166.535683</ele>
        <time>2022-03-25T16:34:11.423Z</time>
      </trkpt>
      <trkpt lat="43.77089" lon="1.58872">
        <ele>166.124968</ele>
        <time>2022-03-25T16:34:13.430Z</time>
      </trkpt>
      <trkpt lat="43.77093" lon="1.58859">
        <ele>165.729131</ele>
        <time>2022-03-25T16:34:15.423Z</time>
      </trkpt>
      <trkpt lat="43.77097" lon="1.58846">
        <ele>165.332491</ele>
        <time>2022-03-25T16:34:17.433Z</time>
      </trkpt>
      <trkpt lat="43.77102" lon="1.58833">
        <ele>165.034437</ele>
        <time>2022-03-25T16:34:19.426Z</time>
      </trkpt>
      <trkpt lat="43.77106" lon="1.58819">
        <ele>165.792513</ele>
        <time>2022-03-25T16:34:21.430Z</time>
      </trkpt>
      <trkpt lat="43.77111" lon="1.58806">
        <ele>166.548998</ele>
        <time>2022-03-25T16:34:23.431Z</time>
      </trkpt>
      <trkpt lat="43.77114" lon="1.58794">
        <ele>167.234008</ele>
        <time>2022-03-25T16:34:25.456Z</time>
      </trkpt>
      <trkpt lat="43.77119" lon="1.58782">
        <ele>167.946563</ele>
        <time>2022-03-25T16:34:27.434Z</time>
      </trkpt>
      <trkpt lat="43.77125" lon="1.58771">
        <ele>168.641176</ele>
        <time>2022-03-25T16:34:29.433Z</time>
      </trkpt>
      <trkpt lat="43.7713" lon="1.58756">
        <ele>169.518682</ele>
        <time>2022-03-25T16:34:32.441Z</time>
      </trkpt>
      <trkpt lat="43.77137" lon="1.58739">
        <ele>170.505802</ele>
        <time>2022-03-25T16:34:35.439Z</time>
      </trkpt>
      <trkpt lat="43.77141" lon="1.58726">
        <ele>171.211478</ele>
        <time>2022-03-25T16:34:37.431Z</time>
      </trkpt>
      <trkpt lat="43.77147" lon="1.58711">
        <ele>172.132141</ele>
        <time>2022-03-25T16:34:40.432Z</time>
      </trkpt>
      <trkpt lat="43.77154" lon="1.58697">
        <ele>172.962857</ele>
        <time>2022-03-25T16:34:43.425Z</time>
      </trkpt>
      <trkpt lat="43.77161" lon="1.58683">
        <ele>173.870888</ele>
        <time>2022-03-25T16:34:46.426Z</time>
      </trkpt>
      <trkpt lat="43.77166" lon="1.58669">
        <ele>174.656823</ele>
        <time>2022-03-25T16:34:49.429Z</time>
      </trkpt>
      <trkpt lat="43.77172" lon="1.58656">
        <ele>175.465684</ele>
        <time>2022-03-25T16:34:52.435Z</time>
      </trkpt>
      <trkpt lat="43.77178" lon="1.58642">
        <ele>176.329081</ele>
        <time>2022-03-25T16:34:55.425Z</time>
      </trkpt>
      <trkpt lat="43.77187" lon="1.58629">
        <ele>177.223142</ele>
        <time>2022-03-25T16:34:58.431Z</time>
      </trkpt>
      <trkpt lat="43.77192" lon="1.58619">
        <ele>177.87366</ele>
        <time>2022-03-25T16:35:00.430Z</time>
      </trkpt>
      <trkpt lat="43.77196" lon="1.58607">
        <ele>178.609208</ele>
        <time>2022-03-25T16:35:02.454Z</time>
      </trkpt>
      <trkpt lat="43.772" lon="1.58594">
        <ele>179.442161</ele>
        <time>2022-03-25T16:35:04.427Z</time>
      </trkpt>
      <trkpt lat="43.77203" lon="1.58579">
        <ele>180.388846</ele>
        <time>2022-03-25T16:35:07.433Z</time>
      </trkpt>
      <trkpt lat="43.77206" lon="1.58564">
        <ele>181.265516</ele>
        <time>2022-03-25T16:35:10.433Z</time>
      </trkpt>
      <trkpt lat="43.77209" lon="1.5855">
        <ele>182.088814</ele>
        <time>2022-03-25T16:35:13.430Z</time>
      </trkpt>
      <trkpt lat="43.77211" lon="1.58537">
        <ele>182.866961</ele>
        <time>2022-03-25T16:35:17.418Z</time>
      </trkpt>
      <trkpt lat="43.77213" lon="1.58521">
        <ele>183.835601</ele>
        <time>2022-03-25T16:35:20.415Z</time>
      </trkpt>
      <trkpt lat="43.77216" lon="1.58509">
        <ele>184.584879</ele>
        <time>2022-03-25T16:35:22.427Z</time>
      </trkpt>
      <trkpt lat="43.77221" lon="1.58496">
        <ele>185.399429</ele>
        <time>2022-03-25T16:35:24.436Z</time>
      </trkpt>
      <trkpt lat="43.77223" lon="1.58483">
        <ele>186.193116</ele>
        <time>2022-03-25T16:35:26.432Z</time>
      </trkpt>
      <trkpt lat="43.77227" lon="1.58468">
        <ele>187.109762</ele>
        <time>2022-03-25T16:35:28.422Z</time>
      </trkpt>
      <trkpt lat="43.77229" lon="1.58455">
        <ele>187.875397</ele>
        <time>2022-03-25T16:35:30.434Z</time>
      </trkpt>
      <trkpt lat="43.77234" lon="1.5844">
        <ele>188.807505</ele>
        <time>2022-03-25T16:35:32.434Z</time>
      </trkpt>
      <trkpt lat="43.77239" lon="1.58426">
        <ele>189.723891</ele>
        <time>2022-03-25T16:35:34.431Z</time>
      </trkpt>
      <trkpt lat="43.77244" lon="1.58412">
        <ele>190.628142</ele>
        <time>2022-03-25T16:35:36.431Z</time>
      </trkpt>
      <trkpt lat="43.77252" lon="1.584">
        <ele>191.59574</ele>
        <time>2022-03-25T16:35:38.438Z</time>
      </trkpt>
      <trkpt lat="43.77262" lon="1.5839">
        <ele>192.308036</ele>
        <time>2022-03-25T16:35:40.432Z</time>
      </trkpt>
      <trkpt lat="43.77271" lon="1.5838">
        <ele>192.488393</ele>
        <time>2022-03-25T16:35:42.433Z</time>
      </trkpt>
      <trkpt lat="43.7728" lon="1.58366">
        <ele>192.701451</ele>
        <time>2022-03-25T16:35:44.433Z</time>
      </trkpt>
      <trkpt lat="43.77287" lon="1.58353">
        <ele>192.891821</ele>
        <time>2022-03-25T16:35:46.435Z</time>
      </trkpt>
      <trkpt lat="43.77294" lon="1.58338">
        <ele>193.097822</ele>
        <time>2022-03-25T16:35:48.432Z</time>
      </trkpt>
      <trkpt lat="43.77303" lon="1.58324">
        <ele>193.306834</ele>
        <time>2022-03-25T16:35:50.427Z</time>
      </trkpt>
      <trkpt lat="43.77311" lon="1.5831">
        <ele>193.505753</ele>
        <time>2022-03-25T16:35:52.429Z</time>
      </trkpt>
      <trkpt lat="43.77317" lon="1.58299">
        <ele>193.676691</ele>
        <time>2022-03-25T16:35:54.431Z</time>
      </trkpt>
      <trkpt lat="43.77326" lon="1.5829">
        <ele>193.847983</ele>
        <time>2022-03-25T16:35:56.422Z</time>
      </trkpt>
      <trkpt lat="43.77336" lon="1.58282">
        <ele>194.026858</ele>
        <time>2022-03-25T16:35:58.429Z</time>
      </trkpt>
      <trkpt lat="43.77345" lon="1.58273">
        <ele>194.199507</ele>
        <time>2022-03-25T16:36:00.433Z</time>
      </trkpt>
      <trkpt lat="43.77351" lon="1.58262">
        <ele>194.359238</ele>
        <time>2022-03-25T16:36:02.438Z</time>
      </trkpt>
      <trkpt lat="43.77347" lon="1.58251">
        <ele>194.512921</ele>
        <time>2022-03-25T16:36:04.434Z</time>
      </trkpt>
      <trkpt lat="43.77338" lon="1.58238">
        <ele>194.711872</ele>
        <time>2022-03-25T16:36:06.438Z</time>
      </trkpt>
      <trkpt lat="43.77335" lon="1.58223">
        <ele>194.894398</ele>
        <time>2022-03-25T16:36:08.438Z</time>
      </trkpt>
      <trkpt lat="43.77334" lon="1.58205">
        <ele>195.098179</ele>
        <time>2022-03-25T16:36:10.440Z</time>
      </trkpt>
      <trkpt lat="43.77328" lon="1.58187">
        <ele>195.70288</ele>
        <time>2022-03-25T16:36:12.431Z</time>
      </trkpt>
      <trkpt lat="43.77321" lon="1.58173">
        <ele>196.211255</ele>
        <time>2022-03-25T16:36:14.438Z</time>
      </trkpt>
      <trkpt lat="43.77314" lon="1.58162">
        <ele>196.675504</ele>
        <time>2022-03-25T16:36:16.435Z</time>
      </trkpt>
      <trkpt lat="43.77315" lon="1.58146">
        <ele>197.164312</ele>
        <time>2022-03-25T16:36:18.435Z</time>
      </trkpt>
      <trkpt lat="43.77324" lon="1.58141">
        <ele>197.59767</ele>
        <time>2022-03-25T16:36:21.424Z</time>
      </trkpt>
      <trkpt lat="43.77331" lon="1.5815">
        <ele>198.008761</ele>
        <time>2022-03-25T16:36:23.425Z</time>
      </trkpt>
      <trkpt lat="43.77338" lon="1.58164">
        <ele>198.507136</ele>
        <time>2022-03-25T16:36:25.438Z</time>
      </trkpt>
      <trkpt lat="43.77345" lon="1.58177">
        <ele>199.002972</ele>
        <time>2022-03-25T16:36:27.434Z</time>
      </trkpt>
      <trkpt lat="43.77351" lon="1.58188">
        <ele>199.441709</ele>
        <time>2022-03-25T16:36:29.424Z</time>
      </trkpt>
      <trkpt lat="43.77361" lon="1.58196">
        <ele>199.916034</ele>
        <time>2022-03-25T16:36:32.429Z</time>
      </trkpt>
      <trkpt lat="43.77373" lon="1.58194">
        <ele>200.432561</ele>
        <time>2022-03-25T16:36:35.429Z</time>
      </trkpt>
      <trkpt lat="43.77379" lon="1.58207">
        <ele>200.904435</ele>
        <time>2022-03-25T16:36:37.424Z</time>
      </trkpt>
      <trkpt lat="43.77385" lon="1.58223">
        <ele>201.443042</ele>
        <time>2022-03-25T16:36:39.428Z</time>
      </trkpt>
      <trkpt lat="43.77393" lon="1.58236">
        <ele>201.986905</ele>
        <time>2022-03-25T16:36:41.440Z</time>
      </trkpt>
      <trkpt lat="43.77403" lon="1.58247">
        <ele>202.529028</ele>
        <time>2022-03-25T16:36:43.433Z</time>
      </trkpt>
      <trkpt lat="43.77413" lon="1.58258">
        <ele>202.155803</ele>
        <time>2022-03-25T16:36:45.444Z</time>
      </trkpt>
      <trkpt lat="43.77421" lon="1.58272">
        <ele>201.135399</ele>
        <time>2022-03-25T16:36:47.431Z</time>
      </trkpt>
      <trkpt lat="43.77426" lon="1.58284">
        <ele>200.313112</ele>
        <time>2022-03-25T16:36:49.435Z</time>
      </trkpt>
      <trkpt lat="43.77439" lon="1.58284">
        <ele>199.209843</ele>
        <time>2022-03-25T16:36:52.428Z</time>
      </trkpt>
      <trkpt lat="43.77453" lon="1.58275">
        <ele>198.036266</ele>
        <time>2022-03-25T16:36:54.436Z</time>
      </trkpt>
      <trkpt lat="43.77463" lon="1.58275">
        <ele>197.172636</ele>
        <time>2022-03-25T16:36:56.428Z</time>
      </trkpt>
      <trkpt lat="43.77473" lon="1.58284">
        <ele>196.25914</ele>
        <time>2022-03-25T16:36:58.435Z</time>
      </trkpt>
      <trkpt lat="43.77485" lon="1.58286">
        <ele>195.316777</ele>
        <time>2022-03-25T16:37:00.433Z</time>
      </trkpt>
      <trkpt lat="43.77496" lon="1.58286">
        <ele>194.421313</ele>
        <time>2022-03-25T16:37:02.429Z</time>
      </trkpt>
      <trkpt lat="43.77505" lon="1.58293">
        <ele>193.583543</ele>
        <time>2022-03-25T16:37:04.437Z</time>
      </trkpt>
      <trkpt lat="43.77515" lon="1.58303">
        <ele>192.620342</ele>
        <time>2022-03-25T16:37:06.434Z</time>
      </trkpt>
      <trkpt lat="43.77529" lon="1.58301">
        <ele>191.465072</ele>
        <time>2022-03-25T16:37:08.432Z</time>
      </trkpt>
      <trkpt lat="43.77538" lon="1.58297">
        <ele>190.690725</ele>
        <time>2022-03-25T16:37:09.429Z</time>
      </trkpt>
      <trkpt lat="43.77548" lon="1.58295">
        <ele>189.868456</ele>
        <time>2022-03-25T16:37:10.440Z</time>
      </trkpt>
      <trkpt lat="43.77559" lon="1.58296">
        <ele>189.026263</ele>
        <time>2022-03-25T16:37:11.430Z</time>
      </trkpt>
      <trkpt lat="43.77567" lon="1.58301">
        <ele>188.243729</ele>
        <time>2022-03-25T16:37:12.435Z</time>
      </trkpt>
      <trkpt lat="43.77576" lon="1.58318">
        <ele>186.662063</ele>
        <time>2022-03-25T16:37:14.430Z</time>
      </trkpt>
      <trkpt lat="43.77584" lon="1.58329">
        <ele>185.548499</ele>
        <time>2022-03-25T16:37:16.431Z</time>
      </trkpt>
      <trkpt lat="43.77595" lon="1.58326">
        <ele>184.302425</ele>
        <time>2022-03-25T16:37:18.438Z</time>
      </trkpt>
      <trkpt lat="43.77607" lon="1.58323">
        <ele>183.09251</ele>
        <time>2022-03-25T16:37:20.427Z</time>
      </trkpt>
      <trkpt lat="43.77617" lon="1.58318">
        <ele>181.998966</ele>
        <time>2022-03-25T16:37:22.430Z</time>
      </trkpt>
      <trkpt lat="43.77629" lon="1.58311">
        <ele>180.59494</ele>
        <time>2022-03-25T16:37:24.440Z</time>
      </trkpt>
      <trkpt lat="43.77642" lon="1.58303">
        <ele>179.073415</ele>
        <time>2022-03-25T16:37:26.430Z</time>
      </trkpt>
      <trkpt lat="43.77653" lon="1.58292">
        <ele>177.669662</ele>
        <time>2022-03-25T16:37:28.441Z</time>
      </trkpt>
      <trkpt lat="43.7766" lon="1.58279">
        <ele>176.42475</ele>
        <time>2022-03-25T16:37:30.434Z</time>
      </trkpt>
      <trkpt lat="43.77663" lon="1.58266">
        <ele>175.382365</ele>
        <time>2022-03-25T16:37:32.431Z</time>
      </trkpt>
      <trkpt lat="43.77673" lon="1.58258">
        <ele>174.160192</ele>
        <time>2022-03-25T16:37:34.448Z</time>
      </trkpt>
      <trkpt lat="43.77685" lon="1.5825">
        <ele>172.818416</ele>
        <time>2022-03-25T16:37:36.440Z</time>
      </trkpt>
      <trkpt lat="43.77695" lon="1.58238">
        <ele>171.442635</ele>
        <time>2022-03-25T16:37:38.432Z</time>
      </trkpt>
      <trkpt lat="43.77702" lon="1.58225">
        <ele>170.202764</ele>
        <time>2022-03-25T16:37:40.455Z</time>
      </trkpt>
      <trkpt lat="43.77709" lon="1.58212">
        <ele>169.328617</ele>
        <time>2022-03-25T16:37:42.422Z</time>
      </trkpt>
      <trkpt lat="43.77714" lon="1.58197">
        <ele>168.902002</ele>
        <time>2022-03-25T16:37:44.430Z</time>
      </trkpt>
      <trkpt lat="43.77718" lon="1.58183">
        <ele>168.478714</ele>
        <time>2022-03-25T16:37:46.463Z</time>
      </trkpt>
      <trkpt lat="43.77727" lon="1.58173">
        <ele>168.052528</ele>
        <time>2022-03-25T16:37:48.425Z</time>
      </trkpt>
      <trkpt lat="43.77738" lon="1.58171">
        <ele>167.62908</ele>
        <time>2022-03-25T16:37:50.442Z</time>
      </trkpt>
      <trkpt lat="43.7775" lon="1.58176">
        <ele>167.162405</ele>
        <time>2022-03-25T16:37:52.439Z</time>
      </trkpt>
      <trkpt lat="43.77762" lon="1.5818">
        <ele>166.716607</ele>
        <time>2022-03-25T16:37:54.421Z</time>
      </trkpt>
      <trkpt lat="43.77774" lon="1.58181">
        <ele>166.26742</ele>
        <time>2022-03-25T16:37:56.432Z</time>
      </trkpt>
      <trkpt lat="43.77787" lon="1.58181">
        <ele>165.792422</ele>
        <time>2022-03-25T16:37:58.423Z</time>
      </trkpt>
      <trkpt lat="43.77797" lon="1.58175">
        <ele>165.376591</ele>
        <time>2022-03-25T16:38:00.427Z</time>
      </trkpt>
      <trkpt lat="43.77803" lon="1.58161">
        <ele>164.948158</ele>
        <time>2022-03-25T16:38:02.426Z</time>
      </trkpt>
      <trkpt lat="43.77807" lon="1.58149">
        <ele>164.582323</ele>
        <time>2022-03-25T16:38:06.436Z</time>
      </trkpt>
      <trkpt lat="43.77816" lon="1.58142">
        <ele>164.212479</ele>
        <time>2022-03-25T16:38:10.433Z</time>
      </trkpt>
      <trkpt lat="43.77826" lon="1.58134">
        <ele>163.760856</ele>
        <time>2022-03-25T16:38:13.429Z</time>
      </trkpt>
      <trkpt lat="43.77836" lon="1.58129">
        <ele>163.351769</ele>
        <time>2022-03-25T16:38:17.431Z</time>
      </trkpt>
      <trkpt lat="43.77841" lon="1.58114">
        <ele>162.925161</ele>
        <time>2022-03-25T16:38:21.435Z</time>
      </trkpt>
      <trkpt lat="43.77838" lon="1.58099">
        <ele>162.924632</ele>
        <time>2022-03-25T16:38:26.441Z</time>
      </trkpt>
      <trkpt lat="43.77832" lon="1.58087">
        <ele>163.057506</ele>
        <time>2022-03-25T16:38:29.427Z</time>
      </trkpt>
      <trkpt lat="43.7783" lon="1.58075">
        <ele>163.177778</ele>
        <time>2022-03-25T16:38:32.429Z</time>
      </trkpt>
      <trkpt lat="43.77837" lon="1.58086">
        <ele>163.31144</ele>
        <time>2022-03-25T16:38:44.432Z</time>
      </trkpt>
      <trkpt lat="43.77845" lon="1.58092">
        <ele>163.440697</ele>
        <time>2022-03-25T16:38:48.437Z</time>
      </trkpt>
      <trkpt lat="43.77851" lon="1.58081">
        <ele>163.56572</ele>
        <time>2022-03-25T16:38:53.427Z</time>
      </trkpt>
      <trkpt lat="43.77857" lon="1.58067">
        <ele>163.722612</ele>
        <time>2022-03-25T16:38:57.427Z</time>
      </trkpt>
      <trkpt lat="43.77863" lon="1.58055">
        <ele>163.864115</ele>
        <time>2022-03-25T16:39:01.432Z</time>
      </trkpt>
      <trkpt lat="43.7787" lon="1.5804">
        <ele>164.034615</ele>
        <time>2022-03-25T16:39:05.434Z</time>
      </trkpt>
      <trkpt lat="43.77876" lon="1.58024">
        <ele>164.210597</ele>
        <time>2022-03-25T16:39:08.433Z</time>
      </trkpt>
      <trkpt lat="43.77887" lon="1.58017">
        <ele>164.372205</ele>
        <time>2022-03-25T16:39:11.435Z</time>
      </trkpt>
      <trkpt lat="43.77895" lon="1.58013">
        <ele>164.493319</ele>
        <time>2022-03-25T16:39:14.423Z</time>
      </trkpt>
      <trkpt lat="43.77905" lon="1.58002">
        <ele>164.655105</ele>
        <time>2022-03-25T16:39:18.430Z</time>
      </trkpt>
      <trkpt lat="43.77913" lon="1.57999">
        <ele>164.776022</ele>
        <time>2022-03-25T16:39:21.420Z</time>
      </trkpt>
      <trkpt lat="43.77923" lon="1.57986">
        <ele>164.949592</ele>
        <time>2022-03-25T16:39:24.422Z</time>
      </trkpt>
      <trkpt lat="43.77918" lon="1.57972">
        <ele>165.099844</ele>
        <time>2022-03-25T16:39:27.429Z</time>
      </trkpt>
      <trkpt lat="43.77911" lon="1.57963">
        <ele>165.387764</ele>
        <time>2022-03-25T16:39:29.433Z</time>
      </trkpt>
      <trkpt lat="43.77902" lon="1.57949">
        <ele>167.232785</ele>
        <time>2022-03-25T16:39:32.430Z</time>
      </trkpt>
      <trkpt lat="43.77895" lon="1.57937">
        <ele>168.802543</ele>
        <time>2022-03-25T16:39:35.432Z</time>
      </trkpt>
      <trkpt lat="43.77889" lon="1.57927">
        <ele>170.202483</ele>
        <time>2022-03-25T16:39:38.438Z</time>
      </trkpt>
      <trkpt lat="43.77882" lon="1.57916">
        <ele>171.543933</ele>
        <time>2022-03-25T16:39:41.429Z</time>
      </trkpt>
      <trkpt lat="43.77872" lon="1.57898">
        <ele>173.809783</ele>
        <time>2022-03-25T16:39:46.439Z</time>
      </trkpt>
      <trkpt lat="43.77866" lon="1.57885">
        <ele>175.417233</ele>
        <time>2022-03-25T16:39:48.425Z</time>
      </trkpt>
      <trkpt lat="43.7786" lon="1.57874">
        <ele>176.805425</ele>
        <time>2022-03-25T16:39:52.422Z</time>
      </trkpt>
      <trkpt lat="43.77854" lon="1.57861">
        <ele>178.348578</ele>
        <time>2022-03-25T16:39:57.427Z</time>
      </trkpt>
      <trkpt lat="43.77859" lon="1.57846">
        <ele>179.934188</ele>
        <time>2022-03-25T16:40:01.415Z</time>
      </trkpt>
      <trkpt lat="43.77863" lon="1.57834">
        <ele>181.240524</ele>
        <time>2022-03-25T16:40:04.432Z</time>
      </trkpt>
      <trkpt lat="43.77858" lon="1.57822">
        <ele>182.65148</ele>
        <time>2022-03-25T16:40:08.414Z</time>
      </trkpt>
      <trkpt lat="43.77855" lon="1.5781">
        <ele>183.92744</ele>
        <time>2022-03-25T16:40:12.429Z</time>
      </trkpt>
      <trkpt lat="43.77856" lon="1.57794">
        <ele>185.505346</ele>
        <time>2022-03-25T16:40:15.439Z</time>
      </trkpt>
      <trkpt lat="43.77856" lon="1.57781">
        <ele>186.808018</ele>
        <time>2022-03-25T16:40:18.431Z</time>
      </trkpt>
      <trkpt lat="43.77851" lon="1.57769">
        <ele>188.202073</ele>
        <time>2022-03-25T16:40:21.428Z</time>
      </trkpt>
      <trkpt lat="43.77845" lon="1.57757">
        <ele>189.630936</ele>
        <time>2022-03-25T16:40:25.440Z</time>
      </trkpt>
      <trkpt lat="43.7785" lon="1.57744">
        <ele>189.84963</ele>
        <time>2022-03-25T16:40:28.424Z</time>
      </trkpt>
      <trkpt lat="43.7786" lon="1.57733">
        <ele>189.322534</ele>
        <time>2022-03-25T16:40:31.428Z</time>
      </trkpt>
      <trkpt lat="43.77868" lon="1.5773">
        <ele>188.936346</ele>
        <time>2022-03-25T16:40:33.416Z</time>
      </trkpt>
      <trkpt lat="43.77877" lon="1.57723">
        <ele>188.52106</ele>
        <time>2022-03-25T16:40:35.426Z</time>
      </trkpt>
      <trkpt lat="43.77884" lon="1.57708">
        <ele>187.96145</ele>
        <time>2022-03-25T16:40:37.437Z</time>
      </trkpt>
      <trkpt lat="43.77896" lon="1.57697">
        <ele>187.395619</ele>
        <time>2022-03-25T16:40:39.448Z</time>
      </trkpt>
      <trkpt lat="43.77908" lon="1.57691">
        <ele>186.831502</ele>
        <time>2022-03-25T16:40:41.423Z</time>
      </trkpt>
      <trkpt lat="43.77924" lon="1.57682">
        <ele>186.117011</ele>
        <time>2022-03-25T16:40:43.429Z</time>
      </trkpt>
      <trkpt lat="43.77937" lon="1.57672">
        <ele>185.495488</ele>
        <time>2022-03-25T16:40:45.430Z</time>
      </trkpt>
      <trkpt lat="43.77947" lon="1.57661">
        <ele>184.968395</ele>
        <time>2022-03-25T16:40:47.455Z</time>
      </trkpt>
      <trkpt lat="43.77957" lon="1.57651">
        <ele>184.440675</ele>
        <time>2022-03-25T16:40:49.427Z</time>
      </trkpt>
      <trkpt lat="43.77968" lon="1.57643">
        <ele>183.898625</ele>
        <time>2022-03-25T16:40:51.434Z</time>
      </trkpt>
      <trkpt lat="43.77978" lon="1.57641">
        <ele>183.466588</ele>
        <time>2022-03-25T16:40:55.438Z</time>
      </trkpt>
      <trkpt lat="43.77987" lon="1.57643">
        <ele>183.079705</ele>
        <time>2022-03-25T16:40:57.429Z</time>
      </trkpt>
      <trkpt lat="43.77998" lon="1.57648">
        <ele>182.607427</ele>
        <time>2022-03-25T16:40:59.442Z</time>
      </trkpt>
      <trkpt lat="43.78013" lon="1.57655">
        <ele>181.211934</ele>
        <time>2022-03-25T16:41:01.432Z</time>
      </trkpt>
      <trkpt lat="43.78028" lon="1.57663">
        <ele>179.675636</ele>
        <time>2022-03-25T16:41:03.437Z</time>
      </trkpt>
      <trkpt lat="43.78037" lon="1.57668">
        <ele>178.799994</ele>
        <time>2022-03-25T16:41:05.437Z</time>
      </trkpt>
      <trkpt lat="43.78046" lon="1.57675">
        <ele>177.889242</ele>
        <time>2022-03-25T16:41:07.429Z</time>
      </trkpt>
      <trkpt lat="43.7805" lon="1.57689">
        <ele>176.884474</ele>
        <time>2022-03-25T16:41:09.429Z</time>
      </trkpt>
      <trkpt lat="43.78057" lon="1.57699">
        <ele>175.937178</ele>
        <time>2022-03-25T16:41:12.438Z</time>
      </trkpt>
      <trkpt lat="43.78061" lon="1.57687">
        <ele>175.031942</ele>
        <time>2022-03-25T16:41:19.421Z</time>
      </trkpt>
      <trkpt lat="43.78063" lon="1.57672">
        <ele>174.024306</ele>
        <time>2022-03-25T16:41:24.423Z</time>
      </trkpt>
      <trkpt lat="43.7807" lon="1.57657">
        <ele>172.88741</ele>
        <time>2022-03-25T16:41:28.428Z</time>
      </trkpt>
      <trkpt lat="43.78076" lon="1.57642">
        <ele>171.706798</ele>
        <time>2022-03-25T16:41:31.426Z</time>
      </trkpt>
      <trkpt lat="43.78081" lon="1.57631">
        <ele>170.867291</ele>
        <time>2022-03-25T16:41:33.429Z</time>
      </trkpt>
      <trkpt lat="43.78088" lon="1.57621">
        <ele>169.948252</ele>
        <time>2022-03-25T16:41:35.430Z</time>
      </trkpt>
      <trkpt lat="43.78093" lon="1.57609">
        <ele>169.050491</ele>
        <time>2022-03-25T16:41:37.431Z</time>
      </trkpt>
      <trkpt lat="43.78095" lon="1.57596">
        <ele>168.156418</ele>
        <time>2022-03-25T16:41:39.439Z</time>
      </trkpt>
      <trkpt lat="43.78101" lon="1.57583">
        <ele>167.113734</ele>
        <time>2022-03-25T16:41:41.428Z</time>
      </trkpt>
      <trkpt lat="43.78107" lon="1.57569">
        <ele>166.041867</ele>
        <time>2022-03-25T16:41:43.433Z</time>
      </trkpt>
      <trkpt lat="43.78111" lon="1.57555">
        <ele>165.834396</ele>
        <time>2022-03-25T16:41:45.430Z</time>
      </trkpt>
      <trkpt lat="43.78111" lon="1.5754">
        <ele>165.623975</ele>
        <time>2022-03-25T16:41:47.440Z</time>
      </trkpt>
      <trkpt lat="43.78109" lon="1.57526">
        <ele>165.429326</ele>
        <time>2022-03-25T16:41:49.439Z</time>
      </trkpt>
      <trkpt lat="43.78108" lon="1.57511">
        <ele>165.223573</ele>
        <time>2022-03-25T16:41:52.426Z</time>
      </trkpt>
      <trkpt lat="43.78105" lon="1.57499">
        <ele>165.048431</ele>
        <time>2022-03-25T16:41:54.420Z</time>
      </trkpt>
      <trkpt lat="43.78098" lon="1.57488">
        <ele>164.849216</ele>
        <time>2022-03-25T16:41:56.417Z</time>
      </trkpt>
      <trkpt lat="43.7809" lon="1.5748">
        <ele>164.661767</ele>
        <time>2022-03-25T16:41:58.419Z</time>
      </trkpt>
      <trkpt lat="43.78079" lon="1.57477">
        <ele>164.45293</ele>
        <time>2022-03-25T16:42:00.426Z</time>
      </trkpt>
      <trkpt lat="43.78068" lon="1.57475">
        <ele>164.227392</ele>
        <time>2022-03-25T16:42:02.439Z</time>
      </trkpt>
      <trkpt lat="43.78057" lon="1.5747">
        <ele>164.010137</ele>
        <time>2022-03-25T16:42:04.432Z</time>
      </trkpt>
      <trkpt lat="43.78046" lon="1.57468">
        <ele>163.803509</ele>
        <time>2022-03-25T16:42:06.432Z</time>
      </trkpt>
      <trkpt lat="43.78035" lon="1.57467">
        <ele>163.590677</ele>
        <time>2022-03-25T16:42:08.443Z</time>
      </trkpt>
      <trkpt lat="43.78024" lon="1.57466">
        <ele>163.36997</ele>
        <time>2022-03-25T16:42:10.431Z</time>
      </trkpt>
      <trkpt lat="43.78013" lon="1.57467">
        <ele>163.168774</ele>
        <time>2022-03-25T16:42:12.440Z</time>
      </trkpt>
      <trkpt lat="43.78004" lon="1.57462">
        <ele>162.970528</ele>
        <time>2022-03-25T16:42:14.426Z</time>
      </trkpt>
      <trkpt lat="43.77995" lon="1.57457">
        <ele>162.794922</ele>
        <time>2022-03-25T16:42:16.415Z</time>
      </trkpt>
      <trkpt lat="43.77985" lon="1.5746">
        <ele>162.607289</ele>
        <time>2022-03-25T16:42:18.421Z</time>
      </trkpt>
      <trkpt lat="43.77973" lon="1.5746">
        <ele>163.869321</ele>
        <time>2022-03-25T16:42:20.440Z</time>
      </trkpt>
      <trkpt lat="43.77963" lon="1.57456">
        <ele>165.034344</ele>
        <time>2022-03-25T16:42:22.432Z</time>
      </trkpt>
      <trkpt lat="43.77953" lon="1.57453">
        <ele>166.177786</ele>
        <time>2022-03-25T16:42:24.433Z</time>
      </trkpt>
      <trkpt lat="43.77944" lon="1.57446">
        <ele>167.329838</ele>
        <time>2022-03-25T16:42:26.429Z</time>
      </trkpt>
      <trkpt lat="43.77937" lon="1.57436">
        <ele>168.463894</ele>
        <time>2022-03-25T16:42:28.423Z</time>
      </trkpt>
      <trkpt lat="43.77926" lon="1.57427">
        <ele>169.899206</ele>
        <time>2022-03-25T16:42:31.427Z</time>
      </trkpt>
      <trkpt lat="43.77915" lon="1.5742">
        <ele>171.172918</ele>
        <time>2022-03-25T16:42:34.444Z</time>
      </trkpt>
      <trkpt lat="43.77905" lon="1.57412">
        <ele>172.490101</ele>
        <time>2022-03-25T16:42:37.425Z</time>
      </trkpt>
      <trkpt lat="43.77892" lon="1.57416">
        <ele>173.981499</ele>
        <time>2022-03-25T16:42:40.430Z</time>
      </trkpt>
      <trkpt lat="43.77879" lon="1.57415">
        <ele>175.355848</ele>
        <time>2022-03-25T16:42:43.428Z</time>
      </trkpt>
      <trkpt lat="43.7787" lon="1.57408">
        <ele>176.576658</ele>
        <time>2022-03-25T16:42:46.420Z</time>
      </trkpt>
      <trkpt lat="43.77858" lon="1.57406">
        <ele>177.824747</ele>
        <time>2022-03-25T16:42:49.435Z</time>
      </trkpt>
      <trkpt lat="43.77848" lon="1.57412">
        <ele>179.099412</ele>
        <time>2022-03-25T16:42:52.432Z</time>
      </trkpt>
      <trkpt lat="43.77835" lon="1.57415">
        <ele>180.543741</ele>
        <time>2022-03-25T16:42:55.425Z</time>
      </trkpt>
      <trkpt lat="43.77826" lon="1.57411">
        <ele>181.596916</ele>
        <time>2022-03-25T16:42:57.441Z</time>
      </trkpt>
      <trkpt lat="43.77813" lon="1.57404">
        <ele>182.842828</ele>
        <time>2022-03-25T16:43:00.432Z</time>
      </trkpt>
      <trkpt lat="43.77806" lon="1.57396">
        <ele>183.38315</ele>
        <time>2022-03-25T16:43:02.433Z</time>
      </trkpt>
      <trkpt lat="43.77801" lon="1.57386">
        <ele>183.919993</ele>
        <time>2022-03-25T16:43:04.427Z</time>
      </trkpt>
      <trkpt lat="43.77792" lon="1.57374">
        <ele>184.617767</ele>
        <time>2022-03-25T16:43:07.422Z</time>
      </trkpt>
      <trkpt lat="43.77785" lon="1.57362">
        <ele>185.290301</ele>
        <time>2022-03-25T16:43:11.425Z</time>
      </trkpt>
      <trkpt lat="43.77778" lon="1.57348">
        <ele>186.008471</ele>
        <time>2022-03-25T16:43:14.430Z</time>
      </trkpt>
      <trkpt lat="43.77774" lon="1.57336">
        <ele>186.561081</ele>
        <time>2022-03-25T16:43:16.433Z</time>
      </trkpt>
      <trkpt lat="43.77769" lon="1.57324">
        <ele>187.143577</ele>
        <time>2022-03-25T16:43:18.430Z</time>
      </trkpt>
      <trkpt lat="43.77758" lon="1.57317">
        <ele>187.847884</ele>
        <time>2022-03-25T16:43:20.428Z</time>
      </trkpt>
      <trkpt lat="43.77747" lon="1.57316">
        <ele>188.508123</ele>
        <time>2022-03-25T16:43:22.457Z</time>
      </trkpt>
      <trkpt lat="43.77736" lon="1.57312">
        <ele>189.178065</ele>
        <time>2022-03-25T16:43:24.428Z</time>
      </trkpt>
      <trkpt lat="43.77726" lon="1.57306">
        <ele>189.812685</ele>
        <time>2022-03-25T16:43:26.429Z</time>
      </trkpt>
      <trkpt lat="43.77717" lon="1.57296">
        <ele>190.458844</ele>
        <time>2022-03-25T16:43:28.429Z</time>
      </trkpt>
      <trkpt lat="43.77709" lon="1.57289">
        <ele>191.031448</ele>
        <time>2022-03-25T16:43:30.430Z</time>
      </trkpt>
      <trkpt lat="43.77701" lon="1.57279">
        <ele>191.656723</ele>
        <time>2022-03-25T16:43:32.428Z</time>
      </trkpt>
      <trkpt lat="43.77692" lon="1.57268">
        <ele>192.369396</ele>
        <time>2022-03-25T16:43:34.434Z</time>
      </trkpt>
      <trkpt lat="43.77682" lon="1.57258">
        <ele>193.077875</ele>
        <time>2022-03-25T16:43:36.433Z</time>
      </trkpt>
      <trkpt lat="43.77672" lon="1.57249">
        <ele>193.334845</ele>
        <time>2022-03-25T16:43:38.438Z</time>
      </trkpt>
      <trkpt lat="43.77664" lon="1.57239">
        <ele>193.555901</ele>
        <time>2022-03-25T16:43:40.426Z</time>
      </trkpt>
      <trkpt lat="43.77655" lon="1.57228">
        <ele>193.80937</ele>
        <time>2022-03-25T16:43:42.432Z</time>
      </trkpt>
      <trkpt lat="43.77644" lon="1.57225">
        <ele>194.044541</ele>
        <time>2022-03-25T16:43:44.428Z</time>
      </trkpt>
      <trkpt lat="43.77632" lon="1.57222">
        <ele>194.300586</ele>
        <time>2022-03-25T16:43:46.441Z</time>
      </trkpt>
      <trkpt lat="43.77623" lon="1.57213">
        <ele>194.549345</ele>
        <time>2022-03-25T16:43:48.430Z</time>
      </trkpt>
      <trkpt lat="43.77613" lon="1.57204">
        <ele>194.798977</ele>
        <time>2022-03-25T16:43:50.428Z</time>
      </trkpt>
      <trkpt lat="43.77604" lon="1.57197">
        <ele>195.016386</ele>
        <time>2022-03-25T16:43:52.426Z</time>
      </trkpt>
      <trkpt lat="43.77594" lon="1.57196">
        <ele>195.230313</ele>
        <time>2022-03-25T16:43:54.431Z</time>
      </trkpt>
      <trkpt lat="43.77589" lon="1.57185">
        <ele>195.423001</ele>
        <time>2022-03-25T16:43:56.431Z</time>
      </trkpt>
      <trkpt lat="43.77584" lon="1.57173">
        <ele>195.63871</ele>
        <time>2022-03-25T16:43:58.435Z</time>
      </trkpt>
      <trkpt lat="43.77574" lon="1.57169">
        <ele>195.866268</ele>
        <time>2022-03-25T16:44:00.425Z</time>
      </trkpt>
      <trkpt lat="43.77565" lon="1.57159">
        <ele>196.101466</ele>
        <time>2022-03-25T16:44:02.442Z</time>
      </trkpt>
      <trkpt lat="43.77557" lon="1.57152">
        <ele>196.305199</ele>
        <time>2022-03-25T16:44:04.442Z</time>
      </trkpt>
      <trkpt lat="43.77547" lon="1.57144">
        <ele>196.558197</ele>
        <time>2022-03-25T16:44:06.426Z</time>
      </trkpt>
      <trkpt lat="43.77535" lon="1.57137">
        <ele>196.82687</ele>
        <time>2022-03-25T16:44:08.428Z</time>
      </trkpt>
      <trkpt lat="43.77524" lon="1.57128">
        <ele>197.114142</ele>
        <time>2022-03-25T16:44:10.435Z</time>
      </trkpt>
      <trkpt lat="43.77516" lon="1.57118">
        <ele>197.381897</ele>
        <time>2022-03-25T16:44:12.422Z</time>
      </trkpt>
      <trkpt lat="43.77507" lon="1.57109">
        <ele>197.654907</ele>
        <time>2022-03-25T16:44:14.434Z</time>
      </trkpt>
      <trkpt lat="43.77497" lon="1.571">
        <ele>197.940616</ele>
        <time>2022-03-25T16:44:16.452Z</time>
      </trkpt>
      <trkpt lat="43.77486" lon="1.57092">
        <ele>198.22044</ele>
        <time>2022-03-25T16:44:18.433Z</time>
      </trkpt>
      <trkpt lat="43.77477" lon="1.57086">
        <ele>198.472973</ele>
        <time>2022-03-25T16:44:20.434Z</time>
      </trkpt>
      <trkpt lat="43.77468" lon="1.57079">
        <ele>198.71715</ele>
        <time>2022-03-25T16:44:22.430Z</time>
      </trkpt>
      <trkpt lat="43.77459" lon="1.57075">
        <ele>198.943721</ele>
        <time>2022-03-25T16:44:24.423Z</time>
      </trkpt>
      <trkpt lat="43.77449" lon="1.57071">
        <ele>199.204984</ele>
        <time>2022-03-25T16:44:27.430Z</time>
      </trkpt>
      <trkpt lat="43.7744" lon="1.5706">
        <ele>199.480383</ele>
        <time>2022-03-25T16:44:31.426Z</time>
      </trkpt>
      <trkpt lat="43.77433" lon="1.57051">
        <ele>199.721211</ele>
        <time>2022-03-25T16:44:35.445Z</time>
      </trkpt>
      <trkpt lat="43.77421" lon="1.57039">
        <ele>200.076148</ele>
        <time>2022-03-25T16:46:58.431Z</time>
      </trkpt>
      <trkpt lat="43.77411" lon="1.57029">
        <ele>200.375347</ele>
        <time>2022-03-25T16:47:01.432Z</time>
      </trkpt>
      <trkpt lat="43.774" lon="1.5702">
        <ele>200.679055</ele>
        <time>2022-03-25T16:47:04.430Z</time>
      </trkpt>
      <trkpt lat="43.77386" lon="1.57015">
        <ele>201.008147</ele>
        <time>2022-03-25T16:47:07.425Z</time>
      </trkpt>
      <trkpt lat="43.77377" lon="1.57012">
        <ele>201.222735</ele>
        <time>2022-03-25T16:47:09.432Z</time>
      </trkpt>
      <trkpt lat="43.77366" lon="1.57006">
        <ele>201.385027</ele>
        <time>2022-03-25T16:47:12.430Z</time>
      </trkpt>
      <trkpt lat="43.77358" lon="1.57">
        <ele>201.511878</ele>
        <time>2022-03-25T16:47:15.432Z</time>
      </trkpt>
      <trkpt lat="43.77349" lon="1.56993">
        <ele>201.656298</ele>
        <time>2022-03-25T16:47:18.432Z</time>
      </trkpt>
      <trkpt lat="43.7734" lon="1.56986">
        <ele>201.805771</ele>
        <time>2022-03-25T16:47:20.433Z</time>
      </trkpt>
      <trkpt lat="43.77329" lon="1.56978">
        <ele>201.967046</ele>
        <time>2022-03-25T16:47:22.440Z</time>
      </trkpt>
      <trkpt lat="43.77318" lon="1.56971">
        <ele>202.131522</ele>
        <time>2022-03-25T16:47:24.423Z</time>
      </trkpt>
      <trkpt lat="43.77308" lon="1.56965">
        <ele>202.284749</ele>
        <time>2022-03-25T16:47:26.425Z</time>
      </trkpt>
      <trkpt lat="43.77298" lon="1.56956">
        <ele>202.44566</ele>
        <time>2022-03-25T16:47:28.432Z</time>
      </trkpt>
      <trkpt lat="43.77289" lon="1.56948">
        <ele>202.595245</ele>
        <time>2022-03-25T16:47:30.431Z</time>
      </trkpt>
      <trkpt lat="43.77281" lon="1.56937">
        <ele>202.753302</ele>
        <time>2022-03-25T16:47:32.425Z</time>
      </trkpt>
      <trkpt lat="43.77273" lon="1.56925">
        <ele>202.914127</ele>
        <time>2022-03-25T16:47:34.433Z</time>
      </trkpt>
      <trkpt lat="43.77267" lon="1.56913">
        <ele>203.05912</ele>
        <time>2022-03-25T16:47:36.434Z</time>
      </trkpt>
      <trkpt lat="43.7726" lon="1.56902">
        <ele>203.206018</ele>
        <time>2022-03-25T16:47:38.434Z</time>
      </trkpt>
      <trkpt lat="43.77252" lon="1.56892">
        <ele>203.349567</ele>
        <time>2022-03-25T16:47:40.452Z</time>
      </trkpt>
      <trkpt lat="43.77244" lon="1.56882">
        <ele>203.50618</ele>
        <time>2022-03-25T16:47:42.433Z</time>
      </trkpt>
      <trkpt lat="43.77236" lon="1.56873">
        <ele>203.651817</ele>
        <time>2022-03-25T16:47:44.435Z</time>
      </trkpt>
      <trkpt lat="43.77228" lon="1.56861">
        <ele>203.944045</ele>
        <time>2022-03-25T16:47:46.438Z</time>
      </trkpt>
      <trkpt lat="43.77222" lon="1.5685">
        <ele>204.266839</ele>
        <time>2022-03-25T16:47:48.429Z</time>
      </trkpt>
      <trkpt lat="43.77215" lon="1.56836">
        <ele>204.624828</ele>
        <time>2022-03-25T16:47:50.438Z</time>
      </trkpt>
      <trkpt lat="43.77208" lon="1.56824">
        <ele>204.961666</ele>
        <time>2022-03-25T16:47:52.430Z</time>
      </trkpt>
      <trkpt lat="43.77202" lon="1.56809">
        <ele>205.319825</ele>
        <time>2022-03-25T16:47:54.428Z</time>
      </trkpt>
      <trkpt lat="43.77198" lon="1.56793">
        <ele>205.697339</ele>
        <time>2022-03-25T16:47:56.434Z</time>
      </trkpt>
      <trkpt lat="43.77193" lon="1.56778">
        <ele>206.069686</ele>
        <time>2022-03-25T16:47:58.438Z</time>
      </trkpt>
      <trkpt lat="43.77185" lon="1.56765">
        <ele>206.429727</ele>
        <time>2022-03-25T16:48:00.438Z</time>
      </trkpt>
      <trkpt lat="43.77174" lon="1.56754">
        <ele>206.832407</ele>
        <time>2022-03-25T16:48:02.437Z</time>
      </trkpt>
      <trkpt lat="43.77163" lon="1.56744">
        <ele>207.229933</ele>
        <time>2022-03-25T16:48:04.432Z</time>
      </trkpt>
      <trkpt lat="43.77153" lon="1.56731">
        <ele>207.641008</ele>
        <time>2022-03-25T16:48:06.429Z</time>
      </trkpt>
      <trkpt lat="43.77142" lon="1.56718">
        <ele>208.07108</ele>
        <time>2022-03-25T16:48:08.447Z</time>
      </trkpt>
      <trkpt lat="43.77132" lon="1.56705">
        <ele>208.486467</ele>
        <time>2022-03-25T16:48:10.435Z</time>
      </trkpt>
      <trkpt lat="43.77122" lon="1.56695">
        <ele>208.860391</ele>
        <time>2022-03-25T16:48:12.432Z</time>
      </trkpt>
      <trkpt lat="43.77111" lon="1.56686">
        <ele>208.976975</ele>
        <time>2022-03-25T16:48:14.443Z</time>
      </trkpt>
      <trkpt lat="43.77099" lon="1.56677">
        <ele>208.637449</ele>
        <time>2022-03-25T16:48:16.445Z</time>
      </trkpt>
      <trkpt lat="43.77088" lon="1.56667">
        <ele>208.320667</ele>
        <time>2022-03-25T16:48:18.441Z</time>
      </trkpt>
      <trkpt lat="43.77078" lon="1.56656">
        <ele>208.020245</ele>
        <time>2022-03-25T16:48:20.430Z</time>
      </trkpt>
      <trkpt lat="43.77071" lon="1.56645">
        <ele>207.753581</ele>
        <time>2022-03-25T16:48:22.451Z</time>
      </trkpt>
      <trkpt lat="43.77063" lon="1.56633">
        <ele>207.461202</ele>
        <time>2022-03-25T16:48:24.433Z</time>
      </trkpt>
      <trkpt lat="43.77053" lon="1.56621">
        <ele>207.136897</ele>
        <time>2022-03-25T16:48:26.429Z</time>
      </trkpt>
      <trkpt lat="43.7704" lon="1.56614">
        <ele>206.792161</ele>
        <time>2022-03-25T16:48:28.425Z</time>
      </trkpt>
      <trkpt lat="43.77025" lon="1.5661">
        <ele>206.420206</ele>
        <time>2022-03-25T16:48:30.434Z</time>
      </trkpt>
      <trkpt lat="43.77012" lon="1.56603">
        <ele>206.074409</ele>
        <time>2022-03-25T16:48:32.432Z</time>
      </trkpt>
      <trkpt lat="43.76997" lon="1.56594">
        <ele>205.676893</ele>
        <time>2022-03-25T16:48:34.439Z</time>
      </trkpt>
      <trkpt lat="43.7698" lon="1.56585">
        <ele>205.234642</ele>
        <time>2022-03-25T16:48:36.444Z</time>
      </trkpt>
      <trkpt lat="43.76971" lon="1.56582">
        <ele>204.99936</ele>
        <time>2022-03-25T16:48:37.433Z</time>
      </trkpt>
      <trkpt lat="43.76962" lon="1.56579">
        <ele>204.760082</ele>
        <time>2022-03-25T16:48:38.435Z</time>
      </trkpt>
      <trkpt lat="43.76952" lon="1.56577">
        <ele>204.427543</ele>
        <time>2022-03-25T16:48:39.427Z</time>
      </trkpt>
      <trkpt lat="43.76943" lon="1.56574">
        <ele>204.068099</ele>
        <time>2022-03-25T16:48:40.430Z</time>
      </trkpt>
      <trkpt lat="43.76927" lon="1.56567">
        <ele>203.392249</ele>
        <time>2022-03-25T16:48:42.436Z</time>
      </trkpt>
      <trkpt lat="43.76913" lon="1.56558">
        <ele>202.787814</ele>
        <time>2022-03-25T16:48:44.432Z</time>
      </trkpt>
      <trkpt lat="43.76901" lon="1.56547">
        <ele>202.21679</ele>
        <time>2022-03-25T16:48:46.439Z</time>
      </trkpt>
      <trkpt lat="43.7689" lon="1.56532">
        <ele>201.601219</ele>
        <time>2022-03-25T16:48:48.432Z</time>
      </trkpt>
      <trkpt lat="43.76878" lon="1.56522">
        <ele>201.046762</ele>
        <time>2022-03-25T16:48:50.444Z</time>
      </trkpt>
      <trkpt lat="43.7687" lon="1.56515">
        <ele>200.675417</ele>
        <time>2022-03-25T16:48:52.438Z</time>
      </trkpt>
      <trkpt lat="43.76862" lon="1.56506">
        <ele>200.297596</ele>
        <time>2022-03-25T16:48:54.441Z</time>
      </trkpt>
      <trkpt lat="43.76855" lon="1.56494">
        <ele>199.829884</ele>
        <time>2022-03-25T16:48:56.447Z</time>
      </trkpt>
      <trkpt lat="43.76847" lon="1.56484">
        <ele>199.414381</ele>
        <time>2022-03-25T16:48:58.448Z</time>
      </trkpt>
      <trkpt lat="43.76838" lon="1.56475">
        <ele>198.984245</ele>
        <time>2022-03-25T16:49:00.432Z</time>
      </trkpt>
      <trkpt lat="43.7683" lon="1.56466">
        <ele>198.576316</ele>
        <time>2022-03-25T16:49:02.426Z</time>
      </trkpt>
      <trkpt lat="43.76824" lon="1.56457">
        <ele>198.204836</ele>
        <time>2022-03-25T16:49:04.447Z</time>
      </trkpt>
      <trkpt lat="43.76816" lon="1.56449">
        <ele>197.847674</ele>
        <time>2022-03-25T16:49:06.435Z</time>
      </trkpt>
      <trkpt lat="43.76806" lon="1.56445">
        <ele>197.656246</ele>
        <time>2022-03-25T16:49:08.432Z</time>
      </trkpt>
      <trkpt lat="43.76795" lon="1.56442">
        <ele>197.840055</ele>
        <time>2022-03-25T16:49:10.443Z</time>
      </trkpt>
      <trkpt lat="43.76785" lon="1.56436">
        <ele>198.034054</ele>
        <time>2022-03-25T16:49:12.434Z</time>
      </trkpt>
      <trkpt lat="43.76774" lon="1.56432">
        <ele>198.215951</ele>
        <time>2022-03-25T16:49:14.434Z</time>
      </trkpt>
      <trkpt lat="43.76765" lon="1.56426">
        <ele>198.392699</ele>
        <time>2022-03-25T16:49:16.438Z</time>
      </trkpt>
      <trkpt lat="43.76756" lon="1.5642">
        <ele>198.564856</ele>
        <time>2022-03-25T16:49:18.429Z</time>
      </trkpt>
      <trkpt lat="43.76747" lon="1.56418">
        <ele>198.723479</ele>
        <time>2022-03-25T16:49:20.435Z</time>
      </trkpt>
      <trkpt lat="43.76733" lon="1.56415">
        <ele>198.952781</ele>
        <time>2022-03-25T16:49:23.435Z</time>
      </trkpt>
      <trkpt lat="43.76724" lon="1.56413">
        <ele>199.112601</ele>
        <time>2022-03-25T16:49:25.423Z</time>
      </trkpt>
      <trkpt lat="43.76715" lon="1.56412">
        <ele>199.268776</ele>
        <time>2022-03-25T16:49:27.429Z</time>
      </trkpt>
      <trkpt lat="43.76706" lon="1.56412">
        <ele>199.42754</ele>
        <time>2022-03-25T16:49:29.425Z</time>
      </trkpt>
      <trkpt lat="43.76696" lon="1.56414">
        <ele>199.601015</ele>
        <time>2022-03-25T16:49:31.438Z</time>
      </trkpt>
      <trkpt lat="43.76685" lon="1.5642">
        <ele>199.791065</ele>
        <time>2022-03-25T16:49:33.438Z</time>
      </trkpt>
      <trkpt lat="43.76674" lon="1.56424">
        <ele>199.99484</ele>
        <time>2022-03-25T16:49:35.438Z</time>
      </trkpt>
      <trkpt lat="43.76662" lon="1.56423">
        <ele>200.19764</ele>
        <time>2022-03-25T16:49:37.425Z</time>
      </trkpt>
      <trkpt lat="43.76651" lon="1.56416">
        <ele>200.402242</ele>
        <time>2022-03-25T16:49:39.428Z</time>
      </trkpt>
      <trkpt lat="43.76642" lon="1.56407">
        <ele>200.591902</ele>
        <time>2022-03-25T16:49:41.443Z</time>
      </trkpt>
      <trkpt lat="43.76633" lon="1.56399">
        <ele>200.786699</ele>
        <time>2022-03-25T16:49:43.430Z</time>
      </trkpt>
      <trkpt lat="43.76626" lon="1.5639">
        <ele>200.956269</ele>
        <time>2022-03-25T16:49:45.442Z</time>
      </trkpt>
      <trkpt lat="43.76618" lon="1.56381">
        <ele>201.139037</ele>
        <time>2022-03-25T16:49:48.447Z</time>
      </trkpt>
      <trkpt lat="43.7661" lon="1.56374">
        <ele>201.325204</ele>
        <time>2022-03-25T16:49:50.447Z</time>
      </trkpt>
      <trkpt lat="43.76598" lon="1.56364">
        <ele>201.573427</ele>
        <time>2022-03-25T16:49:52.437Z</time>
      </trkpt>
      <trkpt lat="43.76588" lon="1.56354">
        <ele>201.793846</ele>
        <time>2022-03-25T16:49:54.442Z</time>
      </trkpt>
      <trkpt lat="43.76578" lon="1.56347">
        <ele>202.002341</ele>
        <time>2022-03-25T16:49:56.438Z</time>
      </trkpt>
      <trkpt lat="43.76568" lon="1.56339">
        <ele>202.207088</ele>
        <time>2022-03-25T16:49:58.432Z</time>
      </trkpt>
      <trkpt lat="43.76557" lon="1.56332">
        <ele>202.434242</ele>
        <time>2022-03-25T16:50:00.432Z</time>
      </trkpt>
      <trkpt lat="43.76545" lon="1.56324">
        <ele>202.665818</ele>
        <time>2022-03-25T16:50:02.436Z</time>
      </trkpt>
      <trkpt lat="43.76534" lon="1.56316">
        <ele>202.895659</ele>
        <time>2022-03-25T16:50:04.444Z</time>
      </trkpt>
      <trkpt lat="43.76523" lon="1.56309">
        <ele>203.116765</ele>
        <time>2022-03-25T16:50:06.447Z</time>
      </trkpt>
      <trkpt lat="43.76512" lon="1.56301">
        <ele>203.332249</ele>
        <time>2022-03-25T16:50:08.435Z</time>
      </trkpt>
      <trkpt lat="43.76503" lon="1.56293">
        <ele>203.538019</ele>
        <time>2022-03-25T16:50:10.437Z</time>
      </trkpt>
      <trkpt lat="43.76493" lon="1.56284">
        <ele>203.742683</ele>
        <time>2022-03-25T16:50:12.437Z</time>
      </trkpt>
      <trkpt lat="43.76484" lon="1.56275">
        <ele>203.943036</ele>
        <time>2022-03-25T16:50:14.429Z</time>
      </trkpt>
      <trkpt lat="43.76474" lon="1.56267">
        <ele>204.137822</ele>
        <time>2022-03-25T16:50:16.426Z</time>
      </trkpt>
      <trkpt lat="43.76464" lon="1.5626">
        <ele>204.334931</ele>
        <time>2022-03-25T16:50:18.424Z</time>
      </trkpt>
      <trkpt lat="43.76453" lon="1.56251">
        <ele>204.535277</ele>
        <time>2022-03-25T16:50:20.432Z</time>
      </trkpt>
      <trkpt lat="43.76443" lon="1.56243">
        <ele>204.73357</ele>
        <time>2022-03-25T16:50:22.437Z</time>
      </trkpt>
      <trkpt lat="43.76433" lon="1.56236">
        <ele>204.924682</ele>
        <time>2022-03-25T16:50:24.435Z</time>
      </trkpt>
      <trkpt lat="43.76422" lon="1.5623">
        <ele>205.118391</ele>
        <time>2022-03-25T16:50:26.433Z</time>
      </trkpt>
      <trkpt lat="43.76411" lon="1.56225">
        <ele>205.314172</ele>
        <time>2022-03-25T16:50:28.435Z</time>
      </trkpt>
      <trkpt lat="43.76399" lon="1.5622">
        <ele>205.517776</ele>
        <time>2022-03-25T16:50:30.439Z</time>
      </trkpt>
      <trkpt lat="43.76387" lon="1.56216">
        <ele>205.724978</ele>
        <time>2022-03-25T16:50:32.433Z</time>
      </trkpt>
      <trkpt lat="43.76376" lon="1.56211">
        <ele>205.929869</ele>
        <time>2022-03-25T16:50:34.442Z</time>
      </trkpt>
      <trkpt lat="43.76364" lon="1.56206">
        <ele>206.13165</ele>
        <time>2022-03-25T16:50:36.434Z</time>
      </trkpt>
      <trkpt lat="43.76353" lon="1.56201">
        <ele>206.335029</ele>
        <time>2022-03-25T16:50:38.447Z</time>
      </trkpt>
      <trkpt lat="43.76341" lon="1.56196">
        <ele>206.537702</ele>
        <time>2022-03-25T16:50:40.438Z</time>
      </trkpt>
      <trkpt lat="43.7633" lon="1.56192">
        <ele>206.727433</ele>
        <time>2022-03-25T16:50:42.432Z</time>
      </trkpt>
      <trkpt lat="43.76319" lon="1.56188">
        <ele>206.920385</ele>
        <time>2022-03-25T16:50:44.430Z</time>
      </trkpt>
      <trkpt lat="43.76308" lon="1.56183">
        <ele>207.159526</ele>
        <time>2022-03-25T16:50:46.437Z</time>
      </trkpt>
      <trkpt lat="43.76297" lon="1.56178">
        <ele>207.404777</ele>
        <time>2022-03-25T16:50:48.438Z</time>
      </trkpt>
      <trkpt lat="43.76286" lon="1.56174">
        <ele>207.651932</ele>
        <time>2022-03-25T16:50:50.429Z</time>
      </trkpt>
      <trkpt lat="43.76274" lon="1.56169">
        <ele>207.900337</ele>
        <time>2022-03-25T16:50:52.450Z</time>
      </trkpt>
      <trkpt lat="43.76263" lon="1.56165">
        <ele>208.140987</ele>
        <time>2022-03-25T16:50:54.437Z</time>
      </trkpt>
      <trkpt lat="43.76252" lon="1.56161">
        <ele>208.388284</ele>
        <time>2022-03-25T16:50:56.426Z</time>
      </trkpt>
      <trkpt lat="43.76241" lon="1.56158">
        <ele>208.620879</ele>
        <time>2022-03-25T16:50:58.444Z</time>
      </trkpt>
      <trkpt lat="43.76231" lon="1.56154">
        <ele>208.843258</ele>
        <time>2022-03-25T16:51:00.437Z</time>
      </trkpt>
      <trkpt lat="43.76221" lon="1.56154">
        <ele>209.047839</ele>
        <time>2022-03-25T16:51:02.426Z</time>
      </trkpt>
      <trkpt lat="43.76218" lon="1.56171">
        <ele>209.321855</ele>
        <time>2022-03-25T16:51:05.440Z</time>
      </trkpt>
      <trkpt lat="43.7622" lon="1.56187">
        <ele>209.573746</ele>
        <time>2022-03-25T16:51:07.438Z</time>
      </trkpt>
      <trkpt lat="43.76221" lon="1.56204">
        <ele>209.829777</ele>
        <time>2022-03-25T16:51:09.426Z</time>
      </trkpt>
      <trkpt lat="43.76221" lon="1.56221">
        <ele>210.079897</ele>
        <time>2022-03-25T16:51:11.436Z</time>
      </trkpt>
      <trkpt lat="43.76222" lon="1.56237">
        <ele>210.325271</ele>
        <time>2022-03-25T16:51:13.444Z</time>
      </trkpt>
      <trkpt lat="43.76222" lon="1.56253">
        <ele>210.567785</ele>
        <time>2022-03-25T16:51:15.434Z</time>
      </trkpt>
      <trkpt lat="43.76223" lon="1.56269">
        <ele>210.784028</ele>
        <time>2022-03-25T16:51:17.437Z</time>
      </trkpt>
      <trkpt lat="43.76223" lon="1.56285">
        <ele>210.948438</ele>
        <time>2022-03-25T16:51:19.438Z</time>
      </trkpt>
      <trkpt lat="43.76223" lon="1.56301">
        <ele>211.110837</ele>
        <time>2022-03-25T16:51:21.445Z</time>
      </trkpt>
      <trkpt lat="43.76222" lon="1.56317">
        <ele>211.268074</ele>
        <time>2022-03-25T16:51:23.428Z</time>
      </trkpt>
      <trkpt lat="43.76213" lon="1.56323">
        <ele>211.411079</ele>
        <time>2022-03-25T16:51:25.434Z</time>
      </trkpt>
      <trkpt lat="43.762" lon="1.56319">
        <ele>211.594796</ele>
        <time>2022-03-25T16:51:27.431Z</time>
      </trkpt>
      <trkpt lat="43.76188" lon="1.56317">
        <ele>211.76122</ele>
        <time>2022-03-25T16:51:29.446Z</time>
      </trkpt>
      <trkpt lat="43.76177" lon="1.56315">
        <ele>211.925864</ele>
        <time>2022-03-25T16:51:31.432Z</time>
      </trkpt>
      <trkpt lat="43.76165" lon="1.56312">
        <ele>212.089821</ele>
        <time>2022-03-25T16:51:33.446Z</time>
      </trkpt>
      <trkpt lat="43.76153" lon="1.5631">
        <ele>212.253936</ele>
        <time>2022-03-25T16:51:35.445Z</time>
      </trkpt>
      <trkpt lat="43.76142" lon="1.56307">
        <ele>212.414979</ele>
        <time>2022-03-25T16:51:37.432Z</time>
      </trkpt>
      <trkpt lat="43.76131" lon="1.56305">
        <ele>212.574959</ele>
        <time>2022-03-25T16:51:39.439Z</time>
      </trkpt>
      <trkpt lat="43.76119" lon="1.563">
        <ele>212.738105</ele>
        <time>2022-03-25T16:51:41.430Z</time>
      </trkpt>
      <trkpt lat="43.76108" lon="1.56295">
        <ele>212.902494</ele>
        <time>2022-03-25T16:51:43.429Z</time>
      </trkpt>
      <trkpt lat="43.76098" lon="1.56288">
        <ele>213.063554</ele>
        <time>2022-03-25T16:51:45.450Z</time>
      </trkpt>
      <trkpt lat="43.76088" lon="1.5628">
        <ele>213.226781</ele>
        <time>2022-03-25T16:51:47.435Z</time>
      </trkpt>
      <trkpt lat="43.76078" lon="1.56271">
        <ele>213.367265</ele>
        <time>2022-03-25T16:51:49.430Z</time>
      </trkpt>
      <trkpt lat="43.76067" lon="1.56262">
        <ele>213.504351</ele>
        <time>2022-03-25T16:51:51.439Z</time>
      </trkpt>
      <trkpt lat="43.76058" lon="1.56254">
        <ele>213.634256</ele>
        <time>2022-03-25T16:51:53.441Z</time>
      </trkpt>
      <trkpt lat="43.76048" lon="1.56245">
        <ele>213.77047</ele>
        <time>2022-03-25T16:51:55.435Z</time>
      </trkpt>
      <trkpt lat="43.76038" lon="1.56236">
        <ele>213.906959</ele>
        <time>2022-03-25T16:51:57.422Z</time>
      </trkpt>
      <trkpt lat="43.76028" lon="1.56229">
        <ele>214.040692</ele>
        <time>2022-03-25T16:51:59.438Z</time>
      </trkpt>
      <trkpt lat="43.76018" lon="1.56223">
        <ele>214.165966</ele>
        <time>2022-03-25T16:52:01.426Z</time>
      </trkpt>
      <trkpt lat="43.76007" lon="1.56217">
        <ele>214.295944</ele>
        <time>2022-03-25T16:52:03.413Z</time>
      </trkpt>
      <trkpt lat="43.75996" lon="1.56213">
        <ele>214.431062</ele>
        <time>2022-03-25T16:52:05.433Z</time>
      </trkpt>
      <trkpt lat="43.75986" lon="1.56208">
        <ele>214.554574</ele>
        <time>2022-03-25T16:52:07.428Z</time>
      </trkpt>
      <trkpt lat="43.75975" lon="1.56204">
        <ele>214.68009</ele>
        <time>2022-03-25T16:52:09.412Z</time>
      </trkpt>
      <trkpt lat="43.75964" lon="1.56198">
        <ele>214.814873</ele>
        <time>2022-03-25T16:52:11.419Z</time>
      </trkpt>
      <trkpt lat="43.75954" lon="1.56194">
        <ele>214.936849</ele>
        <time>2022-03-25T16:52:13.419Z</time>
      </trkpt>
      <trkpt lat="43.75945" lon="1.5619">
        <ele>215.049527</ele>
        <time>2022-03-25T16:52:15.444Z</time>
      </trkpt>
      <trkpt lat="43.75935" lon="1.56188">
        <ele>215.167921</ele>
        <time>2022-03-25T16:52:17.433Z</time>
      </trkpt>
      <trkpt lat="43.75925" lon="1.56185">
        <ele>215.285842</ele>
        <time>2022-03-25T16:52:19.424Z</time>
      </trkpt>
      <trkpt lat="43.75914" lon="1.56181">
        <ele>215.719385</ele>
        <time>2022-03-25T16:52:21.443Z</time>
      </trkpt>
      <trkpt lat="43.75906" lon="1.56177">
        <ele>216.160937</ele>
        <time>2022-03-25T16:52:23.436Z</time>
      </trkpt>
      <trkpt lat="43.75896" lon="1.56173">
        <ele>216.643426</ele>
        <time>2022-03-25T16:52:25.448Z</time>
      </trkpt>
      <trkpt lat="43.75886" lon="1.5617">
        <ele>217.146102</ele>
        <time>2022-03-25T16:52:27.441Z</time>
      </trkpt>
      <trkpt lat="43.75876" lon="1.56167">
        <ele>217.637845</ele>
        <time>2022-03-25T16:52:29.432Z</time>
      </trkpt>
      <trkpt lat="43.75866" lon="1.56164">
        <ele>218.09469</ele>
        <time>2022-03-25T16:52:31.432Z</time>
      </trkpt>
      <trkpt lat="43.75857" lon="1.5616">
        <ele>218.554136</ele>
        <time>2022-03-25T16:52:33.439Z</time>
      </trkpt>
      <trkpt lat="43.75848" lon="1.56155">
        <ele>219.005041</ele>
        <time>2022-03-25T16:52:35.440Z</time>
      </trkpt>
      <trkpt lat="43.75839" lon="1.56149">
        <ele>219.485546</ele>
        <time>2022-03-25T16:52:37.445Z</time>
      </trkpt>
      <trkpt lat="43.75829" lon="1.56141">
        <ele>220.067142</ele>
        <time>2022-03-25T16:52:39.440Z</time>
      </trkpt>
      <trkpt lat="43.75818" lon="1.56133">
        <ele>220.628484</ele>
        <time>2022-03-25T16:52:41.429Z</time>
      </trkpt>
      <trkpt lat="43.75809" lon="1.56125">
        <ele>221.160882</ele>
        <time>2022-03-25T16:52:43.429Z</time>
      </trkpt>
      <trkpt lat="43.758" lon="1.56118">
        <ele>221.652233</ele>
        <time>2022-03-25T16:52:45.441Z</time>
      </trkpt>
      <trkpt lat="43.7579" lon="1.56113">
        <ele>222.121554</ele>
        <time>2022-03-25T16:52:47.434Z</time>
      </trkpt>
      <trkpt lat="43.75781" lon="1.56106">
        <ele>222.63721</ele>
        <time>2022-03-25T16:52:49.429Z</time>
      </trkpt>
      <trkpt lat="43.75771" lon="1.56098">
        <ele>223.165041</ele>
        <time>2022-03-25T16:52:51.442Z</time>
      </trkpt>
      <trkpt lat="43.75761" lon="1.5609">
        <ele>223.722651</ele>
        <time>2022-03-25T16:52:53.441Z</time>
      </trkpt>
      <trkpt lat="43.75751" lon="1.56082">
        <ele>224.20791</ele>
        <time>2022-03-25T16:52:55.442Z</time>
      </trkpt>
      <trkpt lat="43.75741" lon="1.56074">
        <ele>224.665267</ele>
        <time>2022-03-25T16:52:57.437Z</time>
      </trkpt>
      <trkpt lat="43.75732" lon="1.56067">
        <ele>225.10433</ele>
        <time>2022-03-25T16:52:59.432Z</time>
      </trkpt>
      <trkpt lat="43.75722" lon="1.5606">
        <ele>225.53931</ele>
        <time>2022-03-25T16:53:01.438Z</time>
      </trkpt>
      <trkpt lat="43.75713" lon="1.56053">
        <ele>225.977863</ele>
        <time>2022-03-25T16:53:03.434Z</time>
      </trkpt>
      <trkpt lat="43.75703" lon="1.56047">
        <ele>226.411229</ele>
        <time>2022-03-25T16:53:05.444Z</time>
      </trkpt>
      <trkpt lat="43.75693" lon="1.56041">
        <ele>226.838694</ele>
        <time>2022-03-25T16:53:07.433Z</time>
      </trkpt>
      <trkpt lat="43.75683" lon="1.56036">
        <ele>227.268122</ele>
        <time>2022-03-25T16:53:09.445Z</time>
      </trkpt>
      <trkpt lat="43.75672" lon="1.56033">
        <ele>227.713077</ele>
        <time>2022-03-25T16:53:11.429Z</time>
      </trkpt>
      <trkpt lat="43.75661" lon="1.56029">
        <ele>228.184227</ele>
        <time>2022-03-25T16:53:13.420Z</time>
      </trkpt>
      <trkpt lat="43.7565" lon="1.56025">
        <ele>228.64333</ele>
        <time>2022-03-25T16:53:15.429Z</time>
      </trkpt>
      <trkpt lat="43.75639" lon="1.56017">
        <ele>229.13642</ele>
        <time>2022-03-25T16:53:17.430Z</time>
      </trkpt>
      <trkpt lat="43.75628" lon="1.56009">
        <ele>229.631967</ele>
        <time>2022-03-25T16:53:19.452Z</time>
      </trkpt>
      <trkpt lat="43.75618" lon="1.55999">
        <ele>230.137981</ele>
        <time>2022-03-25T16:53:21.419Z</time>
      </trkpt>
      <trkpt lat="43.75608" lon="1.55989">
        <ele>230.617637</ele>
        <time>2022-03-25T16:53:23.431Z</time>
      </trkpt>
      <trkpt lat="43.75599" lon="1.55981">
        <ele>231.064432</ele>
        <time>2022-03-25T16:53:25.445Z</time>
      </trkpt>
      <trkpt lat="43.75588" lon="1.55975">
        <ele>231.204308</ele>
        <time>2022-03-25T16:53:27.439Z</time>
      </trkpt>
      <trkpt lat="43.75577" lon="1.55971">
        <ele>231.299817</ele>
        <time>2022-03-25T16:53:29.434Z</time>
      </trkpt>
      <trkpt lat="43.75568" lon="1.55966">
        <ele>231.381071</ele>
        <time>2022-03-25T16:53:31.427Z</time>
      </trkpt>
      <trkpt lat="43.75559" lon="1.55958">
        <ele>231.466021</ele>
        <time>2022-03-25T16:53:34.428Z</time>
      </trkpt>
      <trkpt lat="43.75551" lon="1.55951">
        <ele>231.551369</ele>
        <time>2022-03-25T16:53:39.441Z</time>
      </trkpt>
      <trkpt lat="43.75542" lon="1.55945">
        <ele>231.631518</ele>
        <time>2022-03-25T16:53:45.436Z</time>
      </trkpt>
      <trkpt lat="43.7553" lon="1.55938">
        <ele>231.744327</ele>
        <time>2022-03-25T16:54:11.452Z</time>
      </trkpt>
      <trkpt lat="43.75519" lon="1.5593">
        <ele>231.843409</ele>
        <time>2022-03-25T16:54:14.430Z</time>
      </trkpt>
      <trkpt lat="43.7551" lon="1.5592">
        <ele>231.940728</ele>
        <time>2022-03-25T16:54:16.440Z</time>
      </trkpt>
      <trkpt lat="43.75503" lon="1.55903">
        <ele>232.062325</ele>
        <time>2022-03-25T16:54:18.432Z</time>
      </trkpt>
      <trkpt lat="43.75499" lon="1.55885">
        <ele>232.174922</ele>
        <time>2022-03-25T16:54:20.430Z</time>
      </trkpt>
      <trkpt lat="43.75499" lon="1.55865">
        <ele>232.294327</ele>
        <time>2022-03-25T16:54:22.435Z</time>
      </trkpt>
      <trkpt lat="43.755" lon="1.55847">
        <ele>232.405539</ele>
        <time>2022-03-25T16:54:24.441Z</time>
      </trkpt>
      <trkpt lat="43.75502" lon="1.5583">
        <ele>232.50784</ele>
        <time>2022-03-25T16:54:26.451Z</time>
      </trkpt>
      <trkpt lat="43.75503" lon="1.55814">
        <ele>232.606212</ele>
        <time>2022-03-25T16:54:28.426Z</time>
      </trkpt>
      <trkpt lat="43.75507" lon="1.55798">
        <ele>232.691664</ele>
        <time>2022-03-25T16:54:30.434Z</time>
      </trkpt>
      <trkpt lat="43.75512" lon="1.55783">
        <ele>232.770934</ele>
        <time>2022-03-25T16:54:32.436Z</time>
      </trkpt>
      <trkpt lat="43.75519" lon="1.55771">
        <ele>232.846253</ele>
        <time>2022-03-25T16:54:34.434Z</time>
      </trkpt>
      <trkpt lat="43.75525" lon="1.55758">
        <ele>232.91912</ele>
        <time>2022-03-25T16:54:36.427Z</time>
      </trkpt>
      <trkpt lat="43.7553" lon="1.55745">
        <ele>232.990643</ele>
        <time>2022-03-25T16:54:38.414Z</time>
      </trkpt>
      <trkpt lat="43.75535" lon="1.55732">
        <ele>233.061787</ele>
        <time>2022-03-25T16:54:40.447Z</time>
      </trkpt>
      <trkpt lat="43.75539" lon="1.55718">
        <ele>233.133877</ele>
        <time>2022-03-25T16:54:42.416Z</time>
      </trkpt>
      <trkpt lat="43.75543" lon="1.55704">
        <ele>233.205014</ele>
        <time>2022-03-25T16:54:44.426Z</time>
      </trkpt>
      <trkpt lat="43.75547" lon="1.55692">
        <ele>233.268208</ele>
        <time>2022-03-25T16:54:46.426Z</time>
      </trkpt>
      <trkpt lat="43.75552" lon="1.55678">
        <ele>233.345281</ele>
        <time>2022-03-25T16:54:49.429Z</time>
      </trkpt>
      <trkpt lat="43.75549" lon="1.55643">
        <ele>233.516721</ele>
        <time>2022-03-25T16:55:55.450Z</time>
      </trkpt>
      <trkpt lat="43.75551" lon="1.5563">
        <ele>233.579285</ele>
        <time>2022-03-25T16:55:57.455Z</time>
      </trkpt>
      <trkpt lat="43.75556" lon="1.55617">
        <ele>233.650645</ele>
        <time>2022-03-25T16:55:59.442Z</time>
      </trkpt>
      <trkpt lat="43.75562" lon="1.55606">
        <ele>233.718959</ele>
        <time>2022-03-25T16:56:01.436Z</time>
      </trkpt>
      <trkpt lat="43.75571" lon="1.55599">
        <ele>233.786838</ele>
        <time>2022-03-25T16:56:03.436Z</time>
      </trkpt>
      <trkpt lat="43.75581" lon="1.55601">
        <ele>233.723417</ele>
        <time>2022-03-25T16:56:05.446Z</time>
      </trkpt>
      <trkpt lat="43.7559" lon="1.55603">
        <ele>233.473346</ele>
        <time>2022-03-25T16:56:07.424Z</time>
      </trkpt>
      <trkpt lat="43.75595" lon="1.5559">
        <ele>233.200809</ele>
        <time>2022-03-25T16:56:10.432Z</time>
      </trkpt>
      <trkpt lat="43.756" lon="1.55578">
        <ele>232.938218</ele>
        <time>2022-03-25T16:56:12.421Z</time>
      </trkpt>
      <trkpt lat="43.75608" lon="1.55565">
        <ele>232.609846</ele>
        <time>2022-03-25T16:56:14.432Z</time>
      </trkpt>
      <trkpt lat="43.75616" lon="1.55549">
        <ele>232.2322</ele>
        <time>2022-03-25T16:56:16.433Z</time>
      </trkpt>
      <trkpt lat="43.75625" lon="1.55532">
        <ele>231.834445</ele>
        <time>2022-03-25T16:56:18.446Z</time>
      </trkpt>
      <trkpt lat="43.75634" lon="1.55514">
        <ele>231.427446</ele>
        <time>2022-03-25T16:56:20.435Z</time>
      </trkpt>
      <trkpt lat="43.75643" lon="1.55497">
        <ele>231.029746</ele>
        <time>2022-03-25T16:56:22.437Z</time>
      </trkpt>
      <trkpt lat="43.75654" lon="1.55482">
        <ele>230.623309</ele>
        <time>2022-03-25T16:56:24.437Z</time>
      </trkpt>
      <trkpt lat="43.75668" lon="1.5547">
        <ele>230.185373</ele>
        <time>2022-03-25T16:56:26.429Z</time>
      </trkpt>
      <trkpt lat="43.75682" lon="1.55462">
        <ele>229.781298</ele>
        <time>2022-03-25T16:56:28.438Z</time>
      </trkpt>
      <trkpt lat="43.75692" lon="1.55455">
        <ele>229.485653</ele>
        <time>2022-03-25T16:56:30.435Z</time>
      </trkpt>
      <trkpt lat="43.75692" lon="1.55438">
        <ele>229.151005</ele>
        <time>2022-03-25T16:56:33.432Z</time>
      </trkpt>
      <trkpt lat="43.75686" lon="1.55425">
        <ele>228.524981</ele>
        <time>2022-03-25T16:56:35.441Z</time>
      </trkpt>
      <trkpt lat="43.75679" lon="1.55413">
        <ele>227.759064</ele>
        <time>2022-03-25T16:56:37.442Z</time>
      </trkpt>
      <trkpt lat="43.7567" lon="1.55403">
        <ele>226.996582</ele>
        <time>2022-03-25T16:56:39.444Z</time>
      </trkpt>
      <trkpt lat="43.75661" lon="1.55392">
        <ele>226.201241</ele>
        <time>2022-03-25T16:56:41.430Z</time>
      </trkpt>
      <trkpt lat="43.75652" lon="1.55379">
        <ele>225.297613</ele>
        <time>2022-03-25T16:56:43.435Z</time>
      </trkpt>
      <trkpt lat="43.75643" lon="1.55365">
        <ele>224.393048</ele>
        <time>2022-03-25T16:56:45.455Z</time>
      </trkpt>
      <trkpt lat="43.75634" lon="1.5535">
        <ele>223.463604</ele>
        <time>2022-03-25T16:56:47.449Z</time>
      </trkpt>
      <trkpt lat="43.75623" lon="1.55334">
        <ele>222.426553</ele>
        <time>2022-03-25T16:56:49.436Z</time>
      </trkpt>
      <trkpt lat="43.75615" lon="1.5532">
        <ele>221.538648</ele>
        <time>2022-03-25T16:56:51.438Z</time>
      </trkpt>
      <trkpt lat="43.75608" lon="1.5531">
        <ele>220.88908</ele>
        <time>2022-03-25T16:56:54.438Z</time>
      </trkpt>
      <trkpt lat="43.75601" lon="1.55297">
        <ele>220.104732</ele>
        <time>2022-03-25T16:56:58.453Z</time>
      </trkpt>
      <trkpt lat="43.75593" lon="1.55284">
        <ele>219.281996</ele>
        <time>2022-03-25T16:57:00.433Z</time>
      </trkpt>
      <trkpt lat="43.75584" lon="1.55267">
        <ele>218.219757</ele>
        <time>2022-03-25T16:57:02.432Z</time>
      </trkpt>
      <trkpt lat="43.75579" lon="1.55256">
        <ele>217.604002</ele>
        <time>2022-03-25T16:57:03.435Z</time>
      </trkpt>
      <trkpt lat="43.75573" lon="1.55245">
        <ele>216.926308</ele>
        <time>2022-03-25T16:57:04.434Z</time>
      </trkpt>
      <trkpt lat="43.75568" lon="1.55234">
        <ele>216.185079</ele>
        <time>2022-03-25T16:57:05.444Z</time>
      </trkpt>
      <trkpt lat="43.75563" lon="1.55223">
        <ele>215.471381</ele>
        <time>2022-03-25T16:57:06.431Z</time>
      </trkpt>
      <trkpt lat="43.75556" lon="1.552">
        <ele>214.067275</ele>
        <time>2022-03-25T16:57:08.446Z</time>
      </trkpt>
      <trkpt lat="43.75554" lon="1.55188">
        <ele>213.335415</ele>
        <time>2022-03-25T16:57:09.447Z</time>
      </trkpt>
      <trkpt lat="43.75554" lon="1.55174">
        <ele>212.574687</ele>
        <time>2022-03-25T16:57:10.437Z</time>
      </trkpt>
      <trkpt lat="43.75554" lon="1.55161">
        <ele>211.792712</ele>
        <time>2022-03-25T16:57:11.430Z</time>
      </trkpt>
      <trkpt lat="43.75552" lon="1.55147">
        <ele>211.027628</ele>
        <time>2022-03-25T16:57:12.453Z</time>
      </trkpt>
      <trkpt lat="43.75549" lon="1.55135">
        <ele>210.281277</ele>
        <time>2022-03-25T16:57:13.459Z</time>
      </trkpt>
      <trkpt lat="43.75545" lon="1.55123">
        <ele>209.521501</ele>
        <time>2022-03-25T16:57:14.441Z</time>
      </trkpt>
      <trkpt lat="43.75539" lon="1.55112">
        <ele>208.781887</ele>
        <time>2022-03-25T16:57:15.446Z</time>
      </trkpt>
      <trkpt lat="43.75533" lon="1.55102">
        <ele>208.043712</ele>
        <time>2022-03-25T16:57:16.451Z</time>
      </trkpt>
      <trkpt lat="43.75527" lon="1.55093">
        <ele>207.309789</ele>
        <time>2022-03-25T16:57:17.438Z</time>
      </trkpt>
      <trkpt lat="43.75521" lon="1.55083">
        <ele>206.598993</ele>
        <time>2022-03-25T16:57:18.427Z</time>
      </trkpt>
      <trkpt lat="43.7551" lon="1.55066">
        <ele>205.28044</ele>
        <time>2022-03-25T16:57:20.459Z</time>
      </trkpt>
      <trkpt lat="43.75498" lon="1.55049">
        <ele>203.955319</ele>
        <time>2022-03-25T16:57:22.438Z</time>
      </trkpt>
      <trkpt lat="43.75492" lon="1.55036">
        <ele>203.048844</ele>
        <time>2022-03-25T16:57:24.446Z</time>
      </trkpt>
      <trkpt lat="43.75499" lon="1.55023">
        <ele>203.092618</ele>
        <time>2022-03-25T16:57:28.449Z</time>
      </trkpt>
      <trkpt lat="43.75507" lon="1.55015">
        <ele>203.229632</ele>
        <time>2022-03-25T16:57:30.437Z</time>
      </trkpt>
      <trkpt lat="43.75513" lon="1.55004">
        <ele>203.375669</ele>
        <time>2022-03-25T16:57:32.451Z</time>
      </trkpt>
      <trkpt lat="43.75512" lon="1.54991">
        <ele>203.509866</ele>
        <time>2022-03-25T16:57:34.430Z</time>
      </trkpt>
      <trkpt lat="43.75505" lon="1.54981">
        <ele>203.653266</ele>
        <time>2022-03-25T16:57:36.425Z</time>
      </trkpt>
      <trkpt lat="43.75498" lon="1.5497">
        <ele>203.807342</ele>
        <time>2022-03-25T16:57:38.445Z</time>
      </trkpt>
      <trkpt lat="43.75492" lon="1.54958">
        <ele>203.953547</ele>
        <time>2022-03-25T16:57:40.441Z</time>
      </trkpt>
      <trkpt lat="43.75488" lon="1.54946">
        <ele>204.090433</ele>
        <time>2022-03-25T16:57:42.431Z</time>
      </trkpt>
      <trkpt lat="43.75485" lon="1.54934">
        <ele>204.221566</ele>
        <time>2022-03-25T16:57:44.442Z</time>
      </trkpt>
      <trkpt lat="43.75481" lon="1.54921">
        <ele>204.362404</ele>
        <time>2022-03-25T16:57:46.435Z</time>
      </trkpt>
      <trkpt lat="43.75479" lon="1.54907">
        <ele>204.508428</ele>
        <time>2022-03-25T16:57:48.437Z</time>
      </trkpt>
      <trkpt lat="43.75477" lon="1.54893">
        <ele>204.659459</ele>
        <time>2022-03-25T16:57:50.437Z</time>
      </trkpt>
      <trkpt lat="43.75473" lon="1.54879">
        <ele>204.815724</ele>
        <time>2022-03-25T16:57:52.428Z</time>
      </trkpt>
      <trkpt lat="43.75468" lon="1.54866">
        <ele>204.965007</ele>
        <time>2022-03-25T16:57:54.447Z</time>
      </trkpt>
      <trkpt lat="43.75463" lon="1.54854">
        <ele>205.107688</ele>
        <time>2022-03-25T16:57:56.454Z</time>
      </trkpt>
      <trkpt lat="43.75456" lon="1.54844">
        <ele>205.249702</ele>
        <time>2022-03-25T16:57:58.433Z</time>
      </trkpt>
      <trkpt lat="43.7545" lon="1.54833">
        <ele>205.392329</ele>
        <time>2022-03-25T16:58:00.436Z</time>
      </trkpt>
      <trkpt lat="43.75444" lon="1.54821">
        <ele>205.786873</ele>
        <time>2022-03-25T16:58:02.433Z</time>
      </trkpt>
      <trkpt lat="43.75439" lon="1.5481">
        <ele>206.882707</ele>
        <time>2022-03-25T16:58:04.428Z</time>
      </trkpt>
      <trkpt lat="43.75433" lon="1.54799">
        <ele>207.96531</ele>
        <time>2022-03-25T16:58:06.436Z</time>
      </trkpt>
      <trkpt lat="43.75425" lon="1.54785">
        <ele>209.403787</ele>
        <time>2022-03-25T16:58:09.441Z</time>
      </trkpt>
      <trkpt lat="43.75417" lon="1.54773">
        <ele>210.762949</ele>
        <time>2022-03-25T16:58:12.434Z</time>
      </trkpt>
      <trkpt lat="43.75407" lon="1.54763">
        <ele>212.131383</ele>
        <time>2022-03-25T16:58:15.448Z</time>
      </trkpt>
      <trkpt lat="43.75397" lon="1.54756">
        <ele>213.3397</ele>
        <time>2022-03-25T16:58:18.436Z</time>
      </trkpt>
      <trkpt lat="43.75387" lon="1.54751">
        <ele>214.509823</ele>
        <time>2022-03-25T16:58:21.435Z</time>
      </trkpt>
      <trkpt lat="43.75379" lon="1.54745">
        <ele>215.596297</ele>
        <time>2022-03-25T16:58:24.428Z</time>
      </trkpt>
      <trkpt lat="43.7537" lon="1.54735">
        <ele>216.910823</ele>
        <time>2022-03-25T16:58:28.439Z</time>
      </trkpt>
      <trkpt lat="43.75363" lon="1.54725">
        <ele>218.070417</ele>
        <time>2022-03-25T16:58:31.447Z</time>
      </trkpt>
      <trkpt lat="43.75357" lon="1.54713">
        <ele>219.238632</ele>
        <time>2022-03-25T16:58:34.436Z</time>
      </trkpt>
      <trkpt lat="43.75352" lon="1.547">
        <ele>220.390898</ele>
        <time>2022-03-25T16:58:37.450Z</time>
      </trkpt>
      <trkpt lat="43.75345" lon="1.54688">
        <ele>221.611512</ele>
        <time>2022-03-25T16:58:40.442Z</time>
      </trkpt>
      <trkpt lat="43.7534" lon="1.54677">
        <ele>222.707664</ele>
        <time>2022-03-25T16:58:43.435Z</time>
      </trkpt>
      <trkpt lat="43.75335" lon="1.54666">
        <ele>223.771695</ele>
        <time>2022-03-25T16:58:46.443Z</time>
      </trkpt>
      <trkpt lat="43.75329" lon="1.54654">
        <ele>224.926464</ele>
        <time>2022-03-25T16:58:49.442Z</time>
      </trkpt>
      <trkpt lat="43.75322" lon="1.54641">
        <ele>225.704278</ele>
        <time>2022-03-25T16:58:52.440Z</time>
      </trkpt>
      <trkpt lat="43.75316" lon="1.54624">
        <ele>225.835987</ele>
        <time>2022-03-25T16:58:55.447Z</time>
      </trkpt>
      <trkpt lat="43.75312" lon="1.54612">
        <ele>225.934157</ele>
        <time>2022-03-25T16:58:57.441Z</time>
      </trkpt>
      <trkpt lat="43.75308" lon="1.54597">
        <ele>226.043029</ele>
        <time>2022-03-25T16:58:59.451Z</time>
      </trkpt>
      <trkpt lat="43.75305" lon="1.54582">
        <ele>226.158543</ele>
        <time>2022-03-25T16:59:01.444Z</time>
      </trkpt>
      <trkpt lat="43.75302" lon="1.54565">
        <ele>226.275657</ele>
        <time>2022-03-25T16:59:03.447Z</time>
      </trkpt>
      <trkpt lat="43.753" lon="1.54548">
        <ele>226.397538</ele>
        <time>2022-03-25T16:59:05.441Z</time>
      </trkpt>
      <trkpt lat="43.75298" lon="1.54531">
        <ele>226.524948</ele>
        <time>2022-03-25T16:59:07.434Z</time>
      </trkpt>
      <trkpt lat="43.75296" lon="1.54512">
        <ele>226.656034</ele>
        <time>2022-03-25T16:59:09.436Z</time>
      </trkpt>
      <trkpt lat="43.75293" lon="1.54494">
        <ele>226.789375</ele>
        <time>2022-03-25T16:59:11.447Z</time>
      </trkpt>
      <trkpt lat="43.75291" lon="1.54477">
        <ele>226.910562</ele>
        <time>2022-03-25T16:59:13.442Z</time>
      </trkpt>
      <trkpt lat="43.75291" lon="1.5446">
        <ele>227.027152</ele>
        <time>2022-03-25T16:59:15.445Z</time>
      </trkpt>
      <trkpt lat="43.75293" lon="1.54445">
        <ele>227.134886</ele>
        <time>2022-03-25T16:59:17.437Z</time>
      </trkpt>
      <trkpt lat="43.75298" lon="1.54433">
        <ele>227.23604</ele>
        <time>2022-03-25T16:59:19.444Z</time>
      </trkpt>
      <trkpt lat="43.75303" lon="1.54419">
        <ele>227.34618</ele>
        <time>2022-03-25T16:59:21.438Z</time>
      </trkpt>
      <trkpt lat="43.75309" lon="1.54404">
        <ele>227.107833</ele>
        <time>2022-03-25T16:59:23.440Z</time>
      </trkpt>
      <trkpt lat="43.75316" lon="1.5439">
        <ele>226.405543</ele>
        <time>2022-03-25T16:59:25.451Z</time>
      </trkpt>
      <trkpt lat="43.75322" lon="1.54375">
        <ele>225.704776</ele>
        <time>2022-03-25T16:59:27.451Z</time>
      </trkpt>
      <trkpt lat="43.75327" lon="1.54364">
        <ele>225.164581</ele>
        <time>2022-03-25T16:59:29.440Z</time>
      </trkpt>
      <trkpt lat="43.75333" lon="1.5435">
        <ele>224.48013</ele>
        <time>2022-03-25T16:59:33.440Z</time>
      </trkpt>
      <trkpt lat="43.7534" lon="1.54333">
        <ele>223.67767</ele>
        <time>2022-03-25T16:59:36.458Z</time>
      </trkpt>
      <trkpt lat="43.75346" lon="1.54319">
        <ele>223.011909</ele>
        <time>2022-03-25T16:59:38.436Z</time>
      </trkpt>
      <trkpt lat="43.7535" lon="1.54303">
        <ele>222.316105</ele>
        <time>2022-03-25T16:59:40.438Z</time>
      </trkpt>
      <trkpt lat="43.75354" lon="1.54288">
        <ele>221.639271</ele>
        <time>2022-03-25T16:59:42.441Z</time>
      </trkpt>
      <trkpt lat="43.75357" lon="1.54272">
        <ele>220.962437</ele>
        <time>2022-03-25T16:59:44.438Z</time>
      </trkpt>
      <trkpt lat="43.75356" lon="1.54256">
        <ele>220.315712</ele>
        <time>2022-03-25T16:59:46.441Z</time>
      </trkpt>
      <trkpt lat="43.75347" lon="1.54244">
        <ele>219.578069</ele>
        <time>2022-03-25T16:59:48.432Z</time>
      </trkpt>
      <trkpt lat="43.75336" lon="1.54232">
        <ele>218.755135</ele>
        <time>2022-03-25T16:59:50.445Z</time>
      </trkpt>
      <trkpt lat="43.75324" lon="1.54218">
        <ele>217.873734</ele>
        <time>2022-03-25T16:59:52.444Z</time>
      </trkpt>
      <trkpt lat="43.75314" lon="1.54202">
        <ele>217.112897</ele>
        <time>2022-03-25T16:59:54.449Z</time>
      </trkpt>
      <trkpt lat="43.75306" lon="1.54184">
        <ele>216.993687</ele>
        <time>2022-03-25T16:59:56.438Z</time>
      </trkpt>
      <trkpt lat="43.753" lon="1.54167">
        <ele>216.878241</ele>
        <time>2022-03-25T16:59:58.432Z</time>
      </trkpt>
      <trkpt lat="43.75294" lon="1.54148">
        <ele>216.7617</ele>
        <time>2022-03-25T17:00:00.436Z</time>
      </trkpt>
      <trkpt lat="43.75288" lon="1.5413">
        <ele>216.644487</ele>
        <time>2022-03-25T17:00:02.437Z</time>
      </trkpt>
      <trkpt lat="43.75284" lon="1.54112">
        <ele>216.531257</ele>
        <time>2022-03-25T17:00:04.444Z</time>
      </trkpt>
      <trkpt lat="43.75284" lon="1.54095">
        <ele>216.432527</ele>
        <time>2022-03-25T17:00:06.426Z</time>
      </trkpt>
      <trkpt lat="43.75287" lon="1.5408">
        <ele>216.344483</ele>
        <time>2022-03-25T17:00:08.424Z</time>
      </trkpt>
      <trkpt lat="43.75289" lon="1.54067">
        <ele>216.266091</ele>
        <time>2022-03-25T17:00:10.432Z</time>
      </trkpt>
      <trkpt lat="43.7529" lon="1.54053">
        <ele>216.182708</ele>
        <time>2022-03-25T17:00:12.441Z</time>
      </trkpt>
      <trkpt lat="43.7529" lon="1.54038">
        <ele>216.09373</ele>
        <time>2022-03-25T17:00:14.437Z</time>
      </trkpt>
      <trkpt lat="43.75288" lon="1.54024">
        <ele>216.009425</ele>
        <time>2022-03-25T17:00:16.450Z</time>
      </trkpt>
      <trkpt lat="43.75287" lon="1.5401">
        <ele>215.92986</ele>
        <time>2022-03-25T17:00:18.430Z</time>
      </trkpt>
      <trkpt lat="43.75285" lon="1.53996">
        <ele>215.848512</ele>
        <time>2022-03-25T17:00:20.438Z</time>
      </trkpt>
      <trkpt lat="43.75282" lon="1.53983">
        <ele>215.763067</ele>
        <time>2022-03-25T17:00:22.439Z</time>
      </trkpt>
      <trkpt lat="43.75276" lon="1.53969">
        <ele>215.708277</ele>
        <time>2022-03-25T17:00:24.452Z</time>
      </trkpt>
      <trkpt lat="43.7527" lon="1.53956">
        <ele>216.632461</ele>
        <time>2022-03-25T17:00:26.439Z</time>
      </trkpt>
      <trkpt lat="43.75264" lon="1.53945">
        <ele>217.523751</ele>
        <time>2022-03-25T17:00:28.449Z</time>
      </trkpt>
      <trkpt lat="43.75258" lon="1.53934">
        <ele>218.39255</ele>
        <time>2022-03-25T17:00:30.438Z</time>
      </trkpt>
      <trkpt lat="43.75252" lon="1.53922">
        <ele>219.262293</ele>
        <time>2022-03-25T17:00:32.436Z</time>
      </trkpt>
      <trkpt lat="43.75247" lon="1.5391">
        <ele>220.110648</ele>
        <time>2022-03-25T17:00:34.444Z</time>
      </trkpt>
      <trkpt lat="43.75243" lon="1.53899">
        <ele>220.874168</ele>
        <time>2022-03-25T17:00:36.420Z</time>
      </trkpt>
      <trkpt lat="43.75234" lon="1.53885">
        <ele>221.97794</ele>
        <time>2022-03-25T17:00:39.447Z</time>
      </trkpt>
      <trkpt lat="43.75224" lon="1.53875">
        <ele>223.041445</ele>
        <time>2022-03-25T17:00:42.440Z</time>
      </trkpt>
      <trkpt lat="43.75214" lon="1.53864">
        <ele>224.156908</ele>
        <time>2022-03-25T17:00:45.442Z</time>
      </trkpt>
      <trkpt lat="43.75205" lon="1.53858">
        <ele>224.963031</ele>
        <time>2022-03-25T17:00:47.443Z</time>
      </trkpt>
      <trkpt lat="43.75197" lon="1.53853">
        <ele>225.743149</ele>
        <time>2022-03-25T17:00:49.442Z</time>
      </trkpt>
      <trkpt lat="43.75186" lon="1.53843">
        <ele>226.860793</ele>
        <time>2022-03-25T17:00:52.445Z</time>
      </trkpt>
      <trkpt lat="43.75175" lon="1.53833">
        <ele>227.942067</ele>
        <time>2022-03-25T17:00:55.441Z</time>
      </trkpt>
      <trkpt lat="43.75168" lon="1.53825">
        <ele>228.705969</ele>
        <time>2022-03-25T17:00:57.446Z</time>
      </trkpt>
      <trkpt lat="43.75158" lon="1.53815">
        <ele>229.790008</ele>
        <time>2022-03-25T17:01:00.448Z</time>
      </trkpt>
      <trkpt lat="43.75147" lon="1.53805">
        <ele>230.881006</ele>
        <time>2022-03-25T17:01:03.437Z</time>
      </trkpt>
      <trkpt lat="43.75138" lon="1.53795">
        <ele>232.579373</ele>
        <time>2022-03-25T17:01:06.430Z</time>
      </trkpt>
      <trkpt lat="43.75129" lon="1.53785">
        <ele>234.156532</ele>
        <time>2022-03-25T17:01:09.437Z</time>
      </trkpt>
      <trkpt lat="43.75121" lon="1.53774">
        <ele>235.858994</ele>
        <time>2022-03-25T17:01:12.430Z</time>
      </trkpt>
      <trkpt lat="43.75112" lon="1.53764">
        <ele>237.490701</ele>
        <time>2022-03-25T17:01:15.448Z</time>
      </trkpt>
      <trkpt lat="43.75104" lon="1.53753">
        <ele>239.168784</ele>
        <time>2022-03-25T17:01:18.445Z</time>
      </trkpt>
      <trkpt lat="43.75095" lon="1.53743">
        <ele>240.789728</ele>
        <time>2022-03-25T17:01:21.426Z</time>
      </trkpt>
      <trkpt lat="43.75087" lon="1.53734">
        <ele>242.293586</ele>
        <time>2022-03-25T17:01:24.428Z</time>
      </trkpt>
      <trkpt lat="43.75079" lon="1.53724">
        <ele>243.82254</ele>
        <time>2022-03-25T17:01:27.438Z</time>
      </trkpt>
      <trkpt lat="43.7507" lon="1.53714">
        <ele>245.495488</ele>
        <time>2022-03-25T17:01:30.442Z</time>
      </trkpt>
      <trkpt lat="43.75061" lon="1.53704">
        <ele>247.161788</ele>
        <time>2022-03-25T17:01:33.433Z</time>
      </trkpt>
      <trkpt lat="43.75053" lon="1.53693">
        <ele>248.790545</ele>
        <time>2022-03-25T17:01:36.432Z</time>
      </trkpt>
      <trkpt lat="43.75046" lon="1.53683">
        <ele>250.31478</ele>
        <time>2022-03-25T17:01:39.443Z</time>
      </trkpt>
      <trkpt lat="43.75037" lon="1.53674">
        <ele>251.850894</ele>
        <time>2022-03-25T17:01:42.430Z</time>
      </trkpt>
      <trkpt lat="43.75027" lon="1.53663">
        <ele>253.648627</ele>
        <time>2022-03-25T17:01:45.444Z</time>
      </trkpt>
      <trkpt lat="43.75018" lon="1.53652">
        <ele>255.485929</ele>
        <time>2022-03-25T17:01:48.450Z</time>
      </trkpt>
      <trkpt lat="43.75011" lon="1.53642">
        <ele>256.882104</ele>
        <time>2022-03-25T17:01:50.447Z</time>
      </trkpt>
      <trkpt lat="43.75005" lon="1.53631">
        <ele>257.505831</ele>
        <time>2022-03-25T17:01:52.447Z</time>
      </trkpt>
      <trkpt lat="43.74999" lon="1.53619">
        <ele>258.109542</ele>
        <time>2022-03-25T17:01:54.429Z</time>
      </trkpt>
      <trkpt lat="43.74993" lon="1.53605">
        <ele>258.765249</ele>
        <time>2022-03-25T17:01:56.432Z</time>
      </trkpt>
      <trkpt lat="43.74988" lon="1.53591">
        <ele>259.395678</ele>
        <time>2022-03-25T17:01:58.434Z</time>
      </trkpt>
      <trkpt lat="43.74984" lon="1.53577">
        <ele>260.012925</ele>
        <time>2022-03-25T17:02:00.448Z</time>
      </trkpt>
      <trkpt lat="43.7498" lon="1.53563">
        <ele>260.636409</ele>
        <time>2022-03-25T17:02:02.430Z</time>
      </trkpt>
      <trkpt lat="43.74975" lon="1.5355">
        <ele>261.23747</ele>
        <time>2022-03-25T17:02:04.431Z</time>
      </trkpt>
      <trkpt lat="43.74971" lon="1.53537">
        <ele>261.832328</ele>
        <time>2022-03-25T17:02:06.437Z</time>
      </trkpt>
      <trkpt lat="43.74966" lon="1.53524">
        <ele>262.407486</ele>
        <time>2022-03-25T17:02:08.438Z</time>
      </trkpt>
      <trkpt lat="43.74962" lon="1.53511">
        <ele>262.99022</ele>
        <time>2022-03-25T17:02:10.433Z</time>
      </trkpt>
      <trkpt lat="43.74958" lon="1.53499">
        <ele>263.570269</ele>
        <time>2022-03-25T17:02:12.440Z</time>
      </trkpt>
      <trkpt lat="43.74953" lon="1.53486">
        <ele>264.138101</ele>
        <time>2022-03-25T17:02:14.445Z</time>
      </trkpt>
      <trkpt lat="43.74949" lon="1.53473">
        <ele>264.724614</ele>
        <time>2022-03-25T17:02:16.430Z</time>
      </trkpt>
      <trkpt lat="43.74941" lon="1.53461">
        <ele>265.385228</ele>
        <time>2022-03-25T17:02:19.448Z</time>
      </trkpt>
      <trkpt lat="43.74932" lon="1.53463">
        <ele>265.913412</ele>
        <time>2022-03-25T17:02:22.435Z</time>
      </trkpt>
      <trkpt lat="43.74925" lon="1.53476">
        <ele>266.604131</ele>
        <time>2022-03-25T17:02:25.442Z</time>
      </trkpt>
      <trkpt lat="43.74917" lon="1.53492">
        <ele>267.193325</ele>
        <time>2022-03-25T17:02:28.446Z</time>
      </trkpt>
      <trkpt lat="43.74911" lon="1.53506">
        <ele>267.289924</ele>
        <time>2022-03-25T17:02:30.436Z</time>
      </trkpt>
      <trkpt lat="43.74904" lon="1.5352">
        <ele>267.3876</ele>
        <time>2022-03-25T17:02:32.443Z</time>
      </trkpt>
      <trkpt lat="43.74899" lon="1.53534">
        <ele>267.481302</ele>
        <time>2022-03-25T17:02:34.442Z</time>
      </trkpt>
      <trkpt lat="43.74895" lon="1.53548">
        <ele>267.573469</ele>
        <time>2022-03-25T17:02:36.440Z</time>
      </trkpt>
      <trkpt lat="43.74892" lon="1.53563">
        <ele>267.66528</ele>
        <time>2022-03-25T17:02:38.435Z</time>
      </trkpt>
      <trkpt lat="43.74889" lon="1.53578">
        <ele>267.758827</ele>
        <time>2022-03-25T17:02:40.440Z</time>
      </trkpt>
      <trkpt lat="43.74886" lon="1.53593">
        <ele>267.852736</ele>
        <time>2022-03-25T17:02:42.437Z</time>
      </trkpt>
      <trkpt lat="43.74883" lon="1.53608">
        <ele>267.948707</ele>
        <time>2022-03-25T17:02:44.445Z</time>
      </trkpt>
      <trkpt lat="43.7488" lon="1.53623">
        <ele>268.043993</ele>
        <time>2022-03-25T17:02:46.440Z</time>
      </trkpt>
      <trkpt lat="43.74877" lon="1.53639">
        <ele>268.141238</ele>
        <time>2022-03-25T17:02:48.443Z</time>
      </trkpt>
      <trkpt lat="43.74874" lon="1.53655">
        <ele>268.240902</ele>
        <time>2022-03-25T17:02:50.443Z</time>
      </trkpt>
      <trkpt lat="43.7487" lon="1.5367">
        <ele>268.339332</ele>
        <time>2022-03-25T17:02:52.438Z</time>
      </trkpt>
      <trkpt lat="43.74867" lon="1.53686">
        <ele>268.436119</ele>
        <time>2022-03-25T17:02:54.440Z</time>
      </trkpt>
      <trkpt lat="43.74863" lon="1.53702">
        <ele>268.53636</ele>
        <time>2022-03-25T17:02:56.441Z</time>
      </trkpt>
      <trkpt lat="43.7486" lon="1.53718">
        <ele>268.636601</ele>
        <time>2022-03-25T17:02:58.427Z</time>
      </trkpt>
      <trkpt lat="43.74856" lon="1.53732">
        <ele>268.348857</ele>
        <time>2022-03-25T17:03:00.441Z</time>
      </trkpt>
      <trkpt lat="43.7485" lon="1.53742">
        <ele>268.018626</ele>
        <time>2022-03-25T17:03:03.429Z</time>
      </trkpt>
      <trkpt lat="43.74841" lon="1.53734">
        <ele>267.645797</ele>
        <time>2022-03-25T17:03:05.427Z</time>
      </trkpt>
      <trkpt lat="43.74832" lon="1.53722">
        <ele>267.217281</ele>
        <time>2022-03-25T17:03:07.440Z</time>
      </trkpt>
      <trkpt lat="43.7482" lon="1.53708">
        <ele>266.704163</ele>
        <time>2022-03-25T17:03:09.452Z</time>
      </trkpt>
      <trkpt lat="43.74807" lon="1.53693">
        <ele>266.132027</ele>
        <time>2022-03-25T17:03:11.440Z</time>
      </trkpt>
      <trkpt lat="43.748" lon="1.53685">
        <ele>265.82116</ele>
        <time>2022-03-25T17:03:12.445Z</time>
      </trkpt>
      <trkpt lat="43.74792" lon="1.53677">
        <ele>265.484102</ele>
        <time>2022-03-25T17:03:13.435Z</time>
      </trkpt>
      <trkpt lat="43.74784" lon="1.53667">
        <ele>265.124324</ele>
        <time>2022-03-25T17:03:14.427Z</time>
      </trkpt>
      <trkpt lat="43.74775" lon="1.53657">
        <ele>264.742719</ele>
        <time>2022-03-25T17:03:15.462Z</time>
      </trkpt>
      <trkpt lat="43.74767" lon="1.53646">
        <ele>264.34056</ele>
        <time>2022-03-25T17:03:16.444Z</time>
      </trkpt>
      <trkpt lat="43.74759" lon="1.53633">
        <ele>263.937456</ele>
        <time>2022-03-25T17:03:17.446Z</time>
      </trkpt>
      <trkpt lat="43.74752" lon="1.5362">
        <ele>263.529049</ele>
        <time>2022-03-25T17:03:18.450Z</time>
      </trkpt>
      <trkpt lat="43.74745" lon="1.53609">
        <ele>263.163337</ele>
        <time>2022-03-25T17:03:19.443Z</time>
      </trkpt>
      <trkpt lat="43.74737" lon="1.53599">
        <ele>262.798374</ele>
        <time>2022-03-25T17:03:20.442Z</time>
      </trkpt>
      <trkpt lat="43.74727" lon="1.53592">
        <ele>262.408968</ele>
        <time>2022-03-25T17:03:21.441Z</time>
      </trkpt>
      <trkpt lat="43.74716" lon="1.53589">
        <ele>262.016087</ele>
        <time>2022-03-25T17:03:22.442Z</time>
      </trkpt>
      <trkpt lat="43.74706" lon="1.5359">
        <ele>261.651322</ele>
        <time>2022-03-25T17:03:23.441Z</time>
      </trkpt>
      <trkpt lat="43.7469" lon="1.53591">
        <ele>261.024727</ele>
        <time>2022-03-25T17:03:25.452Z</time>
      </trkpt>
      <trkpt lat="43.74676" lon="1.53591">
        <ele>260.511084</ele>
        <time>2022-03-25T17:03:27.448Z</time>
      </trkpt>
      <trkpt lat="43.74665" lon="1.53589">
        <ele>260.118654</ele>
        <time>2022-03-25T17:03:29.444Z</time>
      </trkpt>
      <trkpt lat="43.74657" lon="1.53582">
        <ele>259.740288</ele>
        <time>2022-03-25T17:03:31.437Z</time>
      </trkpt>
      <trkpt lat="43.74647" lon="1.53573">
        <ele>259.317677</ele>
        <time>2022-03-25T17:03:33.442Z</time>
      </trkpt>
      <trkpt lat="43.74636" lon="1.53564">
        <ele>258.838342</ele>
        <time>2022-03-25T17:03:35.448Z</time>
      </trkpt>
      <trkpt lat="43.74623" lon="1.53555">
        <ele>258.291941</ele>
        <time>2022-03-25T17:03:37.440Z</time>
      </trkpt>
      <trkpt lat="43.74608" lon="1.53547">
        <ele>257.702053</ele>
        <time>2022-03-25T17:03:39.443Z</time>
      </trkpt>
      <trkpt lat="43.74592" lon="1.53539">
        <ele>257.073055</ele>
        <time>2022-03-25T17:03:41.451Z</time>
      </trkpt>
      <trkpt lat="43.74576" lon="1.5353">
        <ele>256.409862</ele>
        <time>2022-03-25T17:03:43.445Z</time>
      </trkpt>
      <trkpt lat="43.74559" lon="1.53521">
        <ele>255.734344</ele>
        <time>2022-03-25T17:03:45.454Z</time>
      </trkpt>
      <trkpt lat="43.74551" lon="1.53515">
        <ele>255.358025</ele>
        <time>2022-03-25T17:03:46.442Z</time>
      </trkpt>
      <trkpt lat="43.74543" lon="1.53508">
        <ele>254.96369</ele>
        <time>2022-03-25T17:03:47.446Z</time>
      </trkpt>
      <trkpt lat="43.74535" lon="1.535">
        <ele>254.571555</ele>
        <time>2022-03-25T17:03:48.443Z</time>
      </trkpt>
      <trkpt lat="43.74527" lon="1.53492">
        <ele>254.178787</ele>
        <time>2022-03-25T17:03:49.423Z</time>
      </trkpt>
      <trkpt lat="43.7452" lon="1.53483">
        <ele>253.793633</ele>
        <time>2022-03-25T17:03:50.434Z</time>
      </trkpt>
      <trkpt lat="43.74513" lon="1.53476">
        <ele>253.427682</ele>
        <time>2022-03-25T17:03:51.447Z</time>
      </trkpt>
      <trkpt lat="43.74499" lon="1.53461">
        <ele>252.721182</ele>
        <time>2022-03-25T17:03:53.440Z</time>
      </trkpt>
      <trkpt lat="43.74486" lon="1.53447">
        <ele>252.054293</ele>
        <time>2022-03-25T17:03:55.452Z</time>
      </trkpt>
      <trkpt lat="43.74473" lon="1.53434">
        <ele>251.38369</ele>
        <time>2022-03-25T17:03:57.458Z</time>
      </trkpt>
      <trkpt lat="43.74461" lon="1.53421">
        <ele>250.769353</ele>
        <time>2022-03-25T17:03:59.442Z</time>
      </trkpt>
      <trkpt lat="43.74448" lon="1.5341">
        <ele>250.17201</ele>
        <time>2022-03-25T17:04:01.453Z</time>
      </trkpt>
      <trkpt lat="43.74437" lon="1.53399">
        <ele>249.606439</ele>
        <time>2022-03-25T17:04:03.442Z</time>
      </trkpt>
      <trkpt lat="43.74425" lon="1.53389">
        <ele>249.04587</ele>
        <time>2022-03-25T17:04:05.444Z</time>
      </trkpt>
      <trkpt lat="43.74413" lon="1.53378">
        <ele>248.521431</ele>
        <time>2022-03-25T17:04:07.432Z</time>
      </trkpt>
      <trkpt lat="43.74401" lon="1.5337">
        <ele>248.185698</ele>
        <time>2022-03-25T17:04:09.440Z</time>
      </trkpt>
      <trkpt lat="43.7439" lon="1.53362">
        <ele>247.877166</ele>
        <time>2022-03-25T17:04:11.438Z</time>
      </trkpt>
      <trkpt lat="43.7438" lon="1.53357">
        <ele>247.611505</ele>
        <time>2022-03-25T17:04:13.438Z</time>
      </trkpt>
      <trkpt lat="43.74371" lon="1.53351">
        <ele>247.3601</ele>
        <time>2022-03-25T17:04:15.447Z</time>
      </trkpt>
      <trkpt lat="43.74361" lon="1.53344">
        <ele>247.095568</ele>
        <time>2022-03-25T17:04:17.437Z</time>
      </trkpt>
      <trkpt lat="43.74351" lon="1.53337">
        <ele>246.829707</ele>
        <time>2022-03-25T17:04:19.443Z</time>
      </trkpt>
      <trkpt lat="43.74341" lon="1.5333">
        <ele>246.539722</ele>
        <time>2022-03-25T17:04:21.446Z</time>
      </trkpt>
      <trkpt lat="43.74329" lon="1.53324">
        <ele>246.233386</ele>
        <time>2022-03-25T17:04:23.446Z</time>
      </trkpt>
      <trkpt lat="43.74316" lon="1.53317">
        <ele>245.884746</ele>
        <time>2022-03-25T17:04:25.452Z</time>
      </trkpt>
      <trkpt lat="43.74301" lon="1.53309">
        <ele>245.507765</ele>
        <time>2022-03-25T17:04:27.451Z</time>
      </trkpt>
      <trkpt lat="43.74287" lon="1.53303">
        <ele>245.133768</ele>
        <time>2022-03-25T17:04:29.454Z</time>
      </trkpt>
      <trkpt lat="43.74272" lon="1.53297">
        <ele>244.76915</ele>
        <time>2022-03-25T17:04:31.438Z</time>
      </trkpt>
      <trkpt lat="43.74259" lon="1.5329">
        <ele>244.412542</ele>
        <time>2022-03-25T17:04:33.447Z</time>
      </trkpt>
      <trkpt lat="43.74247" lon="1.53282">
        <ele>243.981453</ele>
        <time>2022-03-25T17:04:35.453Z</time>
      </trkpt>
      <trkpt lat="43.74236" lon="1.53273">
        <ele>243.320805</ele>
        <time>2022-03-25T17:04:37.450Z</time>
      </trkpt>
      <trkpt lat="43.74227" lon="1.53264">
        <ele>242.698098</ele>
        <time>2022-03-25T17:04:39.452Z</time>
      </trkpt>
      <trkpt lat="43.74217" lon="1.53255">
        <ele>242.092973</ele>
        <time>2022-03-25T17:04:41.441Z</time>
      </trkpt>
      <trkpt lat="43.74208" lon="1.53247">
        <ele>241.498996</ele>
        <time>2022-03-25T17:04:43.441Z</time>
      </trkpt>
      <trkpt lat="43.74199" lon="1.53239">
        <ele>240.902084</ele>
        <time>2022-03-25T17:04:45.455Z</time>
      </trkpt>
      <trkpt lat="43.74187" lon="1.53234">
        <ele>240.242445</ele>
        <time>2022-03-25T17:04:47.449Z</time>
      </trkpt>
      <trkpt lat="43.74171" lon="1.53231">
        <ele>239.392372</ele>
        <time>2022-03-25T17:04:49.436Z</time>
      </trkpt>
      <trkpt lat="43.74162" lon="1.53231">
        <ele>238.906564</ele>
        <time>2022-03-25T17:04:50.442Z</time>
      </trkpt>
      <trkpt lat="43.74153" lon="1.5323">
        <ele>238.393376</ele>
        <time>2022-03-25T17:04:51.456Z</time>
      </trkpt>
      <trkpt lat="43.74143" lon="1.53228">
        <ele>237.856641</ele>
        <time>2022-03-25T17:04:52.443Z</time>
      </trkpt>
      <trkpt lat="43.74133" lon="1.53226">
        <ele>237.316261</ele>
        <time>2022-03-25T17:04:53.444Z</time>
      </trkpt>
      <trkpt lat="43.74123" lon="1.53223">
        <ele>236.743732</ele>
        <time>2022-03-25T17:04:54.440Z</time>
      </trkpt>
      <trkpt lat="43.74113" lon="1.53217">
        <ele>236.16735</ele>
        <time>2022-03-25T17:04:55.451Z</time>
      </trkpt>
      <trkpt lat="43.74104" lon="1.5321">
        <ele>235.607118</ele>
        <time>2022-03-25T17:04:56.452Z</time>
      </trkpt>
      <trkpt lat="43.74096" lon="1.53202">
        <ele>235.057542</ele>
        <time>2022-03-25T17:04:57.449Z</time>
      </trkpt>
      <trkpt lat="43.74088" lon="1.53193">
        <ele>234.515877</ele>
        <time>2022-03-25T17:04:58.441Z</time>
      </trkpt>
      <trkpt lat="43.74079" lon="1.53185">
        <ele>233.35501</ele>
        <time>2022-03-25T17:04:59.451Z</time>
      </trkpt>
      <trkpt lat="43.7407" lon="1.53178">
        <ele>232.124609</ele>
        <time>2022-03-25T17:05:00.434Z</time>
      </trkpt>
      <trkpt lat="43.74059" lon="1.53173">
        <ele>230.811597</ele>
        <time>2022-03-25T17:05:01.447Z</time>
      </trkpt>
      <trkpt lat="43.74047" lon="1.5317">
        <ele>229.329047</ele>
        <time>2022-03-25T17:05:02.467Z</time>
      </trkpt>
      <trkpt lat="43.74035" lon="1.53167">
        <ele>227.996973</ele>
        <time>2022-03-25T17:05:03.449Z</time>
      </trkpt>
      <trkpt lat="43.74025" lon="1.53165">
        <ele>226.807125</ele>
        <time>2022-03-25T17:05:04.440Z</time>
      </trkpt>
      <trkpt lat="43.74016" lon="1.53164">
        <ele>225.712077</ele>
        <time>2022-03-25T17:05:05.448Z</time>
      </trkpt>
      <trkpt lat="43.73998" lon="1.53162">
        <ele>223.660831</ele>
        <time>2022-03-25T17:05:07.446Z</time>
      </trkpt>
      <trkpt lat="43.73989" lon="1.53161">
        <ele>222.526508</ele>
        <time>2022-03-25T17:05:08.441Z</time>
      </trkpt>
      <trkpt lat="43.73977" lon="1.53159">
        <ele>221.197721</ele>
        <time>2022-03-25T17:05:09.441Z</time>
      </trkpt>
      <trkpt lat="43.73966" lon="1.53155">
        <ele>219.787201</ele>
        <time>2022-03-25T17:05:10.440Z</time>
      </trkpt>
      <trkpt lat="43.73953" lon="1.53151">
        <ele>218.306287</ele>
        <time>2022-03-25T17:05:11.442Z</time>
      </trkpt>
      <trkpt lat="43.73941" lon="1.53146">
        <ele>216.771693</ele>
        <time>2022-03-25T17:05:12.432Z</time>
      </trkpt>
      <trkpt lat="43.73928" lon="1.53142">
        <ele>215.20324</ele>
        <time>2022-03-25T17:05:13.440Z</time>
      </trkpt>
      <trkpt lat="43.73915" lon="1.53137">
        <ele>213.673141</ele>
        <time>2022-03-25T17:05:14.437Z</time>
      </trkpt>
      <trkpt lat="43.73904" lon="1.53131">
        <ele>212.154665</ele>
        <time>2022-03-25T17:05:15.456Z</time>
      </trkpt>
      <trkpt lat="43.73893" lon="1.53126">
        <ele>210.691517</ele>
        <time>2022-03-25T17:05:16.442Z</time>
      </trkpt>
      <trkpt lat="43.73882" lon="1.53121">
        <ele>209.296711</ele>
        <time>2022-03-25T17:05:17.440Z</time>
      </trkpt>
      <trkpt lat="43.73872" lon="1.53118">
        <ele>208.007796</ele>
        <time>2022-03-25T17:05:18.456Z</time>
      </trkpt>
      <trkpt lat="43.73863" lon="1.53115">
        <ele>206.851896</ele>
        <time>2022-03-25T17:05:19.451Z</time>
      </trkpt>
      <trkpt lat="43.73851" lon="1.53111">
        <ele>205.218714</ele>
        <time>2022-03-25T17:05:21.441Z</time>
      </trkpt>
      <trkpt lat="43.7384" lon="1.53109">
        <ele>203.844068</ele>
        <time>2022-03-25T17:05:26.427Z</time>
      </trkpt>
      <trkpt lat="43.73831" lon="1.53104">
        <ele>202.575265</ele>
        <time>2022-03-25T17:05:29.453Z</time>
      </trkpt>
      <trkpt lat="43.73823" lon="1.53098">
        <ele>201.389366</ele>
        <time>2022-03-25T17:05:31.441Z</time>
      </trkpt>
      <trkpt lat="43.73814" lon="1.53091">
        <ele>200.092465</ele>
        <time>2022-03-25T17:05:33.445Z</time>
      </trkpt>
      <trkpt lat="43.73805" lon="1.53083">
        <ele>198.764556</ele>
        <time>2022-03-25T17:05:35.431Z</time>
      </trkpt>
      <trkpt lat="43.73796" lon="1.53073">
        <ele>197.329893</ele>
        <time>2022-03-25T17:05:37.439Z</time>
      </trkpt>
      <trkpt lat="43.73787" lon="1.53063">
        <ele>195.856706</ele>
        <time>2022-03-25T17:05:39.435Z</time>
      </trkpt>
      <trkpt lat="43.73777" lon="1.53053">
        <ele>194.329525</ele>
        <time>2022-03-25T17:05:41.438Z</time>
      </trkpt>
      <trkpt lat="43.73768" lon="1.53044">
        <ele>192.944451</ele>
        <time>2022-03-25T17:05:43.435Z</time>
      </trkpt>
      <trkpt lat="43.73758" lon="1.53034">
        <ele>191.365782</ele>
        <time>2022-03-25T17:05:46.444Z</time>
      </trkpt>
      <trkpt lat="43.73747" lon="1.53027">
        <ele>190.451641</ele>
        <time>2022-03-25T17:05:49.445Z</time>
      </trkpt>
      <trkpt lat="43.73738" lon="1.53021">
        <ele>190.121643</ele>
        <time>2022-03-25T17:05:51.436Z</time>
      </trkpt>
      <trkpt lat="43.73728" lon="1.53015">
        <ele>189.786649</ele>
        <time>2022-03-25T17:05:53.447Z</time>
      </trkpt>
      <trkpt lat="43.73719" lon="1.5301">
        <ele>189.440331</ele>
        <time>2022-03-25T17:05:55.452Z</time>
      </trkpt>
      <trkpt lat="43.73708" lon="1.53005">
        <ele>189.061132</ele>
        <time>2022-03-25T17:05:58.427Z</time>
      </trkpt>
      <trkpt lat="43.73697" lon="1.53004">
        <ele>188.723265</ele>
        <time>2022-03-25T17:06:01.440Z</time>
      </trkpt>
      <trkpt lat="43.73687" lon="1.53002">
        <ele>188.379086</ele>
        <time>2022-03-25T17:06:03.435Z</time>
      </trkpt>
      <trkpt lat="43.73675" lon="1.52999">
        <ele>187.97008</ele>
        <time>2022-03-25T17:06:05.465Z</time>
      </trkpt>
      <trkpt lat="43.73662" lon="1.52994">
        <ele>187.521837</ele>
        <time>2022-03-25T17:06:07.440Z</time>
      </trkpt>
      <trkpt lat="43.73649" lon="1.52989">
        <ele>187.080579</ele>
        <time>2022-03-25T17:06:09.442Z</time>
      </trkpt>
      <trkpt lat="43.73637" lon="1.52983">
        <ele>186.65568</ele>
        <time>2022-03-25T17:06:11.445Z</time>
      </trkpt>
      <trkpt lat="43.73624" lon="1.5298">
        <ele>186.221564</ele>
        <time>2022-03-25T17:06:13.459Z</time>
      </trkpt>
      <trkpt lat="43.73611" lon="1.52979">
        <ele>185.808669</ele>
        <time>2022-03-25T17:06:15.432Z</time>
      </trkpt>
      <trkpt lat="43.736" lon="1.52978">
        <ele>185.429127</ele>
        <time>2022-03-25T17:06:17.441Z</time>
      </trkpt>
      <trkpt lat="43.73588" lon="1.52977">
        <ele>185.032652</ele>
        <time>2022-03-25T17:06:19.455Z</time>
      </trkpt>
      <trkpt lat="43.73575" lon="1.52974">
        <ele>184.80193</ele>
        <time>2022-03-25T17:06:21.430Z</time>
      </trkpt>
      <trkpt lat="43.73562" lon="1.52973">
        <ele>184.872218</ele>
        <time>2022-03-25T17:06:23.438Z</time>
      </trkpt>
      <trkpt lat="43.73549" lon="1.52972">
        <ele>184.94067</ele>
        <time>2022-03-25T17:06:25.439Z</time>
      </trkpt>
      <trkpt lat="43.73537" lon="1.52971">
        <ele>185.004911</ele>
        <time>2022-03-25T17:06:27.450Z</time>
      </trkpt>
      <trkpt lat="43.73525" lon="1.5297">
        <ele>185.071348</ele>
        <time>2022-03-25T17:06:29.432Z</time>
      </trkpt>
      <trkpt lat="43.73513" lon="1.52968">
        <ele>185.138503</ele>
        <time>2022-03-25T17:06:31.438Z</time>
      </trkpt>
      <trkpt lat="43.73501" lon="1.52965">
        <ele>185.205524</ele>
        <time>2022-03-25T17:06:33.433Z</time>
      </trkpt>
      <trkpt lat="43.7349" lon="1.52963">
        <ele>185.265578</ele>
        <time>2022-03-25T17:06:35.430Z</time>
      </trkpt>
      <trkpt lat="43.73479" lon="1.52959">
        <ele>185.32845</ele>
        <time>2022-03-25T17:06:37.431Z</time>
      </trkpt>
      <trkpt lat="43.73466" lon="1.52957">
        <ele>185.394764</ele>
        <time>2022-03-25T17:06:39.434Z</time>
      </trkpt>
      <trkpt lat="43.73454" lon="1.52955">
        <ele>185.462592</ele>
        <time>2022-03-25T17:06:41.442Z</time>
      </trkpt>
      <trkpt lat="43.73442" lon="1.52951">
        <ele>185.529082</ele>
        <time>2022-03-25T17:06:43.437Z</time>
      </trkpt>
      <trkpt lat="43.73431" lon="1.52943">
        <ele>185.596148</ele>
        <time>2022-03-25T17:06:45.449Z</time>
      </trkpt>
      <trkpt lat="43.73422" lon="1.52931">
        <ele>185.664162</ele>
        <time>2022-03-25T17:06:47.434Z</time>
      </trkpt>
      <trkpt lat="43.73415" lon="1.52916">
        <ele>185.736537</ele>
        <time>2022-03-25T17:06:49.438Z</time>
      </trkpt>
      <trkpt lat="43.73409" lon="1.529">
        <ele>185.739281</ele>
        <time>2022-03-25T17:06:51.436Z</time>
      </trkpt>
      <trkpt lat="43.73403" lon="1.52885">
        <ele>185.724597</ele>
        <time>2022-03-25T17:06:53.444Z</time>
      </trkpt>
      <trkpt lat="43.73395" lon="1.52871">
        <ele>185.710501</ele>
        <time>2022-03-25T17:06:55.452Z</time>
      </trkpt>
      <trkpt lat="43.73386" lon="1.5286">
        <ele>185.696163</ele>
        <time>2022-03-25T17:06:57.441Z</time>
      </trkpt>
      <trkpt lat="43.73375" lon="1.52851">
        <ele>185.681515</ele>
        <time>2022-03-25T17:06:59.441Z</time>
      </trkpt>
      <trkpt lat="43.73365" lon="1.52843">
        <ele>185.668196</ele>
        <time>2022-03-25T17:07:01.439Z</time>
      </trkpt>
      <trkpt lat="43.73356" lon="1.52835">
        <ele>185.656259</ele>
        <time>2022-03-25T17:07:03.448Z</time>
      </trkpt>
      <trkpt lat="43.73351" lon="1.52823">
        <ele>185.644329</ele>
        <time>2022-03-25T17:07:05.432Z</time>
      </trkpt>
      <trkpt lat="43.7335" lon="1.52806">
        <ele>185.630395</ele>
        <time>2022-03-25T17:07:07.433Z</time>
      </trkpt>
      <trkpt lat="43.73347" lon="1.52788">
        <ele>185.615099</ele>
        <time>2022-03-25T17:07:09.436Z</time>
      </trkpt>
      <trkpt lat="43.73342" lon="1.52772">
        <ele>185.600205</ele>
        <time>2022-03-25T17:07:11.440Z</time>
      </trkpt>
      <trkpt lat="43.73335" lon="1.52757">
        <ele>185.585347</ele>
        <time>2022-03-25T17:07:13.443Z</time>
      </trkpt>
      <trkpt lat="43.73327" lon="1.52742">
        <ele>185.570307</ele>
        <time>2022-03-25T17:07:15.441Z</time>
      </trkpt>
      <trkpt lat="43.7332" lon="1.52727">
        <ele>185.555266</ele>
        <time>2022-03-25T17:07:17.457Z</time>
      </trkpt>
      <trkpt lat="43.73312" lon="1.52712">
        <ele>185.548797</ele>
        <time>2022-03-25T17:07:19.440Z</time>
      </trkpt>
      <trkpt lat="43.73305" lon="1.52697">
        <ele>185.567604</ele>
        <time>2022-03-25T17:07:21.441Z</time>
      </trkpt>
      <trkpt lat="43.73299" lon="1.52682">
        <ele>185.586125</ele>
        <time>2022-03-25T17:07:23.441Z</time>
      </trkpt>
      <trkpt lat="43.73292" lon="1.52666">
        <ele>185.605199</ele>
        <time>2022-03-25T17:07:25.447Z</time>
      </trkpt>
      <trkpt lat="43.73285" lon="1.5265">
        <ele>185.624381</ele>
        <time>2022-03-25T17:07:27.437Z</time>
      </trkpt>
      <trkpt lat="43.7328" lon="1.52634">
        <ele>185.643549</ele>
        <time>2022-03-25T17:07:29.458Z</time>
      </trkpt>
      <trkpt lat="43.73274" lon="1.52617">
        <ele>185.662269</ele>
        <time>2022-03-25T17:07:31.440Z</time>
      </trkpt>
      <trkpt lat="43.73269" lon="1.52601">
        <ele>185.681463</ele>
        <time>2022-03-25T17:07:33.447Z</time>
      </trkpt>
      <trkpt lat="43.73262" lon="1.52585">
        <ele>185.70111</ele>
        <time>2022-03-25T17:07:35.455Z</time>
      </trkpt>
      <trkpt lat="43.73255" lon="1.52569">
        <ele>185.720706</ele>
        <time>2022-03-25T17:07:37.437Z</time>
      </trkpt>
      <trkpt lat="43.73247" lon="1.52553">
        <ele>185.740158</ele>
        <time>2022-03-25T17:07:39.429Z</time>
      </trkpt>
      <trkpt lat="43.73239" lon="1.52541">
        <ele>185.758158</ele>
        <time>2022-03-25T17:07:41.450Z</time>
      </trkpt>
      <trkpt lat="43.7323" lon="1.52528">
        <ele>185.776116</ele>
        <time>2022-03-25T17:07:43.445Z</time>
      </trkpt>
      <trkpt lat="43.73225" lon="1.52515">
        <ele>185.792227</ele>
        <time>2022-03-25T17:07:45.442Z</time>
      </trkpt>
      <trkpt lat="43.7322" lon="1.525">
        <ele>185.800898</ele>
        <time>2022-03-25T17:07:47.433Z</time>
      </trkpt>
      <trkpt lat="43.73214" lon="1.52486">
        <ele>185.787675</ele>
        <time>2022-03-25T17:07:49.433Z</time>
      </trkpt>
      <trkpt lat="43.73206" lon="1.52473">
        <ele>185.773253</ele>
        <time>2022-03-25T17:07:51.427Z</time>
      </trkpt>
      <trkpt lat="43.73198" lon="1.52458">
        <ele>185.75825</ele>
        <time>2022-03-25T17:07:53.444Z</time>
      </trkpt>
      <trkpt lat="43.73191" lon="1.52443">
        <ele>185.743186</ele>
        <time>2022-03-25T17:07:55.445Z</time>
      </trkpt>
      <trkpt lat="43.73182" lon="1.52429">
        <ele>185.728036</ele>
        <time>2022-03-25T17:07:57.434Z</time>
      </trkpt>
      <trkpt lat="43.73172" lon="1.52417">
        <ele>185.713452</ele>
        <time>2022-03-25T17:07:59.435Z</time>
      </trkpt>
      <trkpt lat="43.73163" lon="1.52406">
        <ele>185.699106</ele>
        <time>2022-03-25T17:08:01.442Z</time>
      </trkpt>
      <trkpt lat="43.73153" lon="1.52396">
        <ele>185.684968</ele>
        <time>2022-03-25T17:08:03.434Z</time>
      </trkpt>
      <trkpt lat="43.73143" lon="1.52385">
        <ele>185.671185</ele>
        <time>2022-03-25T17:08:05.437Z</time>
      </trkpt>
      <trkpt lat="43.73134" lon="1.52375">
        <ele>185.657279</ele>
        <time>2022-03-25T17:08:07.443Z</time>
      </trkpt>
      <trkpt lat="43.73123" lon="1.52365">
        <ele>185.64305</ele>
        <time>2022-03-25T17:08:09.425Z</time>
      </trkpt>
      <trkpt lat="43.73114" lon="1.52355">
        <ele>185.629095</ele>
        <time>2022-03-25T17:08:11.448Z</time>
      </trkpt>
      <trkpt lat="43.73104" lon="1.52344">
        <ele>185.615225</ele>
        <time>2022-03-25T17:08:13.437Z</time>
      </trkpt>
      <trkpt lat="43.73096" lon="1.52333">
        <ele>185.601758</ele>
        <time>2022-03-25T17:08:15.450Z</time>
      </trkpt>
      <trkpt lat="43.73086" lon="1.52321">
        <ele>185.592409</ele>
        <time>2022-03-25T17:08:17.451Z</time>
      </trkpt>
      <trkpt lat="43.73077" lon="1.52308">
        <ele>185.582995</ele>
        <time>2022-03-25T17:08:19.441Z</time>
      </trkpt>
      <trkpt lat="43.73068" lon="1.52294">
        <ele>185.57394</ele>
        <time>2022-03-25T17:08:21.442Z</time>
      </trkpt>
      <trkpt lat="43.73059" lon="1.52281">
        <ele>185.564923</ele>
        <time>2022-03-25T17:08:23.442Z</time>
      </trkpt>
      <trkpt lat="43.73049" lon="1.5227">
        <ele>185.556181</ele>
        <time>2022-03-25T17:08:25.456Z</time>
      </trkpt>
      <trkpt lat="43.7304" lon="1.52258">
        <ele>185.547297</ele>
        <time>2022-03-25T17:08:27.442Z</time>
      </trkpt>
      <trkpt lat="43.73032" lon="1.52246">
        <ele>185.539039</ele>
        <time>2022-03-25T17:08:29.452Z</time>
      </trkpt>
      <trkpt lat="43.73022" lon="1.52236">
        <ele>185.530813</ele>
        <time>2022-03-25T17:08:31.441Z</time>
      </trkpt>
      <trkpt lat="43.73012" lon="1.52229">
        <ele>185.522854</ele>
        <time>2022-03-25T17:08:33.452Z</time>
      </trkpt>
      <trkpt lat="43.73001" lon="1.52226">
        <ele>185.515095</ele>
        <time>2022-03-25T17:08:35.445Z</time>
      </trkpt>
      <trkpt lat="43.72989" lon="1.52229">
        <ele>185.507056</ele>
        <time>2022-03-25T17:08:37.448Z</time>
      </trkpt>
      <trkpt lat="43.72978" lon="1.52236">
        <ele>185.498221</ele>
        <time>2022-03-25T17:08:39.439Z</time>
      </trkpt>
      <trkpt lat="43.72966" lon="1.52241">
        <ele>185.489636</ele>
        <time>2022-03-25T17:08:41.455Z</time>
      </trkpt>
      <trkpt lat="43.72954" lon="1.52245">
        <ele>185.481196</ele>
        <time>2022-03-25T17:08:43.444Z</time>
      </trkpt>
      <trkpt lat="43.72942" lon="1.52247">
        <ele>185.521774</ele>
        <time>2022-03-25T17:08:45.452Z</time>
      </trkpt>
      <trkpt lat="43.7293" lon="1.5225">
        <ele>185.680012</ele>
        <time>2022-03-25T17:08:47.444Z</time>
      </trkpt>
      <trkpt lat="43.72918" lon="1.52252">
        <ele>185.841393</ele>
        <time>2022-03-25T17:08:49.442Z</time>
      </trkpt>
      <trkpt lat="43.72907" lon="1.52254">
        <ele>185.992385</ele>
        <time>2022-03-25T17:08:51.443Z</time>
      </trkpt>
      <trkpt lat="43.72896" lon="1.52255">
        <ele>186.142338</ele>
        <time>2022-03-25T17:08:53.446Z</time>
      </trkpt>
      <trkpt lat="43.72886" lon="1.52256">
        <ele>186.273669</ele>
        <time>2022-03-25T17:08:55.451Z</time>
      </trkpt>
      <trkpt lat="43.72876" lon="1.52255">
        <ele>186.410077</ele>
        <time>2022-03-25T17:08:57.438Z</time>
      </trkpt>
      <trkpt lat="43.72865" lon="1.52254">
        <ele>186.547689</ele>
        <time>2022-03-25T17:08:59.435Z</time>
      </trkpt>
      <trkpt lat="43.72855" lon="1.52251">
        <ele>186.679659</ele>
        <time>2022-03-25T17:09:01.442Z</time>
      </trkpt>
      <trkpt lat="43.72846" lon="1.52246">
        <ele>186.819352</ele>
        <time>2022-03-25T17:09:03.431Z</time>
      </trkpt>
      <trkpt lat="43.72836" lon="1.52239">
        <ele>186.963055</ele>
        <time>2022-03-25T17:09:05.453Z</time>
      </trkpt>
      <trkpt lat="43.72826" lon="1.52232">
        <ele>187.109425</ele>
        <time>2022-03-25T17:09:07.454Z</time>
      </trkpt>
      <trkpt lat="43.72815" lon="1.52227">
        <ele>187.258386</ele>
        <time>2022-03-25T17:09:09.450Z</time>
      </trkpt>
      <trkpt lat="43.72806" lon="1.5222">
        <ele>187.403263</ele>
        <time>2022-03-25T17:09:11.445Z</time>
      </trkpt>
      <trkpt lat="43.72798" lon="1.5221">
        <ele>187.548008</ele>
        <time>2022-03-25T17:09:13.445Z</time>
      </trkpt>
      <trkpt lat="43.72791" lon="1.52198">
        <ele>187.690772</ele>
        <time>2022-03-25T17:09:15.449Z</time>
      </trkpt>
      <trkpt lat="43.72787" lon="1.52185">
        <ele>187.828718</ele>
        <time>2022-03-25T17:09:17.458Z</time>
      </trkpt>
      <trkpt lat="43.72782" lon="1.52172">
        <ele>187.974739</ele>
        <time>2022-03-25T17:09:19.447Z</time>
      </trkpt>
      <trkpt lat="43.72775" lon="1.5216">
        <ele>188.126119</ele>
        <time>2022-03-25T17:09:21.441Z</time>
      </trkpt>
      <trkpt lat="43.72767" lon="1.52151">
        <ele>188.272154</ele>
        <time>2022-03-25T17:09:23.438Z</time>
      </trkpt>
      <trkpt lat="43.72758" lon="1.52142">
        <ele>188.413382</ele>
        <time>2022-03-25T17:09:25.447Z</time>
      </trkpt>
      <trkpt lat="43.7275" lon="1.52134">
        <ele>188.563659</ele>
        <time>2022-03-25T17:09:27.444Z</time>
      </trkpt>
      <trkpt lat="43.72742" lon="1.52125">
        <ele>188.702901</ele>
        <time>2022-03-25T17:09:29.446Z</time>
      </trkpt>
      <trkpt lat="43.72735" lon="1.52116">
        <ele>188.830169</ele>
        <time>2022-03-25T17:09:31.449Z</time>
      </trkpt>
      <trkpt lat="43.72727" lon="1.52104">
        <ele>188.994537</ele>
        <time>2022-03-25T17:09:34.432Z</time>
      </trkpt>
      <trkpt lat="43.72712" lon="1.5209">
        <ele>189.24291</ele>
        <time>2022-03-25T17:10:22.448Z</time>
      </trkpt>
      <trkpt lat="43.72701" lon="1.52078">
        <ele>189.442753</ele>
        <time>2022-03-25T17:10:25.455Z</time>
      </trkpt>
      <trkpt lat="43.7269" lon="1.52068">
        <ele>189.616841</ele>
        <time>2022-03-25T17:10:27.451Z</time>
      </trkpt>
      <trkpt lat="43.7268" lon="1.52056">
        <ele>189.7975</ele>
        <time>2022-03-25T17:10:29.462Z</time>
      </trkpt>
      <trkpt lat="43.72669" lon="1.52044">
        <ele>189.995711</ele>
        <time>2022-03-25T17:10:31.458Z</time>
      </trkpt>
      <trkpt lat="43.72658" lon="1.5203">
        <ele>190.196511</ele>
        <time>2022-03-25T17:10:33.454Z</time>
      </trkpt>
      <trkpt lat="43.72647" lon="1.52017">
        <ele>190.161304</ele>
        <time>2022-03-25T17:10:35.459Z</time>
      </trkpt>
      <trkpt lat="43.72635" lon="1.52002">
        <ele>189.605903</ele>
        <time>2022-03-25T17:10:37.453Z</time>
      </trkpt>
      <trkpt lat="43.72624" lon="1.51987">
        <ele>189.036563</ele>
        <time>2022-03-25T17:10:39.471Z</time>
      </trkpt>
      <trkpt lat="43.72614" lon="1.51971">
        <ele>188.464112</ele>
        <time>2022-03-25T17:10:41.450Z</time>
      </trkpt>
      <trkpt lat="43.72603" lon="1.51955">
        <ele>187.908507</ele>
        <time>2022-03-25T17:10:43.460Z</time>
      </trkpt>
      <trkpt lat="43.72594" lon="1.5194">
        <ele>187.36539</ele>
        <time>2022-03-25T17:10:45.465Z</time>
      </trkpt>
      <trkpt lat="43.72584" lon="1.51924">
        <ele>186.827353</ele>
        <time>2022-03-25T17:10:47.458Z</time>
      </trkpt>
      <trkpt lat="43.72573" lon="1.51908">
        <ele>186.249751</ele>
        <time>2022-03-25T17:10:49.454Z</time>
      </trkpt>
      <trkpt lat="43.72562" lon="1.51893">
        <ele>185.687076</ele>
        <time>2022-03-25T17:10:51.457Z</time>
      </trkpt>
      <trkpt lat="43.7255" lon="1.5188">
        <ele>185.129998</ele>
        <time>2022-03-25T17:10:53.454Z</time>
      </trkpt>
      <trkpt lat="43.72537" lon="1.51867">
        <ele>184.556924</ele>
        <time>2022-03-25T17:10:55.460Z</time>
      </trkpt>
      <trkpt lat="43.72523" lon="1.51855">
        <ele>183.963903</ele>
        <time>2022-03-25T17:10:57.458Z</time>
      </trkpt>
      <trkpt lat="43.72509" lon="1.51844">
        <ele>183.519237</ele>
        <time>2022-03-25T17:10:59.472Z</time>
      </trkpt>
      <trkpt lat="43.72495" lon="1.51832">
        <ele>183.161348</ele>
        <time>2022-03-25T17:11:01.456Z</time>
      </trkpt>
      <trkpt lat="43.72483" lon="1.51822">
        <ele>182.827768</ele>
        <time>2022-03-25T17:11:03.464Z</time>
      </trkpt>
      <trkpt lat="43.72471" lon="1.51812">
        <ele>182.505621</ele>
        <time>2022-03-25T17:11:05.450Z</time>
      </trkpt>
      <trkpt lat="43.72459" lon="1.51802">
        <ele>182.20389</ele>
        <time>2022-03-25T17:11:07.456Z</time>
      </trkpt>
      <trkpt lat="43.72448" lon="1.51794">
        <ele>181.919329</ele>
        <time>2022-03-25T17:11:09.457Z</time>
      </trkpt>
      <trkpt lat="43.72439" lon="1.51784">
        <ele>181.654678</ele>
        <time>2022-03-25T17:11:11.455Z</time>
      </trkpt>
      <trkpt lat="43.72439" lon="1.51767">
        <ele>181.378546</ele>
        <time>2022-03-25T17:11:13.453Z</time>
      </trkpt>
      <trkpt lat="43.72442" lon="1.51748">
        <ele>181.064854</ele>
        <time>2022-03-25T17:11:15.457Z</time>
      </trkpt>
      <trkpt lat="43.72442" lon="1.51728">
        <ele>180.739441</ele>
        <time>2022-03-25T17:11:17.444Z</time>
      </trkpt>
      <trkpt lat="43.72441" lon="1.51709">
        <ele>180.417186</ele>
        <time>2022-03-25T17:11:19.437Z</time>
      </trkpt>
      <trkpt lat="43.72441" lon="1.51689">
        <ele>180.098215</ele>
        <time>2022-03-25T17:11:21.452Z</time>
      </trkpt>
      <trkpt lat="43.72441" lon="1.51669">
        <ele>179.771159</ele>
        <time>2022-03-25T17:11:23.443Z</time>
      </trkpt>
      <trkpt lat="43.7244" lon="1.51649">
        <ele>179.627728</ele>
        <time>2022-03-25T17:11:25.446Z</time>
      </trkpt>
      <trkpt lat="43.72441" lon="1.51629">
        <ele>179.531675</ele>
        <time>2022-03-25T17:11:27.450Z</time>
      </trkpt>
      <trkpt lat="43.72443" lon="1.51609">
        <ele>179.440018</ele>
        <time>2022-03-25T17:11:29.447Z</time>
      </trkpt>
      <trkpt lat="43.72449" lon="1.51592">
        <ele>179.349586</ele>
        <time>2022-03-25T17:11:31.460Z</time>
      </trkpt>
      <trkpt lat="43.72457" lon="1.51575">
        <ele>179.258356</ele>
        <time>2022-03-25T17:11:33.465Z</time>
      </trkpt>
      <trkpt lat="43.72465" lon="1.51559">
        <ele>179.16575</ele>
        <time>2022-03-25T17:11:35.463Z</time>
      </trkpt>
      <trkpt lat="43.72472" lon="1.51542">
        <ele>179.075</ele>
        <time>2022-03-25T17:11:37.455Z</time>
      </trkpt>
      <trkpt lat="43.72478" lon="1.51524">
        <ele>178.982333</ele>
        <time>2022-03-25T17:11:39.464Z</time>
      </trkpt>
      <trkpt lat="43.72483" lon="1.51505">
        <ele>178.885884</ele>
        <time>2022-03-25T17:11:41.454Z</time>
      </trkpt>
      <trkpt lat="43.72487" lon="1.51485">
        <ele>178.78938</ele>
        <time>2022-03-25T17:11:43.450Z</time>
      </trkpt>
      <trkpt lat="43.72492" lon="1.51465">
        <ele>178.691192</ele>
        <time>2022-03-25T17:11:45.476Z</time>
      </trkpt>
      <trkpt lat="43.72497" lon="1.51445">
        <ele>178.59037</ele>
        <time>2022-03-25T17:11:47.460Z</time>
      </trkpt>
      <trkpt lat="43.72505" lon="1.51426">
        <ele>178.620319</ele>
        <time>2022-03-25T17:11:49.443Z</time>
      </trkpt>
      <trkpt lat="43.72514" lon="1.51411">
        <ele>178.776897</ele>
        <time>2022-03-25T17:11:51.435Z</time>
      </trkpt>
      <trkpt lat="43.72524" lon="1.51402">
        <ele>178.903325</ele>
        <time>2022-03-25T17:11:53.454Z</time>
      </trkpt>
      <trkpt lat="43.72529" lon="1.51389">
        <ele>179.021313</ele>
        <time>2022-03-25T17:11:57.435Z</time>
      </trkpt>
      <trkpt lat="43.72525" lon="1.51375">
        <ele>179.132617</ele>
        <time>2022-03-25T17:11:59.442Z</time>
      </trkpt>
      <trkpt lat="43.72518" lon="1.51359">
        <ele>179.280257</ele>
        <time>2022-03-25T17:12:01.449Z</time>
      </trkpt>
      <trkpt lat="43.72509" lon="1.51345">
        <ele>179.427971</ele>
        <time>2022-03-25T17:12:03.446Z</time>
      </trkpt>
      <trkpt lat="43.72501" lon="1.51331">
        <ele>179.568195</ele>
        <time>2022-03-25T17:12:05.472Z</time>
      </trkpt>
      <trkpt lat="43.72494" lon="1.51318">
        <ele>179.692368</ele>
        <time>2022-03-25T17:12:07.440Z</time>
      </trkpt>
      <trkpt lat="43.72487" lon="1.51306">
        <ele>179.812749</ele>
        <time>2022-03-25T17:12:09.448Z</time>
      </trkpt>
      <trkpt lat="43.7248" lon="1.51294">
        <ele>179.934413</ele>
        <time>2022-03-25T17:12:11.446Z</time>
      </trkpt>
      <trkpt lat="43.72473" lon="1.51282">
        <ele>180.053736</ele>
        <time>2022-03-25T17:12:13.445Z</time>
      </trkpt>
      <trkpt lat="43.72465" lon="1.5127">
        <ele>180.182613</ele>
        <time>2022-03-25T17:12:15.442Z</time>
      </trkpt>
      <trkpt lat="43.72456" lon="1.51257">
        <ele>180.324289</ele>
        <time>2022-03-25T17:12:17.459Z</time>
      </trkpt>
      <trkpt lat="43.72446" lon="1.51244">
        <ele>180.473187</ele>
        <time>2022-03-25T17:12:19.432Z</time>
      </trkpt>
      <trkpt lat="43.72439" lon="1.51228">
        <ele>180.410005</ele>
        <time>2022-03-25T17:12:21.443Z</time>
      </trkpt>
      <trkpt lat="43.72431" lon="1.51212">
        <ele>180.3304</ele>
        <time>2022-03-25T17:12:23.440Z</time>
      </trkpt>
      <trkpt lat="43.72423" lon="1.51197">
        <ele>180.250513</ele>
        <time>2022-03-25T17:12:25.438Z</time>
      </trkpt>
      <trkpt lat="43.72415" lon="1.51182">
        <ele>180.172996</ele>
        <time>2022-03-25T17:12:27.440Z</time>
      </trkpt>
      <trkpt lat="43.72409" lon="1.51168">
        <ele>180.103468</ele>
        <time>2022-03-25T17:12:29.440Z</time>
      </trkpt>
      <trkpt lat="43.72403" lon="1.51154">
        <ele>180.034601</ele>
        <time>2022-03-25T17:12:31.447Z</time>
      </trkpt>
      <trkpt lat="43.72396" lon="1.51139">
        <ele>179.963937</ele>
        <time>2022-03-25T17:12:33.453Z</time>
      </trkpt>
      <trkpt lat="43.72389" lon="1.51123">
        <ele>179.883201</ele>
        <time>2022-03-25T17:12:35.459Z</time>
      </trkpt>
      <trkpt lat="43.72381" lon="1.51106">
        <ele>179.798115</ele>
        <time>2022-03-25T17:12:37.439Z</time>
      </trkpt>
      <trkpt lat="43.72373" lon="1.5109">
        <ele>179.714489</ele>
        <time>2022-03-25T17:12:39.442Z</time>
      </trkpt>
      <trkpt lat="43.72365" lon="1.51074">
        <ele>179.633514</ele>
        <time>2022-03-25T17:12:41.444Z</time>
      </trkpt>
      <trkpt lat="43.72357" lon="1.51058">
        <ele>179.554305</ele>
        <time>2022-03-25T17:12:43.438Z</time>
      </trkpt>
      <trkpt lat="43.72349" lon="1.51043">
        <ele>179.477126</ele>
        <time>2022-03-25T17:12:45.453Z</time>
      </trkpt>
      <trkpt lat="43.72342" lon="1.51028">
        <ele>179.418173</ele>
        <time>2022-03-25T17:12:47.436Z</time>
      </trkpt>
      <trkpt lat="43.72335" lon="1.51013">
        <ele>179.377062</ele>
        <time>2022-03-25T17:12:49.450Z</time>
      </trkpt>
      <trkpt lat="43.72327" lon="1.50998">
        <ele>179.335781</ele>
        <time>2022-03-25T17:12:51.442Z</time>
      </trkpt>
      <trkpt lat="43.72321" lon="1.50983">
        <ele>179.295173</ele>
        <time>2022-03-25T17:12:53.460Z</time>
      </trkpt>
      <trkpt lat="43.72314" lon="1.50968">
        <ele>179.255785</ele>
        <time>2022-03-25T17:12:55.456Z</time>
      </trkpt>
      <trkpt lat="43.72308" lon="1.50954">
        <ele>179.217371</ele>
        <time>2022-03-25T17:12:57.448Z</time>
      </trkpt>
      <trkpt lat="43.72301" lon="1.5094">
        <ele>179.178671</ele>
        <time>2022-03-25T17:12:59.448Z</time>
      </trkpt>
      <trkpt lat="43.72293" lon="1.50926">
        <ele>179.138822</ele>
        <time>2022-03-25T17:13:01.451Z</time>
      </trkpt>
      <trkpt lat="43.72284" lon="1.50915">
        <ele>179.100324</ele>
        <time>2022-03-25T17:13:03.444Z</time>
      </trkpt>
      <trkpt lat="43.72275" lon="1.50904">
        <ele>179.062926</ele>
        <time>2022-03-25T17:13:05.435Z</time>
      </trkpt>
      <trkpt lat="43.72265" lon="1.50894">
        <ele>179.023646</ele>
        <time>2022-03-25T17:13:07.431Z</time>
      </trkpt>
      <trkpt lat="43.72255" lon="1.50884">
        <ele>178.983997</ele>
        <time>2022-03-25T17:13:09.446Z</time>
      </trkpt>
      <trkpt lat="43.72245" lon="1.50874">
        <ele>178.944363</ele>
        <time>2022-03-25T17:13:11.440Z</time>
      </trkpt>
      <trkpt lat="43.72234" lon="1.50864">
        <ele>178.904459</ele>
        <time>2022-03-25T17:13:13.432Z</time>
      </trkpt>
      <trkpt lat="43.72224" lon="1.50853">
        <ele>178.884974</ele>
        <time>2022-03-25T17:13:15.452Z</time>
      </trkpt>
      <trkpt lat="43.72214" lon="1.50843">
        <ele>178.964892</ele>
        <time>2022-03-25T17:13:17.450Z</time>
      </trkpt>
      <trkpt lat="43.72204" lon="1.50833">
        <ele>179.041957</ele>
        <time>2022-03-25T17:13:19.445Z</time>
      </trkpt>
      <trkpt lat="43.72194" lon="1.50823">
        <ele>179.119037</ele>
        <time>2022-03-25T17:13:21.440Z</time>
      </trkpt>
      <trkpt lat="43.72184" lon="1.50813">
        <ele>179.196826</ele>
        <time>2022-03-25T17:13:23.429Z</time>
      </trkpt>
      <trkpt lat="43.72175" lon="1.50802">
        <ele>179.271828</ele>
        <time>2022-03-25T17:13:25.446Z</time>
      </trkpt>
      <trkpt lat="43.72167" lon="1.50791">
        <ele>179.345582</ele>
        <time>2022-03-25T17:13:27.438Z</time>
      </trkpt>
      <trkpt lat="43.72158" lon="1.50779">
        <ele>179.421444</ele>
        <time>2022-03-25T17:13:29.446Z</time>
      </trkpt>
      <trkpt lat="43.7215" lon="1.50767">
        <ele>179.497634</ele>
        <time>2022-03-25T17:13:31.446Z</time>
      </trkpt>
      <trkpt lat="43.72141" lon="1.50755">
        <ele>179.575031</ele>
        <time>2022-03-25T17:13:33.451Z</time>
      </trkpt>
      <trkpt lat="43.72133" lon="1.50743">
        <ele>179.651272</ele>
        <time>2022-03-25T17:13:35.447Z</time>
      </trkpt>
      <trkpt lat="43.72124" lon="1.50732">
        <ele>179.728116</ele>
        <time>2022-03-25T17:13:37.448Z</time>
      </trkpt>
      <trkpt lat="43.72115" lon="1.5072">
        <ele>179.804339</ele>
        <time>2022-03-25T17:13:39.439Z</time>
      </trkpt>
      <trkpt lat="43.72106" lon="1.5071">
        <ele>179.879511</ele>
        <time>2022-03-25T17:13:41.447Z</time>
      </trkpt>
      <trkpt lat="43.72096" lon="1.50701">
        <ele>179.953725</ele>
        <time>2022-03-25T17:13:43.455Z</time>
      </trkpt>
      <trkpt lat="43.72086" lon="1.50692">
        <ele>180.044332</ele>
        <time>2022-03-25T17:13:45.458Z</time>
      </trkpt>
      <trkpt lat="43.72075" lon="1.50683">
        <ele>180.167841</ele>
        <time>2022-03-25T17:13:47.452Z</time>
      </trkpt>
      <trkpt lat="43.72064" lon="1.50675">
        <ele>180.291564</ele>
        <time>2022-03-25T17:13:49.436Z</time>
      </trkpt>
      <trkpt lat="43.72053" lon="1.50667">
        <ele>180.413327</ele>
        <time>2022-03-25T17:13:51.463Z</time>
      </trkpt>
      <trkpt lat="43.72042" lon="1.50659">
        <ele>180.532834</ele>
        <time>2022-03-25T17:13:53.439Z</time>
      </trkpt>
      <trkpt lat="43.72033" lon="1.50651">
        <ele>180.64647</ele>
        <time>2022-03-25T17:13:55.463Z</time>
      </trkpt>
      <trkpt lat="43.72023" lon="1.50642">
        <ele>180.760275</ele>
        <time>2022-03-25T17:13:57.441Z</time>
      </trkpt>
      <trkpt lat="43.72013" lon="1.50634">
        <ele>180.876465</ele>
        <time>2022-03-25T17:13:59.450Z</time>
      </trkpt>
      <trkpt lat="43.72004" lon="1.50623">
        <ele>180.995215</ele>
        <time>2022-03-25T17:14:01.430Z</time>
      </trkpt>
      <trkpt lat="43.71994" lon="1.50613">
        <ele>181.116631</ele>
        <time>2022-03-25T17:14:03.450Z</time>
      </trkpt>
      <trkpt lat="43.71985" lon="1.50602">
        <ele>181.23912</ele>
        <time>2022-03-25T17:14:05.447Z</time>
      </trkpt>
      <trkpt lat="43.71976" lon="1.50591">
        <ele>181.35425</ele>
        <time>2022-03-25T17:14:07.447Z</time>
      </trkpt>
      <trkpt lat="43.71968" lon="1.50579">
        <ele>181.467751</ele>
        <time>2022-03-25T17:14:09.444Z</time>
      </trkpt>
      <trkpt lat="43.71961" lon="1.50567">
        <ele>181.581108</ele>
        <time>2022-03-25T17:14:11.452Z</time>
      </trkpt>
      <trkpt lat="43.71953" lon="1.50555">
        <ele>181.6953</ele>
        <time>2022-03-25T17:14:13.441Z</time>
      </trkpt>
      <trkpt lat="43.71946" lon="1.50542">
        <ele>181.831708</ele>
        <time>2022-03-25T17:14:15.450Z</time>
      </trkpt>
      <trkpt lat="43.71938" lon="1.5053">
        <ele>182.033735</ele>
        <time>2022-03-25T17:14:17.433Z</time>
      </trkpt>
      <trkpt lat="43.71931" lon="1.50517">
        <ele>182.231012</ele>
        <time>2022-03-25T17:14:19.443Z</time>
      </trkpt>
      <trkpt lat="43.71925" lon="1.50507">
        <ele>182.40272</ele>
        <time>2022-03-25T17:14:21.440Z</time>
      </trkpt>
      <trkpt lat="43.71924" lon="1.50487">
        <ele>182.643259</ele>
        <time>2022-03-25T17:14:24.430Z</time>
      </trkpt>
      <trkpt lat="43.71926" lon="1.50471">
        <ele>182.855576</ele>
        <time>2022-03-25T17:14:26.455Z</time>
      </trkpt>
      <trkpt lat="43.7193" lon="1.50454">
        <ele>183.075027</ele>
        <time>2022-03-25T17:14:28.438Z</time>
      </trkpt>
      <trkpt lat="43.71933" lon="1.50437">
        <ele>183.292328</ele>
        <time>2022-03-25T17:14:30.447Z</time>
      </trkpt>
      <trkpt lat="43.71936" lon="1.5042">
        <ele>183.505044</ele>
        <time>2022-03-25T17:14:32.440Z</time>
      </trkpt>
      <trkpt lat="43.71939" lon="1.50404">
        <ele>183.71009</ele>
        <time>2022-03-25T17:14:34.442Z</time>
      </trkpt>
      <trkpt lat="43.71942" lon="1.50388">
        <ele>183.917966</ele>
        <time>2022-03-25T17:14:36.440Z</time>
      </trkpt>
      <trkpt lat="43.71945" lon="1.50372">
        <ele>184.12429</ele>
        <time>2022-03-25T17:14:38.441Z</time>
      </trkpt>
      <trkpt lat="43.71948" lon="1.50356">
        <ele>184.330614</ele>
        <time>2022-03-25T17:14:40.426Z</time>
      </trkpt>
      <trkpt lat="43.71951" lon="1.5034">
        <ele>184.53849</ele>
        <time>2022-03-25T17:14:42.447Z</time>
      </trkpt>
      <trkpt lat="43.71954" lon="1.50325">
        <ele>184.739271</ele>
        <time>2022-03-25T17:14:44.437Z</time>
      </trkpt>
      <trkpt lat="43.71957" lon="1.50309">
        <ele>184.940263</ele>
        <time>2022-03-25T17:14:46.432Z</time>
      </trkpt>
      <trkpt lat="43.71959" lon="1.50294">
        <ele>185.146139</ele>
        <time>2022-03-25T17:14:48.430Z</time>
      </trkpt>
      <trkpt lat="43.71959" lon="1.50279">
        <ele>185.34296</ele>
        <time>2022-03-25T17:14:50.434Z</time>
      </trkpt>
      <trkpt lat="43.71959" lon="1.50265">
        <ele>185.533403</ele>
        <time>2022-03-25T17:14:52.443Z</time>
      </trkpt>
      <trkpt lat="43.71948" lon="1.50258">
        <ele>185.749287</ele>
        <time>2022-03-25T17:14:55.443Z</time>
      </trkpt>
      <trkpt lat="43.71938" lon="1.50264">
        <ele>185.95369</ele>
        <time>2022-03-25T17:14:57.438Z</time>
      </trkpt>
      <trkpt lat="43.71926" lon="1.50266">
        <ele>186.174634</ele>
        <time>2022-03-25T17:14:59.441Z</time>
      </trkpt>
      <trkpt lat="43.71913" lon="1.50266">
        <ele>186.404348</ele>
        <time>2022-03-25T17:15:01.439Z</time>
      </trkpt>
      <trkpt lat="43.71902" lon="1.50264">
        <ele>186.612471</ele>
        <time>2022-03-25T17:15:03.446Z</time>
      </trkpt>
      <trkpt lat="43.71892" lon="1.50259">
        <ele>186.811392</ele>
        <time>2022-03-25T17:15:05.443Z</time>
      </trkpt>
      <trkpt lat="43.71882" lon="1.50251">
        <ele>187.024951</ele>
        <time>2022-03-25T17:15:07.442Z</time>
      </trkpt>
      <trkpt lat="43.71874" lon="1.5024">
        <ele>187.241243</ele>
        <time>2022-03-25T17:15:09.456Z</time>
      </trkpt>
      <trkpt lat="43.71867" lon="1.50228">
        <ele>187.448879</ele>
        <time>2022-03-25T17:15:11.446Z</time>
      </trkpt>
      <trkpt lat="43.71859" lon="1.50215">
        <ele>187.665739</ele>
        <time>2022-03-25T17:15:13.435Z</time>
      </trkpt>
      <trkpt lat="43.71851" lon="1.50203">
        <ele>187.881823</ele>
        <time>2022-03-25T17:15:15.448Z</time>
      </trkpt>
      <trkpt lat="43.71843" lon="1.50191">
        <ele>188.103627</ele>
        <time>2022-03-25T17:15:17.439Z</time>
      </trkpt>
      <trkpt lat="43.71835" lon="1.50179">
        <ele>188.365577</ele>
        <time>2022-03-25T17:15:19.458Z</time>
      </trkpt>
      <trkpt lat="43.71827" lon="1.50167">
        <ele>188.658403</ele>
        <time>2022-03-25T17:15:21.442Z</time>
      </trkpt>
      <trkpt lat="43.71818" lon="1.50154">
        <ele>188.954534</ele>
        <time>2022-03-25T17:15:23.442Z</time>
      </trkpt>
      <trkpt lat="43.7181" lon="1.50142">
        <ele>189.238583</ele>
        <time>2022-03-25T17:15:25.439Z</time>
      </trkpt>
      <trkpt lat="43.71802" lon="1.5013">
        <ele>189.53178</ele>
        <time>2022-03-25T17:15:27.440Z</time>
      </trkpt>
      <trkpt lat="43.71794" lon="1.50118">
        <ele>189.823323</ele>
        <time>2022-03-25T17:15:29.443Z</time>
      </trkpt>
      <trkpt lat="43.71785" lon="1.50105">
        <ele>190.123293</ele>
        <time>2022-03-25T17:15:31.431Z</time>
      </trkpt>
      <trkpt lat="43.71777" lon="1.50093">
        <ele>190.415631</ele>
        <time>2022-03-25T17:15:33.441Z</time>
      </trkpt>
      <trkpt lat="43.71769" lon="1.50081">
        <ele>190.700033</ele>
        <time>2022-03-25T17:15:35.459Z</time>
      </trkpt>
      <trkpt lat="43.7176" lon="1.50071">
        <ele>190.992159</ele>
        <time>2022-03-25T17:15:37.438Z</time>
      </trkpt>
      <trkpt lat="43.7175" lon="1.50061">
        <ele>191.281888</ele>
        <time>2022-03-25T17:15:39.433Z</time>
      </trkpt>
      <trkpt lat="43.71739" lon="1.50054">
        <ele>191.578036</ele>
        <time>2022-03-25T17:15:41.434Z</time>
      </trkpt>
      <trkpt lat="43.71728" lon="1.50049">
        <ele>191.858927</ele>
        <time>2022-03-25T17:15:43.446Z</time>
      </trkpt>
      <trkpt lat="43.71717" lon="1.50044">
        <ele>192.143632</ele>
        <time>2022-03-25T17:15:45.445Z</time>
      </trkpt>
      <trkpt lat="43.71705" lon="1.5004">
        <ele>192.431646</ele>
        <time>2022-03-25T17:15:47.437Z</time>
      </trkpt>
      <trkpt lat="43.71694" lon="1.50035">
        <ele>192.687356</ele>
        <time>2022-03-25T17:15:49.448Z</time>
      </trkpt>
      <trkpt lat="43.71683" lon="1.5003">
        <ele>192.930414</ele>
        <time>2022-03-25T17:15:51.448Z</time>
      </trkpt>
      <trkpt lat="43.71672" lon="1.50025">
        <ele>193.167082</ele>
        <time>2022-03-25T17:15:53.435Z</time>
      </trkpt>
      <trkpt lat="43.71661" lon="1.50018">
        <ele>193.402399</ele>
        <time>2022-03-25T17:15:55.453Z</time>
      </trkpt>
      <trkpt lat="43.71652" lon="1.50008">
        <ele>193.629159</ele>
        <time>2022-03-25T17:15:57.451Z</time>
      </trkpt>
      <trkpt lat="43.71645" lon="1.49996">
        <ele>193.864512</ele>
        <time>2022-03-25T17:15:59.436Z</time>
      </trkpt>
      <trkpt lat="43.71641" lon="1.4998">
        <ele>194.110031</ele>
        <time>2022-03-25T17:16:01.438Z</time>
      </trkpt>
      <trkpt lat="43.71639" lon="1.49964">
        <ele>194.353247</ele>
        <time>2022-03-25T17:16:03.444Z</time>
      </trkpt>
      <trkpt lat="43.71638" lon="1.49947">
        <ele>194.601073</ele>
        <time>2022-03-25T17:16:05.443Z</time>
      </trkpt>
      <trkpt lat="43.71636" lon="1.4993">
        <ele>194.850094</ele>
        <time>2022-03-25T17:16:07.444Z</time>
      </trkpt>
      <trkpt lat="43.71634" lon="1.49913">
        <ele>195.099928</ele>
        <time>2022-03-25T17:16:09.448Z</time>
      </trkpt>
      <trkpt lat="43.71632" lon="1.49896">
        <ele>195.34963</ele>
        <time>2022-03-25T17:16:11.432Z</time>
      </trkpt>
      <trkpt lat="43.7163" lon="1.49881">
        <ele>195.583914</ele>
        <time>2022-03-25T17:16:13.446Z</time>
      </trkpt>
      <trkpt lat="43.71627" lon="1.49866">
        <ele>195.807155</ele>
        <time>2022-03-25T17:16:15.455Z</time>
      </trkpt>
      <trkpt lat="43.71624" lon="1.49851">
        <ele>196.034652</ele>
        <time>2022-03-25T17:16:17.438Z</time>
      </trkpt>
      <trkpt lat="43.71622" lon="1.49835">
        <ele>196.331844</ele>
        <time>2022-03-25T17:16:19.439Z</time>
      </trkpt>
      <trkpt lat="43.7162" lon="1.49819">
        <ele>196.802474</ele>
        <time>2022-03-25T17:16:21.439Z</time>
      </trkpt>
      <trkpt lat="43.71618" lon="1.49804">
        <ele>197.257789</ele>
        <time>2022-03-25T17:16:23.440Z</time>
      </trkpt>
      <trkpt lat="43.71615" lon="1.49789">
        <ele>197.714536</ele>
        <time>2022-03-25T17:16:25.448Z</time>
      </trkpt>
      <trkpt lat="43.71614" lon="1.49775">
        <ele>198.127421</ele>
        <time>2022-03-25T17:16:27.446Z</time>
      </trkpt>
      <trkpt lat="43.71613" lon="1.49762">
        <ele>198.517894</ele>
        <time>2022-03-25T17:16:31.432Z</time>
      </trkpt>
      <trkpt lat="43.71609" lon="1.4975">
        <ele>198.918912</ele>
        <time>2022-03-25T17:16:34.434Z</time>
      </trkpt>
      <trkpt lat="43.71606" lon="1.49736">
        <ele>199.3327</ele>
        <time>2022-03-25T17:16:36.428Z</time>
      </trkpt>
      <trkpt lat="43.71603" lon="1.49722">
        <ele>199.778786</ele>
        <time>2022-03-25T17:16:38.444Z</time>
      </trkpt>
      <trkpt lat="43.716" lon="1.49708">
        <ele>200.217634</ele>
        <time>2022-03-25T17:16:40.427Z</time>
      </trkpt>
      <trkpt lat="43.71597" lon="1.49694">
        <ele>200.624551</ele>
        <time>2022-03-25T17:16:42.423Z</time>
      </trkpt>
      <trkpt lat="43.71595" lon="1.49681">
        <ele>201.036147</ele>
        <time>2022-03-25T17:16:44.438Z</time>
      </trkpt>
      <trkpt lat="43.71595" lon="1.49667">
        <ele>201.456693</ele>
        <time>2022-03-25T17:16:46.450Z</time>
      </trkpt>
      <trkpt lat="43.71596" lon="1.49652">
        <ele>201.876203</ele>
        <time>2022-03-25T17:16:48.443Z</time>
      </trkpt>
      <trkpt lat="43.71597" lon="1.49638">
        <ele>202.306041</ele>
        <time>2022-03-25T17:16:50.447Z</time>
      </trkpt>
      <trkpt lat="43.71597" lon="1.49625">
        <ele>202.688563</ele>
        <time>2022-03-25T17:16:52.430Z</time>
      </trkpt>
      <trkpt lat="43.71598" lon="1.49606">
        <ele>203.249411</ele>
        <time>2022-03-25T17:16:55.444Z</time>
      </trkpt>
      <trkpt lat="43.71598" lon="1.49592">
        <ele>203.76783</ele>
        <time>2022-03-25T17:16:57.437Z</time>
      </trkpt>
      <trkpt lat="43.71599" lon="1.49578">
        <ele>204.777302</ele>
        <time>2022-03-25T17:16:59.437Z</time>
      </trkpt>
      <trkpt lat="43.71599" lon="1.49564">
        <ele>205.777153</ele>
        <time>2022-03-25T17:17:01.439Z</time>
      </trkpt>
      <trkpt lat="43.716" lon="1.4955">
        <ele>206.751543</ele>
        <time>2022-03-25T17:17:03.440Z</time>
      </trkpt>
      <trkpt lat="43.71601" lon="1.49536">
        <ele>207.732949</ele>
        <time>2022-03-25T17:17:05.446Z</time>
      </trkpt>
      <trkpt lat="43.71601" lon="1.49522">
        <ele>208.704659</ele>
        <time>2022-03-25T17:17:07.436Z</time>
      </trkpt>
      <trkpt lat="43.71601" lon="1.49507">
        <ele>209.76814</ele>
        <time>2022-03-25T17:17:09.444Z</time>
      </trkpt>
      <trkpt lat="43.71601" lon="1.49493">
        <ele>210.760717</ele>
        <time>2022-03-25T17:17:11.438Z</time>
      </trkpt>
      <trkpt lat="43.716" lon="1.49478">
        <ele>211.791242</ele>
        <time>2022-03-25T17:17:13.444Z</time>
      </trkpt>
      <trkpt lat="43.71599" lon="1.49465">
        <ele>212.770327</ele>
        <time>2022-03-25T17:17:15.450Z</time>
      </trkpt>
      <trkpt lat="43.71599" lon="1.49451">
        <ele>213.741793</ele>
        <time>2022-03-25T17:17:17.445Z</time>
      </trkpt>
      <trkpt lat="43.71599" lon="1.49436">
        <ele>214.75534</ele>
        <time>2022-03-25T17:17:19.452Z</time>
      </trkpt>
      <trkpt lat="43.71598" lon="1.49424">
        <ele>215.644176</ele>
        <time>2022-03-25T17:17:21.447Z</time>
      </trkpt>
      <trkpt lat="43.71595" lon="1.49412">
        <ele>216.547717</ele>
        <time>2022-03-25T17:17:23.439Z</time>
      </trkpt>
      <trkpt lat="43.71591" lon="1.49399">
        <ele>217.555109</ele>
        <time>2022-03-25T17:17:25.443Z</time>
      </trkpt>
      <trkpt lat="43.71586" lon="1.49385">
        <ele>218.626661</ele>
        <time>2022-03-25T17:17:27.436Z</time>
      </trkpt>
      <trkpt lat="43.7158" lon="1.49372">
        <ele>219.714931</ele>
        <time>2022-03-25T17:17:29.446Z</time>
      </trkpt>
      <trkpt lat="43.71574" lon="1.49358">
        <ele>220.867523</ele>
        <time>2022-03-25T17:17:31.437Z</time>
      </trkpt>
      <trkpt lat="43.71567" lon="1.49344">
        <ele>221.750041</ele>
        <time>2022-03-25T17:17:33.439Z</time>
      </trkpt>
      <trkpt lat="43.71561" lon="1.4933">
        <ele>222.583896</ele>
        <time>2022-03-25T17:17:35.456Z</time>
      </trkpt>
      <trkpt lat="43.71554" lon="1.49317">
        <ele>223.39791</ele>
        <time>2022-03-25T17:17:37.441Z</time>
      </trkpt>
      <trkpt lat="43.71548" lon="1.49303">
        <ele>224.204909</ele>
        <time>2022-03-25T17:17:39.449Z</time>
      </trkpt>
      <trkpt lat="43.71541" lon="1.49289">
        <ele>225.039408</ele>
        <time>2022-03-25T17:17:41.446Z</time>
      </trkpt>
      <trkpt lat="43.71535" lon="1.49275">
        <ele>225.852009</ele>
        <time>2022-03-25T17:17:43.442Z</time>
      </trkpt>
      <trkpt lat="43.7153" lon="1.49261">
        <ele>226.654239</ele>
        <time>2022-03-25T17:17:45.451Z</time>
      </trkpt>
      <trkpt lat="43.71523" lon="1.49246">
        <ele>227.496182</ele>
        <time>2022-03-25T17:17:47.441Z</time>
      </trkpt>
      <trkpt lat="43.71518" lon="1.49232">
        <ele>228.3239</ele>
        <time>2022-03-25T17:17:49.439Z</time>
      </trkpt>
      <trkpt lat="43.71512" lon="1.49218">
        <ele>229.105351</ele>
        <time>2022-03-25T17:17:51.445Z</time>
      </trkpt>
      <trkpt lat="43.71506" lon="1.49205">
        <ele>229.902569</ele>
        <time>2022-03-25T17:17:53.447Z</time>
      </trkpt>
      <trkpt lat="43.71499" lon="1.49192">
        <ele>230.699787</ele>
        <time>2022-03-25T17:17:55.444Z</time>
      </trkpt>
      <trkpt lat="43.71492" lon="1.4918">
        <ele>231.485322</ele>
        <time>2022-03-25T17:17:57.441Z</time>
      </trkpt>
      <trkpt lat="43.71485" lon="1.49168">
        <ele>232.254158</ele>
        <time>2022-03-25T17:17:59.445Z</time>
      </trkpt>
      <trkpt lat="43.71478" lon="1.49155">
        <ele>233.057589</ele>
        <time>2022-03-25T17:18:01.447Z</time>
      </trkpt>
      <trkpt lat="43.71469" lon="1.49143">
        <ele>233.713711</ele>
        <time>2022-03-25T17:18:03.463Z</time>
      </trkpt>
      <trkpt lat="43.71461" lon="1.49131">
        <ele>234.110042</ele>
        <time>2022-03-25T17:18:05.443Z</time>
      </trkpt>
      <trkpt lat="43.71452" lon="1.49119">
        <ele>234.530287</ele>
        <time>2022-03-25T17:18:07.433Z</time>
      </trkpt>
      <trkpt lat="43.71444" lon="1.49108">
        <ele>234.922291</ele>
        <time>2022-03-25T17:18:09.442Z</time>
      </trkpt>
      <trkpt lat="43.71436" lon="1.49096">
        <ele>235.312731</ele>
        <time>2022-03-25T17:18:11.445Z</time>
      </trkpt>
      <trkpt lat="43.71428" lon="1.49084">
        <ele>235.709504</ele>
        <time>2022-03-25T17:18:13.441Z</time>
      </trkpt>
      <trkpt lat="43.71421" lon="1.49072">
        <ele>236.09895</ele>
        <time>2022-03-25T17:18:15.446Z</time>
      </trkpt>
      <trkpt lat="43.71413" lon="1.49061">
        <ele>236.482318</ele>
        <time>2022-03-25T17:18:17.443Z</time>
      </trkpt>
      <trkpt lat="43.71405" lon="1.49051">
        <ele>236.857748</ele>
        <time>2022-03-25T17:18:19.446Z</time>
      </trkpt>
      <trkpt lat="43.71397" lon="1.4904">
        <ele>237.233178</ele>
        <time>2022-03-25T17:18:21.449Z</time>
      </trkpt>
      <trkpt lat="43.71389" lon="1.49029">
        <ele>237.595962</ele>
        <time>2022-03-25T17:18:23.433Z</time>
      </trkpt>
      <trkpt lat="43.71382" lon="1.49017">
        <ele>237.977266</ele>
        <time>2022-03-25T17:18:25.442Z</time>
      </trkpt>
      <trkpt lat="43.71377" lon="1.49003">
        <ele>238.360703</ele>
        <time>2022-03-25T17:18:27.453Z</time>
      </trkpt>
      <trkpt lat="43.71373" lon="1.48989">
        <ele>238.744415</ele>
        <time>2022-03-25T17:18:29.438Z</time>
      </trkpt>
      <trkpt lat="43.71368" lon="1.48972">
        <ele>239.18216</ele>
        <time>2022-03-25T17:18:31.431Z</time>
      </trkpt>
      <trkpt lat="43.71363" lon="1.48955">
        <ele>239.616976</ele>
        <time>2022-03-25T17:18:33.442Z</time>
      </trkpt>
      <trkpt lat="43.71357" lon="1.48939">
        <ele>239.541922</ele>
        <time>2022-03-25T17:18:35.460Z</time>
      </trkpt>
      <trkpt lat="43.71351" lon="1.48921">
        <ele>239.462548</ele>
        <time>2022-03-25T17:18:37.436Z</time>
      </trkpt>
      <trkpt lat="43.71343" lon="1.48905">
        <ele>239.384405</ele>
        <time>2022-03-25T17:18:39.440Z</time>
      </trkpt>
      <trkpt lat="43.71336" lon="1.4889">
        <ele>239.309955</ele>
        <time>2022-03-25T17:18:41.446Z</time>
      </trkpt>
      <trkpt lat="43.71328" lon="1.48875">
        <ele>239.235551</ele>
        <time>2022-03-25T17:18:43.434Z</time>
      </trkpt>
      <trkpt lat="43.7132" lon="1.48861">
        <ele>239.165709</ele>
        <time>2022-03-25T17:18:45.450Z</time>
      </trkpt>
      <trkpt lat="43.71314" lon="1.48847">
        <ele>239.098181</ele>
        <time>2022-03-25T17:18:47.446Z</time>
      </trkpt>
      <trkpt lat="43.71305" lon="1.48834">
        <ele>239.026246</ele>
        <time>2022-03-25T17:18:49.443Z</time>
      </trkpt>
      <trkpt lat="43.71297" lon="1.4882">
        <ele>238.953372</ele>
        <time>2022-03-25T17:18:51.441Z</time>
      </trkpt>
      <trkpt lat="43.7129" lon="1.48806">
        <ele>238.883556</ele>
        <time>2022-03-25T17:18:53.443Z</time>
      </trkpt>
      <trkpt lat="43.71282" lon="1.48792">
        <ele>238.812748</ele>
        <time>2022-03-25T17:18:55.466Z</time>
      </trkpt>
      <trkpt lat="43.71275" lon="1.48778">
        <ele>238.742262</ele>
        <time>2022-03-25T17:18:57.450Z</time>
      </trkpt>
      <trkpt lat="43.71268" lon="1.48764">
        <ele>238.674412</ele>
        <time>2022-03-25T17:18:59.443Z</time>
      </trkpt>
      <trkpt lat="43.7126" lon="1.4875">
        <ele>238.594371</ele>
        <time>2022-03-25T17:19:01.440Z</time>
      </trkpt>
      <trkpt lat="43.71252" lon="1.48737">
        <ele>238.406882</ele>
        <time>2022-03-25T17:19:03.443Z</time>
      </trkpt>
      <trkpt lat="43.71245" lon="1.48724">
        <ele>238.220246</ele>
        <time>2022-03-25T17:19:05.452Z</time>
      </trkpt>
      <trkpt lat="43.71236" lon="1.48711">
        <ele>238.02541</ele>
        <time>2022-03-25T17:19:07.438Z</time>
      </trkpt>
      <trkpt lat="43.71229" lon="1.48698">
        <ele>237.835232</ele>
        <time>2022-03-25T17:19:09.438Z</time>
      </trkpt>
      <trkpt lat="43.71221" lon="1.48685">
        <ele>237.648037</ele>
        <time>2022-03-25T17:19:11.442Z</time>
      </trkpt>
      <trkpt lat="43.71214" lon="1.48671">
        <ele>237.464555</ele>
        <time>2022-03-25T17:19:13.440Z</time>
      </trkpt>
      <trkpt lat="43.71206" lon="1.48658">
        <ele>237.271406</ele>
        <time>2022-03-25T17:19:15.446Z</time>
      </trkpt>
      <trkpt lat="43.71197" lon="1.48645">
        <ele>237.080145</ele>
        <time>2022-03-25T17:19:17.448Z</time>
      </trkpt>
      <trkpt lat="43.71189" lon="1.48632">
        <ele>236.889111</ele>
        <time>2022-03-25T17:19:19.444Z</time>
      </trkpt>
      <trkpt lat="43.71182" lon="1.48619">
        <ele>236.701125</ele>
        <time>2022-03-25T17:19:21.449Z</time>
      </trkpt>
      <trkpt lat="43.71173" lon="1.48606">
        <ele>236.51122</ele>
        <time>2022-03-25T17:19:23.444Z</time>
      </trkpt>
      <trkpt lat="43.71164" lon="1.48594">
        <ele>236.315602</ele>
        <time>2022-03-25T17:19:25.446Z</time>
      </trkpt>
      <trkpt lat="43.71155" lon="1.48582">
        <ele>236.125577</ele>
        <time>2022-03-25T17:19:27.436Z</time>
      </trkpt>
      <trkpt lat="43.71146" lon="1.48571">
        <ele>235.931775</ele>
        <time>2022-03-25T17:19:29.433Z</time>
      </trkpt>
      <trkpt lat="43.71137" lon="1.4856">
        <ele>235.744645</ele>
        <time>2022-03-25T17:19:31.437Z</time>
      </trkpt>
      <trkpt lat="43.71126" lon="1.48547">
        <ele>235.536994</ele>
        <time>2022-03-25T17:19:33.427Z</time>
      </trkpt>
      <trkpt lat="43.71115" lon="1.48534">
        <ele>235.315356</ele>
        <time>2022-03-25T17:19:35.447Z</time>
      </trkpt>
      <trkpt lat="43.71104" lon="1.48521">
        <ele>235.096287</ele>
        <time>2022-03-25T17:19:37.442Z</time>
      </trkpt>
      <trkpt lat="43.71093" lon="1.48509">
        <ele>234.886777</ele>
        <time>2022-03-25T17:19:39.441Z</time>
      </trkpt>
      <trkpt lat="43.71082" lon="1.48496">
        <ele>234.669104</ele>
        <time>2022-03-25T17:19:41.439Z</time>
      </trkpt>
      <trkpt lat="43.71072" lon="1.48481">
        <ele>234.445019</ele>
        <time>2022-03-25T17:19:43.448Z</time>
      </trkpt>
      <trkpt lat="43.71062" lon="1.48467">
        <ele>234.222848</ele>
        <time>2022-03-25T17:19:45.449Z</time>
      </trkpt>
      <trkpt lat="43.71051" lon="1.48455">
        <ele>234.007736</ele>
        <time>2022-03-25T17:19:47.445Z</time>
      </trkpt>
      <trkpt lat="43.71039" lon="1.48444">
        <ele>233.798808</ele>
        <time>2022-03-25T17:19:49.438Z</time>
      </trkpt>
      <trkpt lat="43.71028" lon="1.48434">
        <ele>233.595186</ele>
        <time>2022-03-25T17:19:51.451Z</time>
      </trkpt>
      <trkpt lat="43.71019" lon="1.48425">
        <ele>233.433671</ele>
        <time>2022-03-25T17:19:53.440Z</time>
      </trkpt>
      <trkpt lat="43.71011" lon="1.48416">
        <ele>233.274987</ele>
        <time>2022-03-25T17:20:02.445Z</time>
      </trkpt>
      <trkpt lat="43.71002" lon="1.48406">
        <ele>233.099427</ele>
        <time>2022-03-25T17:20:05.445Z</time>
      </trkpt>
      <trkpt lat="43.70994" lon="1.48398">
        <ele>232.931218</ele>
        <time>2022-03-25T17:20:07.444Z</time>
      </trkpt>
      <trkpt lat="43.70985" lon="1.48387">
        <ele>232.732225</ele>
        <time>2022-03-25T17:20:09.445Z</time>
      </trkpt>
      <trkpt lat="43.70977" lon="1.48378">
        <ele>232.564084</ele>
        <time>2022-03-25T17:20:11.446Z</time>
      </trkpt>
      <trkpt lat="43.70966" lon="1.48367">
        <ele>232.357983</ele>
        <time>2022-03-25T17:20:14.441Z</time>
      </trkpt>
      <trkpt lat="43.70959" lon="1.48359">
        <ele>232.209613</ele>
        <time>2022-03-25T17:20:17.450Z</time>
      </trkpt>
      <trkpt lat="43.70952" lon="1.48351">
        <ele>232.062114</ele>
        <time>2022-03-25T17:20:21.451Z</time>
      </trkpt>
      <trkpt lat="43.70944" lon="1.48344">
        <ele>231.908493</ele>
        <time>2022-03-25T17:20:24.446Z</time>
      </trkpt>
      <trkpt lat="43.70932" lon="1.48334">
        <ele>231.681466</ele>
        <time>2022-03-25T17:20:27.448Z</time>
      </trkpt>
      <trkpt lat="43.70923" lon="1.48327">
        <ele>231.509784</ele>
        <time>2022-03-25T17:20:29.445Z</time>
      </trkpt>
      <trkpt lat="43.70914" lon="1.4832">
        <ele>231.352242</ele>
        <time>2022-03-25T17:20:31.442Z</time>
      </trkpt>
      <trkpt lat="43.70902" lon="1.48312">
        <ele>231.138813</ele>
        <time>2022-03-25T17:20:34.443Z</time>
      </trkpt>
      <trkpt lat="43.7089" lon="1.48305">
        <ele>230.922077</ele>
        <time>2022-03-25T17:20:37.439Z</time>
      </trkpt>
      <trkpt lat="43.70881" lon="1.48298">
        <ele>230.749196</ele>
        <time>2022-03-25T17:20:39.446Z</time>
      </trkpt>
      <trkpt lat="43.70869" lon="1.4829">
        <ele>230.545085</ele>
        <time>2022-03-25T17:20:41.450Z</time>
      </trkpt>
      <trkpt lat="43.70858" lon="1.48282">
        <ele>230.33466</ele>
        <time>2022-03-25T17:20:43.446Z</time>
      </trkpt>
      <trkpt lat="43.70846" lon="1.48274">
        <ele>230.230146</ele>
        <time>2022-03-25T17:20:45.448Z</time>
      </trkpt>
      <trkpt lat="43.70832" lon="1.48266">
        <ele>230.261828</ele>
        <time>2022-03-25T17:20:47.448Z</time>
      </trkpt>
      <trkpt lat="43.7082" lon="1.48258">
        <ele>230.292636</ele>
        <time>2022-03-25T17:20:49.453Z</time>
      </trkpt>
      <trkpt lat="43.70807" lon="1.4825">
        <ele>230.323275</ele>
        <time>2022-03-25T17:20:51.451Z</time>
      </trkpt>
      <trkpt lat="43.70795" lon="1.48241">
        <ele>230.35321</ele>
        <time>2022-03-25T17:20:53.436Z</time>
      </trkpt>
      <trkpt lat="43.70784" lon="1.48232">
        <ele>230.382184</ele>
        <time>2022-03-25T17:20:55.450Z</time>
      </trkpt>
      <trkpt lat="43.70772" lon="1.48224">
        <ele>230.410454</ele>
        <time>2022-03-25T17:20:57.455Z</time>
      </trkpt>
      <trkpt lat="43.70761" lon="1.48217">
        <ele>230.437446</ele>
        <time>2022-03-25T17:20:59.445Z</time>
      </trkpt>
      <trkpt lat="43.7075" lon="1.4821">
        <ele>230.46404</ele>
        <time>2022-03-25T17:21:01.445Z</time>
      </trkpt>
      <trkpt lat="43.70739" lon="1.48204">
        <ele>230.49146</ele>
        <time>2022-03-25T17:21:03.451Z</time>
      </trkpt>
      <trkpt lat="43.70727" lon="1.48197">
        <ele>230.518411</ele>
        <time>2022-03-25T17:21:05.446Z</time>
      </trkpt>
      <trkpt lat="43.70716" lon="1.48191">
        <ele>230.545362</ele>
        <time>2022-03-25T17:21:07.449Z</time>
      </trkpt>
      <trkpt lat="43.70705" lon="1.48184">
        <ele>230.571955</ele>
        <time>2022-03-25T17:21:09.447Z</time>
      </trkpt>
      <trkpt lat="43.70695" lon="1.48176">
        <ele>230.597409</ele>
        <time>2022-03-25T17:21:11.444Z</time>
      </trkpt>
      <trkpt lat="43.70685" lon="1.48168">
        <ele>230.644097</ele>
        <time>2022-03-25T17:21:13.449Z</time>
      </trkpt>
      <trkpt lat="43.70676" lon="1.48158">
        <ele>230.733389</ele>
        <time>2022-03-25T17:21:15.456Z</time>
      </trkpt>
      <trkpt lat="43.70666" lon="1.48146">
        <ele>230.824592</ele>
        <time>2022-03-25T17:21:17.437Z</time>
      </trkpt>
      <trkpt lat="43.70658" lon="1.48133">
        <ele>230.920835</ele>
        <time>2022-03-25T17:21:19.441Z</time>
      </trkpt>
      <trkpt lat="43.70649" lon="1.48119">
        <ele>231.019606</ele>
        <time>2022-03-25T17:21:21.444Z</time>
      </trkpt>
      <trkpt lat="43.70641" lon="1.48103">
        <ele>231.120417</ele>
        <time>2022-03-25T17:21:23.456Z</time>
      </trkpt>
      <trkpt lat="43.70634" lon="1.48088">
        <ele>231.221667</ele>
        <time>2022-03-25T17:21:25.456Z</time>
      </trkpt>
      <trkpt lat="43.70625" lon="1.48072">
        <ele>231.3247</ele>
        <time>2022-03-25T17:21:27.432Z</time>
      </trkpt>
      <trkpt lat="43.70617" lon="1.48058">
        <ele>231.424237</ele>
        <time>2022-03-25T17:21:29.439Z</time>
      </trkpt>
      <trkpt lat="43.70609" lon="1.48043">
        <ele>231.522477</ele>
        <time>2022-03-25T17:21:31.444Z</time>
      </trkpt>
      <trkpt lat="43.70601" lon="1.48029">
        <ele>231.618246</ele>
        <time>2022-03-25T17:21:33.448Z</time>
      </trkpt>
      <trkpt lat="43.70593" lon="1.48016">
        <ele>231.708973</ele>
        <time>2022-03-25T17:21:35.459Z</time>
      </trkpt>
      <trkpt lat="43.70586" lon="1.48002">
        <ele>231.800438</ele>
        <time>2022-03-25T17:21:37.461Z</time>
      </trkpt>
      <trkpt lat="43.70579" lon="1.47988">
        <ele>231.889657</ele>
        <time>2022-03-25T17:21:39.448Z</time>
      </trkpt>
      <trkpt lat="43.70573" lon="1.47973">
        <ele>231.960731</ele>
        <time>2022-03-25T17:21:41.450Z</time>
      </trkpt>
      <trkpt lat="43.70566" lon="1.47959">
        <ele>232.005302</ele>
        <time>2022-03-25T17:21:43.444Z</time>
      </trkpt>
      <trkpt lat="43.70559" lon="1.47946">
        <ele>232.047952</ele>
        <time>2022-03-25T17:21:45.447Z</time>
      </trkpt>
      <trkpt lat="43.70553" lon="1.47932">
        <ele>232.090211</ele>
        <time>2022-03-25T17:21:47.444Z</time>
      </trkpt>
      <trkpt lat="43.70547" lon="1.47918">
        <ele>232.133825</ele>
        <time>2022-03-25T17:21:49.441Z</time>
      </trkpt>
      <trkpt lat="43.7054" lon="1.47904">
        <ele>232.177215</ele>
        <time>2022-03-25T17:21:51.444Z</time>
      </trkpt>
      <trkpt lat="43.70534" lon="1.4789">
        <ele>232.220905</ele>
        <time>2022-03-25T17:21:53.455Z</time>
      </trkpt>
      <trkpt lat="43.70528" lon="1.47875">
        <ele>232.264742</ele>
        <time>2022-03-25T17:21:55.453Z</time>
      </trkpt>
      <trkpt lat="43.70522" lon="1.47861">
        <ele>232.307307</ele>
        <time>2022-03-25T17:21:57.440Z</time>
      </trkpt>
      <trkpt lat="43.70516" lon="1.47847">
        <ele>232.350509</ele>
        <time>2022-03-25T17:21:59.446Z</time>
      </trkpt>
      <trkpt lat="43.7051" lon="1.47833">
        <ele>232.393659</ele>
        <time>2022-03-25T17:22:01.453Z</time>
      </trkpt>
      <trkpt lat="43.70504" lon="1.47818">
        <ele>232.438651</ele>
        <time>2022-03-25T17:22:03.436Z</time>
      </trkpt>
      <trkpt lat="43.70499" lon="1.47803">
        <ele>232.482516</ele>
        <time>2022-03-25T17:22:05.451Z</time>
      </trkpt>
      <trkpt lat="43.70493" lon="1.47788">
        <ele>232.526706</ele>
        <time>2022-03-25T17:22:07.432Z</time>
      </trkpt>
      <trkpt lat="43.70485" lon="1.47775">
        <ele>232.569993</ele>
        <time>2022-03-25T17:22:09.457Z</time>
      </trkpt>
      <trkpt lat="43.70477" lon="1.47764">
        <ele>232.729713</ele>
        <time>2022-03-25T17:22:11.428Z</time>
      </trkpt>
      <trkpt lat="43.70465" lon="1.47757">
        <ele>233.060695</ele>
        <time>2022-03-25T17:22:13.438Z</time>
      </trkpt>
      <trkpt lat="43.70453" lon="1.47751">
        <ele>233.385928</ele>
        <time>2022-03-25T17:22:15.454Z</time>
      </trkpt>
      <trkpt lat="43.70443" lon="1.47746">
        <ele>233.688859</ele>
        <time>2022-03-25T17:22:17.450Z</time>
      </trkpt>
      <trkpt lat="43.70431" lon="1.47741">
        <ele>233.99969</ele>
        <time>2022-03-25T17:22:19.438Z</time>
      </trkpt>
      <trkpt lat="43.7042" lon="1.47736">
        <ele>234.313832</ele>
        <time>2022-03-25T17:22:21.448Z</time>
      </trkpt>
      <trkpt lat="43.70409" lon="1.47731">
        <ele>234.620505</ele>
        <time>2022-03-25T17:22:23.447Z</time>
      </trkpt>
      <trkpt lat="43.70398" lon="1.47725">
        <ele>234.932285</ele>
        <time>2022-03-25T17:22:25.448Z</time>
      </trkpt>
      <trkpt lat="43.70387" lon="1.47719">
        <ele>235.240792</ele>
        <time>2022-03-25T17:22:27.440Z</time>
      </trkpt>
      <trkpt lat="43.70376" lon="1.47714">
        <ele>235.541885</ele>
        <time>2022-03-25T17:22:29.426Z</time>
      </trkpt>
      <trkpt lat="43.70365" lon="1.47709">
        <ele>235.835598</ele>
        <time>2022-03-25T17:22:31.443Z</time>
      </trkpt>
      <trkpt lat="43.70355" lon="1.47703">
        <ele>236.127895</ele>
        <time>2022-03-25T17:22:33.441Z</time>
      </trkpt>
      <trkpt lat="43.70345" lon="1.47698">
        <ele>236.412265</ele>
        <time>2022-03-25T17:22:35.447Z</time>
      </trkpt>
      <trkpt lat="43.70335" lon="1.47694">
        <ele>236.671033</ele>
        <time>2022-03-25T17:22:37.457Z</time>
      </trkpt>
      <trkpt lat="43.70326" lon="1.47689">
        <ele>236.934038</ele>
        <time>2022-03-25T17:22:39.436Z</time>
      </trkpt>
      <trkpt lat="43.70316" lon="1.47683">
        <ele>237.226156</ele>
        <time>2022-03-25T17:22:41.436Z</time>
      </trkpt>
      <trkpt lat="43.70305" lon="1.47676">
        <ele>237.422588</ele>
        <time>2022-03-25T17:22:43.441Z</time>
      </trkpt>
      <trkpt lat="43.70295" lon="1.4767">
        <ele>237.582015</ele>
        <time>2022-03-25T17:22:45.454Z</time>
      </trkpt>
      <trkpt lat="43.70283" lon="1.47663">
        <ele>237.757673</ele>
        <time>2022-03-25T17:22:47.437Z</time>
      </trkpt>
      <trkpt lat="43.70271" lon="1.47656">
        <ele>237.933069</ele>
        <time>2022-03-25T17:22:49.451Z</time>
      </trkpt>
      <trkpt lat="43.7026" lon="1.47649">
        <ele>238.108541</ele>
        <time>2022-03-25T17:22:51.442Z</time>
      </trkpt>
      <trkpt lat="43.7025" lon="1.4764">
        <ele>238.276645</ele>
        <time>2022-03-25T17:22:53.440Z</time>
      </trkpt>
      <trkpt lat="43.70239" lon="1.47632">
        <ele>238.448854</ele>
        <time>2022-03-25T17:22:55.450Z</time>
      </trkpt>
      <trkpt lat="43.70227" lon="1.47622">
        <ele>238.638416</ele>
        <time>2022-03-25T17:22:57.446Z</time>
      </trkpt>
      <trkpt lat="43.70214" lon="1.47612">
        <ele>238.845056</ele>
        <time>2022-03-25T17:22:59.441Z</time>
      </trkpt>
      <trkpt lat="43.70199" lon="1.47604">
        <ele>239.066205</ele>
        <time>2022-03-25T17:23:01.440Z</time>
      </trkpt>
      <trkpt lat="43.70182" lon="1.47602">
        <ele>239.307952</ele>
        <time>2022-03-25T17:23:03.443Z</time>
      </trkpt>
      <trkpt lat="43.70166" lon="1.47609">
        <ele>239.532714</ele>
        <time>2022-03-25T17:23:05.458Z</time>
      </trkpt>
      <trkpt lat="43.70153" lon="1.47617">
        <ele>239.73452</ele>
        <time>2022-03-25T17:23:07.431Z</time>
      </trkpt>
      <trkpt lat="43.70141" lon="1.47624">
        <ele>239.957736</ele>
        <time>2022-03-25T17:23:09.444Z</time>
      </trkpt>
      <trkpt lat="43.7013" lon="1.47627">
        <ele>240.178356</ele>
        <time>2022-03-25T17:23:11.436Z</time>
      </trkpt>
      <trkpt lat="43.70118" lon="1.47627">
        <ele>240.390528</ele>
        <time>2022-03-25T17:23:13.433Z</time>
      </trkpt>
      <trkpt lat="43.70107" lon="1.47626">
        <ele>240.603215</ele>
        <time>2022-03-25T17:23:15.440Z</time>
      </trkpt>
      <trkpt lat="43.70096" lon="1.47624">
        <ele>240.815079</ele>
        <time>2022-03-25T17:23:17.456Z</time>
      </trkpt>
      <trkpt lat="43.70085" lon="1.47622">
        <ele>241.031237</ele>
        <time>2022-03-25T17:23:19.449Z</time>
      </trkpt>
      <trkpt lat="43.70073" lon="1.47619">
        <ele>241.255925</ele>
        <time>2022-03-25T17:23:21.445Z</time>
      </trkpt>
      <trkpt lat="43.70062" lon="1.47617">
        <ele>241.47711</ele>
        <time>2022-03-25T17:23:23.435Z</time>
      </trkpt>
      <trkpt lat="43.7005" lon="1.47616">
        <ele>241.700835</ele>
        <time>2022-03-25T17:23:25.449Z</time>
      </trkpt>
      <trkpt lat="43.70038" lon="1.47617">
        <ele>241.924622</ele>
        <time>2022-03-25T17:23:27.445Z</time>
      </trkpt>
      <trkpt lat="43.70026" lon="1.4762">
        <ele>242.149777</ele>
        <time>2022-03-25T17:23:29.448Z</time>
      </trkpt>
      <trkpt lat="43.70014" lon="1.47625">
        <ele>242.386783</ele>
        <time>2022-03-25T17:23:31.452Z</time>
      </trkpt>
      <trkpt lat="43.70003" lon="1.47631">
        <ele>242.62076</ele>
        <time>2022-03-25T17:23:33.442Z</time>
      </trkpt>
      <trkpt lat="43.69993" lon="1.4764">
        <ele>242.848475</ele>
        <time>2022-03-25T17:23:35.455Z</time>
      </trkpt>
      <trkpt lat="43.69983" lon="1.4765">
        <ele>243.073943</ele>
        <time>2022-03-25T17:23:37.443Z</time>
      </trkpt>
      <trkpt lat="43.69974" lon="1.47662">
        <ele>243.435062</ele>
        <time>2022-03-25T17:23:39.449Z</time>
      </trkpt>
      <trkpt lat="43.69965" lon="1.47673">
        <ele>243.984359</ele>
        <time>2022-03-25T17:23:41.443Z</time>
      </trkpt>
      <trkpt lat="43.69956" lon="1.47684">
        <ele>244.531186</ele>
        <time>2022-03-25T17:23:43.440Z</time>
      </trkpt>
      <trkpt lat="43.69948" lon="1.47694">
        <ele>245.047855</ele>
        <time>2022-03-25T17:23:45.454Z</time>
      </trkpt>
      <trkpt lat="43.69941" lon="1.47705">
        <ele>245.538013</ele>
        <time>2022-03-25T17:23:47.432Z</time>
      </trkpt>
      <trkpt lat="43.69933" lon="1.47715">
        <ele>246.026799</ele>
        <time>2022-03-25T17:23:49.443Z</time>
      </trkpt>
      <trkpt lat="43.69925" lon="1.47726">
        <ele>246.539209</ele>
        <time>2022-03-25T17:23:51.444Z</time>
      </trkpt>
      <trkpt lat="43.69917" lon="1.47737">
        <ele>247.049868</ele>
        <time>2022-03-25T17:23:53.444Z</time>
      </trkpt>
      <trkpt lat="43.6991" lon="1.47747">
        <ele>247.530792</ele>
        <time>2022-03-25T17:23:55.434Z</time>
      </trkpt>
      <trkpt lat="43.69902" lon="1.47757">
        <ele>248.003817</ele>
        <time>2022-03-25T17:23:57.450Z</time>
      </trkpt>
      <trkpt lat="43.69893" lon="1.47765">
        <ele>248.478584</ele>
        <time>2022-03-25T17:23:59.441Z</time>
      </trkpt>
      <trkpt lat="43.69884" lon="1.47772">
        <ele>248.946815</ele>
        <time>2022-03-25T17:24:01.444Z</time>
      </trkpt>
      <trkpt lat="43.69877" lon="1.47784">
        <ele>249.456208</ele>
        <time>2022-03-25T17:24:03.439Z</time>
      </trkpt>
      <trkpt lat="43.69868" lon="1.47793">
        <ele>249.972499</ele>
        <time>2022-03-25T17:24:05.453Z</time>
      </trkpt>
      <trkpt lat="43.69857" lon="1.47798">
        <ele>250.519681</ele>
        <time>2022-03-25T17:24:07.449Z</time>
      </trkpt>
      <trkpt lat="43.69847" lon="1.47802">
        <ele>250.992896</ele>
        <time>2022-03-25T17:24:09.444Z</time>
      </trkpt>
      <trkpt lat="43.69836" lon="1.47807">
        <ele>251.46948</ele>
        <time>2022-03-25T17:24:11.436Z</time>
      </trkpt>
      <trkpt lat="43.69824" lon="1.47811">
        <ele>251.844174</ele>
        <time>2022-03-25T17:24:13.447Z</time>
      </trkpt>
      <trkpt lat="43.69813" lon="1.47816">
        <ele>252.216517</ele>
        <time>2022-03-25T17:24:15.451Z</time>
      </trkpt>
      <trkpt lat="43.69801" lon="1.47821">
        <ele>252.59489</ele>
        <time>2022-03-25T17:24:17.455Z</time>
      </trkpt>
      <trkpt lat="43.6979" lon="1.47825">
        <ele>252.956027</ele>
        <time>2022-03-25T17:24:19.447Z</time>
      </trkpt>
      <trkpt lat="43.69779" lon="1.4783">
        <ele>253.308268</ele>
        <time>2022-03-25T17:24:21.443Z</time>
      </trkpt>
      <trkpt lat="43.69767" lon="1.47833">
        <ele>253.675749</ele>
        <time>2022-03-25T17:24:23.443Z</time>
      </trkpt>
      <trkpt lat="43.69755" lon="1.47835">
        <ele>254.037468</ele>
        <time>2022-03-25T17:24:25.453Z</time>
      </trkpt>
      <trkpt lat="43.69744" lon="1.47837">
        <ele>254.394279</ele>
        <time>2022-03-25T17:24:27.449Z</time>
      </trkpt>
      <trkpt lat="43.69732" lon="1.47837">
        <ele>254.753052</ele>
        <time>2022-03-25T17:24:29.443Z</time>
      </trkpt>
      <trkpt lat="43.6972" lon="1.47834">
        <ele>255.113139</ele>
        <time>2022-03-25T17:24:31.436Z</time>
      </trkpt>
      <trkpt lat="43.69709" lon="1.47827">
        <ele>255.480661</ele>
        <time>2022-03-25T17:24:33.433Z</time>
      </trkpt>
      <trkpt lat="43.697" lon="1.47817">
        <ele>255.847568</ele>
        <time>2022-03-25T17:24:35.451Z</time>
      </trkpt>
      <trkpt lat="43.6969" lon="1.47806">
        <ele>256.218452</ele>
        <time>2022-03-25T17:24:37.445Z</time>
      </trkpt>
      <trkpt lat="43.69682" lon="1.47796">
        <ele>256.574773</ele>
        <time>2022-03-25T17:24:39.435Z</time>
      </trkpt>
      <trkpt lat="43.69672" lon="1.47785">
        <ele>256.927854</ele>
        <time>2022-03-25T17:24:41.443Z</time>
      </trkpt>
      <trkpt lat="43.69663" lon="1.47775">
        <ele>256.855495</ele>
        <time>2022-03-25T17:24:43.428Z</time>
      </trkpt>
      <trkpt lat="43.69656" lon="1.47765">
        <ele>256.791731</ele>
        <time>2022-03-25T17:24:45.454Z</time>
      </trkpt>
      <trkpt lat="43.69649" lon="1.47757">
        <ele>256.735051</ele>
        <time>2022-03-25T17:24:51.450Z</time>
      </trkpt>
      <trkpt lat="43.69651" lon="1.47741">
        <ele>256.660506</ele>
        <time>2022-03-25T17:24:56.429Z</time>
      </trkpt>
      <trkpt lat="43.69644" lon="1.47731">
        <ele>256.599802</ele>
        <time>2022-03-25T17:24:58.431Z</time>
      </trkpt>
      <trkpt lat="43.69635" lon="1.47718">
        <ele>256.519525</ele>
        <time>2022-03-25T17:25:00.464Z</time>
      </trkpt>
      <trkpt lat="43.69629" lon="1.47703">
        <ele>256.439154</ele>
        <time>2022-03-25T17:25:02.443Z</time>
      </trkpt>
      <trkpt lat="43.69623" lon="1.47686">
        <ele>256.354796</ele>
        <time>2022-03-25T17:25:04.439Z</time>
      </trkpt>
      <trkpt lat="43.69616" lon="1.47671">
        <ele>256.273985</ele>
        <time>2022-03-25T17:25:06.438Z</time>
      </trkpt>
      <trkpt lat="43.69609" lon="1.47656">
        <ele>256.192597</ele>
        <time>2022-03-25T17:25:08.446Z</time>
      </trkpt>
      <trkpt lat="43.69603" lon="1.47641">
        <ele>256.112958</ele>
        <time>2022-03-25T17:25:10.441Z</time>
      </trkpt>
      <trkpt lat="43.69597" lon="1.47624">
        <ele>256.029597</ele>
        <time>2022-03-25T17:25:12.438Z</time>
      </trkpt>
      <trkpt lat="43.69591" lon="1.47608">
        <ele>255.946046</ele>
        <time>2022-03-25T17:25:14.440Z</time>
      </trkpt>
      <trkpt lat="43.69587" lon="1.47591">
        <ele>255.864167</ele>
        <time>2022-03-25T17:25:16.465Z</time>
      </trkpt>
      <trkpt lat="43.69585" lon="1.47573">
        <ele>255.748445</ele>
        <time>2022-03-25T17:25:18.447Z</time>
      </trkpt>
      <trkpt lat="43.69582" lon="1.47556">
        <ele>255.536518</ele>
        <time>2022-03-25T17:25:20.436Z</time>
      </trkpt>
      <trkpt lat="43.69576" lon="1.47541">
        <ele>255.326274</ele>
        <time>2022-03-25T17:25:22.446Z</time>
      </trkpt>
      <trkpt lat="43.69566" lon="1.47527">
        <ele>255.097844</ele>
        <time>2022-03-25T17:25:24.451Z</time>
      </trkpt>
      <trkpt lat="43.69555" lon="1.47518">
        <ele>254.870764</ele>
        <time>2022-03-25T17:25:26.455Z</time>
      </trkpt>
      <trkpt lat="43.69544" lon="1.47508">
        <ele>254.651451</ele>
        <time>2022-03-25T17:25:28.438Z</time>
      </trkpt>
      <trkpt lat="43.6954" lon="1.47517">
        <ele>253.342376</ele>
        <time>2022-03-25T17:34:32.457Z</time>
      </trkpt>
      <trkpt lat="43.69531" lon="1.47529">
        <ele>253.204525</ele>
        <time>2022-03-25T17:34:35.454Z</time>
      </trkpt>
      <trkpt lat="43.69525" lon="1.47538">
        <ele>252.919867</ele>
        <time>2022-03-25T17:34:39.440Z</time>
      </trkpt>
      <trkpt lat="43.69516" lon="1.47551">
        <ele>252.537357</ele>
        <time>2022-03-25T17:34:41.438Z</time>
      </trkpt>
      <trkpt lat="43.69507" lon="1.47567">
        <ele>252.092993</ele>
        <time>2022-03-25T17:34:43.459Z</time>
      </trkpt>
      <trkpt lat="43.695" lon="1.47583">
        <ele>251.688741</ele>
        <time>2022-03-25T17:34:45.455Z</time>
      </trkpt>
      <trkpt lat="43.69494" lon="1.47605">
        <ele>251.181291</ele>
        <time>2022-03-25T17:34:47.455Z</time>
      </trkpt>
      <trkpt lat="43.69492" lon="1.47627">
        <ele>250.689272</ele>
        <time>2022-03-25T17:34:49.457Z</time>
      </trkpt>
      <trkpt lat="43.6949" lon="1.47648">
        <ele>250.2336</ele>
        <time>2022-03-25T17:34:51.460Z</time>
      </trkpt>
      <trkpt lat="43.69488" lon="1.47668">
        <ele>249.777929</ele>
        <time>2022-03-25T17:34:53.446Z</time>
      </trkpt>
      <trkpt lat="43.69484" lon="1.47688">
        <ele>249.337674</ele>
        <time>2022-03-25T17:34:55.463Z</time>
      </trkpt>
      <trkpt lat="43.69474" lon="1.47706">
        <ele>248.837734</ele>
        <time>2022-03-25T17:34:57.459Z</time>
      </trkpt>
      <trkpt lat="43.69465" lon="1.47723">
        <ele>248.376485</ele>
        <time>2022-03-25T17:34:59.459Z</time>
      </trkpt>
      <trkpt lat="43.69458" lon="1.47741">
        <ele>247.940935</ele>
        <time>2022-03-25T17:35:01.451Z</time>
      </trkpt>
      <trkpt lat="43.69449" lon="1.47759">
        <ele>247.299212</ele>
        <time>2022-03-25T17:35:03.456Z</time>
      </trkpt>
      <trkpt lat="43.69439" lon="1.47771">
        <ele>246.761385</ele>
        <time>2022-03-25T17:35:05.443Z</time>
      </trkpt>
      <trkpt lat="43.69426" lon="1.47775">
        <ele>246.2171</ele>
        <time>2022-03-25T17:35:07.436Z</time>
      </trkpt>
      <trkpt lat="43.69413" lon="1.47774">
        <ele>245.67946</ele>
        <time>2022-03-25T17:35:09.446Z</time>
      </trkpt>
      <trkpt lat="43.694" lon="1.47774">
        <ele>245.146109</ele>
        <time>2022-03-25T17:35:11.446Z</time>
      </trkpt>
      <trkpt lat="43.69387" lon="1.47774">
        <ele>244.637221</ele>
        <time>2022-03-25T17:35:13.445Z</time>
      </trkpt>
      <trkpt lat="43.69374" lon="1.47775">
        <ele>244.103131</ele>
        <time>2022-03-25T17:35:15.449Z</time>
      </trkpt>
      <trkpt lat="43.6936" lon="1.47777">
        <ele>243.542916</ele>
        <time>2022-03-25T17:35:17.445Z</time>
      </trkpt>
      <trkpt lat="43.69345" lon="1.47779">
        <ele>242.910182</ele>
        <time>2022-03-25T17:35:19.447Z</time>
      </trkpt>
      <trkpt lat="43.6933" lon="1.47779">
        <ele>242.291164</ele>
        <time>2022-03-25T17:35:21.467Z</time>
      </trkpt>
      <trkpt lat="43.69315" lon="1.47777">
        <ele>241.683841</ele>
        <time>2022-03-25T17:35:23.447Z</time>
      </trkpt>
      <trkpt lat="43.69302" lon="1.47766">
        <ele>241.081511</ele>
        <time>2022-03-25T17:35:25.450Z</time>
      </trkpt>
      <trkpt lat="43.69291" lon="1.47752">
        <ele>240.489986</ele>
        <time>2022-03-25T17:35:27.462Z</time>
      </trkpt>
      <trkpt lat="43.69278" lon="1.47737">
        <ele>239.992349</ele>
        <time>2022-03-25T17:35:29.437Z</time>
      </trkpt>
      <trkpt lat="43.69266" lon="1.47723">
        <ele>239.51121</ele>
        <time>2022-03-25T17:35:31.453Z</time>
      </trkpt>
      <trkpt lat="43.69255" lon="1.47712">
        <ele>239.091209</ele>
        <time>2022-03-25T17:35:33.464Z</time>
      </trkpt>
      <trkpt lat="43.69245" lon="1.47703">
        <ele>238.737845</ele>
        <time>2022-03-25T17:35:35.462Z</time>
      </trkpt>
      <trkpt lat="43.69237" lon="1.47696">
        <ele>238.426716</ele>
        <time>2022-03-25T17:35:37.447Z</time>
      </trkpt>
      <trkpt lat="43.69227" lon="1.47692">
        <ele>238.1269</ele>
        <time>2022-03-25T17:35:39.460Z</time>
      </trkpt>
      <trkpt lat="43.69218" lon="1.47686">
        <ele>237.807198</ele>
        <time>2022-03-25T17:35:41.446Z</time>
      </trkpt>
      <trkpt lat="43.69207" lon="1.47674">
        <ele>237.397191</ele>
        <time>2022-03-25T17:35:43.448Z</time>
      </trkpt>
      <trkpt lat="43.69195" lon="1.47662">
        <ele>236.935687</ele>
        <time>2022-03-25T17:35:45.464Z</time>
      </trkpt>
      <trkpt lat="43.69181" lon="1.4765">
        <ele>236.422413</ele>
        <time>2022-03-25T17:35:47.456Z</time>
      </trkpt>
      <trkpt lat="43.69167" lon="1.47637">
        <ele>235.906678</ele>
        <time>2022-03-25T17:35:49.464Z</time>
      </trkpt>
      <trkpt lat="43.6916" lon="1.47628">
        <ele>235.624836</ele>
        <time>2022-03-25T17:35:50.458Z</time>
      </trkpt>
      <trkpt lat="43.69154" lon="1.47618">
        <ele>235.329598</ele>
        <time>2022-03-25T17:35:51.459Z</time>
      </trkpt>
      <trkpt lat="43.69147" lon="1.47606">
        <ele>234.928722</ele>
        <time>2022-03-25T17:35:52.473Z</time>
      </trkpt>
      <trkpt lat="43.69141" lon="1.47594">
        <ele>234.330349</ele>
        <time>2022-03-25T17:35:53.469Z</time>
      </trkpt>
      <trkpt lat="43.69136" lon="1.4758">
        <ele>233.708487</ele>
        <time>2022-03-25T17:35:54.430Z</time>
      </trkpt>
      <trkpt lat="43.69132" lon="1.47565">
        <ele>233.082506</ele>
        <time>2022-03-25T17:35:55.459Z</time>
      </trkpt>
      <trkpt lat="43.69128" lon="1.4755">
        <ele>232.445622</ele>
        <time>2022-03-25T17:35:56.457Z</time>
      </trkpt>
      <trkpt lat="43.69124" lon="1.47534">
        <ele>231.802954</ele>
        <time>2022-03-25T17:35:57.465Z</time>
      </trkpt>
      <trkpt lat="43.69121" lon="1.47519">
        <ele>231.173151</ele>
        <time>2022-03-25T17:35:58.466Z</time>
      </trkpt>
      <trkpt lat="43.69117" lon="1.47504">
        <ele>230.562029</ele>
        <time>2022-03-25T17:35:59.459Z</time>
      </trkpt>
      <trkpt lat="43.69113" lon="1.4749">
        <ele>229.971467</ele>
        <time>2022-03-25T17:36:00.456Z</time>
      </trkpt>
      <trkpt lat="43.69109" lon="1.47476">
        <ele>229.378662</ele>
        <time>2022-03-25T17:36:01.456Z</time>
      </trkpt>
      <trkpt lat="43.69105" lon="1.47462">
        <ele>228.763472</ele>
        <time>2022-03-25T17:36:02.459Z</time>
      </trkpt>
      <trkpt lat="43.69099" lon="1.47447">
        <ele>228.133798</ele>
        <time>2022-03-25T17:36:03.458Z</time>
      </trkpt>
      <trkpt lat="43.69093" lon="1.47434">
        <ele>227.496598</ele>
        <time>2022-03-25T17:36:04.465Z</time>
      </trkpt>
      <trkpt lat="43.69086" lon="1.47421">
        <ele>226.863705</ele>
        <time>2022-03-25T17:36:05.444Z</time>
      </trkpt>
      <trkpt lat="43.69079" lon="1.47408">
        <ele>226.242214</ele>
        <time>2022-03-25T17:36:06.453Z</time>
      </trkpt>
      <trkpt lat="43.69071" lon="1.47397">
        <ele>225.62267</ele>
        <time>2022-03-25T17:36:07.452Z</time>
      </trkpt>
      <trkpt lat="43.69064" lon="1.47384">
        <ele>225.119219</ele>
        <time>2022-03-25T17:36:08.451Z</time>
      </trkpt>
      <trkpt lat="43.69057" lon="1.47372">
        <ele>224.734503</ele>
        <time>2022-03-25T17:36:09.453Z</time>
      </trkpt>
      <trkpt lat="43.6905" lon="1.47362">
        <ele>224.381397</ele>
        <time>2022-03-25T17:36:10.460Z</time>
      </trkpt>
      <trkpt lat="43.69044" lon="1.47352">
        <ele>224.056769</ele>
        <time>2022-03-25T17:36:11.456Z</time>
      </trkpt>
      <trkpt lat="43.69037" lon="1.4733">
        <ele>223.444374</ele>
        <time>2022-03-25T17:36:13.466Z</time>
      </trkpt>
      <trkpt lat="43.6903" lon="1.47308">
        <ele>222.866453</ele>
        <time>2022-03-25T17:36:15.483Z</time>
      </trkpt>
      <trkpt lat="43.69019" lon="1.47296">
        <ele>222.383108</ele>
        <time>2022-03-25T17:36:17.442Z</time>
      </trkpt>
      <trkpt lat="43.69009" lon="1.473">
        <ele>222.003517</ele>
        <time>2022-03-25T17:36:19.457Z</time>
      </trkpt>
      <trkpt lat="43.69002" lon="1.47313">
        <ele>221.610179</ele>
        <time>2022-03-25T17:36:21.446Z</time>
      </trkpt>
      <trkpt lat="43.68996" lon="1.47327">
        <ele>221.202627</ele>
        <time>2022-03-25T17:36:23.472Z</time>
      </trkpt>
      <trkpt lat="43.68991" lon="1.47338">
        <ele>220.865422</ele>
        <time>2022-03-25T17:36:25.455Z</time>
      </trkpt>
      <trkpt lat="43.68986" lon="1.47351">
        <ele>220.49684</ele>
        <time>2022-03-25T17:36:27.457Z</time>
      </trkpt>
      <trkpt lat="43.68979" lon="1.47362">
        <ele>220.127717</ele>
        <time>2022-03-25T17:36:29.455Z</time>
      </trkpt>
      <trkpt lat="43.68973" lon="1.47375">
        <ele>219.732308</ele>
        <time>2022-03-25T17:36:31.456Z</time>
      </trkpt>
      <trkpt lat="43.68967" lon="1.47387">
        <ele>219.387521</ele>
        <time>2022-03-25T17:36:33.464Z</time>
      </trkpt>
      <trkpt lat="43.68961" lon="1.474">
        <ele>219.265381</ele>
        <time>2022-03-25T17:36:35.466Z</time>
      </trkpt>
      <trkpt lat="43.68956" lon="1.47412">
        <ele>219.650522</ele>
        <time>2022-03-25T17:36:37.460Z</time>
      </trkpt>
      <trkpt lat="43.68949" lon="1.47422">
        <ele>220.012872</ele>
        <time>2022-03-25T17:36:41.459Z</time>
      </trkpt>
      <trkpt lat="43.68942" lon="1.47431">
        <ele>220.372997</ele>
        <time>2022-03-25T17:36:54.459Z</time>
      </trkpt>
      <trkpt lat="43.68935" lon="1.47422">
        <ele>220.719604</ele>
        <time>2022-03-25T17:36:57.450Z</time>
      </trkpt>
      <trkpt lat="43.68927" lon="1.47411">
        <ele>221.135999</ele>
        <time>2022-03-25T17:36:59.457Z</time>
      </trkpt>
      <trkpt lat="43.68919" lon="1.47401">
        <ele>221.554169</ele>
        <time>2022-03-25T17:37:01.466Z</time>
      </trkpt>
      <trkpt lat="43.6891" lon="1.47391">
        <ele>221.95448</ele>
        <time>2022-03-25T17:37:03.462Z</time>
      </trkpt>
      <trkpt lat="43.68905" lon="1.47379">
        <ele>222.345264</ele>
        <time>2022-03-25T17:37:05.455Z</time>
      </trkpt>
      <trkpt lat="43.68906" lon="1.47361">
        <ele>222.815287</ele>
        <time>2022-03-25T17:37:07.463Z</time>
      </trkpt>
      <trkpt lat="43.68912" lon="1.47345">
        <ele>223.308801</ele>
        <time>2022-03-25T17:37:09.463Z</time>
      </trkpt>
      <trkpt lat="43.68919" lon="1.47329">
        <ele>223.800286</ele>
        <time>2022-03-25T17:37:11.465Z</time>
      </trkpt>
      <trkpt lat="43.68925" lon="1.47315">
        <ele>224.260608</ele>
        <time>2022-03-25T17:37:13.455Z</time>
      </trkpt>
      <trkpt lat="43.68932" lon="1.473">
        <ele>224.723225</ele>
        <time>2022-03-25T17:37:15.461Z</time>
      </trkpt>
      <trkpt lat="43.68937" lon="1.47284">
        <ele>225.196538</ele>
        <time>2022-03-25T17:37:17.452Z</time>
      </trkpt>
      <trkpt lat="43.68941" lon="1.47266">
        <ele>225.705079</ele>
        <time>2022-03-25T17:37:19.457Z</time>
      </trkpt>
      <trkpt lat="43.68938" lon="1.47246">
        <ele>225.981047</ele>
        <time>2022-03-25T17:37:21.468Z</time>
      </trkpt>
      <trkpt lat="43.68928" lon="1.47228">
        <ele>226.17233</ele>
        <time>2022-03-25T17:37:23.458Z</time>
      </trkpt>
      <trkpt lat="43.68918" lon="1.47215">
        <ele>226.352065</ele>
        <time>2022-03-25T17:37:25.467Z</time>
      </trkpt>
      <trkpt lat="43.68906" lon="1.47202">
        <ele>226.539574</ele>
        <time>2022-03-25T17:37:27.453Z</time>
      </trkpt>
      <trkpt lat="43.68892" lon="1.47188">
        <ele>226.749403</ele>
        <time>2022-03-25T17:37:29.444Z</time>
      </trkpt>
      <trkpt lat="43.68885" lon="1.4718">
        <ele>226.861118</ele>
        <time>2022-03-25T17:37:30.458Z</time>
      </trkpt>
      <trkpt lat="43.68878" lon="1.47171">
        <ele>226.979339</ele>
        <time>2022-03-25T17:37:31.459Z</time>
      </trkpt>
      <trkpt lat="43.6887" lon="1.47161">
        <ele>227.10661</ele>
        <time>2022-03-25T17:37:32.455Z</time>
      </trkpt>
      <trkpt lat="43.68862" lon="1.47152">
        <ele>227.238163</ele>
        <time>2022-03-25T17:37:33.452Z</time>
      </trkpt>
      <trkpt lat="43.68854" lon="1.47142">
        <ele>227.367964</ele>
        <time>2022-03-25T17:37:34.458Z</time>
      </trkpt>
      <trkpt lat="43.68847" lon="1.47134">
        <ele>227.486338</ele>
        <time>2022-03-25T17:37:35.466Z</time>
      </trkpt>
      <trkpt lat="43.68835" lon="1.47121">
        <ele>227.673438</ele>
        <time>2022-03-25T17:37:37.442Z</time>
      </trkpt>
      <trkpt lat="43.68826" lon="1.47111">
        <ele>227.816189</ele>
        <time>2022-03-25T17:37:39.459Z</time>
      </trkpt>
      <trkpt lat="43.6882" lon="1.47101">
        <ele>227.928836</ele>
        <time>2022-03-25T17:37:41.462Z</time>
      </trkpt>
      <trkpt lat="43.68815" lon="1.47091">
        <ele>228.04042</ele>
        <time>2022-03-25T17:37:43.465Z</time>
      </trkpt>
      <trkpt lat="43.68809" lon="1.4708">
        <ele>228.459617</ele>
        <time>2022-03-25T17:37:45.464Z</time>
      </trkpt>
      <trkpt lat="43.68802" lon="1.4707">
        <ele>228.966861</ele>
        <time>2022-03-25T17:37:47.460Z</time>
      </trkpt>
      <trkpt lat="43.68794" lon="1.4706">
        <ele>229.53764</ele>
        <time>2022-03-25T17:37:49.465Z</time>
      </trkpt>
      <trkpt lat="43.68784" lon="1.4705">
        <ele>230.126525</ele>
        <time>2022-03-25T17:37:51.462Z</time>
      </trkpt>
      <trkpt lat="43.68774" lon="1.47042">
        <ele>230.69131</ele>
        <time>2022-03-25T17:37:53.455Z</time>
      </trkpt>
      <trkpt lat="43.68764" lon="1.47035">
        <ele>231.276435</ele>
        <time>2022-03-25T17:37:55.454Z</time>
      </trkpt>
      <trkpt lat="43.68753" lon="1.47035">
        <ele>231.806885</ele>
        <time>2022-03-25T17:37:57.455Z</time>
      </trkpt>
      <trkpt lat="43.68744" lon="1.47044">
        <ele>232.350009</ele>
        <time>2022-03-25T17:37:59.483Z</time>
      </trkpt>
      <trkpt lat="43.68737" lon="1.47058">
        <ele>232.962983</ele>
        <time>2022-03-25T17:38:01.470Z</time>
      </trkpt>
      <trkpt lat="43.68729" lon="1.47071">
        <ele>233.567069</ele>
        <time>2022-03-25T17:38:03.457Z</time>
      </trkpt>
      <trkpt lat="43.68722" lon="1.47084">
        <ele>234.136836</ele>
        <time>2022-03-25T17:38:05.448Z</time>
      </trkpt>
      <trkpt lat="43.68714" lon="1.47095">
        <ele>234.697658</ele>
        <time>2022-03-25T17:38:07.466Z</time>
      </trkpt>
      <trkpt lat="43.68705" lon="1.47103">
        <ele>235.24752</ele>
        <time>2022-03-25T17:38:09.473Z</time>
      </trkpt>
      <trkpt lat="43.68693" lon="1.47102">
        <ele>235.823375</ele>
        <time>2022-03-25T17:38:11.458Z</time>
      </trkpt>
      <trkpt lat="43.68684" lon="1.47091">
        <ele>236.415197</ele>
        <time>2022-03-25T17:38:13.457Z</time>
      </trkpt>
      <trkpt lat="43.68676" lon="1.47079">
        <ele>236.9869</ele>
        <time>2022-03-25T17:38:15.457Z</time>
      </trkpt>
      <trkpt lat="43.68669" lon="1.47068">
        <ele>237.39019</ele>
        <time>2022-03-25T17:38:17.455Z</time>
      </trkpt>
      <trkpt lat="43.6866" lon="1.47056">
        <ele>237.794684</ele>
        <time>2022-03-25T17:38:19.467Z</time>
      </trkpt>
      <trkpt lat="43.68652" lon="1.47045">
        <ele>238.203869</ele>
        <time>2022-03-25T17:38:21.456Z</time>
      </trkpt>
      <trkpt lat="43.68643" lon="1.47035">
        <ele>238.607028</ele>
        <time>2022-03-25T17:38:23.466Z</time>
      </trkpt>
      <trkpt lat="43.68635" lon="1.47024">
        <ele>239.015321</ele>
        <time>2022-03-25T17:38:25.471Z</time>
      </trkpt>
      <trkpt lat="43.68627" lon="1.47013">
        <ele>239.414437</ele>
        <time>2022-03-25T17:38:27.460Z</time>
      </trkpt>
      <trkpt lat="43.68618" lon="1.47002">
        <ele>239.808149</ele>
        <time>2022-03-25T17:38:29.464Z</time>
      </trkpt>
      <trkpt lat="43.68611" lon="1.4699">
        <ele>240.206701</ele>
        <time>2022-03-25T17:38:31.460Z</time>
      </trkpt>
      <trkpt lat="43.68604" lon="1.46978">
        <ele>240.611973</ele>
        <time>2022-03-25T17:38:33.458Z</time>
      </trkpt>
      <trkpt lat="43.68595" lon="1.46966">
        <ele>241.022894</ele>
        <time>2022-03-25T17:38:35.473Z</time>
      </trkpt>
      <trkpt lat="43.68586" lon="1.46955">
        <ele>241.440672</ele>
        <time>2022-03-25T17:38:37.463Z</time>
      </trkpt>
      <trkpt lat="43.68577" lon="1.46944">
        <ele>241.863694</ele>
        <time>2022-03-25T17:38:39.475Z</time>
      </trkpt>
      <trkpt lat="43.68568" lon="1.46934">
        <ele>242.282301</ele>
        <time>2022-03-25T17:38:41.455Z</time>
      </trkpt>
      <trkpt lat="43.68559" lon="1.46923">
        <ele>242.706066</ele>
        <time>2022-03-25T17:38:43.456Z</time>
      </trkpt>
      <trkpt lat="43.68554" lon="1.46909">
        <ele>243.105422</ele>
        <time>2022-03-25T17:38:45.462Z</time>
      </trkpt>
      <trkpt lat="43.68555" lon="1.46889">
        <ele>243.161806</ele>
        <time>2022-03-25T17:38:47.477Z</time>
      </trkpt>
      <trkpt lat="43.68556" lon="1.46869">
        <ele>242.992212</ele>
        <time>2022-03-25T17:38:49.455Z</time>
      </trkpt>
      <trkpt lat="43.68548" lon="1.46849">
        <ele>242.803505</ele>
        <time>2022-03-25T17:38:51.454Z</time>
      </trkpt>
      <trkpt lat="43.68538" lon="1.46831">
        <ele>242.620669</ele>
        <time>2022-03-25T17:38:53.468Z</time>
      </trkpt>
      <trkpt lat="43.68529" lon="1.46816">
        <ele>242.4576</ele>
        <time>2022-03-25T17:38:55.463Z</time>
      </trkpt>
      <trkpt lat="43.68519" lon="1.46804">
        <ele>242.305755</ele>
        <time>2022-03-25T17:38:57.458Z</time>
      </trkpt>
      <trkpt lat="43.68507" lon="1.46796">
        <ele>242.153888</ele>
        <time>2022-03-25T17:38:59.465Z</time>
      </trkpt>
      <trkpt lat="43.68493" lon="1.46794">
        <ele>241.999685</ele>
        <time>2022-03-25T17:39:01.460Z</time>
      </trkpt>
      <trkpt lat="43.6848" lon="1.46798">
        <ele>241.838231</ele>
        <time>2022-03-25T17:39:03.471Z</time>
      </trkpt>
      <trkpt lat="43.68467" lon="1.46806">
        <ele>241.680831</ele>
        <time>2022-03-25T17:39:05.448Z</time>
      </trkpt>
      <trkpt lat="43.68457" lon="1.46818">
        <ele>241.527076</ele>
        <time>2022-03-25T17:39:07.480Z</time>
      </trkpt>
      <trkpt lat="43.68449" lon="1.46832">
        <ele>241.38275</ele>
        <time>2022-03-25T17:39:09.455Z</time>
      </trkpt>
      <trkpt lat="43.68442" lon="1.46844">
        <ele>241.253454</ele>
        <time>2022-03-25T17:39:11.445Z</time>
      </trkpt>
      <trkpt lat="43.68436" lon="1.46857">
        <ele>240.907034</ele>
        <time>2022-03-25T17:39:13.458Z</time>
      </trkpt>
      <trkpt lat="43.68428" lon="1.46866">
        <ele>240.521514</ele>
        <time>2022-03-25T17:39:15.458Z</time>
      </trkpt>
      <trkpt lat="43.68418" lon="1.46858">
        <ele>240.076845</ele>
        <time>2022-03-25T17:39:17.452Z</time>
      </trkpt>
      <trkpt lat="43.68409" lon="1.46843">
        <ele>239.514787</ele>
        <time>2022-03-25T17:39:19.451Z</time>
      </trkpt>
      <trkpt lat="43.684" lon="1.46828">
        <ele>238.964601</ele>
        <time>2022-03-25T17:39:21.467Z</time>
      </trkpt>
      <trkpt lat="43.68389" lon="1.46814">
        <ele>238.360389</ele>
        <time>2022-03-25T17:39:23.458Z</time>
      </trkpt>
      <trkpt lat="43.68378" lon="1.46798">
        <ele>237.727994</ele>
        <time>2022-03-25T17:39:25.458Z</time>
      </trkpt>
      <trkpt lat="43.68366" lon="1.46781">
        <ele>237.053728</ele>
        <time>2022-03-25T17:39:27.464Z</time>
      </trkpt>
      <trkpt lat="43.68359" lon="1.46772">
        <ele>236.693712</ele>
        <time>2022-03-25T17:39:28.465Z</time>
      </trkpt>
      <trkpt lat="43.68353" lon="1.46763">
        <ele>236.321305</ele>
        <time>2022-03-25T17:39:29.460Z</time>
      </trkpt>
      <trkpt lat="43.68346" lon="1.46753">
        <ele>235.942078</ele>
        <time>2022-03-25T17:39:30.461Z</time>
      </trkpt>
      <trkpt lat="43.68339" lon="1.46744">
        <ele>235.560829</ele>
        <time>2022-03-25T17:39:31.464Z</time>
      </trkpt>
      <trkpt lat="43.68333" lon="1.46735">
        <ele>235.187138</ele>
        <time>2022-03-25T17:39:32.474Z</time>
      </trkpt>
      <trkpt lat="43.68326" lon="1.46725">
        <ele>234.814731</ele>
        <time>2022-03-25T17:39:33.469Z</time>
      </trkpt>
      <trkpt lat="43.68319" lon="1.46716">
        <ele>234.45395</ele>
        <time>2022-03-25T17:39:34.468Z</time>
      </trkpt>
      <trkpt lat="43.68313" lon="1.46708">
        <ele>234.083425</ele>
        <time>2022-03-25T17:39:35.463Z</time>
      </trkpt>
      <trkpt lat="43.683" lon="1.46692">
        <ele>232.862421</ele>
        <time>2022-03-25T17:39:37.458Z</time>
      </trkpt>
      <trkpt lat="43.68289" lon="1.46679">
        <ele>231.85416</ele>
        <time>2022-03-25T17:39:39.452Z</time>
      </trkpt>
      <trkpt lat="43.68287" lon="1.46663">
        <ele>231.006529</ele>
        <time>2022-03-25T17:39:41.460Z</time>
      </trkpt>
      <trkpt lat="43.68291" lon="1.46643">
        <ele>229.930291</ele>
        <time>2022-03-25T17:39:43.461Z</time>
      </trkpt>
      <trkpt lat="43.68298" lon="1.46623">
        <ele>228.811685</ele>
        <time>2022-03-25T17:39:45.468Z</time>
      </trkpt>
      <trkpt lat="43.68305" lon="1.46602">
        <ele>227.61421</ele>
        <time>2022-03-25T17:39:47.457Z</time>
      </trkpt>
      <trkpt lat="43.68313" lon="1.46579">
        <ele>226.319567</ele>
        <time>2022-03-25T17:39:49.466Z</time>
      </trkpt>
      <trkpt lat="43.68317" lon="1.46568">
        <ele>225.657595</ele>
        <time>2022-03-25T17:39:50.457Z</time>
      </trkpt>
      <trkpt lat="43.68322" lon="1.46557">
        <ele>224.992243</ele>
        <time>2022-03-25T17:39:51.460Z</time>
      </trkpt>
      <trkpt lat="43.68327" lon="1.46545">
        <ele>224.30837</ele>
        <time>2022-03-25T17:39:52.464Z</time>
      </trkpt>
      <trkpt lat="43.68333" lon="1.46534">
        <ele>223.596397</ele>
        <time>2022-03-25T17:39:53.458Z</time>
      </trkpt>
      <trkpt lat="43.68339" lon="1.46523">
        <ele>222.871855</ele>
        <time>2022-03-25T17:39:54.455Z</time>
      </trkpt>
      <trkpt lat="43.68345" lon="1.46512">
        <ele>222.168002</ele>
        <time>2022-03-25T17:39:55.470Z</time>
      </trkpt>
      <trkpt lat="43.68351" lon="1.46502">
        <ele>221.493186</ele>
        <time>2022-03-25T17:39:56.451Z</time>
      </trkpt>
      <trkpt lat="43.68357" lon="1.46485">
        <ele>220.228164</ele>
        <time>2022-03-25T17:39:58.442Z</time>
      </trkpt>
      <trkpt lat="43.68351" lon="1.46473">
        <ele>219.242752</ele>
        <time>2022-03-25T17:40:00.436Z</time>
      </trkpt>
      <trkpt lat="43.68337" lon="1.46466">
        <ele>217.831051</ele>
        <time>2022-03-25T17:40:02.437Z</time>
      </trkpt>
      <trkpt lat="43.68323" lon="1.46457">
        <ele>216.308694</ele>
        <time>2022-03-25T17:40:04.447Z</time>
      </trkpt>
      <trkpt lat="43.68314" lon="1.46452">
        <ele>215.405846</ele>
        <time>2022-03-25T17:40:05.450Z</time>
      </trkpt>
      <trkpt lat="43.68305" lon="1.46447">
        <ele>214.424475</ele>
        <time>2022-03-25T17:40:06.459Z</time>
      </trkpt>
      <trkpt lat="43.68294" lon="1.46441">
        <ele>213.361895</ele>
        <time>2022-03-25T17:40:07.466Z</time>
      </trkpt>
      <trkpt lat="43.68284" lon="1.46435">
        <ele>212.253438</ele>
        <time>2022-03-25T17:40:08.451Z</time>
      </trkpt>
      <trkpt lat="43.68273" lon="1.46429">
        <ele>211.123635</ele>
        <time>2022-03-25T17:40:09.442Z</time>
      </trkpt>
      <trkpt lat="43.68261" lon="1.46423">
        <ele>209.981324</ele>
        <time>2022-03-25T17:40:10.446Z</time>
      </trkpt>
      <trkpt lat="43.6825" lon="1.46419">
        <ele>208.855856</ele>
        <time>2022-03-25T17:40:11.448Z</time>
      </trkpt>
      <trkpt lat="43.68239" lon="1.46414">
        <ele>207.805556</ele>
        <time>2022-03-25T17:40:12.442Z</time>
      </trkpt>
      <trkpt lat="43.6823" lon="1.4641">
        <ele>206.893491</ele>
        <time>2022-03-25T17:40:13.450Z</time>
      </trkpt>
      <trkpt lat="43.68219" lon="1.46401">
        <ele>205.616932</ele>
        <time>2022-03-25T17:40:15.442Z</time>
      </trkpt>
      <trkpt lat="43.6821" lon="1.46395">
        <ele>204.681794</ele>
        <time>2022-03-25T17:40:18.446Z</time>
      </trkpt>
      <trkpt lat="43.68199" lon="1.46389">
        <ele>204.028345</ele>
        <time>2022-03-25T17:40:22.451Z</time>
      </trkpt>
      <trkpt lat="43.6819" lon="1.46383">
        <ele>203.827915</ele>
        <time>2022-03-25T17:40:26.452Z</time>
      </trkpt>
      <trkpt lat="43.68188" lon="1.46371">
        <ele>203.641675</ele>
        <time>2022-03-25T17:40:31.442Z</time>
      </trkpt>
      <trkpt lat="43.68201" lon="1.46348">
        <ele>203.202196</ele>
        <time>2022-03-25T17:40:47.441Z</time>
      </trkpt>
      <trkpt lat="43.68212" lon="1.46335">
        <ele>202.909676</ele>
        <time>2022-03-25T17:40:49.455Z</time>
      </trkpt>
      <trkpt lat="43.68223" lon="1.46321">
        <ele>202.600837</ele>
        <time>2022-03-25T17:40:51.448Z</time>
      </trkpt>
      <trkpt lat="43.68232" lon="1.46304">
        <ele>202.283919</ele>
        <time>2022-03-25T17:40:53.432Z</time>
      </trkpt>
      <trkpt lat="43.68241" lon="1.46287">
        <ele>201.975857</ele>
        <time>2022-03-25T17:40:55.452Z</time>
      </trkpt>
      <trkpt lat="43.68248" lon="1.4627">
        <ele>201.670717</ele>
        <time>2022-03-25T17:40:57.437Z</time>
      </trkpt>
      <trkpt lat="43.68255" lon="1.46252">
        <ele>201.369765</ele>
        <time>2022-03-25T17:40:59.439Z</time>
      </trkpt>
      <trkpt lat="43.6826" lon="1.46234">
        <ele>201.074115</ele>
        <time>2022-03-25T17:41:01.449Z</time>
      </trkpt>
      <trkpt lat="43.68266" lon="1.46215">
        <ele>200.77274</ele>
        <time>2022-03-25T17:41:03.447Z</time>
      </trkpt>
      <trkpt lat="43.68272" lon="1.46196">
        <ele>200.468378</ele>
        <time>2022-03-25T17:41:05.462Z</time>
      </trkpt>
      <trkpt lat="43.68278" lon="1.46179">
        <ele>200.111553</ele>
        <time>2022-03-25T17:41:07.452Z</time>
      </trkpt>
      <trkpt lat="43.68283" lon="1.46162">
        <ele>199.766248</ele>
        <time>2022-03-25T17:41:09.454Z</time>
      </trkpt>
      <trkpt lat="43.68285" lon="1.46145">
        <ele>199.437502</ele>
        <time>2022-03-25T17:41:11.440Z</time>
      </trkpt>
      <trkpt lat="43.68285" lon="1.46128">
        <ele>199.103752</ele>
        <time>2022-03-25T17:41:13.449Z</time>
      </trkpt>
      <trkpt lat="43.68285" lon="1.46109">
        <ele>198.748956</ele>
        <time>2022-03-25T17:41:15.458Z</time>
      </trkpt>
      <trkpt lat="43.68282" lon="1.4609">
        <ele>198.369576</ele>
        <time>2022-03-25T17:41:17.440Z</time>
      </trkpt>
      <trkpt lat="43.68281" lon="1.46069">
        <ele>197.965431</ele>
        <time>2022-03-25T17:41:19.438Z</time>
      </trkpt>
      <trkpt lat="43.68279" lon="1.46045">
        <ele>197.520931</ele>
        <time>2022-03-25T17:41:21.460Z</time>
      </trkpt>
      <trkpt lat="43.68274" lon="1.46021">
        <ele>197.042841</ele>
        <time>2022-03-25T17:41:23.447Z</time>
      </trkpt>
      <trkpt lat="43.6827" lon="1.46009">
        <ele>196.79167</ele>
        <time>2022-03-25T17:41:24.447Z</time>
      </trkpt>
      <trkpt lat="43.68267" lon="1.45996">
        <ele>196.533108</ele>
        <time>2022-03-25T17:41:25.450Z</time>
      </trkpt>
      <trkpt lat="43.68265" lon="1.45983">
        <ele>196.270944</ele>
        <time>2022-03-25T17:41:26.457Z</time>
      </trkpt>
      <trkpt lat="43.68265" lon="1.45969">
        <ele>196.009144</ele>
        <time>2022-03-25T17:41:27.454Z</time>
      </trkpt>
      <trkpt lat="43.68265" lon="1.45955">
        <ele>195.749566</ele>
        <time>2022-03-25T17:41:28.466Z</time>
      </trkpt>
      <trkpt lat="43.68266" lon="1.45942">
        <ele>195.414598</ele>
        <time>2022-03-25T17:41:29.447Z</time>
      </trkpt>
      <trkpt lat="43.6827" lon="1.45921">
        <ele>194.829479</ele>
        <time>2022-03-25T17:41:31.459Z</time>
      </trkpt>
      <trkpt lat="43.68271" lon="1.45907">
        <ele>194.456122</ele>
        <time>2022-03-25T17:41:33.459Z</time>
      </trkpt>
      <trkpt lat="43.68269" lon="1.45892">
        <ele>194.034272</ele>
        <time>2022-03-25T17:41:38.449Z</time>
      </trkpt>
      <trkpt lat="43.6827" lon="1.45878">
        <ele>193.658786</ele>
        <time>2022-03-25T17:41:40.449Z</time>
      </trkpt>
      <trkpt lat="43.68271" lon="1.45859">
        <ele>193.151106</ele>
        <time>2022-03-25T17:41:42.466Z</time>
      </trkpt>
      <trkpt lat="43.68272" lon="1.4584">
        <ele>192.620762</ele>
        <time>2022-03-25T17:41:44.464Z</time>
      </trkpt>
      <trkpt lat="43.68274" lon="1.45821">
        <ele>192.103833</ele>
        <time>2022-03-25T17:41:46.470Z</time>
      </trkpt>
      <trkpt lat="43.68275" lon="1.458">
        <ele>191.552624</ele>
        <time>2022-03-25T17:41:48.462Z</time>
      </trkpt>
      <trkpt lat="43.68275" lon="1.4578">
        <ele>190.991556</ele>
        <time>2022-03-25T17:41:50.458Z</time>
      </trkpt>
      <trkpt lat="43.68277" lon="1.4576">
        <ele>190.45512</ele>
        <time>2022-03-25T17:41:52.474Z</time>
      </trkpt>
      <trkpt lat="43.68279" lon="1.45741">
        <ele>189.951631</ele>
        <time>2022-03-25T17:41:54.461Z</time>
      </trkpt>
      <trkpt lat="43.6828" lon="1.4572">
        <ele>189.384997</ele>
        <time>2022-03-25T17:41:56.463Z</time>
      </trkpt>
      <trkpt lat="43.6828" lon="1.45698">
        <ele>188.871573</ele>
        <time>2022-03-25T17:41:58.468Z</time>
      </trkpt>
      <trkpt lat="43.6828" lon="1.45675">
        <ele>188.535573</ele>
        <time>2022-03-25T17:42:00.447Z</time>
      </trkpt>
      <trkpt lat="43.68279" lon="1.45653">
        <ele>188.205389</ele>
        <time>2022-03-25T17:42:02.473Z</time>
      </trkpt>
      <trkpt lat="43.68276" lon="1.45631">
        <ele>187.87103</ele>
        <time>2022-03-25T17:42:04.460Z</time>
      </trkpt>
      <trkpt lat="43.68272" lon="1.45609">
        <ele>187.530323</ele>
        <time>2022-03-25T17:42:06.462Z</time>
      </trkpt>
      <trkpt lat="43.68267" lon="1.45588">
        <ele>187.200014</ele>
        <time>2022-03-25T17:42:08.464Z</time>
      </trkpt>
      <trkpt lat="43.68263" lon="1.45567">
        <ele>186.880914</ele>
        <time>2022-03-25T17:42:10.464Z</time>
      </trkpt>
      <trkpt lat="43.68258" lon="1.45548">
        <ele>186.568299</ele>
        <time>2022-03-25T17:42:12.463Z</time>
      </trkpt>
      <trkpt lat="43.68253" lon="1.45528">
        <ele>186.25724</ele>
        <time>2022-03-25T17:42:14.464Z</time>
      </trkpt>
      <trkpt lat="43.68248" lon="1.45509">
        <ele>185.951078</ele>
        <time>2022-03-25T17:42:16.466Z</time>
      </trkpt>
      <trkpt lat="43.68242" lon="1.4549">
        <ele>185.64666</ele>
        <time>2022-03-25T17:42:18.465Z</time>
      </trkpt>
      <trkpt lat="43.68237" lon="1.45471">
        <ele>185.347963</ele>
        <time>2022-03-25T17:42:20.465Z</time>
      </trkpt>
      <trkpt lat="43.68231" lon="1.45453">
        <ele>185.092525</ele>
        <time>2022-03-25T17:42:22.467Z</time>
      </trkpt>
      <trkpt lat="43.68224" lon="1.45435">
        <ele>184.853959</ele>
        <time>2022-03-25T17:42:24.464Z</time>
      </trkpt>
      <trkpt lat="43.6822" lon="1.45418">
        <ele>184.632667</ele>
        <time>2022-03-25T17:42:26.466Z</time>
      </trkpt>
      <trkpt lat="43.68216" lon="1.454">
        <ele>184.412237</ele>
        <time>2022-03-25T17:42:28.462Z</time>
      </trkpt>
      <trkpt lat="43.68211" lon="1.45382">
        <ele>184.192125</ele>
        <time>2022-03-25T17:42:30.466Z</time>
      </trkpt>
      <trkpt lat="43.68207" lon="1.45365">
        <ele>183.977626</ele>
        <time>2022-03-25T17:42:32.467Z</time>
      </trkpt>
      <trkpt lat="43.68202" lon="1.45348">
        <ele>183.752488</ele>
        <time>2022-03-25T17:42:34.468Z</time>
      </trkpt>
      <trkpt lat="43.68198" lon="1.45329">
        <ele>183.516692</ele>
        <time>2022-03-25T17:42:36.465Z</time>
      </trkpt>
      <trkpt lat="43.68193" lon="1.4531">
        <ele>183.274656</ele>
        <time>2022-03-25T17:42:38.463Z</time>
      </trkpt>
      <trkpt lat="43.68188" lon="1.4529">
        <ele>183.025821</ele>
        <time>2022-03-25T17:42:40.472Z</time>
      </trkpt>
      <trkpt lat="43.68183" lon="1.4527">
        <ele>182.779398</ele>
        <time>2022-03-25T17:42:42.461Z</time>
      </trkpt>
      <trkpt lat="43.68179" lon="1.45253">
        <ele>182.562096</ele>
        <time>2022-03-25T17:42:44.463Z</time>
      </trkpt>
      <trkpt lat="43.68174" lon="1.45236">
        <ele>182.347022</ele>
        <time>2022-03-25T17:42:46.466Z</time>
      </trkpt>
      <trkpt lat="43.6817" lon="1.4522">
        <ele>182.119771</ele>
        <time>2022-03-25T17:42:48.466Z</time>
      </trkpt>
      <trkpt lat="43.68166" lon="1.45207">
        <ele>181.942597</ele>
        <time>2022-03-25T17:42:50.462Z</time>
      </trkpt>
      <trkpt lat="43.68156" lon="1.45206">
        <ele>181.75495</ele>
        <time>2022-03-25T17:42:53.468Z</time>
      </trkpt>
      <trkpt lat="43.68148" lon="1.45214">
        <ele>181.582003</ele>
        <time>2022-03-25T17:42:55.450Z</time>
      </trkpt>
      <trkpt lat="43.68141" lon="1.45223">
        <ele>181.409901</ele>
        <time>2022-03-25T17:42:57.466Z</time>
      </trkpt>
      <trkpt lat="43.68134" lon="1.45231">
        <ele>181.247169</ele>
        <time>2022-03-25T17:42:59.462Z</time>
      </trkpt>
      <trkpt lat="43.68123" lon="1.4524">
        <ele>181.013042</ele>
        <time>2022-03-25T17:43:02.450Z</time>
      </trkpt>
      <trkpt lat="43.68115" lon="1.45247">
        <ele>180.847826</ele>
        <time>2022-03-25T17:43:04.450Z</time>
      </trkpt>
      <trkpt lat="43.68106" lon="1.45254">
        <ele>180.664754</ele>
        <time>2022-03-25T17:43:06.467Z</time>
      </trkpt>
      <trkpt lat="43.68096" lon="1.45264">
        <ele>180.446915</ele>
        <time>2022-03-25T17:43:08.451Z</time>
      </trkpt>
      <trkpt lat="43.68086" lon="1.45273">
        <ele>180.226864</ele>
        <time>2022-03-25T17:43:10.473Z</time>
      </trkpt>
      <trkpt lat="43.68076" lon="1.45282">
        <ele>180.013563</ele>
        <time>2022-03-25T17:43:12.464Z</time>
      </trkpt>
      <trkpt lat="43.68066" lon="1.45291">
        <ele>179.795017</ele>
        <time>2022-03-25T17:43:14.469Z</time>
      </trkpt>
      <trkpt lat="43.68056" lon="1.453">
        <ele>179.588235</ele>
        <time>2022-03-25T17:43:16.445Z</time>
      </trkpt>
      <trkpt lat="43.68047" lon="1.45308">
        <ele>179.387261</ele>
        <time>2022-03-25T17:43:18.460Z</time>
      </trkpt>
      <trkpt lat="43.68037" lon="1.45317">
        <ele>179.173028</ele>
        <time>2022-03-25T17:43:20.482Z</time>
      </trkpt>
      <trkpt lat="43.68025" lon="1.45326">
        <ele>178.912818</ele>
        <time>2022-03-25T17:43:22.461Z</time>
      </trkpt>
      <trkpt lat="43.68014" lon="1.45334">
        <ele>178.645642</ele>
        <time>2022-03-25T17:43:24.467Z</time>
      </trkpt>
      <trkpt lat="43.68003" lon="1.45343">
        <ele>178.392823</ele>
        <time>2022-03-25T17:43:26.464Z</time>
      </trkpt>
      <trkpt lat="43.67992" lon="1.4535">
        <ele>178.145853</ele>
        <time>2022-03-25T17:43:28.450Z</time>
      </trkpt>
      <trkpt lat="43.67982" lon="1.45357">
        <ele>177.909326</ele>
        <time>2022-03-25T17:43:30.447Z</time>
      </trkpt>
      <trkpt lat="43.67973" lon="1.45366">
        <ele>177.671174</ele>
        <time>2022-03-25T17:43:32.450Z</time>
      </trkpt>
      <trkpt lat="43.67962" lon="1.45373">
        <ele>177.426716</ele>
        <time>2022-03-25T17:43:34.451Z</time>
      </trkpt>
      <trkpt lat="43.67951" lon="1.45377">
        <ele>177.182241</ele>
        <time>2022-03-25T17:43:36.473Z</time>
      </trkpt>
      <trkpt lat="43.67939" lon="1.45383">
        <ele>176.928187</ele>
        <time>2022-03-25T17:43:38.469Z</time>
      </trkpt>
      <trkpt lat="43.67929" lon="1.4539">
        <ele>176.688129</ele>
        <time>2022-03-25T17:43:40.454Z</time>
      </trkpt>
      <trkpt lat="43.67919" lon="1.45399">
        <ele>176.448983</ele>
        <time>2022-03-25T17:43:42.474Z</time>
      </trkpt>
      <trkpt lat="43.67909" lon="1.45408">
        <ele>176.194351</ele>
        <time>2022-03-25T17:43:44.477Z</time>
      </trkpt>
      <trkpt lat="43.67898" lon="1.45416">
        <ele>175.935699</ele>
        <time>2022-03-25T17:43:46.459Z</time>
      </trkpt>
      <trkpt lat="43.67888" lon="1.45425">
        <ele>175.690699</ele>
        <time>2022-03-25T17:43:48.476Z</time>
      </trkpt>
      <trkpt lat="43.67879" lon="1.45432">
        <ele>175.478873</ele>
        <time>2022-03-25T17:43:50.466Z</time>
      </trkpt>
      <trkpt lat="43.67869" lon="1.45439">
        <ele>175.404885</ele>
        <time>2022-03-25T17:43:54.455Z</time>
      </trkpt>
      <trkpt lat="43.67861" lon="1.45447">
        <ele>175.501806</ele>
        <time>2022-03-25T17:43:58.455Z</time>
      </trkpt>
      <trkpt lat="43.67851" lon="1.45442">
        <ele>175.602134</ele>
        <time>2022-03-25T17:44:01.454Z</time>
      </trkpt>
      <trkpt lat="43.67842" lon="1.45433">
        <ele>175.708789</ele>
        <time>2022-03-25T17:44:03.466Z</time>
      </trkpt>
      <trkpt lat="43.67831" lon="1.45423">
        <ele>175.830175</ele>
        <time>2022-03-25T17:44:05.462Z</time>
      </trkpt>
      <trkpt lat="43.6782" lon="1.45414">
        <ele>175.954116</ele>
        <time>2022-03-25T17:44:07.462Z</time>
      </trkpt>
      <trkpt lat="43.67809" lon="1.45406">
        <ele>176.077337</ele>
        <time>2022-03-25T17:44:09.448Z</time>
      </trkpt>
      <trkpt lat="43.67798" lon="1.45398">
        <ele>176.198538</ele>
        <time>2022-03-25T17:44:11.457Z</time>
      </trkpt>
      <trkpt lat="43.67786" lon="1.45389">
        <ele>176.320744</ele>
        <time>2022-03-25T17:44:13.457Z</time>
      </trkpt>
      <trkpt lat="43.67776" lon="1.45381">
        <ele>176.438242</ele>
        <time>2022-03-25T17:44:15.463Z</time>
      </trkpt>
      <trkpt lat="43.67765" lon="1.45373">
        <ele>176.555404</ele>
        <time>2022-03-25T17:44:17.470Z</time>
      </trkpt>
      <trkpt lat="43.67754" lon="1.45364">
        <ele>176.676516</ele>
        <time>2022-03-25T17:44:19.476Z</time>
      </trkpt>
      <trkpt lat="43.67743" lon="1.45355">
        <ele>176.799754</ele>
        <time>2022-03-25T17:44:21.466Z</time>
      </trkpt>
      <trkpt lat="43.67732" lon="1.45346">
        <ele>176.922515</ele>
        <time>2022-03-25T17:44:23.462Z</time>
      </trkpt>
      <trkpt lat="43.67721" lon="1.45337">
        <ele>177.047577</ele>
        <time>2022-03-25T17:44:25.465Z</time>
      </trkpt>
      <trkpt lat="43.67709" lon="1.4533">
        <ele>177.126215</ele>
        <time>2022-03-25T17:44:27.476Z</time>
      </trkpt>
      <trkpt lat="43.67697" lon="1.45325">
        <ele>177.189085</ele>
        <time>2022-03-25T17:44:29.452Z</time>
      </trkpt>
      <trkpt lat="43.67683" lon="1.45322">
        <ele>177.253617</ele>
        <time>2022-03-25T17:44:31.462Z</time>
      </trkpt>
      <trkpt lat="43.67671" lon="1.45319">
        <ele>177.312266</ele>
        <time>2022-03-25T17:44:33.464Z</time>
      </trkpt>
      <trkpt lat="43.67659" lon="1.45317">
        <ele>177.370095</ele>
        <time>2022-03-25T17:44:35.458Z</time>
      </trkpt>
      <trkpt lat="43.67648" lon="1.45316">
        <ele>177.426237</ele>
        <time>2022-03-25T17:44:37.465Z</time>
      </trkpt>
      <trkpt lat="43.67636" lon="1.45316">
        <ele>177.482682</ele>
        <time>2022-03-25T17:44:39.469Z</time>
      </trkpt>
      <trkpt lat="43.67625" lon="1.45316">
        <ele>177.537248</ele>
        <time>2022-03-25T17:44:41.450Z</time>
      </trkpt>
      <trkpt lat="43.67614" lon="1.45315">
        <ele>177.590405</ele>
        <time>2022-03-25T17:44:43.454Z</time>
      </trkpt>
      <trkpt lat="43.67603" lon="1.45316">
        <ele>177.642097</ele>
        <time>2022-03-25T17:44:45.467Z</time>
      </trkpt>
      <trkpt lat="43.67593" lon="1.4532">
        <ele>177.692779</ele>
        <time>2022-03-25T17:44:47.447Z</time>
      </trkpt>
      <trkpt lat="43.67584" lon="1.45326">
        <ele>177.741574</ele>
        <time>2022-03-25T17:44:49.456Z</time>
      </trkpt>
      <trkpt lat="43.67573" lon="1.45333">
        <ele>177.797094</ele>
        <time>2022-03-25T17:44:51.461Z</time>
      </trkpt>
      <trkpt lat="43.67563" lon="1.4534">
        <ele>177.852183</ele>
        <time>2022-03-25T17:44:53.463Z</time>
      </trkpt>
      <trkpt lat="43.67553" lon="1.45348">
        <ele>177.910357</ele>
        <time>2022-03-25T17:44:55.467Z</time>
      </trkpt>
      <trkpt lat="43.67542" lon="1.45357">
        <ele>177.917257</ele>
        <time>2022-03-25T17:44:57.466Z</time>
      </trkpt>
      <trkpt lat="43.67531" lon="1.45367">
        <ele>177.829691</ele>
        <time>2022-03-25T17:44:59.463Z</time>
      </trkpt>
      <trkpt lat="43.6752" lon="1.45377">
        <ele>177.740429</ele>
        <time>2022-03-25T17:45:01.466Z</time>
      </trkpt>
      <trkpt lat="43.6751" lon="1.45386">
        <ele>177.654363</ele>
        <time>2022-03-25T17:45:03.470Z</time>
      </trkpt>
      <trkpt lat="43.67498" lon="1.45392">
        <ele>177.568468</ele>
        <time>2022-03-25T17:45:05.451Z</time>
      </trkpt>
      <trkpt lat="43.67475" lon="1.45377">
        <ele>134</ele>
        <time>2022-03-25T17:45:49.453Z</time>
      </trkpt>
      <trkpt lat="43.67446" lon="1.45357">
        <ele>133.1</ele>
        <time>2022-03-25T17:45:51.457Z</time>
      </trkpt>
      <trkpt lat="43.6743" lon="1.45348">
        <ele>133</ele>
        <time>2022-03-25T17:45:53.452Z</time>
      </trkpt>
      <trkpt lat="43.67402" lon="1.4531">
        <ele>133.1</ele>
        <time>2022-03-25T17:45:55.456Z</time>
      </trkpt>
      <trkpt lat="43.67366" lon="1.4532">
        <ele>133.1</ele>
        <time>2022-03-25T17:45:57.473Z</time>
      </trkpt>
      <trkpt lat="43.67351" lon="1.45315">
        <ele>133</ele>
        <time>2022-03-25T17:45:59.456Z</time>
      </trkpt>
      <trkpt lat="43.67337" lon="1.4531">
        <ele>133</ele>
        <time>2022-03-25T17:46:01.440Z</time>
      </trkpt>
      <trkpt lat="43.67316" lon="1.45308">
        <ele>133.1</ele>
        <time>2022-03-25T17:46:03.462Z</time>
      </trkpt>
      <trkpt lat="43.67265" lon="1.45317">
        <ele>178.096722</ele>
        <time>2022-03-25T17:46:05.463Z</time>
      </trkpt>
      <trkpt lat="43.67258" lon="1.45306">
        <ele>178.438768</ele>
        <time>2022-03-25T17:46:30.454Z</time>
      </trkpt>
      <trkpt lat="43.67255" lon="1.45291">
        <ele>178.487613</ele>
        <time>2022-03-25T17:46:32.440Z</time>
      </trkpt>
      <trkpt lat="43.67251" lon="1.45273">
        <ele>178.543638</ele>
        <time>2022-03-25T17:46:34.458Z</time>
      </trkpt>
      <trkpt lat="43.67246" lon="1.45256">
        <ele>178.597926</ele>
        <time>2022-03-25T17:46:36.438Z</time>
      </trkpt>
      <trkpt lat="43.67241" lon="1.4524">
        <ele>178.648496</ele>
        <time>2022-03-25T17:46:38.452Z</time>
      </trkpt>
      <trkpt lat="43.67238" lon="1.45224">
        <ele>178.701359</ele>
        <time>2022-03-25T17:46:40.459Z</time>
      </trkpt>
      <trkpt lat="43.67234" lon="1.45207">
        <ele>178.71579</ele>
        <time>2022-03-25T17:46:42.460Z</time>
      </trkpt>
      <trkpt lat="43.6723" lon="1.45191">
        <ele>178.577987</ele>
        <time>2022-03-25T17:46:44.438Z</time>
      </trkpt>
      <trkpt lat="43.67226" lon="1.45174">
        <ele>178.440539</ele>
        <time>2022-03-25T17:46:46.450Z</time>
      </trkpt>
      <trkpt lat="43.67222" lon="1.4516">
        <ele>178.319541</ele>
        <time>2022-03-25T17:46:48.446Z</time>
      </trkpt>
      <trkpt lat="43.6722" lon="1.45146">
        <ele>178.20579</ele>
        <time>2022-03-25T17:46:51.467Z</time>
      </trkpt>
      <trkpt lat="43.67216" lon="1.45133">
        <ele>178.097376</ele>
        <time>2022-03-25T17:46:54.451Z</time>
      </trkpt>
      <trkpt lat="43.6721" lon="1.45119">
        <ele>177.968402</ele>
        <time>2022-03-25T17:46:57.436Z</time>
      </trkpt>
      <trkpt lat="43.67199" lon="1.45119">
        <ele>177.845419</ele>
        <time>2022-03-25T17:47:00.450Z</time>
      </trkpt>
      <trkpt lat="43.67188" lon="1.45126">
        <ele>177.713459</ele>
        <time>2022-03-25T17:47:02.449Z</time>
      </trkpt>
      <trkpt lat="43.67176" lon="1.45135">
        <ele>177.563931</ele>
        <time>2022-03-25T17:47:04.444Z</time>
      </trkpt>
      <trkpt lat="43.67165" lon="1.45143">
        <ele>177.423992</ele>
        <time>2022-03-25T17:47:06.456Z</time>
      </trkpt>
      <trkpt lat="43.67153" lon="1.45141">
        <ele>177.291184</ele>
        <time>2022-03-25T17:47:08.454Z</time>
      </trkpt>
      <trkpt lat="43.67142" lon="1.4513">
        <ele>177.148434</ele>
        <time>2022-03-25T17:47:10.444Z</time>
      </trkpt>
      <trkpt lat="43.6713" lon="1.45131">
        <ele>177.015238</ele>
        <time>2022-03-25T17:47:12.448Z</time>
      </trkpt>
      <trkpt lat="43.67119" lon="1.45143">
        <ele>176.857995</ele>
        <time>2022-03-25T17:47:14.446Z</time>
      </trkpt>
      <trkpt lat="43.67107" lon="1.45154">
        <ele>176.705221</ele>
        <time>2022-03-25T17:47:16.450Z</time>
      </trkpt>
      <trkpt lat="43.67096" lon="1.4516">
        <ele>176.571719</ele>
        <time>2022-03-25T17:47:18.456Z</time>
      </trkpt>
      <trkpt lat="43.67087" lon="1.45161">
        <ele>176.467918</ele>
        <time>2022-03-25T17:47:20.456Z</time>
      </trkpt>
      <trkpt lat="43.67077" lon="1.45157">
        <ele>176.343185</ele>
        <time>2022-03-25T17:47:22.459Z</time>
      </trkpt>
      <trkpt lat="43.67069" lon="1.45144">
        <ele>176.19684</ele>
        <time>2022-03-25T17:47:24.450Z</time>
      </trkpt>
      <trkpt lat="43.6706" lon="1.45135">
        <ele>176.070089</ele>
        <time>2022-03-25T17:47:26.451Z</time>
      </trkpt>
      <trkpt lat="43.67049" lon="1.45145">
        <ele>175.919698</ele>
        <time>2022-03-25T17:47:28.461Z</time>
      </trkpt>
      <trkpt lat="43.67037" lon="1.45155">
        <ele>175.761652</ele>
        <time>2022-03-25T17:47:30.440Z</time>
      </trkpt>
      <trkpt lat="43.67025" lon="1.45161">
        <ele>175.617078</ele>
        <time>2022-03-25T17:47:32.451Z</time>
      </trkpt>
      <trkpt lat="43.67014" lon="1.45153">
        <ele>175.477161</ele>
        <time>2022-03-25T17:47:34.443Z</time>
      </trkpt>
      <trkpt lat="43.67009" lon="1.45136">
        <ele>175.319562</ele>
        <time>2022-03-25T17:47:36.438Z</time>
      </trkpt>
      <trkpt lat="43.67005" lon="1.4512">
        <ele>175.175959</ele>
        <time>2022-03-25T17:47:38.452Z</time>
      </trkpt>
      <trkpt lat="43.66998" lon="1.45106">
        <ele>175.034433</ele>
        <time>2022-03-25T17:47:40.450Z</time>
      </trkpt>
      <trkpt lat="43.66991" lon="1.45092">
        <ele>174.897653</ele>
        <time>2022-03-25T17:47:42.451Z</time>
      </trkpt>
      <trkpt lat="43.66984" lon="1.4508">
        <ele>174.772907</ele>
        <time>2022-03-25T17:47:44.445Z</time>
      </trkpt>
      <trkpt lat="43.66978" lon="1.4507">
        <ele>174.721756</ele>
        <time>2022-03-25T17:47:46.455Z</time>
      </trkpt>
      <trkpt lat="43.66972" lon="1.45058">
        <ele>174.795423</ele>
        <time>2022-03-25T17:47:48.442Z</time>
      </trkpt>
      <trkpt lat="43.66965" lon="1.45044">
        <ele>174.879902</ele>
        <time>2022-03-25T17:47:50.449Z</time>
      </trkpt>
      <trkpt lat="43.66958" lon="1.45028">
        <ele>174.970121</ele>
        <time>2022-03-25T17:47:52.453Z</time>
      </trkpt>
      <trkpt lat="43.66952" lon="1.45013">
        <ele>175.056199</ele>
        <time>2022-03-25T17:47:54.451Z</time>
      </trkpt>
      <trkpt lat="43.66947" lon="1.44998">
        <ele>175.137359</ele>
        <time>2022-03-25T17:47:56.448Z</time>
      </trkpt>
      <trkpt lat="43.66942" lon="1.44986">
        <ele>175.203478</ele>
        <time>2022-03-25T17:47:58.457Z</time>
      </trkpt>
      <trkpt lat="43.66937" lon="1.4497">
        <ele>175.28965</ele>
        <time>2022-03-25T17:48:01.441Z</time>
      </trkpt>
      <trkpt lat="43.66929" lon="1.44955">
        <ele>175.381009</ele>
        <time>2022-03-25T17:48:04.434Z</time>
      </trkpt>
      <trkpt lat="43.6692" lon="1.44944">
        <ele>175.466561</ele>
        <time>2022-03-25T17:48:06.444Z</time>
      </trkpt>
      <trkpt lat="43.66907" lon="1.44937">
        <ele>175.559093</ele>
        <time>2022-03-25T17:48:08.453Z</time>
      </trkpt>
      <trkpt lat="43.66895" lon="1.44934">
        <ele>175.645051</ele>
        <time>2022-03-25T17:48:10.444Z</time>
      </trkpt>
      <trkpt lat="43.66882" lon="1.44931">
        <ele>175.729591</ele>
        <time>2022-03-25T17:48:12.447Z</time>
      </trkpt>
      <trkpt lat="43.6687" lon="1.44928">
        <ele>175.813581</ele>
        <time>2022-03-25T17:48:14.457Z</time>
      </trkpt>
      <trkpt lat="43.66858" lon="1.44925">
        <ele>175.897771</ele>
        <time>2022-03-25T17:48:16.455Z</time>
      </trkpt>
      <trkpt lat="43.66846" lon="1.44922">
        <ele>175.885481</ele>
        <time>2022-03-25T17:48:18.444Z</time>
      </trkpt>
      <trkpt lat="43.66834" lon="1.44918">
        <ele>175.831408</ele>
        <time>2022-03-25T17:48:20.455Z</time>
      </trkpt>
      <trkpt lat="43.66823" lon="1.44914">
        <ele>175.778132</ele>
        <time>2022-03-25T17:48:22.456Z</time>
      </trkpt>
      <trkpt lat="43.66811" lon="1.4491">
        <ele>175.726107</ele>
        <time>2022-03-25T17:48:24.457Z</time>
      </trkpt>
      <trkpt lat="43.668" lon="1.44904">
        <ele>175.670958</ele>
        <time>2022-03-25T17:48:26.451Z</time>
      </trkpt>
      <trkpt lat="43.66788" lon="1.44896">
        <ele>175.613955</ele>
        <time>2022-03-25T17:48:28.446Z</time>
      </trkpt>
      <trkpt lat="43.66777" lon="1.44886">
        <ele>175.557134</ele>
        <time>2022-03-25T17:48:30.458Z</time>
      </trkpt>
      <trkpt lat="43.66768" lon="1.44876">
        <ele>175.501746</ele>
        <time>2022-03-25T17:48:32.466Z</time>
      </trkpt>
      <trkpt lat="43.66761" lon="1.44861">
        <ele>175.445504</ele>
        <time>2022-03-25T17:48:34.438Z</time>
      </trkpt>
      <trkpt lat="43.66758" lon="1.44843">
        <ele>175.387365</ele>
        <time>2022-03-25T17:48:36.468Z</time>
      </trkpt>
      <trkpt lat="43.66754" lon="1.44826">
        <ele>175.329312</ele>
        <time>2022-03-25T17:48:38.455Z</time>
      </trkpt>
      <trkpt lat="43.66745" lon="1.44817">
        <ele>175.277824</ele>
        <time>2022-03-25T17:48:41.452Z</time>
      </trkpt>
      <trkpt lat="43.66735" lon="1.44819">
        <ele>175.235303</ele>
        <time>2022-03-25T17:48:50.465Z</time>
      </trkpt>
      <trkpt lat="43.66726" lon="1.44826">
        <ele>175.187444</ele>
        <time>2022-03-25T17:48:55.448Z</time>
      </trkpt>
      <trkpt lat="43.66715" lon="1.44833">
        <ele>175.133939</ele>
        <time>2022-03-25T17:48:57.445Z</time>
      </trkpt>
      <trkpt lat="43.66703" lon="1.44843">
        <ele>175.143092</ele>
        <time>2022-03-25T17:48:59.450Z</time>
      </trkpt>
      <trkpt lat="43.66692" lon="1.44851">
        <ele>175.163787</ele>
        <time>2022-03-25T17:49:01.455Z</time>
      </trkpt>
      <trkpt lat="43.6668" lon="1.44855">
        <ele>175.183427</ele>
        <time>2022-03-25T17:49:03.461Z</time>
      </trkpt>
      <trkpt lat="43.66668" lon="1.44857">
        <ele>175.203623</ele>
        <time>2022-03-25T17:49:05.457Z</time>
      </trkpt>
      <trkpt lat="43.66656" lon="1.44857">
        <ele>175.223338</ele>
        <time>2022-03-25T17:49:07.459Z</time>
      </trkpt>
      <trkpt lat="43.66645" lon="1.44854">
        <ele>175.242563</ele>
        <time>2022-03-25T17:49:09.474Z</time>
      </trkpt>
      <trkpt lat="43.66634" lon="1.44848">
        <ele>175.262056</ele>
        <time>2022-03-25T17:49:11.453Z</time>
      </trkpt>
      <trkpt lat="43.66624" lon="1.44836">
        <ele>175.283048</ele>
        <time>2022-03-25T17:49:13.450Z</time>
      </trkpt>
      <trkpt lat="43.66616" lon="1.44823">
        <ele>175.303563</ele>
        <time>2022-03-25T17:49:15.452Z</time>
      </trkpt>
      <trkpt lat="43.66608" lon="1.4481">
        <ele>175.323485</ele>
        <time>2022-03-25T17:49:17.447Z</time>
      </trkpt>
      <trkpt lat="43.666" lon="1.44797">
        <ele>175.343648</ele>
        <time>2022-03-25T17:49:19.458Z</time>
      </trkpt>
      <trkpt lat="43.66592" lon="1.44785">
        <ele>175.363986</ele>
        <time>2022-03-25T17:49:21.448Z</time>
      </trkpt>
      <trkpt lat="43.66584" lon="1.44773">
        <ele>175.383267</ele>
        <time>2022-03-25T17:49:23.453Z</time>
      </trkpt>
      <trkpt lat="43.66575" lon="1.44762">
        <ele>175.402434</ele>
        <time>2022-03-25T17:49:25.445Z</time>
      </trkpt>
      <trkpt lat="43.66567" lon="1.4475">
        <ele>175.436878</ele>
        <time>2022-03-25T17:49:27.469Z</time>
      </trkpt>
      <trkpt lat="43.66558" lon="1.44738">
        <ele>175.554754</ele>
        <time>2022-03-25T17:49:29.464Z</time>
      </trkpt>
      <trkpt lat="43.66549" lon="1.44729">
        <ele>175.669311</ele>
        <time>2022-03-25T17:49:31.457Z</time>
      </trkpt>
      <trkpt lat="43.66539" lon="1.44722">
        <ele>175.784213</ele>
        <time>2022-03-25T17:49:33.462Z</time>
      </trkpt>
      <trkpt lat="43.66529" lon="1.44717">
        <ele>175.89252</ele>
        <time>2022-03-25T17:49:35.465Z</time>
      </trkpt>
      <trkpt lat="43.66521" lon="1.44711">
        <ele>175.982791</ele>
        <time>2022-03-25T17:49:37.453Z</time>
      </trkpt>
      <trkpt lat="43.66511" lon="1.44722">
        <ele>176.10637</ele>
        <time>2022-03-25T17:49:43.443Z</time>
      </trkpt>
      <trkpt lat="43.66506" lon="1.44733">
        <ele>176.203234</ele>
        <time>2022-03-25T17:49:45.447Z</time>
      </trkpt>
      <trkpt lat="43.66501" lon="1.44746">
        <ele>176.306956</ele>
        <time>2022-03-25T17:49:47.447Z</time>
      </trkpt>
      <trkpt lat="43.66496" lon="1.44761">
        <ele>176.429666</ele>
        <time>2022-03-25T17:49:49.446Z</time>
      </trkpt>
      <trkpt lat="43.66489" lon="1.44776">
        <ele>176.555256</ele>
        <time>2022-03-25T17:49:51.454Z</time>
      </trkpt>
      <trkpt lat="43.66483" lon="1.44791">
        <ele>176.682126</ele>
        <time>2022-03-25T17:49:53.457Z</time>
      </trkpt>
      <trkpt lat="43.66476" lon="1.44806">
        <ele>176.812243</ele>
        <time>2022-03-25T17:49:55.444Z</time>
      </trkpt>
      <trkpt lat="43.66469" lon="1.44821">
        <ele>176.943168</ele>
        <time>2022-03-25T17:49:57.452Z</time>
      </trkpt>
      <trkpt lat="43.66463" lon="1.44837">
        <ele>177.073331</ele>
        <time>2022-03-25T17:49:59.451Z</time>
      </trkpt>
      <trkpt lat="43.66458" lon="1.44853">
        <ele>177.20203</ele>
        <time>2022-03-25T17:50:01.445Z</time>
      </trkpt>
      <trkpt lat="43.66454" lon="1.44869">
        <ele>177.306851</ele>
        <time>2022-03-25T17:50:03.462Z</time>
      </trkpt>
      <trkpt lat="43.66451" lon="1.44887">
        <ele>177.413543</ele>
        <time>2022-03-25T17:50:05.451Z</time>
      </trkpt>
      <trkpt lat="43.66446" lon="1.44903">
        <ele>177.522145</ele>
        <time>2022-03-25T17:50:07.449Z</time>
      </trkpt>
      <trkpt lat="43.66438" lon="1.44917">
        <ele>177.629006</ele>
        <time>2022-03-25T17:50:09.453Z</time>
      </trkpt>
      <trkpt lat="43.66432" lon="1.44932">
        <ele>177.731131</ele>
        <time>2022-03-25T17:50:11.452Z</time>
      </trkpt>
      <trkpt lat="43.66429" lon="1.44948">
        <ele>177.829936</ele>
        <time>2022-03-25T17:50:13.449Z</time>
      </trkpt>
      <trkpt lat="43.66424" lon="1.44962">
        <ele>177.925351</ele>
        <time>2022-03-25T17:50:15.452Z</time>
      </trkpt>
      <trkpt lat="43.66419" lon="1.44976">
        <ele>178.020775</ele>
        <time>2022-03-25T17:50:17.448Z</time>
      </trkpt>
      <trkpt lat="43.66415" lon="1.44991">
        <ele>178.115017</ele>
        <time>2022-03-25T17:50:19.454Z</time>
      </trkpt>
      <trkpt lat="43.66414" lon="1.45007">
        <ele>178.214742</ele>
        <time>2022-03-25T17:50:21.451Z</time>
      </trkpt>
      <trkpt lat="43.66412" lon="1.45024">
        <ele>178.314574</ele>
        <time>2022-03-25T17:50:23.456Z</time>
      </trkpt>
      <trkpt lat="43.66408" lon="1.4504">
        <ele>178.420411</ele>
        <time>2022-03-25T17:50:25.445Z</time>
      </trkpt>
      <trkpt lat="43.66402" lon="1.45055">
        <ele>178.520173</ele>
        <time>2022-03-25T17:50:27.447Z</time>
      </trkpt>
      <trkpt lat="43.66397" lon="1.4507">
        <ele>178.617576</ele>
        <time>2022-03-25T17:50:29.451Z</time>
      </trkpt>
      <trkpt lat="43.66393" lon="1.45085">
        <ele>178.715487</ele>
        <time>2022-03-25T17:50:31.457Z</time>
      </trkpt>
      <trkpt lat="43.66389" lon="1.45099">
        <ele>178.555004</ele>
        <time>2022-03-25T17:50:33.454Z</time>
      </trkpt>
      <trkpt lat="43.66382" lon="1.45112">
        <ele>178.377385</ele>
        <time>2022-03-25T17:50:35.450Z</time>
      </trkpt>
      <trkpt lat="43.66376" lon="1.45125">
        <ele>178.203857</ele>
        <time>2022-03-25T17:50:37.455Z</time>
      </trkpt>
      <trkpt lat="43.66371" lon="1.45139">
        <ele>178.024853</ele>
        <time>2022-03-25T17:50:39.456Z</time>
      </trkpt>
      <trkpt lat="43.66365" lon="1.45152">
        <ele>177.855273</ele>
        <time>2022-03-25T17:50:41.444Z</time>
      </trkpt>
      <trkpt lat="43.66362" lon="1.45168">
        <ele>177.667946</ele>
        <time>2022-03-25T17:50:44.446Z</time>
      </trkpt>
      <trkpt lat="43.66363" lon="1.45184">
        <ele>177.48922</ele>
        <time>2022-03-25T17:50:46.442Z</time>
      </trkpt>
      <trkpt lat="43.66358" lon="1.45199">
        <ele>177.296879</ele>
        <time>2022-03-25T17:50:48.441Z</time>
      </trkpt>
      <trkpt lat="43.66351" lon="1.45214">
        <ele>177.104427</ele>
        <time>2022-03-25T17:50:50.452Z</time>
      </trkpt>
      <trkpt lat="43.66344" lon="1.45227">
        <ele>176.922232</ele>
        <time>2022-03-25T17:50:52.461Z</time>
      </trkpt>
      <trkpt lat="43.66336" lon="1.45238">
        <ele>176.729629</ele>
        <time>2022-03-25T17:50:55.452Z</time>
      </trkpt>
      <trkpt lat="43.66328" lon="1.45246">
        <ele>176.587015</ele>
        <time>2022-03-25T17:50:57.454Z</time>
      </trkpt>
      <trkpt lat="43.66318" lon="1.45257">
        <ele>176.37779</ele>
        <time>2022-03-25T17:50:59.451Z</time>
      </trkpt>
      <trkpt lat="43.66309" lon="1.45273">
        <ele>176.147009</ele>
        <time>2022-03-25T17:51:01.450Z</time>
      </trkpt>
      <trkpt lat="43.66299" lon="1.45286">
        <ele>175.936441</ele>
        <time>2022-03-25T17:51:03.464Z</time>
      </trkpt>
      <trkpt lat="43.66288" lon="1.45294">
        <ele>175.997639</ele>
        <time>2022-03-25T17:51:05.455Z</time>
      </trkpt>
      <trkpt lat="43.66282" lon="1.45303">
        <ele>176.076104</ele>
        <time>2022-03-25T17:51:07.451Z</time>
      </trkpt>
      <trkpt lat="43.6628" lon="1.4532">
        <ele>176.178791</ele>
        <time>2022-03-25T17:51:09.458Z</time>
      </trkpt>
      <trkpt lat="43.66276" lon="1.45339">
        <ele>176.295139</ele>
        <time>2022-03-25T17:51:11.454Z</time>
      </trkpt>
      <trkpt lat="43.66276" lon="1.45357">
        <ele>176.406601</ele>
        <time>2022-03-25T17:51:13.438Z</time>
      </trkpt>
      <trkpt lat="43.66281" lon="1.45373">
        <ele>176.510731</ele>
        <time>2022-03-25T17:51:15.436Z</time>
      </trkpt>
      <trkpt lat="43.66282" lon="1.45389">
        <ele>176.604471</ele>
        <time>2022-03-25T17:51:17.450Z</time>
      </trkpt>
      <trkpt lat="43.66276" lon="1.45404">
        <ele>176.708717</ele>
        <time>2022-03-25T17:51:19.451Z</time>
      </trkpt>
      <trkpt lat="43.6627" lon="1.45419">
        <ele>176.81336</ele>
        <time>2022-03-25T17:51:21.456Z</time>
      </trkpt>
      <trkpt lat="43.66265" lon="1.45435">
        <ele>176.915702</ele>
        <time>2022-03-25T17:51:23.449Z</time>
      </trkpt>
      <trkpt lat="43.66261" lon="1.4545">
        <ele>177.014002</ele>
        <time>2022-03-25T17:51:25.450Z</time>
      </trkpt>
      <trkpt lat="43.66257" lon="1.45466">
        <ele>177.112321</ele>
        <time>2022-03-25T17:51:27.455Z</time>
      </trkpt>
      <trkpt lat="43.66252" lon="1.45482">
        <ele>177.214839</ele>
        <time>2022-03-25T17:51:29.458Z</time>
      </trkpt>
      <trkpt lat="43.66248" lon="1.45497">
        <ele>177.315509</ele>
        <time>2022-03-25T17:51:31.450Z</time>
      </trkpt>
      <trkpt lat="43.66243" lon="1.45512">
        <ele>177.421129</ele>
        <time>2022-03-25T17:51:33.449Z</time>
      </trkpt>
      <trkpt lat="43.66239" lon="1.45528">
        <ele>177.605738</ele>
        <time>2022-03-25T17:51:35.451Z</time>
      </trkpt>
      <trkpt lat="43.66234" lon="1.45543">
        <ele>177.793459</ele>
        <time>2022-03-25T17:51:37.446Z</time>
      </trkpt>
      <trkpt lat="43.6623" lon="1.45559">
        <ele>177.985004</ele>
        <time>2022-03-25T17:51:39.459Z</time>
      </trkpt>
      <trkpt lat="43.66225" lon="1.45575">
        <ele>178.176412</ele>
        <time>2022-03-25T17:51:41.456Z</time>
      </trkpt>
      <trkpt lat="43.66221" lon="1.4559">
        <ele>178.362525</ele>
        <time>2022-03-25T17:51:43.452Z</time>
      </trkpt>
      <trkpt lat="43.66216" lon="1.45605">
        <ele>178.544631</ele>
        <time>2022-03-25T17:51:45.458Z</time>
      </trkpt>
      <trkpt lat="43.66212" lon="1.45619">
        <ele>178.714636</ele>
        <time>2022-03-25T17:51:47.451Z</time>
      </trkpt>
      <trkpt lat="43.66205" lon="1.45631">
        <ele>178.885207</ele>
        <time>2022-03-25T17:51:49.451Z</time>
      </trkpt>
      <trkpt lat="43.66194" lon="1.45631">
        <ele>179.058347</ele>
        <time>2022-03-25T17:51:51.466Z</time>
      </trkpt>
      <trkpt lat="43.66183" lon="1.45617">
        <ele>179.279655</ele>
        <time>2022-03-25T17:51:53.464Z</time>
      </trkpt>
      <trkpt lat="43.66174" lon="1.45603">
        <ele>179.487777</ele>
        <time>2022-03-25T17:51:55.452Z</time>
      </trkpt>
      <trkpt lat="43.66166" lon="1.45591">
        <ele>179.670413</ele>
        <time>2022-03-25T17:51:57.458Z</time>
      </trkpt>
      <trkpt lat="43.66158" lon="1.45583">
        <ele>179.824572</ele>
        <time>2022-03-25T17:51:59.450Z</time>
      </trkpt>
      <trkpt lat="43.66149" lon="1.45575">
        <ele>179.995296</ele>
        <time>2022-03-25T17:52:01.450Z</time>
      </trkpt>
      <trkpt lat="43.66139" lon="1.45567">
        <ele>180.168685</ele>
        <time>2022-03-25T17:52:03.447Z</time>
      </trkpt>
      <trkpt lat="43.6613" lon="1.45559">
        <ele>180.229552</ele>
        <time>2022-03-25T17:52:05.458Z</time>
      </trkpt>
      <trkpt lat="43.66121" lon="1.45551">
        <ele>180.280097</ele>
        <time>2022-03-25T17:52:07.459Z</time>
      </trkpt>
      <trkpt lat="43.66112" lon="1.45544">
        <ele>180.33446</ele>
        <time>2022-03-25T17:52:09.463Z</time>
      </trkpt>
      <trkpt lat="43.66101" lon="1.45537">
        <ele>180.392602</ele>
        <time>2022-03-25T17:52:11.454Z</time>
      </trkpt>
      <trkpt lat="43.6609" lon="1.45532">
        <ele>180.448347</ele>
        <time>2022-03-25T17:52:13.455Z</time>
      </trkpt>
      <trkpt lat="43.66078" lon="1.45533">
        <ele>180.504759</ele>
        <time>2022-03-25T17:52:15.454Z</time>
      </trkpt>
      <trkpt lat="43.66067" lon="1.45534">
        <ele>180.561355</ele>
        <time>2022-03-25T17:52:17.450Z</time>
      </trkpt>
      <trkpt lat="43.66056" lon="1.45527">
        <ele>180.619791</ele>
        <time>2022-03-25T17:52:19.451Z</time>
      </trkpt>
      <trkpt lat="43.66045" lon="1.45519">
        <ele>180.677727</ele>
        <time>2022-03-25T17:52:21.455Z</time>
      </trkpt>
      <trkpt lat="43.66035" lon="1.45513">
        <ele>180.732487</ele>
        <time>2022-03-25T17:52:23.456Z</time>
      </trkpt>
      <trkpt lat="43.66025" lon="1.45506">
        <ele>180.787531</ele>
        <time>2022-03-25T17:52:25.459Z</time>
      </trkpt>
      <trkpt lat="43.66015" lon="1.45498">
        <ele>180.845205</ele>
        <time>2022-03-25T17:52:27.441Z</time>
      </trkpt>
      <trkpt lat="43.66004" lon="1.45494">
        <ele>180.899111</ele>
        <time>2022-03-25T17:52:29.446Z</time>
      </trkpt>
      <trkpt lat="43.65995" lon="1.45496">
        <ele>180.943244</ele>
        <time>2022-03-25T17:52:31.451Z</time>
      </trkpt>
      <trkpt lat="43.65984" lon="1.455">
        <ele>180.997743</ele>
        <time>2022-03-25T17:52:33.450Z</time>
      </trkpt>
      <trkpt lat="43.65975" lon="1.45508">
        <ele>181.053113</ele>
        <time>2022-03-25T17:52:35.462Z</time>
      </trkpt>
      <trkpt lat="43.65967" lon="1.45516">
        <ele>181.020325</ele>
        <time>2022-03-25T17:52:37.455Z</time>
      </trkpt>
      <trkpt lat="43.65957" lon="1.45522">
        <ele>180.979304</ele>
        <time>2022-03-25T17:52:39.453Z</time>
      </trkpt>
      <trkpt lat="43.65948" lon="1.45522">
        <ele>180.94212</ele>
        <time>2022-03-25T17:52:41.453Z</time>
      </trkpt>
      <trkpt lat="43.65938" lon="1.45515">
        <ele>180.89768</ele>
        <time>2022-03-25T17:52:45.453Z</time>
      </trkpt>
      <trkpt lat="43.65932" lon="1.45501">
        <ele>180.849298</ele>
        <time>2022-03-25T17:52:49.476Z</time>
      </trkpt>
      <trkpt lat="43.65921" lon="1.45492">
        <ele>180.800868</ele>
        <time>2022-03-25T17:52:52.454Z</time>
      </trkpt>
      <trkpt lat="43.65912" lon="1.45489">
        <ele>180.759505</ele>
        <time>2022-03-25T17:52:55.447Z</time>
      </trkpt>
      <trkpt lat="43.65904" lon="1.4548">
        <ele>180.720998</ele>
        <time>2022-03-25T17:52:58.457Z</time>
      </trkpt>
      <trkpt lat="43.65896" lon="1.45474">
        <ele>180.683151</ele>
        <time>2022-03-25T17:53:00.446Z</time>
      </trkpt>
      <trkpt lat="43.65884" lon="1.45473">
        <ele>180.63617</ele>
        <time>2022-03-25T17:53:02.454Z</time>
      </trkpt>
      <trkpt lat="43.65872" lon="1.45475">
        <ele>180.586679</ele>
        <time>2022-03-25T17:53:04.441Z</time>
      </trkpt>
      <trkpt lat="43.6586" lon="1.45478">
        <ele>180.53616</ele>
        <time>2022-03-25T17:53:06.453Z</time>
      </trkpt>
      <trkpt lat="43.65847" lon="1.45481">
        <ele>180.485294</ele>
        <time>2022-03-25T17:53:08.451Z</time>
      </trkpt>
      <trkpt lat="43.65835" lon="1.45484">
        <ele>180.433873</ele>
        <time>2022-03-25T17:53:10.456Z</time>
      </trkpt>
      <trkpt lat="43.65822" lon="1.45488">
        <ele>180.382339</ele>
        <time>2022-03-25T17:53:12.461Z</time>
      </trkpt>
      <trkpt lat="43.65811" lon="1.45491">
        <ele>180.333635</ele>
        <time>2022-03-25T17:53:14.453Z</time>
      </trkpt>
      <trkpt lat="43.65799" lon="1.45492">
        <ele>180.29993</ele>
        <time>2022-03-25T17:53:16.452Z</time>
      </trkpt>
      <trkpt lat="43.65787" lon="1.45488">
        <ele>180.263865</ele>
        <time>2022-03-25T17:53:18.452Z</time>
      </trkpt>
      <trkpt lat="43.65775" lon="1.45484">
        <ele>180.227475</ele>
        <time>2022-03-25T17:53:20.452Z</time>
      </trkpt>
      <trkpt lat="43.65763" lon="1.45481">
        <ele>180.191739</ele>
        <time>2022-03-25T17:53:22.442Z</time>
      </trkpt>
      <trkpt lat="43.65752" lon="1.45478">
        <ele>180.1563</ele>
        <time>2022-03-25T17:53:24.446Z</time>
      </trkpt>
      <trkpt lat="43.65739" lon="1.45474">
        <ele>180.119004</ele>
        <time>2022-03-25T17:53:26.444Z</time>
      </trkpt>
      <trkpt lat="43.65726" lon="1.45473">
        <ele>180.081052</ele>
        <time>2022-03-25T17:53:28.450Z</time>
      </trkpt>
      <trkpt lat="43.65712" lon="1.45468">
        <ele>180.038538</ele>
        <time>2022-03-25T17:53:30.448Z</time>
      </trkpt>
      <trkpt lat="43.65698" lon="1.45462">
        <ele>179.994092</ele>
        <time>2022-03-25T17:53:32.462Z</time>
      </trkpt>
      <trkpt lat="43.65684" lon="1.45456">
        <ele>179.950644</ele>
        <time>2022-03-25T17:53:34.448Z</time>
      </trkpt>
      <trkpt lat="43.6567" lon="1.4545">
        <ele>179.908507</ele>
        <time>2022-03-25T17:53:36.454Z</time>
      </trkpt>
      <trkpt lat="43.65656" lon="1.45444">
        <ele>179.866586</ele>
        <time>2022-03-25T17:53:38.455Z</time>
      </trkpt>
      <trkpt lat="43.65643" lon="1.45438">
        <ele>179.82554</ele>
        <time>2022-03-25T17:53:40.460Z</time>
      </trkpt>
      <trkpt lat="43.6563" lon="1.45432">
        <ele>179.798761</ele>
        <time>2022-03-25T17:53:42.448Z</time>
      </trkpt>
      <trkpt lat="43.65617" lon="1.45426">
        <ele>179.790192</ele>
        <time>2022-03-25T17:53:44.445Z</time>
      </trkpt>
      <trkpt lat="43.65604" lon="1.45421">
        <ele>179.781949</ele>
        <time>2022-03-25T17:53:46.461Z</time>
      </trkpt>
      <trkpt lat="43.65591" lon="1.45417">
        <ele>179.773852</ele>
        <time>2022-03-25T17:53:48.460Z</time>
      </trkpt>
      <trkpt lat="43.65579" lon="1.45412">
        <ele>179.766185</ele>
        <time>2022-03-25T17:53:50.458Z</time>
      </trkpt>
      <trkpt lat="43.65568" lon="1.45408">
        <ele>179.758552</ele>
        <time>2022-03-25T17:53:52.452Z</time>
      </trkpt>
      <trkpt lat="43.65556" lon="1.45405">
        <ele>179.750867</ele>
        <time>2022-03-25T17:53:54.455Z</time>
      </trkpt>
      <trkpt lat="43.65544" lon="1.45401">
        <ele>179.743221</ele>
        <time>2022-03-25T17:53:56.450Z</time>
      </trkpt>
      <trkpt lat="43.65532" lon="1.45397">
        <ele>179.735648</ele>
        <time>2022-03-25T17:53:58.445Z</time>
      </trkpt>
      <trkpt lat="43.6552" lon="1.45393">
        <ele>179.727923</ele>
        <time>2022-03-25T17:54:00.446Z</time>
      </trkpt>
      <trkpt lat="43.65508" lon="1.45388">
        <ele>179.720087</ele>
        <time>2022-03-25T17:54:02.466Z</time>
      </trkpt>
      <trkpt lat="43.65496" lon="1.45383">
        <ele>179.712239</ele>
        <time>2022-03-25T17:54:04.446Z</time>
      </trkpt>
      <trkpt lat="43.65484" lon="1.45379">
        <ele>179.704584</ele>
        <time>2022-03-25T17:54:06.445Z</time>
      </trkpt>
      <trkpt lat="43.65473" lon="1.45373">
        <ele>179.697119</ele>
        <time>2022-03-25T17:54:08.453Z</time>
      </trkpt>
      <trkpt lat="43.65461" lon="1.45369">
        <ele>179.691244</ele>
        <time>2022-03-25T17:54:10.447Z</time>
      </trkpt>
      <trkpt lat="43.65451" lon="1.45365">
        <ele>179.704667</ele>
        <time>2022-03-25T17:54:12.449Z</time>
      </trkpt>
      <trkpt lat="43.65441" lon="1.45362">
        <ele>179.715936</ele>
        <time>2022-03-25T17:54:14.439Z</time>
      </trkpt>
      <trkpt lat="43.6544" lon="1.45345">
        <ele>179.730915</ele>
        <time>2022-03-25T17:54:17.451Z</time>
      </trkpt>
      <trkpt lat="43.6545" lon="1.45334">
        <ele>179.745451</ele>
        <time>2022-03-25T17:54:19.459Z</time>
      </trkpt>
      <trkpt lat="43.6546" lon="1.45324">
        <ele>179.760506</ele>
        <time>2022-03-25T17:54:21.456Z</time>
      </trkpt>
      <trkpt lat="43.6547" lon="1.45314">
        <ele>179.775809</ele>
        <time>2022-03-25T17:54:23.461Z</time>
      </trkpt>
      <trkpt lat="43.6548" lon="1.45303">
        <ele>179.790791</ele>
        <time>2022-03-25T17:54:25.457Z</time>
      </trkpt>
      <trkpt lat="43.6549" lon="1.45292">
        <ele>179.805733</ele>
        <time>2022-03-25T17:54:27.453Z</time>
      </trkpt>
      <trkpt lat="43.655" lon="1.45282">
        <ele>179.820234</ele>
        <time>2022-03-25T17:54:29.450Z</time>
      </trkpt>
      <trkpt lat="43.65509" lon="1.45271">
        <ele>179.834735</ele>
        <time>2022-03-25T17:54:31.453Z</time>
      </trkpt>
      <trkpt lat="43.65518" lon="1.45259">
        <ele>179.849533</ele>
        <time>2022-03-25T17:54:33.449Z</time>
      </trkpt>
      <trkpt lat="43.65526" lon="1.45246">
        <ele>179.864455</ele>
        <time>2022-03-25T17:54:35.457Z</time>
      </trkpt>
      <trkpt lat="43.65535" lon="1.45234">
        <ele>179.879604</ele>
        <time>2022-03-25T17:54:37.451Z</time>
      </trkpt>
      <trkpt lat="43.65543" lon="1.4522">
        <ele>179.894647</ele>
        <time>2022-03-25T17:54:39.446Z</time>
      </trkpt>
      <trkpt lat="43.65552" lon="1.45208">
        <ele>179.956509</ele>
        <time>2022-03-25T17:54:41.444Z</time>
      </trkpt>
      <trkpt lat="43.65562" lon="1.45198">
        <ele>180.113541</ele>
        <time>2022-03-25T17:54:43.454Z</time>
      </trkpt>
      <trkpt lat="43.65572" lon="1.45187">
        <ele>180.267186</ele>
        <time>2022-03-25T17:54:45.462Z</time>
      </trkpt>
      <trkpt lat="43.65581" lon="1.45176">
        <ele>180.417061</ele>
        <time>2022-03-25T17:54:47.454Z</time>
      </trkpt>
      <trkpt lat="43.65589" lon="1.45164">
        <ele>180.564145</ele>
        <time>2022-03-25T17:54:49.447Z</time>
      </trkpt>
      <trkpt lat="43.65599" lon="1.45154">
        <ele>180.714599</ele>
        <time>2022-03-25T17:54:51.447Z</time>
      </trkpt>
      <trkpt lat="43.65604" lon="1.45139">
        <ele>180.864405</ele>
        <time>2022-03-25T17:54:53.455Z</time>
      </trkpt>
      <trkpt lat="43.65601" lon="1.45121">
        <ele>181.025526</ele>
        <time>2022-03-25T17:54:55.457Z</time>
      </trkpt>
      <trkpt lat="43.65593" lon="1.45106">
        <ele>181.193789</ele>
        <time>2022-03-25T17:54:57.445Z</time>
      </trkpt>
      <trkpt lat="43.65584" lon="1.45094">
        <ele>181.351872</ele>
        <time>2022-03-25T17:54:59.448Z</time>
      </trkpt>
      <trkpt lat="43.65575" lon="1.45083">
        <ele>181.502033</ele>
        <time>2022-03-25T17:55:01.459Z</time>
      </trkpt>
      <trkpt lat="43.65568" lon="1.45073">
        <ele>181.629499</ele>
        <time>2022-03-25T17:55:03.453Z</time>
      </trkpt>
      <trkpt lat="43.65558" lon="1.45059">
        <ele>181.804688</ele>
        <time>2022-03-25T17:55:06.451Z</time>
      </trkpt>
      <trkpt lat="43.6555" lon="1.45046">
        <ele>181.958714</ele>
        <time>2022-03-25T17:55:08.455Z</time>
      </trkpt>
      <trkpt lat="43.65541" lon="1.45034">
        <ele>182.109918</ele>
        <time>2022-03-25T17:55:10.459Z</time>
      </trkpt>
      <trkpt lat="43.65533" lon="1.45023">
        <ele>182.232661</ele>
        <time>2022-03-25T17:55:12.446Z</time>
      </trkpt>
      <trkpt lat="43.65526" lon="1.45014">
        <ele>182.328465</ele>
        <time>2022-03-25T17:55:14.444Z</time>
      </trkpt>
      <trkpt lat="43.6552" lon="1.45003">
        <ele>182.429732</ele>
        <time>2022-03-25T17:55:16.444Z</time>
      </trkpt>
      <trkpt lat="43.65513" lon="1.44991">
        <ele>182.554796</ele>
        <time>2022-03-25T17:55:18.463Z</time>
      </trkpt>
      <trkpt lat="43.65504" lon="1.44978">
        <ele>182.683827</ele>
        <time>2022-03-25T17:55:20.452Z</time>
      </trkpt>
      <trkpt lat="43.65495" lon="1.44966">
        <ele>182.813442</ele>
        <time>2022-03-25T17:55:22.447Z</time>
      </trkpt>
      <trkpt lat="43.65486" lon="1.44954">
        <ele>182.940153</ele>
        <time>2022-03-25T17:55:24.452Z</time>
      </trkpt>
      <trkpt lat="43.65479" lon="1.44941">
        <ele>183.061354</ele>
        <time>2022-03-25T17:55:26.454Z</time>
      </trkpt>
      <trkpt lat="43.65477" lon="1.44924">
        <ele>183.189481</ele>
        <time>2022-03-25T17:55:28.457Z</time>
      </trkpt>
      <trkpt lat="43.65482" lon="1.44908">
        <ele>183.315672</ele>
        <time>2022-03-25T17:55:30.447Z</time>
      </trkpt>
      <trkpt lat="43.6549" lon="1.44894">
        <ele>183.450087</ele>
        <time>2022-03-25T17:55:32.460Z</time>
      </trkpt>
      <trkpt lat="43.65497" lon="1.4488">
        <ele>183.578463</ele>
        <time>2022-03-25T17:55:34.443Z</time>
      </trkpt>
      <trkpt lat="43.65504" lon="1.44865">
        <ele>183.708757</ele>
        <time>2022-03-25T17:55:36.463Z</time>
      </trkpt>
      <trkpt lat="43.65511" lon="1.4485">
        <ele>183.838564</ele>
        <time>2022-03-25T17:55:38.448Z</time>
      </trkpt>
      <trkpt lat="43.65515" lon="1.44834">
        <ele>183.96488</ele>
        <time>2022-03-25T17:55:40.446Z</time>
      </trkpt>
      <trkpt lat="43.65521" lon="1.44819">
        <ele>183.960401</ele>
        <time>2022-03-25T17:55:42.454Z</time>
      </trkpt>
      <trkpt lat="43.6553" lon="1.44807">
        <ele>183.923957</ele>
        <time>2022-03-25T17:55:44.460Z</time>
      </trkpt>
      <trkpt lat="43.65539" lon="1.44795">
        <ele>183.886466</ele>
        <time>2022-03-25T17:55:46.462Z</time>
      </trkpt>
      <trkpt lat="43.65547" lon="1.44781">
        <ele>183.849285</ele>
        <time>2022-03-25T17:55:48.448Z</time>
      </trkpt>
      <trkpt lat="43.65554" lon="1.44767">
        <ele>183.81177</ele>
        <time>2022-03-25T17:55:50.456Z</time>
      </trkpt>
      <trkpt lat="43.65562" lon="1.44752">
        <ele>183.774612</ele>
        <time>2022-03-25T17:55:52.451Z</time>
      </trkpt>
      <trkpt lat="43.65569" lon="1.44737">
        <ele>183.73677</ele>
        <time>2022-03-25T17:55:54.452Z</time>
      </trkpt>
      <trkpt lat="43.65576" lon="1.44723">
        <ele>183.701137</ele>
        <time>2022-03-25T17:55:56.464Z</time>
      </trkpt>
      <trkpt lat="43.65583" lon="1.44709">
        <ele>183.665167</ele>
        <time>2022-03-25T17:55:58.454Z</time>
      </trkpt>
      <trkpt lat="43.6559" lon="1.44696">
        <ele>183.629715</ele>
        <time>2022-03-25T17:56:00.451Z</time>
      </trkpt>
      <trkpt lat="43.65599" lon="1.44684">
        <ele>183.595451</ele>
        <time>2022-03-25T17:56:02.455Z</time>
      </trkpt>
      <trkpt lat="43.65607" lon="1.44672">
        <ele>183.559872</ele>
        <time>2022-03-25T17:56:04.460Z</time>
      </trkpt>
      <trkpt lat="43.65615" lon="1.4466">
        <ele>183.524246</ele>
        <time>2022-03-25T17:56:06.462Z</time>
      </trkpt>
      <trkpt lat="43.65624" lon="1.4465">
        <ele>183.491571</ele>
        <time>2022-03-25T17:56:08.443Z</time>
      </trkpt>
      <trkpt lat="43.65624" lon="1.44635">
        <ele>183.466095</ele>
        <time>2022-03-25T17:56:10.451Z</time>
      </trkpt>
      <trkpt lat="43.65614" lon="1.44625">
        <ele>183.466095</ele>
        <time>2022-03-25T17:56:12.452Z</time>
      </trkpt>
      <trkpt lat="43.656" lon="1.44621">
        <ele>183.466095</ele>
        <time>2022-03-25T17:56:14.472Z</time>
      </trkpt>
      <trkpt lat="43.65589" lon="1.44613">
        <ele>183.466095</ele>
        <time>2022-03-25T17:56:16.461Z</time>
      </trkpt>
      <trkpt lat="43.6558" lon="1.44607">
        <ele>183.466095</ele>
        <time>2022-03-25T17:56:18.449Z</time>
      </trkpt>
      <trkpt lat="43.65572" lon="1.44615">
        <ele>183.466095</ele>
        <time>2022-03-25T17:56:22.453Z</time>
      </trkpt>
      <trkpt lat="43.65564" lon="1.44608">
        <ele>183.466095</ele>
        <time>2022-03-25T17:56:28.465Z</time>
      </trkpt>
      <trkpt lat="43.65567" lon="1.44592">
        <ele>183.466095</ele>
        <time>2022-03-25T17:57:03.441Z</time>
      </trkpt>
      <trkpt lat="43.65573" lon="1.44582">
        <ele>183.466095</ele>
        <time>2022-03-25T17:57:10.450Z</time>
      </trkpt>
      <trkpt lat="43.65566" lon="1.44573">
        <ele>183.466095</ele>
        <time>2022-03-25T17:57:18.434Z</time>
      </trkpt>
      <trkpt lat="43.65573" lon="1.44581">
        <ele>183.466095</ele>
        <time>2022-03-25T17:57:35.446Z</time>
      </trkpt>
      <trkpt lat="43.65579" lon="1.44585">
        <ele>183.466095</ele>
        <time>2022-03-25T17:58:27.862Z</time>
      </trkpt>
    </trkseg>
  </trk>
</gpx>